<?xml version="1.0" encoding="UTF-8"?>
<gpx version="1.1" creator="2bulu-scraper" xmlns="http://www.topografix.com/GPX/1/1">
  <metadata><name>峨眉山</name><desc>source: 2bulu.com trackId=85957634; exported 2026-09-01T16:29:10.431Z</desc>
    <bounds minlat="29.5211386" minlon="103.3268503" maxlat="29.5741905" maxlon="103.44822"/>
    <link href="https://www.2bulu.com/track/t-bV7BYjKH4hHp%252FR2KBg5Tzw%253D%253D.htm"><text>2bulu 源页面</text></link>
  </metadata>
  <wpt lat="29.5683493" lon="103.4437881"><ele>473</ele><name>
        </name></wpt>
  <wpt lat="29.5705843" lon="103.4414272"><ele>498</ele><name>
        </name></wpt>
  <wpt lat="29.567066" lon="103.4376656"><ele>514</ele><name>
        </name></wpt>
  <wpt lat="29.5655965" lon="103.4343815"><ele>545</ele><name>
        </name></wpt>
  <wpt lat="29.5649858" lon="103.4265956"><ele>614</ele><name>
        </name></wpt>
  <wpt lat="29.5653975" lon="103.4212507"><ele>792</ele><name>
        </name></wpt>
  <wpt lat="29.5666311" lon="103.407835"><ele>776</ele><name>
        </name></wpt>
  <wpt lat="29.5720297" lon="103.4012234"><ele>742</ele><name>
        </name></wpt>
  <wpt lat="29.5720003" lon="103.4009766"><ele>749</ele><name>
        </name></wpt>
  <wpt lat="29.5741865" lon="103.3921304"><ele>661</ele><name>
        </name></wpt>
  <wpt lat="29.5688704" lon="103.3912337"><ele>675</ele><name>
        </name></wpt>
  <wpt lat="29.5603498" lon="103.3893323"><ele>779</ele><name>
        </name></wpt>
  <wpt lat="29.5568913" lon="103.3861093"><ele>801</ele><name>
        </name></wpt>
  <wpt lat="29.5549448" lon="103.3840731"><ele>966</ele><name>洪椿坪
        </name></wpt>
  <wpt lat="29.5550796" lon="103.38367"><ele>967</ele><name>
        </name></wpt>
  <wpt lat="29.5543124" lon="103.3824637"><ele>988</ele><name>
        </name></wpt>
  <wpt lat="29.5540651" lon="103.3812854"><ele>1004</ele><name>
        </name></wpt>
  <wpt lat="29.551854" lon="103.3761619"><ele>1182</ele><name>
        </name></wpt>
  <wpt lat="29.5502301" lon="103.3698394"><ele>1211</ele><name>
        </name></wpt>
  <wpt lat="29.5497668" lon="103.3685134"><ele>1288</ele><name>
        </name></wpt>
  <wpt lat="29.5498149" lon="103.3684109"><ele>1319</ele><name>
        </name></wpt>
  <wpt lat="29.550244" lon="103.3675621"><ele>1368</ele><name>
        </name></wpt>
  <wpt lat="29.5494269" lon="103.3663026"><ele>1456</ele><name>
        </name></wpt>
  <wpt lat="29.5506341" lon="103.3627346"><ele>1546</ele><name>
        </name></wpt>
  <wpt lat="29.5501611" lon="103.3601313"><ele>1619</ele><name>
        </name></wpt>
  <wpt lat="29.5501079" lon="103.3599196"><ele>1622</ele><name>
        </name></wpt>
  <wpt lat="29.5503309" lon="103.3581622"><ele>1680</ele><name>
        </name></wpt>
  <wpt lat="29.5503281" lon="103.3569359"><ele>1702</ele><name>
        </name></wpt>
  <wpt lat="29.5497888" lon="103.3568777"><ele>1703</ele><name>
        </name></wpt>
  <wpt lat="29.5518609" lon="103.3528876"><ele>1626</ele><name>
        </name></wpt>
  <wpt lat="29.5522009" lon="103.3524386"><ele>1604</ele><name>
        </name></wpt>
  <wpt lat="29.5598657" lon="103.3503504"><ele>1541</ele><name>
        </name></wpt>
  <wpt lat="29.5602607" lon="103.3511394"><ele>1596</ele><name>
        </name></wpt>
  <wpt lat="29.560856" lon="103.3514542"><ele>1666</ele><name>
        </name></wpt>
  <wpt lat="29.5624074" lon="103.3521274"><ele>1758</ele><name>
        </name></wpt>
  <wpt lat="29.5614422" lon="103.3453396"><ele>1777</ele><name>
        </name></wpt>
  <wpt lat="29.5596638" lon="103.3436127"><ele>1980</ele><name>
        </name></wpt>
  <wpt lat="29.5588646" lon="103.3443069"><ele>2021</ele><name>
        </name></wpt>
  <wpt lat="29.5471632" lon="103.3404057"><ele>2319</ele><name>
        </name></wpt>
  <wpt lat="29.5390665" lon="103.3329266"><ele>2416</ele><name>
        </name></wpt>
  <wpt lat="29.5350838" lon="103.3331223"><ele>2520</ele><name>
        </name></wpt>
  <wpt lat="29.5335132" lon="103.3328441"><ele>2556</ele><name>
        </name></wpt>
  <wpt lat="29.5323419" lon="103.3312415"><ele>2625</ele><name>
        </name></wpt>
  <wpt lat="29.5321503" lon="103.3302307"><ele>2696</ele><name>
        </name></wpt>
  <wpt lat="29.5315405" lon="103.3299649"><ele>2697</ele><name>
        </name></wpt>
  <wpt lat="29.5282644" lon="103.3306974"><ele>2880</ele><name>
        </name></wpt>
  <wpt lat="29.523146" lon="103.3363002"><ele>3030</ele><name>
        </name></wpt>
  <wpt lat="29.5211773" lon="103.3354416"><ele>2990</ele><name>
        </name></wpt>
  <trk><name>峨眉山</name>
      <trkseg>
        <trkpt lat="29.5692717" lon="103.44822"><ele>489.29</ele><time>2026-06-12T19:07:04.000Z</time></trkpt>
        <trkpt lat="29.5692754" lon="103.4481285"><ele>489.29</ele><time>2026-06-12T19:07:32.000Z</time></trkpt>
        <trkpt lat="29.569253" lon="103.4480252"><ele>482.29</ele><time>2026-06-12T19:07:42.000Z</time></trkpt>
        <trkpt lat="29.569227" lon="103.4479115"><ele>477.75</ele><time>2026-06-12T19:07:52.000Z</time></trkpt>
        <trkpt lat="29.5692009" lon="103.4477971"><ele>474.04</ele><time>2026-06-12T19:08:02.000Z</time></trkpt>
        <trkpt lat="29.5692058" lon="103.4476874"><ele>470.27</ele><time>2026-06-12T19:08:12.000Z</time></trkpt>
        <trkpt lat="29.5691896" lon="103.4475809"><ele>467.46</ele><time>2026-06-12T19:08:22.000Z</time></trkpt>
        <trkpt lat="29.5691654" lon="103.4474592"><ele>465.88</ele><time>2026-06-12T19:08:32.000Z</time></trkpt>
        <trkpt lat="29.5691261" lon="103.4473539"><ele>464.71</ele><time>2026-06-12T19:08:42.000Z</time></trkpt>
        <trkpt lat="29.5690729" lon="103.4472415"><ele>463.78</ele><time>2026-06-12T19:08:53.000Z</time></trkpt>
        <trkpt lat="29.5690255" lon="103.4471379"><ele>463.02</ele><time>2026-06-12T19:09:00.000Z</time></trkpt>
        <trkpt lat="29.5689774" lon="103.4470401"><ele>462.65</ele><time>2026-06-12T19:09:08.000Z</time></trkpt>
        <trkpt lat="29.5689703" lon="103.4469305"><ele>462.29</ele><time>2026-06-12T19:09:16.000Z</time></trkpt>
        <trkpt lat="29.568956" lon="103.4468208"><ele>462.43</ele><time>2026-06-12T19:09:24.000Z</time></trkpt>
        <trkpt lat="29.5689192" lon="103.4467072"><ele>462.35</ele><time>2026-06-12T19:09:34.000Z</time></trkpt>
        <trkpt lat="29.5688901" lon="103.4465821"><ele>462.55</ele><time>2026-06-12T19:09:44.000Z</time></trkpt>
        <trkpt lat="29.568877" lon="103.4464578"><ele>462.7</ele><time>2026-06-12T19:09:52.000Z</time></trkpt>
        <trkpt lat="29.5688338" lon="103.4463465"><ele>463.85</ele><time>2026-06-12T19:10:02.000Z</time></trkpt>
        <trkpt lat="29.5687999" lon="103.446229"><ele>463.73</ele><time>2026-06-12T19:10:12.000Z</time></trkpt>
        <trkpt lat="29.5687683" lon="103.4461178"><ele>464.85</ele><time>2026-06-12T19:10:22.000Z</time></trkpt>
        <trkpt lat="29.5687474" lon="103.4460123"><ele>465.95</ele><time>2026-06-12T19:10:32.000Z</time></trkpt>
        <trkpt lat="29.5687169" lon="103.4459002"><ele>465.77</ele><time>2026-06-12T19:10:42.000Z</time></trkpt>
        <trkpt lat="29.5686958" lon="103.4457779"><ele>464.98</ele><time>2026-06-12T19:10:52.000Z</time></trkpt>
        <trkpt lat="29.5686585" lon="103.4456644"><ele>464.97</ele><time>2026-06-12T19:11:00.000Z</time></trkpt>
        <trkpt lat="29.5686245" lon="103.44556"><ele>464.94</ele><time>2026-06-12T19:11:08.000Z</time></trkpt>
        <trkpt lat="29.568593" lon="103.4454508"><ele>465.57</ele><time>2026-06-12T19:11:18.000Z</time></trkpt>
        <trkpt lat="29.5685727" lon="103.4453457"><ele>466.77</ele><time>2026-06-12T19:11:26.000Z</time></trkpt>
        <trkpt lat="29.5685648" lon="103.4452292"><ele>467.94</ele><time>2026-06-12T19:11:34.000Z</time></trkpt>
        <trkpt lat="29.5685296" lon="103.4451261"><ele>468</ele><time>2026-06-12T19:11:42.000Z</time></trkpt>
        <trkpt lat="29.5685061" lon="103.445008"><ele>468.14</ele><time>2026-06-12T19:11:52.000Z</time></trkpt>
        <trkpt lat="29.568472" lon="103.444888"><ele>469.05</ele><time>2026-06-12T19:12:02.000Z</time></trkpt>
        <trkpt lat="29.5684375" lon="103.4447768"><ele>471.71</ele><time>2026-06-12T19:12:10.000Z</time></trkpt>
        <trkpt lat="29.568411" lon="103.4446607"><ele>472.79</ele><time>2026-06-12T19:12:20.000Z</time></trkpt>
        <trkpt lat="29.5683838" lon="103.4445532"><ele>471.82</ele><time>2026-06-12T19:12:30.000Z</time></trkpt>
        <trkpt lat="29.5683523" lon="103.4444434"><ele>470.94</ele><time>2026-06-12T19:12:38.000Z</time></trkpt>
        <trkpt lat="29.5683214" lon="103.4443409"><ele>470.72</ele><time>2026-06-12T19:12:46.000Z</time></trkpt>
        <trkpt lat="29.5682846" lon="103.444243"><ele>470.64</ele><time>2026-06-12T19:12:54.000Z</time></trkpt>
        <trkpt lat="29.5682855" lon="103.4441361"><ele>470.12</ele><time>2026-06-12T19:13:02.000Z</time></trkpt>
        <trkpt lat="29.5683029" lon="103.4440316"><ele>470.3</ele><time>2026-06-12T19:13:10.000Z</time></trkpt>
        <trkpt lat="29.5683252" lon="103.4439066"><ele>471.38</ele><time>2026-06-12T19:13:19.000Z</time></trkpt>
        <trkpt lat="29.5683493" lon="103.4437881"><ele>472.06</ele><time>2026-06-12T19:13:27.000Z</time></trkpt>
        <trkpt lat="29.5683605" lon="103.4436644"><ele>472.99</ele><time>2026-06-12T19:13:37.000Z</time></trkpt>
        <trkpt lat="29.5683887" lon="103.4435441"><ele>473.79</ele><time>2026-06-12T19:13:47.000Z</time></trkpt>
        <trkpt lat="29.5684005" lon="103.4434334"><ele>474.83</ele><time>2026-06-12T19:13:55.000Z</time></trkpt>
        <trkpt lat="29.5684377" lon="103.4433181"><ele>475.75</ele><time>2026-06-12T19:14:05.000Z</time></trkpt>
        <trkpt lat="29.56851" lon="103.4432475"><ele>476.78</ele><time>2026-06-12T19:14:15.000Z</time></trkpt>
        <trkpt lat="29.5686089" lon="103.4432152"><ele>477.02</ele><time>2026-06-12T19:14:25.000Z</time></trkpt>
        <trkpt lat="29.5686848" lon="103.4431491"><ele>476.98</ele><time>2026-06-12T19:14:33.000Z</time></trkpt>
        <trkpt lat="29.5687037" lon="103.4431289"><ele>476.75</ele><time>2026-06-12T19:14:35.000Z</time></trkpt>
        <trkpt lat="29.5687231" lon="103.443047"><ele>476.59</ele><time>2026-06-12T19:14:47.000Z</time></trkpt>
        <trkpt lat="29.5687318" lon="103.4430013"><ele>476.65</ele><time>2026-06-12T19:14:53.000Z</time></trkpt>
        <trkpt lat="29.5688102" lon="103.443009"><ele>477.1</ele><time>2026-06-12T19:15:05.000Z</time></trkpt>
        <trkpt lat="29.5688857" lon="103.4430029"><ele>476.63</ele><time>2026-06-12T19:15:13.000Z</time></trkpt>
        <trkpt lat="29.5689751" lon="103.4429983"><ele>476.68</ele><time>2026-06-12T19:15:29.000Z</time></trkpt>
        <trkpt lat="29.5690708" lon="103.4430267"><ele>478.04</ele><time>2026-06-12T19:15:37.000Z</time></trkpt>
        <trkpt lat="29.5691113" lon="103.4431113"><ele>478.77</ele><time>2026-06-12T19:15:47.000Z</time></trkpt>
        <trkpt lat="29.5691825" lon="103.4431139"><ele>478.5</ele><time>2026-06-12T19:16:13.000Z</time></trkpt>
        <trkpt lat="29.569274" lon="103.4430863"><ele>478.99</ele><time>2026-06-12T19:16:23.000Z</time></trkpt>
        <trkpt lat="29.5693677" lon="103.4430699"><ele>479.02</ele><time>2026-06-12T19:16:31.000Z</time></trkpt>
        <trkpt lat="29.569328" lon="103.4430393"><ele>479.22</ele><time>2026-06-12T19:17:11.000Z</time></trkpt>
        <trkpt lat="29.569241" lon="103.4429948"><ele>478.74</ele><time>2026-06-12T19:17:17.000Z</time></trkpt>
        <trkpt lat="29.5691228" lon="103.4429836"><ele>477.88</ele><time>2026-06-12T19:17:25.000Z</time></trkpt>
        <trkpt lat="29.5689973" lon="103.4430034"><ele>476.57</ele><time>2026-06-12T19:17:33.000Z</time></trkpt>
        <trkpt lat="29.5688834" lon="103.4430179"><ele>477.1</ele><time>2026-06-12T19:17:41.000Z</time></trkpt>
        <trkpt lat="29.5687992" lon="103.442976"><ele>477.04</ele><time>2026-06-12T19:17:51.000Z</time></trkpt>
        <trkpt lat="29.5687873" lon="103.4428813"><ele>476.04</ele><time>2026-06-12T19:17:59.000Z</time></trkpt>
        <trkpt lat="29.5688145" lon="103.4427536"><ele>475.49</ele><time>2026-06-12T19:18:10.000Z</time></trkpt>
        <trkpt lat="29.5688491" lon="103.4426265"><ele>475.13</ele><time>2026-06-12T19:18:18.000Z</time></trkpt>
        <trkpt lat="29.5688784" lon="103.4424975"><ele>475.66</ele><time>2026-06-12T19:18:28.000Z</time></trkpt>
        <trkpt lat="29.5688869" lon="103.4424018"><ele>475.65</ele><time>2026-06-12T19:18:35.000Z</time></trkpt>
        <trkpt lat="29.5688998" lon="103.4422964"><ele>476.83</ele><time>2026-06-12T19:18:41.000Z</time></trkpt>
        <trkpt lat="29.5689268" lon="103.4421963"><ele>479.64</ele><time>2026-06-12T19:18:49.000Z</time></trkpt>
        <trkpt lat="29.56896" lon="103.4420952"><ele>481.61</ele><time>2026-06-12T19:18:57.000Z</time></trkpt>
        <trkpt lat="29.568991" lon="103.4419605"><ele>483.24</ele><time>2026-06-12T19:19:08.000Z</time></trkpt>
        <trkpt lat="29.5690203" lon="103.441844"><ele>488.06</ele><time>2026-06-12T19:19:18.000Z</time></trkpt>
        <trkpt lat="29.5690407" lon="103.4417336"><ele>488.92</ele><time>2026-06-12T19:19:26.000Z</time></trkpt>
        <trkpt lat="29.5690414" lon="103.4416268"><ele>489.52</ele><time>2026-06-12T19:19:37.000Z</time></trkpt>
        <trkpt lat="29.5690694" lon="103.4415109"><ele>489.91</ele><time>2026-06-12T19:19:45.000Z</time></trkpt>
        <trkpt lat="29.5690838" lon="103.4413874"><ele>490.73</ele><time>2026-06-12T19:19:53.000Z</time></trkpt>
        <trkpt lat="29.5690982" lon="103.4412684"><ele>491.57</ele><time>2026-06-12T19:20:04.000Z</time></trkpt>
        <trkpt lat="29.5691118" lon="103.4411532"><ele>491.92</ele><time>2026-06-12T19:20:14.000Z</time></trkpt>
        <trkpt lat="29.5691342" lon="103.4410449"><ele>491.59</ele><time>2026-06-12T19:20:22.000Z</time></trkpt>
        <trkpt lat="29.5692079" lon="103.4409628"><ele>491.67</ele><time>2026-06-12T19:20:33.000Z</time></trkpt>
        <trkpt lat="29.5693048" lon="103.4409315"><ele>492.4</ele><time>2026-06-12T19:20:42.000Z</time></trkpt>
        <trkpt lat="29.5694074" lon="103.4409494"><ele>492.75</ele><time>2026-06-12T19:20:52.000Z</time></trkpt>
        <trkpt lat="29.5695139" lon="103.4409651"><ele>492.97</ele><time>2026-06-12T19:21:02.000Z</time></trkpt>
        <trkpt lat="29.5696207" lon="103.4409672"><ele>493.34</ele><time>2026-06-12T19:21:12.000Z</time></trkpt>
        <trkpt lat="29.5697288" lon="103.4409801"><ele>493.34</ele><time>2026-06-12T19:21:22.000Z</time></trkpt>
        <trkpt lat="29.5698351" lon="103.4410041"><ele>494.59</ele><time>2026-06-12T19:21:32.000Z</time></trkpt>
        <trkpt lat="29.569937" lon="103.4410443"><ele>496.76</ele><time>2026-06-12T19:21:42.000Z</time></trkpt>
        <trkpt lat="29.5700265" lon="103.4410978"><ele>498.89</ele><time>2026-06-12T19:21:50.000Z</time></trkpt>
        <trkpt lat="29.5701078" lon="103.4411618"><ele>499.89</ele><time>2026-06-12T19:21:58.000Z</time></trkpt>
        <trkpt lat="29.5701843" lon="103.4412219"><ele>499.96</ele><time>2026-06-12T19:22:06.000Z</time></trkpt>
        <trkpt lat="29.5702495" lon="103.4413034"><ele>500.23</ele><time>2026-06-12T19:22:16.000Z</time></trkpt>
        <trkpt lat="29.5703351" lon="103.4413592"><ele>501.26</ele><time>2026-06-12T19:22:24.000Z</time></trkpt>
        <trkpt lat="29.5704106" lon="103.4413728"><ele>501.61</ele><time>2026-06-12T19:22:38.000Z</time></trkpt>
        <trkpt lat="29.5704926" lon="103.4414227"><ele>500.53</ele><time>2026-06-12T19:22:56.000Z</time></trkpt>
        <trkpt lat="29.5705843" lon="103.4414272"><ele>499.1</ele><time>2026-06-12T19:23:07.000Z</time></trkpt>
        <trkpt lat="29.5705843" lon="103.4414272"><ele>499.1</ele><time>2026-06-12T19:24:15.000Z</time></trkpt>
        <trkpt lat="29.5705843" lon="103.4414272"><ele>499.1</ele><time>2026-06-12T19:24:28.000Z</time></trkpt>
        <trkpt lat="29.5705843" lon="103.4414272"><ele>499.1</ele><time>2026-06-12T19:24:37.000Z</time></trkpt>
        <trkpt lat="29.5704892" lon="103.4414294"><ele>499.3</ele><time>2026-06-12T19:24:38.000Z</time></trkpt>
        <trkpt lat="29.5704892" lon="103.4414294"><ele>499.3</ele><time>2026-06-12T19:25:20.000Z</time></trkpt>
        <trkpt lat="29.5703977" lon="103.441379"><ele>498.89</ele><time>2026-06-12T19:25:34.000Z</time></trkpt>
        <trkpt lat="29.570335" lon="103.441335"><ele>498.51</ele><time>2026-06-12T19:25:42.000Z</time></trkpt>
        <trkpt lat="29.5702628" lon="103.4412696"><ele>497.68</ele><time>2026-06-12T19:26:02.000Z</time></trkpt>
        <trkpt lat="29.5701798" lon="103.4412176"><ele>497.2</ele><time>2026-06-12T19:26:12.000Z</time></trkpt>
        <trkpt lat="29.5701638" lon="103.4412109"><ele>497.01</ele><time>2026-06-12T19:26:16.000Z</time></trkpt>
        <trkpt lat="29.5701057" lon="103.4411716"><ele>496.85</ele><time>2026-06-12T19:26:26.000Z</time></trkpt>
        <trkpt lat="29.5700639" lon="103.4411344"><ele>496.39</ele><time>2026-06-12T19:26:32.000Z</time></trkpt>
        <trkpt lat="29.5699814" lon="103.4410706"><ele>495.82</ele><time>2026-06-12T19:26:45.000Z</time></trkpt>
        <trkpt lat="29.569895" lon="103.4410179"><ele>496.74</ele><time>2026-06-12T19:26:51.000Z</time></trkpt>
        <trkpt lat="29.5697943" lon="103.4409744"><ele>497</ele><time>2026-06-12T19:26:59.000Z</time></trkpt>
        <trkpt lat="29.5696947" lon="103.4409687"><ele>497.43</ele><time>2026-06-12T19:27:07.000Z</time></trkpt>
        <trkpt lat="29.5695965" lon="103.4409511"><ele>497.67</ele><time>2026-06-12T19:27:16.000Z</time></trkpt>
        <trkpt lat="29.5694816" lon="103.4409303"><ele>498.54</ele><time>2026-06-12T19:27:25.000Z</time></trkpt>
        <trkpt lat="29.5693737" lon="103.4409306"><ele>498.78</ele><time>2026-06-12T19:27:33.000Z</time></trkpt>
        <trkpt lat="29.5692729" lon="103.4409264"><ele>498.39</ele><time>2026-06-12T19:27:41.000Z</time></trkpt>
        <trkpt lat="29.569174" lon="103.4409289"><ele>497.52</ele><time>2026-06-12T19:27:49.000Z</time></trkpt>
        <trkpt lat="29.5690858" lon="103.4408854"><ele>496.19</ele><time>2026-06-12T19:27:59.000Z</time></trkpt>
        <trkpt lat="29.5690451" lon="103.4407899"><ele>495.22</ele><time>2026-06-12T19:28:07.000Z</time></trkpt>
        <trkpt lat="29.5690231" lon="103.4406786"><ele>494.54</ele><time>2026-06-12T19:28:15.000Z</time></trkpt>
        <trkpt lat="29.5690096" lon="103.4405514"><ele>494.74</ele><time>2026-06-12T19:28:27.000Z</time></trkpt>
        <trkpt lat="29.5690111" lon="103.4404369"><ele>495.46</ele><time>2026-06-12T19:28:35.000Z</time></trkpt>
        <trkpt lat="29.5690072" lon="103.4403226"><ele>496.54</ele><time>2026-06-12T19:28:45.000Z</time></trkpt>
        <trkpt lat="29.5689838" lon="103.4402117"><ele>497.44</ele><time>2026-06-12T19:28:53.000Z</time></trkpt>
        <trkpt lat="29.5689283" lon="103.4401259"><ele>497.33</ele><time>2026-06-12T19:29:01.000Z</time></trkpt>
        <trkpt lat="29.5688459" lon="103.4400378"><ele>497.76</ele><time>2026-06-12T19:29:11.000Z</time></trkpt>
        <trkpt lat="29.5687799" lon="103.4399487"><ele>498.8</ele><time>2026-06-12T19:29:19.000Z</time></trkpt>
        <trkpt lat="29.5687283" lon="103.4398514"><ele>499.54</ele><time>2026-06-12T19:29:29.000Z</time></trkpt>
        <trkpt lat="29.5686757" lon="103.4397429"><ele>500.21</ele><time>2026-06-12T19:29:39.000Z</time></trkpt>
        <trkpt lat="29.5686177" lon="103.4396455"><ele>499.07</ele><time>2026-06-12T19:29:47.000Z</time></trkpt>
        <trkpt lat="29.5685453" lon="103.4395556"><ele>499.54</ele><time>2026-06-12T19:29:55.000Z</time></trkpt>
        <trkpt lat="29.568475" lon="103.4394654"><ele>500.76</ele><time>2026-06-12T19:30:03.000Z</time></trkpt>
        <trkpt lat="29.5683879" lon="103.4393953"><ele>503.03</ele><time>2026-06-12T19:30:11.000Z</time></trkpt>
        <trkpt lat="29.5683022" lon="103.4393267"><ele>504.85</ele><time>2026-06-12T19:30:19.000Z</time></trkpt>
        <trkpt lat="29.5682161" lon="103.4392547"><ele>505.61</ele><time>2026-06-12T19:30:27.000Z</time></trkpt>
        <trkpt lat="29.5681318" lon="103.4391781"><ele>507.05</ele><time>2026-06-12T19:30:35.000Z</time></trkpt>
        <trkpt lat="29.5680633" lon="103.439095"><ele>508.48</ele><time>2026-06-12T19:30:43.000Z</time></trkpt>
        <trkpt lat="29.5680049" lon="103.4390114"><ele>508.8</ele><time>2026-06-12T19:30:51.000Z</time></trkpt>
        <trkpt lat="29.5679505" lon="103.4389208"><ele>508.1</ele><time>2026-06-12T19:30:59.000Z</time></trkpt>
        <trkpt lat="29.5678976" lon="103.4388292"><ele>507.85</ele><time>2026-06-12T19:31:07.000Z</time></trkpt>
        <trkpt lat="29.56783" lon="103.4387502"><ele>509.03</ele><time>2026-06-12T19:31:15.000Z</time></trkpt>
        <trkpt lat="29.5677611" lon="103.4386627"><ele>510.3</ele><time>2026-06-12T19:31:23.000Z</time></trkpt>
        <trkpt lat="29.5676925" lon="103.4385746"><ele>510.72</ele><time>2026-06-12T19:31:31.000Z</time></trkpt>
        <trkpt lat="29.5676206" lon="103.4384817"><ele>510.52</ele><time>2026-06-12T19:31:41.000Z</time></trkpt>
        <trkpt lat="29.5675521" lon="103.4383847"><ele>510.39</ele><time>2026-06-12T19:31:51.000Z</time></trkpt>
        <trkpt lat="29.5674747" lon="103.4382897"><ele>510.46</ele><time>2026-06-12T19:32:01.000Z</time></trkpt>
        <trkpt lat="29.5674067" lon="103.438188"><ele>510.53</ele><time>2026-06-12T19:32:11.000Z</time></trkpt>
        <trkpt lat="29.5673397" lon="103.4381061"><ele>510.97</ele><time>2026-06-12T19:32:19.000Z</time></trkpt>
        <trkpt lat="29.5672843" lon="103.4380121"><ele>511.28</ele><time>2026-06-12T19:32:29.000Z</time></trkpt>
        <trkpt lat="29.5672301" lon="103.4379221"><ele>511.77</ele><time>2026-06-12T19:32:39.000Z</time></trkpt>
        <trkpt lat="29.5671842" lon="103.4378318"><ele>512.67</ele><time>2026-06-12T19:32:47.000Z</time></trkpt>
        <trkpt lat="29.5671249" lon="103.4377497"><ele>512.33</ele><time>2026-06-12T19:32:55.000Z</time></trkpt>
        <trkpt lat="29.567066" lon="103.4376656"><ele>512.56</ele><time>2026-06-12T19:33:03.000Z</time></trkpt>
        <trkpt lat="29.5670046" lon="103.4375574"><ele>513.06</ele><time>2026-06-12T19:33:13.000Z</time></trkpt>
        <trkpt lat="29.5669433" lon="103.437452"><ele>514.1</ele><time>2026-06-12T19:33:23.000Z</time></trkpt>
        <trkpt lat="29.5668758" lon="103.4373477"><ele>515.31</ele><time>2026-06-12T19:33:33.000Z</time></trkpt>
        <trkpt lat="29.5668196" lon="103.4372522"><ele>517.58</ele><time>2026-06-12T19:33:41.000Z</time></trkpt>
        <trkpt lat="29.5667755" lon="103.4371597"><ele>519.68</ele><time>2026-06-12T19:33:49.000Z</time></trkpt>
        <trkpt lat="29.5667303" lon="103.4370698"><ele>521.07</ele><time>2026-06-12T19:33:57.000Z</time></trkpt>
        <trkpt lat="29.5666836" lon="103.4369822"><ele>521.92</ele><time>2026-06-12T19:34:05.000Z</time></trkpt>
        <trkpt lat="29.5666215" lon="103.4368949"><ele>522.39</ele><time>2026-06-12T19:34:15.000Z</time></trkpt>
        <trkpt lat="29.5665642" lon="103.4367936"><ele>522.87</ele><time>2026-06-12T19:34:23.000Z</time></trkpt>
        <trkpt lat="29.5665148" lon="103.4366955"><ele>523.05</ele><time>2026-06-12T19:34:31.000Z</time></trkpt>
        <trkpt lat="29.5664635" lon="103.4365941"><ele>523.34</ele><time>2026-06-12T19:34:39.000Z</time></trkpt>
        <trkpt lat="29.5664098" lon="103.4365002"><ele>524.06</ele><time>2026-06-12T19:34:47.000Z</time></trkpt>
        <trkpt lat="29.5663693" lon="103.4364051"><ele>526.29</ele><time>2026-06-12T19:34:55.000Z</time></trkpt>
        <trkpt lat="29.5663356" lon="103.4363006"><ele>527.9</ele><time>2026-06-12T19:35:03.000Z</time></trkpt>
        <trkpt lat="29.5662994" lon="103.4361976"><ele>528.91</ele><time>2026-06-12T19:35:11.000Z</time></trkpt>
        <trkpt lat="29.566259" lon="103.4360962"><ele>529.83</ele><time>2026-06-12T19:35:19.000Z</time></trkpt>
        <trkpt lat="29.5662068" lon="103.4359891"><ele>531.97</ele><time>2026-06-12T19:35:27.000Z</time></trkpt>
        <trkpt lat="29.5661741" lon="103.4358704"><ele>533.44</ele><time>2026-06-12T19:35:37.000Z</time></trkpt>
        <trkpt lat="29.5661408" lon="103.4357663"><ele>534</ele><time>2026-06-12T19:35:45.000Z</time></trkpt>
        <trkpt lat="29.5661144" lon="103.4356651"><ele>533.29</ele><time>2026-06-12T19:35:53.000Z</time></trkpt>
        <trkpt lat="29.5660764" lon="103.4355549"><ele>532.04</ele><time>2026-06-12T19:36:03.000Z</time></trkpt>
        <trkpt lat="29.5660378" lon="103.4354551"><ele>532.27</ele><time>2026-06-12T19:36:11.000Z</time></trkpt>
        <trkpt lat="29.5660049" lon="103.435351"><ele>532.88</ele><time>2026-06-12T19:36:19.000Z</time></trkpt>
        <trkpt lat="29.5659802" lon="103.4352484"><ele>533.8</ele><time>2026-06-12T19:36:27.000Z</time></trkpt>
        <trkpt lat="29.565952" lon="103.4351393"><ele>532.98</ele><time>2026-06-12T19:36:37.000Z</time></trkpt>
        <trkpt lat="29.5659032" lon="103.4350336"><ele>532.99</ele><time>2026-06-12T19:36:49.000Z</time></trkpt>
        <trkpt lat="29.5658366" lon="103.4349353"><ele>533.86</ele><time>2026-06-12T19:36:59.000Z</time></trkpt>
        <trkpt lat="29.5657497" lon="103.4348606"><ele>537.5</ele><time>2026-06-12T19:37:09.000Z</time></trkpt>
        <trkpt lat="29.5656487" lon="103.4348042"><ele>539.91</ele><time>2026-06-12T19:37:19.000Z</time></trkpt>
        <trkpt lat="29.5655713" lon="103.4347156"><ele>542.88</ele><time>2026-06-12T19:37:29.000Z</time></trkpt>
        <trkpt lat="29.5655404" lon="103.4346127"><ele>544.45</ele><time>2026-06-12T19:37:37.000Z</time></trkpt>
        <trkpt lat="29.5655556" lon="103.4344987"><ele>545.9</ele><time>2026-06-12T19:37:47.000Z</time></trkpt>
        <trkpt lat="29.5655965" lon="103.4343815"><ele>545.79</ele><time>2026-06-12T19:37:57.000Z</time></trkpt>
        <trkpt lat="29.56567" lon="103.4342906"><ele>545.64</ele><time>2026-06-12T19:38:07.000Z</time></trkpt>
        <trkpt lat="29.5657444" lon="103.4342094"><ele>546.11</ele><time>2026-06-12T19:38:17.000Z</time></trkpt>
        <trkpt lat="29.5657709" lon="103.4341062"><ele>547.41</ele><time>2026-06-12T19:38:27.000Z</time></trkpt>
        <trkpt lat="29.5657686" lon="103.4339983"><ele>548.54</ele><time>2026-06-12T19:38:37.000Z</time></trkpt>
        <trkpt lat="29.5657641" lon="103.4338925"><ele>550.46</ele><time>2026-06-12T19:38:47.000Z</time></trkpt>
        <trkpt lat="29.5657379" lon="103.4337924"><ele>551.44</ele><time>2026-06-12T19:38:57.000Z</time></trkpt>
        <trkpt lat="29.5657442" lon="103.4336924"><ele>552.76</ele><time>2026-06-12T19:39:05.000Z</time></trkpt>
        <trkpt lat="29.5657544" lon="103.4335859"><ele>553.35</ele><time>2026-06-12T19:39:13.000Z</time></trkpt>
        <trkpt lat="29.5657419" lon="103.4334777"><ele>552.64</ele><time>2026-06-12T19:39:21.000Z</time></trkpt>
        <trkpt lat="29.5657449" lon="103.4333642"><ele>553.56</ele><time>2026-06-12T19:39:29.000Z</time></trkpt>
        <trkpt lat="29.5657322" lon="103.4332496"><ele>554.62</ele><time>2026-06-12T19:39:37.000Z</time></trkpt>
        <trkpt lat="29.5657158" lon="103.433142"><ele>554.64</ele><time>2026-06-12T19:39:45.000Z</time></trkpt>
        <trkpt lat="29.5657028" lon="103.4330383"><ele>554.36</ele><time>2026-06-12T19:39:53.000Z</time></trkpt>
        <trkpt lat="29.5656721" lon="103.4329311"><ele>554.33</ele><time>2026-06-12T19:40:01.000Z</time></trkpt>
        <trkpt lat="29.56563" lon="103.4328244"><ele>554.44</ele><time>2026-06-12T19:40:09.000Z</time></trkpt>
        <trkpt lat="29.5655753" lon="103.4327326"><ele>555.06</ele><time>2026-06-12T19:40:17.000Z</time></trkpt>
        <trkpt lat="29.5655389" lon="103.432624"><ele>555.43</ele><time>2026-06-12T19:40:25.000Z</time></trkpt>
        <trkpt lat="29.5655144" lon="103.4325119"><ele>555.55</ele><time>2026-06-12T19:40:33.000Z</time></trkpt>
        <trkpt lat="29.565484" lon="103.4324089"><ele>555.71</ele><time>2026-06-12T19:40:41.000Z</time></trkpt>
        <trkpt lat="29.5654506" lon="103.4323052"><ele>555.54</ele><time>2026-06-12T19:40:49.000Z</time></trkpt>
        <trkpt lat="29.5654365" lon="103.4321903"><ele>556.2</ele><time>2026-06-12T19:40:59.000Z</time></trkpt>
        <trkpt lat="29.5653924" lon="103.4320894"><ele>555.94</ele><time>2026-06-12T19:41:07.000Z</time></trkpt>
        <trkpt lat="29.5653441" lon="103.4319809"><ele>556.69</ele><time>2026-06-12T19:41:17.000Z</time></trkpt>
        <trkpt lat="29.5653306" lon="103.4318631"><ele>557.33</ele><time>2026-06-12T19:41:27.000Z</time></trkpt>
        <trkpt lat="29.5653573" lon="103.4317474"><ele>558.21</ele><time>2026-06-12T19:41:37.000Z</time></trkpt>
        <trkpt lat="29.5654026" lon="103.4316365"><ele>560.4</ele><time>2026-06-12T19:41:47.000Z</time></trkpt>
        <trkpt lat="29.5654579" lon="103.4315301"><ele>560.95</ele><time>2026-06-12T19:41:57.000Z</time></trkpt>
        <trkpt lat="29.5654933" lon="103.4314217"><ele>563.23</ele><time>2026-06-12T19:42:07.000Z</time></trkpt>
        <trkpt lat="29.5655062" lon="103.4313141"><ele>565.05</ele><time>2026-06-12T19:42:17.000Z</time></trkpt>
        <trkpt lat="29.5655239" lon="103.4312116"><ele>568.05</ele><time>2026-06-12T19:42:29.000Z</time></trkpt>
        <trkpt lat="29.5655335" lon="103.4311069"><ele>568.17</ele><time>2026-06-12T19:42:37.000Z</time></trkpt>
        <trkpt lat="29.5655369" lon="103.4310715"><ele>568.54</ele><time>2026-06-12T19:42:41.000Z</time></trkpt>
        <trkpt lat="29.5655408" lon="103.4309877"><ele>571.15</ele><time>2026-06-12T19:42:55.000Z</time></trkpt>
        <trkpt lat="29.5654794" lon="103.4309068"><ele>571.93</ele><time>2026-06-12T19:43:05.000Z</time></trkpt>
        <trkpt lat="29.5653975" lon="103.4308251"><ele>574.27</ele><time>2026-06-12T19:43:13.000Z</time></trkpt>
        <trkpt lat="29.5653671" lon="103.430719"><ele>576.4</ele><time>2026-06-12T19:43:21.000Z</time></trkpt>
        <trkpt lat="29.5653587" lon="103.4305968"><ele>578.17</ele><time>2026-06-12T19:43:31.000Z</time></trkpt>
        <trkpt lat="29.5653191" lon="103.4304949"><ele>579.93</ele><time>2026-06-12T19:43:43.000Z</time></trkpt>
        <trkpt lat="29.5652909" lon="103.4303907"><ele>581.21</ele><time>2026-06-12T19:43:55.000Z</time></trkpt>
        <trkpt lat="29.5652859" lon="103.4302777"><ele>583</ele><time>2026-06-12T19:44:05.000Z</time></trkpt>
        <trkpt lat="29.5652849" lon="103.4301522"><ele>584.19</ele><time>2026-06-12T19:44:19.000Z</time></trkpt>
        <trkpt lat="29.5652711" lon="103.4300282"><ele>584.46</ele><time>2026-06-12T19:44:27.000Z</time></trkpt>
        <trkpt lat="29.5652452" lon="103.4299219"><ele>583.68</ele><time>2026-06-12T19:44:35.000Z</time></trkpt>
        <trkpt lat="29.5652072" lon="103.429823"><ele>583.18</ele><time>2026-06-12T19:44:43.000Z</time></trkpt>
        <trkpt lat="29.5651635" lon="103.4297233"><ele>584.41</ele><time>2026-06-12T19:44:51.000Z</time></trkpt>
        <trkpt lat="29.565131" lon="103.4296226"><ele>586.25</ele><time>2026-06-12T19:44:59.000Z</time></trkpt>
        <trkpt lat="29.5650787" lon="103.4295269"><ele>588.09</ele><time>2026-06-12T19:45:07.000Z</time></trkpt>
        <trkpt lat="29.5650248" lon="103.4294346"><ele>590.08</ele><time>2026-06-12T19:45:15.000Z</time></trkpt>
        <trkpt lat="29.5649671" lon="103.4293468"><ele>591.3</ele><time>2026-06-12T19:45:23.000Z</time></trkpt>
        <trkpt lat="29.5649353" lon="103.4292353"><ele>591.77</ele><time>2026-06-12T19:45:31.000Z</time></trkpt>
        <trkpt lat="29.5649056" lon="103.4291162"><ele>591.53</ele><time>2026-06-12T19:45:39.000Z</time></trkpt>
        <trkpt lat="29.5648902" lon="103.4289932"><ele>591.15</ele><time>2026-06-12T19:45:47.000Z</time></trkpt>
        <trkpt lat="29.5648654" lon="103.4288773"><ele>592.21</ele><time>2026-06-12T19:45:55.000Z</time></trkpt>
        <trkpt lat="29.5648326" lon="103.4287662"><ele>593.68</ele><time>2026-06-12T19:46:03.000Z</time></trkpt>
        <trkpt lat="29.5648236" lon="103.4286495"><ele>595.33</ele><time>2026-06-12T19:46:11.000Z</time></trkpt>
        <trkpt lat="29.564821" lon="103.4285301"><ele>596.38</ele><time>2026-06-12T19:46:19.000Z</time></trkpt>
        <trkpt lat="29.5648505" lon="103.428424"><ele>597.66</ele><time>2026-06-12T19:46:27.000Z</time></trkpt>
        <trkpt lat="29.5649331" lon="103.4283618"><ele>598.43</ele><time>2026-06-12T19:46:35.000Z</time></trkpt>
        <trkpt lat="29.565035" lon="103.4283255"><ele>598.57</ele><time>2026-06-12T19:46:43.000Z</time></trkpt>
        <trkpt lat="29.5651293" lon="103.4282806"><ele>599.24</ele><time>2026-06-12T19:46:51.000Z</time></trkpt>
        <trkpt lat="29.5652224" lon="103.4282315"><ele>600.45</ele><time>2026-06-12T19:46:59.000Z</time></trkpt>
        <trkpt lat="29.5653049" lon="103.4281757"><ele>601.61</ele><time>2026-06-12T19:47:07.000Z</time></trkpt>
        <trkpt lat="29.5653912" lon="103.4281008"><ele>602.6</ele><time>2026-06-12T19:47:17.000Z</time></trkpt>
        <trkpt lat="29.5654553" lon="103.4279979"><ele>604.78</ele><time>2026-06-12T19:47:25.000Z</time></trkpt>
        <trkpt lat="29.5654838" lon="103.4278848"><ele>605.95</ele><time>2026-06-12T19:47:33.000Z</time></trkpt>
        <trkpt lat="29.5654652" lon="103.4277729"><ele>606.79</ele><time>2026-06-12T19:47:41.000Z</time></trkpt>
        <trkpt lat="29.5654443" lon="103.4276554"><ele>607.49</ele><time>2026-06-12T19:47:51.000Z</time></trkpt>
        <trkpt lat="29.5654143" lon="103.4275455"><ele>608.99</ele><time>2026-06-12T19:47:59.000Z</time></trkpt>
        <trkpt lat="29.5653856" lon="103.4274268"><ele>609.06</ele><time>2026-06-12T19:48:09.000Z</time></trkpt>
        <trkpt lat="29.5653608" lon="103.4273179"><ele>606.87</ele><time>2026-06-12T19:48:17.000Z</time></trkpt>
        <trkpt lat="29.5653143" lon="103.4272256"><ele>604.74</ele><time>2026-06-12T19:48:25.000Z</time></trkpt>
        <trkpt lat="29.5652813" lon="103.4271247"><ele>603.39</ele><time>2026-06-12T19:48:35.000Z</time></trkpt>
        <trkpt lat="29.5652143" lon="103.4270435"><ele>601.61</ele><time>2026-06-12T19:48:45.000Z</time></trkpt>
        <trkpt lat="29.5651399" lon="103.4269732"><ele>604.4</ele><time>2026-06-12T19:48:53.000Z</time></trkpt>
        <trkpt lat="29.5650569" lon="103.4269208"><ele>603.7</ele><time>2026-06-12T19:49:01.000Z</time></trkpt>
        <trkpt lat="29.5649725" lon="103.4268783"><ele>605.15</ele><time>2026-06-12T19:49:09.000Z</time></trkpt>
        <trkpt lat="29.5649303" lon="103.4267957"><ele>607.39</ele><time>2026-06-12T19:49:17.000Z</time></trkpt>
        <trkpt lat="29.5649432" lon="103.4266945"><ele>609.64</ele><time>2026-06-12T19:49:31.000Z</time></trkpt>
        <trkpt lat="29.5649858" lon="103.4265956"><ele>611.25</ele><time>2026-06-12T19:49:52.000Z</time></trkpt>
        <trkpt lat="29.5650362" lon="103.4264887"><ele>615</ele><time>2026-06-12T19:50:18.000Z</time></trkpt>
        <trkpt lat="29.5650605" lon="103.4263819"><ele>618.37</ele><time>2026-06-12T19:50:36.000Z</time></trkpt>
        <trkpt lat="29.5650864" lon="103.4262731"><ele>622.78</ele><time>2026-06-12T19:51:00.000Z</time></trkpt>
        <trkpt lat="29.5651222" lon="103.4261732"><ele>627.64</ele><time>2026-06-12T19:51:38.000Z</time></trkpt>
        <trkpt lat="29.565155" lon="103.4260642"><ele>630.61</ele><time>2026-06-12T19:51:54.000Z</time></trkpt>
        <trkpt lat="29.5651462" lon="103.4259491"><ele>634.56</ele><time>2026-06-12T19:52:22.000Z</time></trkpt>
        <trkpt lat="29.5651302" lon="103.4258421"><ele>636.63</ele><time>2026-06-12T19:52:38.000Z</time></trkpt>
        <trkpt lat="29.5651703" lon="103.4257567"><ele>641.01</ele><time>2026-06-12T19:52:52.000Z</time></trkpt>
        <trkpt lat="29.5651499" lon="103.4256716"><ele>645.18</ele><time>2026-06-12T19:53:06.000Z</time></trkpt>
        <trkpt lat="29.5650993" lon="103.425583"><ele>648.63</ele><time>2026-06-12T19:53:22.000Z</time></trkpt>
        <trkpt lat="29.5650435" lon="103.425481"><ele>651.76</ele><time>2026-06-12T19:53:30.000Z</time></trkpt>
        <trkpt lat="29.5649727" lon="103.4254052"><ele>653.86</ele><time>2026-06-12T19:53:40.000Z</time></trkpt>
        <trkpt lat="29.5648976" lon="103.4253184"><ele>655.16</ele><time>2026-06-12T19:53:52.000Z</time></trkpt>
        <trkpt lat="29.5648311" lon="103.4252312"><ele>655.64</ele><time>2026-06-12T19:54:02.000Z</time></trkpt>
        <trkpt lat="29.564762" lon="103.4251555"><ele>655</ele><time>2026-06-12T19:54:12.000Z</time></trkpt>
        <trkpt lat="29.564823" lon="103.4251246"><ele>655.67</ele><time>2026-06-12T19:54:19.000Z</time></trkpt>
        <trkpt lat="29.564815" lon="103.4250376"><ele>664.24</ele><time>2026-06-12T19:54:35.000Z</time></trkpt>
        <trkpt lat="29.5647726" lon="103.4249453"><ele>666.4</ele><time>2026-06-12T19:54:49.000Z</time></trkpt>
        <trkpt lat="29.5647214" lon="103.4248505"><ele>668.46</ele><time>2026-06-12T19:55:03.000Z</time></trkpt>
        <trkpt lat="29.5646984" lon="103.4247447"><ele>670.07</ele><time>2026-06-12T19:55:19.000Z</time></trkpt>
        <trkpt lat="29.5646979" lon="103.4246353"><ele>671.18</ele><time>2026-06-12T19:55:31.000Z</time></trkpt>
        <trkpt lat="29.5647054" lon="103.424523"><ele>670.67</ele><time>2026-06-12T19:55:47.000Z</time></trkpt>
        <trkpt lat="29.564656" lon="103.4244383"><ele>670.19</ele><time>2026-06-12T19:56:03.000Z</time></trkpt>
        <trkpt lat="29.5646511" lon="103.4243417"><ele>671.77</ele><time>2026-06-12T19:56:17.000Z</time></trkpt>
        <trkpt lat="29.5646182" lon="103.4242436"><ele>673.19</ele><time>2026-06-12T19:56:45.000Z</time></trkpt>
        <trkpt lat="29.5646037" lon="103.424214"><ele>676.25</ele><time>2026-06-12T19:56:47.000Z</time></trkpt>
        <trkpt lat="29.5645384" lon="103.4241656"><ele>678.36</ele><time>2026-06-12T19:57:19.000Z</time></trkpt>
        <trkpt lat="29.564521" lon="103.4241448"><ele>678.03</ele><time>2026-06-12T19:57:21.000Z</time></trkpt>
        <trkpt lat="29.5645117" lon="103.4240607"><ele>677.68</ele><time>2026-06-12T19:57:39.000Z</time></trkpt>
        <trkpt lat="29.5644467" lon="103.4239926"><ele>679.23</ele><time>2026-06-12T19:57:57.000Z</time></trkpt>
        <trkpt lat="29.5644649" lon="103.4239055"><ele>683.25</ele><time>2026-06-12T19:58:09.000Z</time></trkpt>
        <trkpt lat="29.5644472" lon="103.4237951"><ele>688.15</ele><time>2026-06-12T19:58:34.000Z</time></trkpt>
        <trkpt lat="29.5644132" lon="103.4236874"><ele>698.94</ele><time>2026-06-12T19:58:50.000Z</time></trkpt>
        <trkpt lat="29.5644351" lon="103.4235844"><ele>704.7</ele><time>2026-06-12T19:59:04.000Z</time></trkpt>
        <trkpt lat="29.5644656" lon="103.4234753"><ele>708.97</ele><time>2026-06-12T19:59:20.000Z</time></trkpt>
        <trkpt lat="29.564503" lon="103.4233753"><ele>712.29</ele><time>2026-06-12T19:59:36.000Z</time></trkpt>
        <trkpt lat="29.5644979" lon="103.4232698"><ele>713.66</ele><time>2026-06-12T19:59:50.000Z</time></trkpt>
        <trkpt lat="29.5644482" lon="103.423184"><ele>716.27</ele><time>2026-06-12T20:00:10.000Z</time></trkpt>
        <trkpt lat="29.5644313" lon="103.4230861"><ele>718.37</ele><time>2026-06-12T20:00:32.000Z</time></trkpt>
        <trkpt lat="29.5644134" lon="103.4229837"><ele>724.03</ele><time>2026-06-12T20:00:48.000Z</time></trkpt>
        <trkpt lat="29.5644593" lon="103.4228984"><ele>728.38</ele><time>2026-06-12T20:01:02.000Z</time></trkpt>
        <trkpt lat="29.5644702" lon="103.4227998"><ele>730.14</ele><time>2026-06-12T20:01:30.000Z</time></trkpt>
        <trkpt lat="29.5644425" lon="103.4226997"><ele>732.67</ele><time>2026-06-12T20:01:44.000Z</time></trkpt>
        <trkpt lat="29.5644454" lon="103.4225944"><ele>734.06</ele><time>2026-06-12T20:01:56.000Z</time></trkpt>
        <trkpt lat="29.5644111" lon="103.4224968"><ele>733.79</ele><time>2026-06-12T20:02:20.000Z</time></trkpt>
        <trkpt lat="29.5644013" lon="103.4223952"><ele>734.48</ele><time>2026-06-12T20:02:34.000Z</time></trkpt>
        <trkpt lat="29.5644069" lon="103.4222802"><ele>736.17</ele><time>2026-06-12T20:03:08.000Z</time></trkpt>
        <trkpt lat="29.5644069" lon="103.4222802"><ele>736.17</ele><time>2026-06-12T20:03:31.000Z</time></trkpt>
        <trkpt lat="29.5643805" lon="103.4221768"><ele>740.38</ele><time>2026-06-12T20:03:44.000Z</time></trkpt>
        <trkpt lat="29.5643805" lon="103.4221768"><ele>740.38</ele><time>2026-06-12T20:04:01.000Z</time></trkpt>
        <trkpt lat="29.5643602" lon="103.4220606"><ele>745.19</ele><time>2026-06-12T20:04:15.000Z</time></trkpt>
        <trkpt lat="29.5643639" lon="103.4219475"><ele>744.36</ele><time>2026-06-12T20:04:31.000Z</time></trkpt>
        <trkpt lat="29.5643639" lon="103.4219475"><ele>744.36</ele><time>2026-06-12T20:04:53.000Z</time></trkpt>
        <trkpt lat="29.5644659" lon="103.4219701"><ele>745.74</ele><time>2026-06-12T20:05:04.000Z</time></trkpt>
        <trkpt lat="29.5644659" lon="103.4219701"><ele>745.74</ele><time>2026-06-12T20:05:09.000Z</time></trkpt>
        <trkpt lat="29.5644871" lon="103.421898"><ele>749.1</ele><time>2026-06-12T20:05:13.000Z</time></trkpt>
        <trkpt lat="29.5644679" lon="103.4218034"><ele>752.65</ele><time>2026-06-12T20:05:21.000Z</time></trkpt>
        <trkpt lat="29.5644184" lon="103.421711"><ele>754.15</ele><time>2026-06-12T20:05:35.000Z</time></trkpt>
        <trkpt lat="29.5644184" lon="103.421711"><ele>754.15</ele><time>2026-06-12T20:06:17.000Z</time></trkpt>
        <trkpt lat="29.5643252" lon="103.421634"><ele>756.42</ele><time>2026-06-12T20:06:42.000Z</time></trkpt>
        <trkpt lat="29.5643252" lon="103.421634"><ele>756.42</ele><time>2026-06-12T20:07:01.000Z</time></trkpt>
        <trkpt lat="29.5643209" lon="103.4215231"><ele>760.72</ele><time>2026-06-12T20:07:17.000Z</time></trkpt>
        <trkpt lat="29.5643026" lon="103.421412"><ele>763.39</ele><time>2026-06-12T20:07:31.000Z</time></trkpt>
        <trkpt lat="29.5643562" lon="103.4213389"><ele>764.8</ele><time>2026-06-12T20:07:47.000Z</time></trkpt>
        <trkpt lat="29.5644431" lon="103.4212905"><ele>767.14</ele><time>2026-06-12T20:07:59.000Z</time></trkpt>
        <trkpt lat="29.5645268" lon="103.4212295"><ele>768.12</ele><time>2026-06-12T20:08:11.000Z</time></trkpt>
        <trkpt lat="29.5646139" lon="103.4211613"><ele>772.7</ele><time>2026-06-12T20:08:23.000Z</time></trkpt>
        <trkpt lat="29.5647123" lon="103.421159"><ele>777.81</ele><time>2026-06-12T20:08:45.000Z</time></trkpt>
        <trkpt lat="29.564791" lon="103.4212184"><ele>783.4</ele><time>2026-06-12T20:08:55.000Z</time></trkpt>
        <trkpt lat="29.5648663" lon="103.4213005"><ele>785.78</ele><time>2026-06-12T20:09:19.000Z</time></trkpt>
        <trkpt lat="29.5648663" lon="103.4213005"><ele>785.78</ele><time>2026-06-12T20:09:31.000Z</time></trkpt>
        <trkpt lat="29.5649441" lon="103.4213681"><ele>785.02</ele><time>2026-06-12T20:09:32.000Z</time></trkpt>
        <trkpt lat="29.5649441" lon="103.4213681"><ele>785.02</ele><time>2026-06-12T20:10:02.000Z</time></trkpt>
        <trkpt lat="29.5650381" lon="103.4213665"><ele>786.99</ele><time>2026-06-12T20:10:16.000Z</time></trkpt>
        <trkpt lat="29.5651308" lon="103.4213442"><ele>787.36</ele><time>2026-06-12T20:10:26.000Z</time></trkpt>
        <trkpt lat="29.5651308" lon="103.4213442"><ele>787.36</ele><time>2026-06-12T20:10:41.000Z</time></trkpt>
        <trkpt lat="29.5652353" lon="103.4213231"><ele>785.67</ele><time>2026-06-12T20:11:14.000Z</time></trkpt>
        <trkpt lat="29.5652353" lon="103.4213231"><ele>785.67</ele><time>2026-06-12T20:11:15.000Z</time></trkpt>
        <trkpt lat="29.5652353" lon="103.4213231"><ele>785.67</ele><time>2026-06-12T20:11:27.000Z</time></trkpt>
        <trkpt lat="29.5652353" lon="103.4213231"><ele>785.67</ele><time>2026-06-12T20:11:34.000Z</time></trkpt>
        <trkpt lat="29.5652353" lon="103.4213231"><ele>785.67</ele><time>2026-06-12T20:11:43.000Z</time></trkpt>
        <trkpt lat="29.5652353" lon="103.4213231"><ele>785.67</ele><time>2026-06-12T20:11:48.000Z</time></trkpt>
        <trkpt lat="29.5652353" lon="103.4213231"><ele>785.67</ele><time>2026-06-12T20:11:59.000Z</time></trkpt>
        <trkpt lat="29.5652923" lon="103.4212246"><ele>788.73</ele><time>2026-06-12T20:12:00.000Z</time></trkpt>
        <trkpt lat="29.5652923" lon="103.4212246"><ele>788.73</ele><time>2026-06-12T20:12:51.000Z</time></trkpt>
        <trkpt lat="29.5653975" lon="103.4212507"><ele>789.49</ele><time>2026-06-12T20:13:18.000Z</time></trkpt>
        <trkpt lat="29.5654283" lon="103.4212529"><ele>792.76</ele><time>2026-06-12T20:13:24.000Z</time></trkpt>
        <trkpt lat="29.5654525" lon="103.4211744"><ele>794.43</ele><time>2026-06-12T20:14:18.000Z</time></trkpt>
        <trkpt lat="29.5655286" lon="103.4211167"><ele>796.36</ele><time>2026-06-12T20:14:28.000Z</time></trkpt>
        <trkpt lat="29.5656277" lon="103.4210716"><ele>797.65</ele><time>2026-06-12T20:14:38.000Z</time></trkpt>
        <trkpt lat="29.5657379" lon="103.4210663"><ele>799.54</ele><time>2026-06-12T20:14:48.000Z</time></trkpt>
        <trkpt lat="29.5658478" lon="103.4210781"><ele>799.76</ele><time>2026-06-12T20:14:58.000Z</time></trkpt>
        <trkpt lat="29.5659507" lon="103.4210809"><ele>800.27</ele><time>2026-06-12T20:15:08.000Z</time></trkpt>
        <trkpt lat="29.566053" lon="103.4210828"><ele>801.94</ele><time>2026-06-12T20:15:24.000Z</time></trkpt>
        <trkpt lat="29.5661478" lon="103.4210767"><ele>803.58</ele><time>2026-06-12T20:15:36.000Z</time></trkpt>
        <trkpt lat="29.5662196" lon="103.4210064"><ele>806.99</ele><time>2026-06-12T20:15:50.000Z</time></trkpt>
        <trkpt lat="29.5662539" lon="103.420895"><ele>810.32</ele><time>2026-06-12T20:16:02.000Z</time></trkpt>
        <trkpt lat="29.566281" lon="103.4207702"><ele>813.1</ele><time>2026-06-12T20:16:12.000Z</time></trkpt>
        <trkpt lat="29.5663127" lon="103.4206426"><ele>813.74</ele><time>2026-06-12T20:16:22.000Z</time></trkpt>
        <trkpt lat="29.5662514" lon="103.4205597"><ele>813.5</ele><time>2026-06-12T20:16:44.000Z</time></trkpt>
        <trkpt lat="29.5661823" lon="103.4204613"><ele>802.67</ele><time>2026-06-12T20:16:52.000Z</time></trkpt>
        <trkpt lat="29.5661581" lon="103.420359"><ele>786.09</ele><time>2026-06-12T20:16:58.000Z</time></trkpt>
        <trkpt lat="29.5661643" lon="103.4202467"><ele>775.51</ele><time>2026-06-12T20:17:06.000Z</time></trkpt>
        <trkpt lat="29.5661857" lon="103.4201298"><ele>767.9</ele><time>2026-06-12T20:17:16.000Z</time></trkpt>
        <trkpt lat="29.566218" lon="103.4200163"><ele>762.63</ele><time>2026-06-12T20:17:26.000Z</time></trkpt>
        <trkpt lat="29.5665664" lon="103.4198958"><ele>761.15</ele><time>2026-06-12T20:17:34.000Z</time></trkpt>
        <trkpt lat="29.5667261" lon="103.4198242"><ele>778.56</ele><time>2026-06-12T20:17:46.000Z</time></trkpt>
        <trkpt lat="29.5668331" lon="103.4198192"><ele>790.26</ele><time>2026-06-12T20:18:20.000Z</time></trkpt>
        <trkpt lat="29.5669147" lon="103.419866"><ele>799.72</ele><time>2026-06-12T20:18:38.000Z</time></trkpt>
        <trkpt lat="29.5669769" lon="103.4199445"><ele>807.08</ele><time>2026-06-12T20:18:56.000Z</time></trkpt>
        <trkpt lat="29.5670227" lon="103.4200517"><ele>813.37</ele><time>2026-06-12T20:19:16.000Z</time></trkpt>
        <trkpt lat="29.5670409" lon="103.4201669"><ele>819.07</ele><time>2026-06-12T20:19:30.000Z</time></trkpt>
        <trkpt lat="29.5670455" lon="103.4202568"><ele>823.73</ele><time>2026-06-12T20:19:36.000Z</time></trkpt>
        <trkpt lat="29.5670455" lon="103.4202568"><ele>823.73</ele><time>2026-06-12T20:19:47.000Z</time></trkpt>
        <trkpt lat="29.5670693" lon="103.4203538"><ele>825.68</ele><time>2026-06-12T20:19:50.000Z</time></trkpt>
        <trkpt lat="29.5670693" lon="103.4203538"><ele>825.68</ele><time>2026-06-12T20:20:10.000Z</time></trkpt>
        <trkpt lat="29.5671093" lon="103.4204546"><ele>826</ele><time>2026-06-12T20:20:20.000Z</time></trkpt>
        <trkpt lat="29.5671435" lon="103.42056"><ele>826.22</ele><time>2026-06-12T20:20:28.000Z</time></trkpt>
        <trkpt lat="29.5672019" lon="103.4206711"><ele>827.75</ele><time>2026-06-12T20:20:36.000Z</time></trkpt>
        <trkpt lat="29.567235" lon="103.420793"><ele>826.71</ele><time>2026-06-12T20:20:44.000Z</time></trkpt>
        <trkpt lat="29.567242" lon="103.4209102"><ele>824.55</ele><time>2026-06-12T20:20:52.000Z</time></trkpt>
        <trkpt lat="29.5672418" lon="103.4209397"><ele>823.73</ele><time>2026-06-12T20:20:54.000Z</time></trkpt>
        <trkpt lat="29.5672418" lon="103.4209397"><ele>823.73</ele><time>2026-06-12T20:21:03.000Z</time></trkpt>
        <trkpt lat="29.5672459" lon="103.4210185"><ele>821.84</ele><time>2026-06-12T20:21:08.000Z</time></trkpt>
        <trkpt lat="29.5672459" lon="103.4210185"><ele>821.84</ele><time>2026-06-12T20:21:20.000Z</time></trkpt>
        <trkpt lat="29.5672757" lon="103.4211112"><ele>821.28</ele><time>2026-06-12T20:21:30.000Z</time></trkpt>
        <trkpt lat="29.567304" lon="103.4212184"><ele>821.28</ele><time>2026-06-12T20:21:38.000Z</time></trkpt>
        <trkpt lat="29.5673311" lon="103.4213236"><ele>820.67</ele><time>2026-06-12T20:21:44.000Z</time></trkpt>
        <trkpt lat="29.5673154" lon="103.4214465"><ele>820.28</ele><time>2026-06-12T20:21:52.000Z</time></trkpt>
        <trkpt lat="29.5673104" lon="103.4215625"><ele>821.92</ele><time>2026-06-12T20:22:00.000Z</time></trkpt>
        <trkpt lat="29.5673477" lon="103.4216703"><ele>822.85</ele><time>2026-06-12T20:22:08.000Z</time></trkpt>
        <trkpt lat="29.5674048" lon="103.4217591"><ele>822.65</ele><time>2026-06-12T20:22:16.000Z</time></trkpt>
        <trkpt lat="29.5675056" lon="103.4217826"><ele>821.31</ele><time>2026-06-12T20:22:26.000Z</time></trkpt>
        <trkpt lat="29.5676098" lon="103.4217842"><ele>820.8</ele><time>2026-06-12T20:22:36.000Z</time></trkpt>
        <trkpt lat="29.5677085" lon="103.4217706"><ele>821.89</ele><time>2026-06-12T20:22:46.000Z</time></trkpt>
        <trkpt lat="29.5678038" lon="103.421766"><ele>823.66</ele><time>2026-06-12T20:22:56.000Z</time></trkpt>
        <trkpt lat="29.567902" lon="103.4217679"><ele>825.83</ele><time>2026-06-12T20:23:06.000Z</time></trkpt>
        <trkpt lat="29.5679994" lon="103.4218043"><ele>827.75</ele><time>2026-06-12T20:23:16.000Z</time></trkpt>
        <trkpt lat="29.568089" lon="103.4218405"><ele>830.02</ele><time>2026-06-12T20:23:28.000Z</time></trkpt>
        <trkpt lat="29.5680606" lon="103.421778"><ele>830</ele><time>2026-06-12T20:23:54.000Z</time></trkpt>
        <trkpt lat="29.5679779" lon="103.4217057"><ele>829.6</ele><time>2026-06-12T20:24:04.000Z</time></trkpt>
        <trkpt lat="29.5678763" lon="103.4216262"><ele>831.31</ele><time>2026-06-12T20:24:14.000Z</time></trkpt>
        <trkpt lat="29.5678962" lon="103.4215515"><ele>832.5</ele><time>2026-06-12T20:24:26.000Z</time></trkpt>
        <trkpt lat="29.5679868" lon="103.4215324"><ele>834.25</ele><time>2026-06-12T20:24:42.000Z</time></trkpt>
        <trkpt lat="29.5679789" lon="103.421464"><ele>837.36</ele><time>2026-06-12T20:25:20.000Z</time></trkpt>
        <trkpt lat="29.5679292" lon="103.421384"><ele>841.58</ele><time>2026-06-12T20:25:34.000Z</time></trkpt>
        <trkpt lat="29.5678566" lon="103.4213016"><ele>844.68</ele><time>2026-06-12T20:25:46.000Z</time></trkpt>
        <trkpt lat="29.5677825" lon="103.4212204"><ele>846.81</ele><time>2026-06-12T20:25:56.000Z</time></trkpt>
        <trkpt lat="29.5677148" lon="103.4211359"><ele>847.73</ele><time>2026-06-12T20:26:06.000Z</time></trkpt>
        <trkpt lat="29.567666" lon="103.4210238"><ele>848.89</ele><time>2026-06-12T20:26:16.000Z</time></trkpt>
        <trkpt lat="29.5676517" lon="103.4209032"><ele>850.05</ele><time>2026-06-12T20:26:26.000Z</time></trkpt>
        <trkpt lat="29.5676592" lon="103.4207768"><ele>851.85</ele><time>2026-06-12T20:26:36.000Z</time></trkpt>
        <trkpt lat="29.5676819" lon="103.42065"><ele>853.33</ele><time>2026-06-12T20:26:46.000Z</time></trkpt>
        <trkpt lat="29.5677203" lon="103.4205315"><ele>854.76</ele><time>2026-06-12T20:26:54.000Z</time></trkpt>
        <trkpt lat="29.5677508" lon="103.4204165"><ele>855.08</ele><time>2026-06-12T20:27:02.000Z</time></trkpt>
        <trkpt lat="29.5677947" lon="103.4203021"><ele>855.32</ele><time>2026-06-12T20:27:12.000Z</time></trkpt>
        <trkpt lat="29.5678325" lon="103.4201923"><ele>855.77</ele><time>2026-06-12T20:27:22.000Z</time></trkpt>
        <trkpt lat="29.5679151" lon="103.4201453"><ele>856.04</ele><time>2026-06-12T20:27:38.000Z</time></trkpt>
        <trkpt lat="29.5680023" lon="103.4200957"><ele>857.8</ele><time>2026-06-12T20:28:01.000Z</time></trkpt>
        <trkpt lat="29.5680944" lon="103.4200608"><ele>861.98</ele><time>2026-06-12T20:28:29.000Z</time></trkpt>
        <trkpt lat="29.5681903" lon="103.4200582"><ele>865.18</ele><time>2026-06-12T20:28:51.000Z</time></trkpt>
        <trkpt lat="29.5682848" lon="103.4200534"><ele>867.61</ele><time>2026-06-12T20:29:17.000Z</time></trkpt>
        <trkpt lat="29.5682848" lon="103.4200534"><ele>867.61</ele><time>2026-06-12T20:29:57.000Z</time></trkpt>
        <trkpt lat="29.5682848" lon="103.4200534"><ele>867.61</ele><time>2026-06-12T20:30:04.000Z</time></trkpt>
        <trkpt lat="29.5682848" lon="103.4200534"><ele>867.61</ele><time>2026-06-12T20:30:13.000Z</time></trkpt>
        <trkpt lat="29.5683807" lon="103.4200442"><ele>870.26</ele><time>2026-06-12T20:30:16.000Z</time></trkpt>
        <trkpt lat="29.5683807" lon="103.4200442"><ele>870.26</ele><time>2026-06-12T20:30:36.000Z</time></trkpt>
        <trkpt lat="29.5684761" lon="103.4200293"><ele>874.21</ele><time>2026-06-12T20:30:58.000Z</time></trkpt>
        <trkpt lat="29.5685026" lon="103.4200217"><ele>879.4</ele><time>2026-06-12T20:31:02.000Z</time></trkpt>
        <trkpt lat="29.5685026" lon="103.4200217"><ele>879.4</ele><time>2026-06-12T20:31:35.000Z</time></trkpt>
        <trkpt lat="29.5685798" lon="103.4200195"><ele>882.73</ele><time>2026-06-12T20:31:36.000Z</time></trkpt>
        <trkpt lat="29.5685798" lon="103.4200195"><ele>882.73</ele><time>2026-06-12T20:31:41.000Z</time></trkpt>
        <trkpt lat="29.5686736" lon="103.4200028"><ele>886.45</ele><time>2026-06-12T20:31:59.000Z</time></trkpt>
        <trkpt lat="29.5687736" lon="103.419979"><ele>889.95</ele><time>2026-06-12T20:32:11.000Z</time></trkpt>
        <trkpt lat="29.5688696" lon="103.4199156"><ele>893.9</ele><time>2026-06-12T20:32:29.000Z</time></trkpt>
        <trkpt lat="29.5689648" lon="103.419861"><ele>896.92</ele><time>2026-06-12T20:32:37.000Z</time></trkpt>
        <trkpt lat="29.5690641" lon="103.4198219"><ele>898.62</ele><time>2026-06-12T20:32:45.000Z</time></trkpt>
        <trkpt lat="29.5691614" lon="103.4197988"><ele>899.75</ele><time>2026-06-12T20:32:53.000Z</time></trkpt>
        <trkpt lat="29.5692528" lon="103.4197603"><ele>901.18</ele><time>2026-06-12T20:33:01.000Z</time></trkpt>
        <trkpt lat="29.5693443" lon="103.4197288"><ele>902.3</ele><time>2026-06-12T20:33:07.000Z</time></trkpt>
        <trkpt lat="29.5694301" lon="103.4196771"><ele>900.31</ele><time>2026-06-12T20:33:15.000Z</time></trkpt>
        <trkpt lat="29.5695143" lon="103.4195994"><ele>896.69</ele><time>2026-06-12T20:33:25.000Z</time></trkpt>
        <trkpt lat="29.5695931" lon="103.4195003"><ele>894.16</ele><time>2026-06-12T20:33:35.000Z</time></trkpt>
        <trkpt lat="29.5696549" lon="103.4193997"><ele>893.87</ele><time>2026-06-12T20:33:45.000Z</time></trkpt>
        <trkpt lat="29.5697416" lon="103.4194178"><ele>893.57</ele><time>2026-06-12T20:33:53.000Z</time></trkpt>
        <trkpt lat="29.5698279" lon="103.4194693"><ele>892.05</ele><time>2026-06-12T20:34:01.000Z</time></trkpt>
        <trkpt lat="29.5699175" lon="103.4195272"><ele>888.72</ele><time>2026-06-12T20:34:13.000Z</time></trkpt>
        <trkpt lat="29.5699517" lon="103.4195625"><ele>887.61</ele><time>2026-06-12T20:34:19.000Z</time></trkpt>
        <trkpt lat="29.5698943" lon="103.4195337"><ele>886.2</ele><time>2026-06-12T20:35:03.000Z</time></trkpt>
        <trkpt lat="29.5697886" lon="103.41949"><ele>886.98</ele><time>2026-06-12T20:35:31.000Z</time></trkpt>
        <trkpt lat="29.5696831" lon="103.4194459"><ele>886.4</ele><time>2026-06-12T20:35:39.000Z</time></trkpt>
        <trkpt lat="29.5696702" lon="103.4193474"><ele>887.56</ele><time>2026-06-12T20:35:53.000Z</time></trkpt>
        <trkpt lat="29.5697125" lon="103.4192439"><ele>889.25</ele><time>2026-06-12T20:36:03.000Z</time></trkpt>
        <trkpt lat="29.5697313" lon="103.4191286"><ele>892.22</ele><time>2026-06-12T20:36:13.000Z</time></trkpt>
        <trkpt lat="29.5697405" lon="103.4190023"><ele>893.19</ele><time>2026-06-12T20:36:23.000Z</time></trkpt>
        <trkpt lat="29.5697449" lon="103.4188762"><ele>894.34</ele><time>2026-06-12T20:36:33.000Z</time></trkpt>
        <trkpt lat="29.5697536" lon="103.4187638"><ele>894.74</ele><time>2026-06-12T20:36:41.000Z</time></trkpt>
        <trkpt lat="29.5697801" lon="103.4186459"><ele>895.35</ele><time>2026-06-12T20:36:51.000Z</time></trkpt>
        <trkpt lat="29.5698102" lon="103.4185307"><ele>894.34</ele><time>2026-06-12T20:36:59.000Z</time></trkpt>
        <trkpt lat="29.56984" lon="103.4184215"><ele>893.57</ele><time>2026-06-12T20:37:07.000Z</time></trkpt>
        <trkpt lat="29.5698528" lon="103.4183151"><ele>893.63</ele><time>2026-06-12T20:37:15.000Z</time></trkpt>
        <trkpt lat="29.569873" lon="103.4182137"><ele>892.99</ele><time>2026-06-12T20:37:23.000Z</time></trkpt>
        <trkpt lat="29.5699066" lon="103.4181015"><ele>893.14</ele><time>2026-06-12T20:37:33.000Z</time></trkpt>
        <trkpt lat="29.5699586" lon="103.4179894"><ele>894.11</ele><time>2026-06-12T20:37:43.000Z</time></trkpt>
        <trkpt lat="29.5699996" lon="103.4178682"><ele>895.33</ele><time>2026-06-12T20:37:51.000Z</time></trkpt>
        <trkpt lat="29.5700239" lon="103.4177364"><ele>896.06</ele><time>2026-06-12T20:37:59.000Z</time></trkpt>
        <trkpt lat="29.5700289" lon="103.4176069"><ele>893.78</ele><time>2026-06-12T20:38:07.000Z</time></trkpt>
        <trkpt lat="29.570033" lon="103.4174882"><ele>890.59</ele><time>2026-06-12T20:38:15.000Z</time></trkpt>
        <trkpt lat="29.5700524" lon="103.4173753"><ele>888.47</ele><time>2026-06-12T20:38:23.000Z</time></trkpt>
        <trkpt lat="29.5700761" lon="103.4172683"><ele>886.63</ele><time>2026-06-12T20:38:31.000Z</time></trkpt>
        <trkpt lat="29.5701177" lon="103.417175"><ele>885.68</ele><time>2026-06-12T20:38:39.000Z</time></trkpt>
        <trkpt lat="29.5701967" lon="103.4171093"><ele>886.66</ele><time>2026-06-12T20:38:49.000Z</time></trkpt>
        <trkpt lat="29.5702988" lon="103.4170603"><ele>886.7</ele><time>2026-06-12T20:38:59.000Z</time></trkpt>
        <trkpt lat="29.5703552" lon="103.4169606"><ele>885.2</ele><time>2026-06-12T20:39:09.000Z</time></trkpt>
        <trkpt lat="29.5703642" lon="103.4168388"><ele>884.75</ele><time>2026-06-12T20:39:17.000Z</time></trkpt>
        <trkpt lat="29.5703726" lon="103.4167146"><ele>885.04</ele><time>2026-06-12T20:39:27.000Z</time></trkpt>
        <trkpt lat="29.5703712" lon="103.4165788"><ele>885.05</ele><time>2026-06-12T20:39:35.000Z</time></trkpt>
        <trkpt lat="29.5703667" lon="103.4164586"><ele>882.65</ele><time>2026-06-12T20:39:43.000Z</time></trkpt>
        <trkpt lat="29.5703731" lon="103.4163442"><ele>879.33</ele><time>2026-06-12T20:39:55.000Z</time></trkpt>
        <trkpt lat="29.5703903" lon="103.4162332"><ele>879.52</ele><time>2026-06-12T20:40:05.000Z</time></trkpt>
        <trkpt lat="29.5704648" lon="103.4161739"><ele>879.45</ele><time>2026-06-12T20:40:13.000Z</time></trkpt>
        <trkpt lat="29.5705525" lon="103.4161101"><ele>879.86</ele><time>2026-06-12T20:40:23.000Z</time></trkpt>
        <trkpt lat="29.5706339" lon="103.4160468"><ele>880.23</ele><time>2026-06-12T20:40:35.000Z</time></trkpt>
        <trkpt lat="29.5707188" lon="103.4159842"><ele>878.22</ele><time>2026-06-12T20:40:53.000Z</time></trkpt>
        <trkpt lat="29.5707012" lon="103.4159073"><ele>880.51</ele><time>2026-06-12T20:41:09.000Z</time></trkpt>
        <trkpt lat="29.570629" lon="103.4158333"><ele>883.31</ele><time>2026-06-12T20:41:21.000Z</time></trkpt>
        <trkpt lat="29.5705276" lon="103.415774"><ele>884.92</ele><time>2026-06-12T20:41:46.000Z</time></trkpt>
        <trkpt lat="29.5704529" lon="103.4156859"><ele>886.19</ele><time>2026-06-12T20:41:56.000Z</time></trkpt>
        <trkpt lat="29.5703803" lon="103.4156103"><ele>887.85</ele><time>2026-06-12T20:42:04.000Z</time></trkpt>
        <trkpt lat="29.5702997" lon="103.4155584"><ele>887.8</ele><time>2026-06-12T20:42:12.000Z</time></trkpt>
        <trkpt lat="29.5701967" lon="103.4155522"><ele>888.3</ele><time>2026-06-12T20:42:22.000Z</time></trkpt>
        <trkpt lat="29.5700915" lon="103.4155175"><ele>890.23</ele><time>2026-06-12T20:42:32.000Z</time></trkpt>
        <trkpt lat="29.5699976" lon="103.4154526"><ele>892.18</ele><time>2026-06-12T20:42:42.000Z</time></trkpt>
        <trkpt lat="29.569922" lon="103.415368"><ele>894</ele><time>2026-06-12T20:42:50.000Z</time></trkpt>
        <trkpt lat="29.5698843" lon="103.4152631"><ele>895.47</ele><time>2026-06-12T20:42:58.000Z</time></trkpt>
        <trkpt lat="29.5698709" lon="103.4151502"><ele>896.27</ele><time>2026-06-12T20:43:06.000Z</time></trkpt>
        <trkpt lat="29.5698583" lon="103.4150269"><ele>897.54</ele><time>2026-06-12T20:43:14.000Z</time></trkpt>
        <trkpt lat="29.5698114" lon="103.4149112"><ele>896.7</ele><time>2026-06-12T20:43:24.000Z</time></trkpt>
        <trkpt lat="29.5697466" lon="103.4148278"><ele>896.11</ele><time>2026-06-12T20:43:32.000Z</time></trkpt>
        <trkpt lat="29.5696643" lon="103.4147651"><ele>895.78</ele><time>2026-06-12T20:43:40.000Z</time></trkpt>
        <trkpt lat="29.5695713" lon="103.4147526"><ele>894.53</ele><time>2026-06-12T20:43:48.000Z</time></trkpt>
        <trkpt lat="29.5694616" lon="103.4147847"><ele>892.52</ele><time>2026-06-12T20:43:58.000Z</time></trkpt>
        <trkpt lat="29.5693658" lon="103.4148296"><ele>891.59</ele><time>2026-06-12T20:44:08.000Z</time></trkpt>
        <trkpt lat="29.5692695" lon="103.4148514"><ele>890.52</ele><time>2026-06-12T20:44:18.000Z</time></trkpt>
        <trkpt lat="29.5691981" lon="103.4147849"><ele>889.43</ele><time>2026-06-12T20:44:54.000Z</time></trkpt>
        <trkpt lat="29.5691368" lon="103.4146946"><ele>888.01</ele><time>2026-06-12T20:45:02.000Z</time></trkpt>
        <trkpt lat="29.5690948" lon="103.4145804"><ele>886.32</ele><time>2026-06-12T20:45:10.000Z</time></trkpt>
        <trkpt lat="29.569077" lon="103.4144663"><ele>885.34</ele><time>2026-06-12T20:45:18.000Z</time></trkpt>
        <trkpt lat="29.569087" lon="103.4143477"><ele>885.79</ele><time>2026-06-12T20:45:26.000Z</time></trkpt>
        <trkpt lat="29.5690929" lon="103.4142208"><ele>886.98</ele><time>2026-06-12T20:45:34.000Z</time></trkpt>
        <trkpt lat="29.5690948" lon="103.4141075"><ele>886.26</ele><time>2026-06-12T20:45:42.000Z</time></trkpt>
        <trkpt lat="29.5691171" lon="103.4139866"><ele>885.39</ele><time>2026-06-12T20:45:52.000Z</time></trkpt>
        <trkpt lat="29.5691342" lon="103.4138766"><ele>885.43</ele><time>2026-06-12T20:46:00.000Z</time></trkpt>
        <trkpt lat="29.569108" lon="103.4137649"><ele>884.68</ele><time>2026-06-12T20:46:10.000Z</time></trkpt>
        <trkpt lat="29.5690637" lon="103.4136514"><ele>883.66</ele><time>2026-06-12T20:46:18.000Z</time></trkpt>
        <trkpt lat="29.5690201" lon="103.413534"><ele>882.81</ele><time>2026-06-12T20:46:26.000Z</time></trkpt>
        <trkpt lat="29.5689806" lon="103.4134122"><ele>880.2</ele><time>2026-06-12T20:46:34.000Z</time></trkpt>
        <trkpt lat="29.568979" lon="103.4132923"><ele>878.33</ele><time>2026-06-12T20:46:44.000Z</time></trkpt>
        <trkpt lat="29.5689737" lon="103.4131693"><ele>875.88</ele><time>2026-06-12T20:46:54.000Z</time></trkpt>
        <trkpt lat="29.5690284" lon="103.4130787"><ele>873.63</ele><time>2026-06-12T20:47:02.000Z</time></trkpt>
        <trkpt lat="29.5690928" lon="103.412985"><ele>872.52</ele><time>2026-06-12T20:47:10.000Z</time></trkpt>
        <trkpt lat="29.5691767" lon="103.4129008"><ele>871.25</ele><time>2026-06-12T20:47:20.000Z</time></trkpt>
        <trkpt lat="29.5692601" lon="103.4128307"><ele>870.36</ele><time>2026-06-12T20:47:28.000Z</time></trkpt>
        <trkpt lat="29.5693351" lon="103.4127658"><ele>870.91</ele><time>2026-06-12T20:47:36.000Z</time></trkpt>
        <trkpt lat="29.569388" lon="103.4126816"><ele>871.82</ele><time>2026-06-12T20:47:44.000Z</time></trkpt>
        <trkpt lat="29.5693548" lon="103.4125831"><ele>871.93</ele><time>2026-06-12T20:47:54.000Z</time></trkpt>
        <trkpt lat="29.5693605" lon="103.4124525"><ele>873.5</ele><time>2026-06-12T20:48:04.000Z</time></trkpt>
        <trkpt lat="29.5693469" lon="103.412332"><ele>875.44</ele><time>2026-06-12T20:48:18.000Z</time></trkpt>
        <trkpt lat="29.5693457" lon="103.4122231"><ele>874.49</ele><time>2026-06-12T20:48:32.000Z</time></trkpt>
        <trkpt lat="29.5692769" lon="103.4121819"><ele>870.63</ele><time>2026-06-12T20:48:48.000Z</time></trkpt>
        <trkpt lat="29.5691828" lon="103.4121734"><ele>868.16</ele><time>2026-06-12T20:48:58.000Z</time></trkpt>
        <trkpt lat="29.5690967" lon="103.4121326"><ele>865.85</ele><time>2026-06-12T20:49:10.000Z</time></trkpt>
        <trkpt lat="29.5690123" lon="103.4120773"><ele>864.68</ele><time>2026-06-12T20:49:18.000Z</time></trkpt>
        <trkpt lat="29.5689292" lon="103.4119779"><ele>865</ele><time>2026-06-12T20:49:26.000Z</time></trkpt>
        <trkpt lat="29.5688392" lon="103.4118995"><ele>863.57</ele><time>2026-06-12T20:49:34.000Z</time></trkpt>
        <trkpt lat="29.5687405" lon="103.4118634"><ele>859.3</ele><time>2026-06-12T20:49:42.000Z</time></trkpt>
        <trkpt lat="29.5686385" lon="103.4118612"><ele>855.98</ele><time>2026-06-12T20:49:52.000Z</time></trkpt>
        <trkpt lat="29.5685466" lon="103.4118234"><ele>851.27</ele><time>2026-06-12T20:50:04.000Z</time></trkpt>
        <trkpt lat="29.5684692" lon="103.4117585"><ele>853.2</ele><time>2026-06-12T20:50:14.000Z</time></trkpt>
        <trkpt lat="29.568424" lon="103.4116594"><ele>854.75</ele><time>2026-06-12T20:50:24.000Z</time></trkpt>
        <trkpt lat="29.5683769" lon="103.4115542"><ele>850.36</ele><time>2026-06-12T20:50:34.000Z</time></trkpt>
        <trkpt lat="29.5683842" lon="103.4114477"><ele>847.14</ele><time>2026-06-12T20:50:42.000Z</time></trkpt>
        <trkpt lat="29.5684223" lon="103.4113309"><ele>845.37</ele><time>2026-06-12T20:50:52.000Z</time></trkpt>
        <trkpt lat="29.5684683" lon="103.4112241"><ele>845.63</ele><time>2026-06-12T20:51:02.000Z</time></trkpt>
        <trkpt lat="29.5684942" lon="103.4111076"><ele>845.65</ele><time>2026-06-12T20:51:10.000Z</time></trkpt>
        <trkpt lat="29.5685289" lon="103.4109932"><ele>845.11</ele><time>2026-06-12T20:51:18.000Z</time></trkpt>
        <trkpt lat="29.5685608" lon="103.4108795"><ele>845.91</ele><time>2026-06-12T20:51:26.000Z</time></trkpt>
        <trkpt lat="29.5685938" lon="103.4107579"><ele>845.1</ele><time>2026-06-12T20:51:34.000Z</time></trkpt>
        <trkpt lat="29.5686127" lon="103.4106276"><ele>842.2</ele><time>2026-06-12T20:51:44.000Z</time></trkpt>
        <trkpt lat="29.5686234" lon="103.4105054"><ele>840.52</ele><time>2026-06-12T20:51:52.000Z</time></trkpt>
        <trkpt lat="29.5686366" lon="103.4103759"><ele>838.02</ele><time>2026-06-12T20:52:00.000Z</time></trkpt>
        <trkpt lat="29.5686357" lon="103.4102529"><ele>835.62</ele><time>2026-06-12T20:52:08.000Z</time></trkpt>
        <trkpt lat="29.5686472" lon="103.4101415"><ele>834.54</ele><time>2026-06-12T20:52:16.000Z</time></trkpt>
        <trkpt lat="29.5685799" lon="103.4100751"><ele>833.97</ele><time>2026-06-12T20:52:28.000Z</time></trkpt>
        <trkpt lat="29.5684878" lon="103.4100253"><ele>833.63</ele><time>2026-06-12T20:52:38.000Z</time></trkpt>
        <trkpt lat="29.5684153" lon="103.4099435"><ele>833.29</ele><time>2026-06-12T20:52:51.000Z</time></trkpt>
        <trkpt lat="29.5683358" lon="103.4098563"><ele>833.02</ele><time>2026-06-12T20:52:59.000Z</time></trkpt>
        <trkpt lat="29.5682768" lon="103.4097683"><ele>834.06</ele><time>2026-06-12T20:53:07.000Z</time></trkpt>
        <trkpt lat="29.5682451" lon="103.4096632"><ele>834.36</ele><time>2026-06-12T20:53:17.000Z</time></trkpt>
        <trkpt lat="29.5682514" lon="103.4096407"><ele>833.14</ele><time>2026-06-12T20:53:19.000Z</time></trkpt>
        <trkpt lat="29.5682094" lon="103.4095759"><ele>831.85</ele><time>2026-06-12T20:53:33.000Z</time></trkpt>
        <trkpt lat="29.5681698" lon="103.4094868"><ele>831.59</ele><time>2026-06-12T20:53:41.000Z</time></trkpt>
        <trkpt lat="29.5681302" lon="103.4093891"><ele>829.53</ele><time>2026-06-12T20:53:51.000Z</time></trkpt>
        <trkpt lat="29.5680737" lon="103.4093022"><ele>826.54</ele><time>2026-06-12T20:54:03.000Z</time></trkpt>
        <trkpt lat="29.5680256" lon="103.409211"><ele>825.63</ele><time>2026-06-12T20:54:13.000Z</time></trkpt>
        <trkpt lat="29.5679868" lon="103.4091109"><ele>823.35</ele><time>2026-06-12T20:54:21.000Z</time></trkpt>
        <trkpt lat="29.5679414" lon="103.4090175"><ele>820.79</ele><time>2026-06-12T20:54:29.000Z</time></trkpt>
        <trkpt lat="29.5679158" lon="103.4089335"><ele>816.12</ele><time>2026-06-12T20:54:37.000Z</time></trkpt>
        <trkpt lat="29.5678942" lon="103.4088259"><ele>811.84</ele><time>2026-06-12T20:54:54.000Z</time></trkpt>
        <trkpt lat="29.5678734" lon="103.4087081"><ele>806.95</ele><time>2026-06-12T20:55:04.000Z</time></trkpt>
        <trkpt lat="29.5678276" lon="103.4086049"><ele>802.84</ele><time>2026-06-12T20:55:14.000Z</time></trkpt>
        <trkpt lat="29.5677727" lon="103.4085179"><ele>799.71</ele><time>2026-06-12T20:55:20.000Z</time></trkpt>
        <trkpt lat="29.5676984" lon="103.4084509"><ele>796.29</ele><time>2026-06-12T20:55:36.000Z</time></trkpt>
        <trkpt lat="29.5676274" lon="103.4085058"><ele>792.35</ele><time>2026-06-12T20:55:52.000Z</time></trkpt>
        <trkpt lat="29.5675713" lon="103.4086012"><ele>787.74</ele><time>2026-06-12T20:55:58.000Z</time></trkpt>
        <trkpt lat="29.5674864" lon="103.4086651"><ele>783.07</ele><time>2026-06-12T20:56:06.000Z</time></trkpt>
        <trkpt lat="29.5673946" lon="103.40865"><ele>780.02</ele><time>2026-06-12T20:56:14.000Z</time></trkpt>
        <trkpt lat="29.5672989" lon="103.4085988"><ele>779.98</ele><time>2026-06-12T20:56:22.000Z</time></trkpt>
        <trkpt lat="29.5671931" lon="103.4085368"><ele>781.72</ele><time>2026-06-12T20:56:30.000Z</time></trkpt>
        <trkpt lat="29.5670977" lon="103.4085052"><ele>781.5</ele><time>2026-06-12T20:56:36.000Z</time></trkpt>
        <trkpt lat="29.5669914" lon="103.4084988"><ele>780.6</ele><time>2026-06-12T20:56:44.000Z</time></trkpt>
        <trkpt lat="29.566886" lon="103.4085131"><ele>779.57</ele><time>2026-06-12T20:56:52.000Z</time></trkpt>
        <trkpt lat="29.5667886" lon="103.4085212"><ele>779.19</ele><time>2026-06-12T20:56:58.000Z</time></trkpt>
        <trkpt lat="29.5667114" lon="103.4084698"><ele>779.98</ele><time>2026-06-12T20:57:04.000Z</time></trkpt>
        <trkpt lat="29.5666736" lon="103.4083755"><ele>780.22</ele><time>2026-06-12T20:57:10.000Z</time></trkpt>
        <trkpt lat="29.5666615" lon="103.4082439"><ele>780.07</ele><time>2026-06-12T20:57:18.000Z</time></trkpt>
        <trkpt lat="29.5666678" lon="103.4081034"><ele>780.18</ele><time>2026-06-12T20:57:26.000Z</time></trkpt>
        <trkpt lat="29.5666609" lon="103.407958"><ele>780.12</ele><time>2026-06-12T20:57:35.000Z</time></trkpt>
        <trkpt lat="29.5666311" lon="103.407835"><ele>779.04</ele><time>2026-06-12T20:57:46.000Z</time></trkpt>
        <trkpt lat="29.5666119" lon="103.4077133"><ele>778.06</ele><time>2026-06-12T20:58:00.000Z</time></trkpt>
        <trkpt lat="29.566568" lon="103.4075974"><ele>776.52</ele><time>2026-06-12T20:58:08.000Z</time></trkpt>
        <trkpt lat="29.5665247" lon="103.4074757"><ele>777.62</ele><time>2026-06-12T20:58:16.000Z</time></trkpt>
        <trkpt lat="29.5664827" lon="103.4073553"><ele>778.64</ele><time>2026-06-12T20:58:24.000Z</time></trkpt>
        <trkpt lat="29.5664491" lon="103.4072304"><ele>779.65</ele><time>2026-06-12T20:58:32.000Z</time></trkpt>
        <trkpt lat="29.5664158" lon="103.4071068"><ele>779.8</ele><time>2026-06-12T20:58:40.000Z</time></trkpt>
        <trkpt lat="29.5664141" lon="103.40698"><ele>779.5</ele><time>2026-06-12T20:58:48.000Z</time></trkpt>
        <trkpt lat="29.5664542" lon="103.4068589"><ele>779.4</ele><time>2026-06-12T20:58:56.000Z</time></trkpt>
        <trkpt lat="29.5665252" lon="103.4067597"><ele>779.41</ele><time>2026-06-12T20:59:04.000Z</time></trkpt>
        <trkpt lat="29.5665988" lon="103.4066649"><ele>779.58</ele><time>2026-06-12T20:59:12.000Z</time></trkpt>
        <trkpt lat="29.5666689" lon="103.406583"><ele>780.16</ele><time>2026-06-12T20:59:18.000Z</time></trkpt>
        <trkpt lat="29.5667529" lon="103.4064982"><ele>780.45</ele><time>2026-06-12T20:59:26.000Z</time></trkpt>
        <trkpt lat="29.5668332" lon="103.4064086"><ele>779.32</ele><time>2026-06-12T20:59:34.000Z</time></trkpt>
        <trkpt lat="29.5669012" lon="103.4063026"><ele>778.13</ele><time>2026-06-12T20:59:42.000Z</time></trkpt>
        <trkpt lat="29.56696" lon="103.4061901"><ele>777.28</ele><time>2026-06-12T20:59:50.000Z</time></trkpt>
        <trkpt lat="29.5670193" lon="103.4060815"><ele>776.9</ele><time>2026-06-12T20:59:58.000Z</time></trkpt>
        <trkpt lat="29.5670795" lon="103.4059782"><ele>776.62</ele><time>2026-06-12T21:00:04.000Z</time></trkpt>
        <trkpt lat="29.5671275" lon="103.4058618"><ele>776.06</ele><time>2026-06-12T21:00:12.000Z</time></trkpt>
        <trkpt lat="29.5671595" lon="103.4058081"><ele>774.92</ele><time>2026-06-12T21:00:16.000Z</time></trkpt>
        <trkpt lat="29.5671228" lon="103.4057391"><ele>773.92</ele><time>2026-06-12T21:00:26.000Z</time></trkpt>
        <trkpt lat="29.567045" lon="103.4056578"><ele>772.53</ele><time>2026-06-12T21:00:36.000Z</time></trkpt>
        <trkpt lat="29.5669611" lon="103.4055829"><ele>770.7</ele><time>2026-06-12T21:00:44.000Z</time></trkpt>
        <trkpt lat="29.5668804" lon="103.4055058"><ele>768.35</ele><time>2026-06-12T21:00:52.000Z</time></trkpt>
        <trkpt lat="29.5668009" lon="103.4054178"><ele>766.13</ele><time>2026-06-12T21:01:00.000Z</time></trkpt>
        <trkpt lat="29.5667388" lon="103.4053163"><ele>765.28</ele><time>2026-06-12T21:01:08.000Z</time></trkpt>
        <trkpt lat="29.5667171" lon="103.4051918"><ele>764.51</ele><time>2026-06-12T21:01:16.000Z</time></trkpt>
        <trkpt lat="29.5667818" lon="103.4051076"><ele>762.87</ele><time>2026-06-12T21:01:24.000Z</time></trkpt>
        <trkpt lat="29.5668898" lon="103.4050896"><ele>761.34</ele><time>2026-06-12T21:01:32.000Z</time></trkpt>
        <trkpt lat="29.5670076" lon="103.4050873"><ele>761.13</ele><time>2026-06-12T21:01:40.000Z</time></trkpt>
        <trkpt lat="29.5671309" lon="103.4050724"><ele>761.67</ele><time>2026-06-12T21:01:48.000Z</time></trkpt>
        <trkpt lat="29.5672452" lon="103.4050469"><ele>760.75</ele><time>2026-06-12T21:01:56.000Z</time></trkpt>
        <trkpt lat="29.5673529" lon="103.4050296"><ele>761</ele><time>2026-06-12T21:02:04.000Z</time></trkpt>
        <trkpt lat="29.5674516" lon="103.4050098"><ele>762.78</ele><time>2026-06-12T21:02:10.000Z</time></trkpt>
        <trkpt lat="29.5675432" lon="103.4050053"><ele>764.16</ele><time>2026-06-12T21:02:16.000Z</time></trkpt>
        <trkpt lat="29.5676479" lon="103.4050251"><ele>764.63</ele><time>2026-06-12T21:02:24.000Z</time></trkpt>
        <trkpt lat="29.5677528" lon="103.4050401"><ele>765.75</ele><time>2026-06-12T21:02:32.000Z</time></trkpt>
        <trkpt lat="29.5678534" lon="103.405027"><ele>766.06</ele><time>2026-06-12T21:02:40.000Z</time></trkpt>
        <trkpt lat="29.5679488" lon="103.4049875"><ele>765.75</ele><time>2026-06-12T21:02:48.000Z</time></trkpt>
        <trkpt lat="29.5680324" lon="103.4049288"><ele>766.34</ele><time>2026-06-12T21:02:56.000Z</time></trkpt>
        <trkpt lat="29.5681208" lon="103.4048686"><ele>766.25</ele><time>2026-06-12T21:03:04.000Z</time></trkpt>
        <trkpt lat="29.5682319" lon="103.4048203"><ele>765.8</ele><time>2026-06-12T21:03:12.000Z</time></trkpt>
        <trkpt lat="29.5683109" lon="103.4047504"><ele>764.21</ele><time>2026-06-12T21:03:18.000Z</time></trkpt>
        <trkpt lat="29.5683809" lon="103.4046523"><ele>762.91</ele><time>2026-06-12T21:03:26.000Z</time></trkpt>
        <trkpt lat="29.5684386" lon="103.4045418"><ele>760.92</ele><time>2026-06-12T21:03:34.000Z</time></trkpt>
        <trkpt lat="29.5684786" lon="103.4044487"><ele>759.25</ele><time>2026-06-12T21:03:40.000Z</time></trkpt>
        <trkpt lat="29.5685274" lon="103.4043459"><ele>757.58</ele><time>2026-06-12T21:03:54.000Z</time></trkpt>
        <trkpt lat="29.5685804" lon="103.4042384"><ele>755.8</ele><time>2026-06-12T21:04:02.000Z</time></trkpt>
        <trkpt lat="29.5686357" lon="103.4041368"><ele>753.93</ele><time>2026-06-12T21:04:10.000Z</time></trkpt>
        <trkpt lat="29.5686946" lon="103.4040519"><ele>752.06</ele><time>2026-06-12T21:04:16.000Z</time></trkpt>
        <trkpt lat="29.568755" lon="103.403971"><ele>750.89</ele><time>2026-06-12T21:04:22.000Z</time></trkpt>
        <trkpt lat="29.5688316" lon="103.4039028"><ele>750.23</ele><time>2026-06-12T21:04:28.000Z</time></trkpt>
        <trkpt lat="29.5689316" lon="103.4038943"><ele>749.43</ele><time>2026-06-12T21:04:34.000Z</time></trkpt>
        <trkpt lat="29.5690323" lon="103.4039035"><ele>749.69</ele><time>2026-06-12T21:04:40.000Z</time></trkpt>
        <trkpt lat="29.5691431" lon="103.403897"><ele>750.21</ele><time>2026-06-12T21:04:50.000Z</time></trkpt>
        <trkpt lat="29.5692379" lon="103.4038674"><ele>750.79</ele><time>2026-06-12T21:04:58.000Z</time></trkpt>
        <trkpt lat="29.5693289" lon="103.4038254"><ele>751.11</ele><time>2026-06-12T21:05:06.000Z</time></trkpt>
        <trkpt lat="29.5694223" lon="103.4037719"><ele>750.81</ele><time>2026-06-12T21:05:14.000Z</time></trkpt>
        <trkpt lat="29.5695139" lon="103.4037069"><ele>750.72</ele><time>2026-06-12T21:05:22.000Z</time></trkpt>
        <trkpt lat="29.5695832" lon="103.4036207"><ele>749.49</ele><time>2026-06-12T21:05:28.000Z</time></trkpt>
        <trkpt lat="29.5696612" lon="103.4035267"><ele>748.88</ele><time>2026-06-12T21:05:36.000Z</time></trkpt>
        <trkpt lat="29.5697408" lon="103.4034395"><ele>745.6</ele><time>2026-06-12T21:05:44.000Z</time></trkpt>
        <trkpt lat="29.5698146" lon="103.4033583"><ele>742.07</ele><time>2026-06-12T21:05:52.000Z</time></trkpt>
        <trkpt lat="29.5698845" lon="103.4032788"><ele>740.6</ele><time>2026-06-12T21:06:00.000Z</time></trkpt>
        <trkpt lat="29.5699488" lon="103.4031906"><ele>740.93</ele><time>2026-06-12T21:06:08.000Z</time></trkpt>
        <trkpt lat="29.5700044" lon="103.4030965"><ele>743.56</ele><time>2026-06-12T21:06:16.000Z</time></trkpt>
        <trkpt lat="29.5700469" lon="103.4029908"><ele>744.07</ele><time>2026-06-12T21:06:22.000Z</time></trkpt>
        <trkpt lat="29.5700989" lon="103.4028907"><ele>743.51</ele><time>2026-06-12T21:06:28.000Z</time></trkpt>
        <trkpt lat="29.5701665" lon="103.4028106"><ele>740.98</ele><time>2026-06-12T21:06:34.000Z</time></trkpt>
        <trkpt lat="29.5702651" lon="103.4027716"><ele>739.17</ele><time>2026-06-12T21:06:44.000Z</time></trkpt>
        <trkpt lat="29.5703788" lon="103.4027461"><ele>741.81</ele><time>2026-06-12T21:06:52.000Z</time></trkpt>
        <trkpt lat="29.57048" lon="103.4027405"><ele>743.95</ele><time>2026-06-12T21:06:58.000Z</time></trkpt>
        <trkpt lat="29.5705883" lon="103.4027176"><ele>743.67</ele><time>2026-06-12T21:07:06.000Z</time></trkpt>
        <trkpt lat="29.5707011" lon="103.4027033"><ele>742.8</ele><time>2026-06-12T21:07:14.000Z</time></trkpt>
        <trkpt lat="29.5707962" lon="103.4026828"><ele>741.73</ele><time>2026-06-12T21:07:20.000Z</time></trkpt>
        <trkpt lat="29.5708848" lon="103.4026362"><ele>741.87</ele><time>2026-06-12T21:07:26.000Z</time></trkpt>
        <trkpt lat="29.5709737" lon="103.4025783"><ele>741.96</ele><time>2026-06-12T21:07:34.000Z</time></trkpt>
        <trkpt lat="29.5710723" lon="103.4025268"><ele>740.97</ele><time>2026-06-12T21:07:42.000Z</time></trkpt>
        <trkpt lat="29.5711505" lon="103.4024326"><ele>738.55</ele><time>2026-06-12T21:07:50.000Z</time></trkpt>
        <trkpt lat="29.571214" lon="103.4023398"><ele>733.46</ele><time>2026-06-12T21:07:58.000Z</time></trkpt>
        <trkpt lat="29.5712787" lon="103.4022605"><ele>728.63</ele><time>2026-06-12T21:08:08.000Z</time></trkpt>
        <trkpt lat="29.571345" lon="103.4021662"><ele>728.14</ele><time>2026-06-12T21:08:16.000Z</time></trkpt>
        <trkpt lat="29.571393" lon="103.4020597"><ele>729.1</ele><time>2026-06-12T21:08:22.000Z</time></trkpt>
        <trkpt lat="29.5714637" lon="103.4019606"><ele>730.84</ele><time>2026-06-12T21:08:30.000Z</time></trkpt>
        <trkpt lat="29.5715479" lon="103.4018851"><ele>732.05</ele><time>2026-06-12T21:08:36.000Z</time></trkpt>
        <trkpt lat="29.5716446" lon="103.4018564"><ele>732.29</ele><time>2026-06-12T21:08:42.000Z</time></trkpt>
        <trkpt lat="29.5717026" lon="103.4018379"><ele>732.74</ele><time>2026-06-12T21:08:48.000Z</time></trkpt>
        <trkpt lat="29.5717026" lon="103.4018379"><ele>732.74</ele><time>2026-06-12T21:08:57.000Z</time></trkpt>
        <trkpt lat="29.5717785" lon="103.4017838"><ele>733</ele><time>2026-06-12T21:09:00.000Z</time></trkpt>
        <trkpt lat="29.5717785" lon="103.4017838"><ele>733</ele><time>2026-06-12T21:09:16.000Z</time></trkpt>
        <trkpt lat="29.5718337" lon="103.4017022"><ele>736.36</ele><time>2026-06-12T21:09:24.000Z</time></trkpt>
        <trkpt lat="29.5719115" lon="103.4016127"><ele>737.64</ele><time>2026-06-12T21:09:32.000Z</time></trkpt>
        <trkpt lat="29.5719855" lon="103.4015353"><ele>738.29</ele><time>2026-06-12T21:09:38.000Z</time></trkpt>
        <trkpt lat="29.5720157" lon="103.4014392"><ele>739.78</ele><time>2026-06-12T21:09:46.000Z</time></trkpt>
        <trkpt lat="29.5720137" lon="103.4013287"><ele>741.74</ele><time>2026-06-12T21:10:00.000Z</time></trkpt>
        <trkpt lat="29.5720297" lon="103.4012234"><ele>742.58</ele><time>2026-06-12T21:10:18.000Z</time></trkpt>
        <trkpt lat="29.5719704" lon="103.401138"><ele>741.68</ele><time>2026-06-12T21:11:21.000Z</time></trkpt>
        <trkpt lat="29.5719655" lon="103.4010273"><ele>743.69</ele><time>2026-06-12T21:11:31.000Z</time></trkpt>
        <trkpt lat="29.5720294" lon="103.4010839"><ele>743.64</ele><time>2026-06-12T21:11:47.000Z</time></trkpt>
        <trkpt lat="29.5720098" lon="103.401017"><ele>741.51</ele><time>2026-06-12T21:12:15.000Z</time></trkpt>
        <trkpt lat="29.5720003" lon="103.4009766"><ele>741.64</ele><time>2026-06-12T21:12:21.000Z</time></trkpt>
        <trkpt lat="29.5719625" lon="103.4008937"><ele>743.01</ele><time>2026-06-12T21:12:50.000Z</time></trkpt>
        <trkpt lat="29.5719356" lon="103.4007914"><ele>748.37</ele><time>2026-06-12T21:13:20.000Z</time></trkpt>
        <trkpt lat="29.5718912" lon="103.4006932"><ele>752.88</ele><time>2026-06-12T21:13:56.000Z</time></trkpt>
        <trkpt lat="29.5718633" lon="103.4005834"><ele>758.64</ele><time>2026-06-12T21:14:16.000Z</time></trkpt>
        <trkpt lat="29.5718519" lon="103.4004744"><ele>760.71</ele><time>2026-06-12T21:14:48.000Z</time></trkpt>
        <trkpt lat="29.5718338" lon="103.4003642"><ele>763.85</ele><time>2026-06-12T21:15:24.000Z</time></trkpt>
        <trkpt lat="29.5718338" lon="103.4003642"><ele>763.85</ele><time>2026-06-12T21:15:59.000Z</time></trkpt>
        <trkpt lat="29.5718311" lon="103.4002516"><ele>767.97</ele><time>2026-06-12T21:16:02.000Z</time></trkpt>
        <trkpt lat="29.5718311" lon="103.4002516"><ele>767.97</ele><time>2026-06-12T21:16:12.000Z</time></trkpt>
        <trkpt lat="29.5718448" lon="103.4001448"><ele>773.26</ele><time>2026-06-12T21:16:29.000Z</time></trkpt>
        <trkpt lat="29.5718169" lon="103.4000474"><ele>776.61</ele><time>2026-06-12T21:16:59.000Z</time></trkpt>
        <trkpt lat="29.5718126" lon="103.3999471"><ele>779.47</ele><time>2026-06-12T21:17:21.000Z</time></trkpt>
        <trkpt lat="29.5718291" lon="103.3998443"><ele>782.94</ele><time>2026-06-12T21:17:43.000Z</time></trkpt>
        <trkpt lat="29.5718372" lon="103.3997297"><ele>785.73</ele><time>2026-06-12T21:18:03.000Z</time></trkpt>
        <trkpt lat="29.5718352" lon="103.3996216"><ele>787.37</ele><time>2026-06-12T21:18:29.000Z</time></trkpt>
        <trkpt lat="29.5718284" lon="103.3995159"><ele>791.58</ele><time>2026-06-12T21:18:49.000Z</time></trkpt>
        <trkpt lat="29.57182" lon="103.3993944"><ele>796.42</ele><time>2026-06-12T21:19:01.000Z</time></trkpt>
        <trkpt lat="29.5717913" lon="103.3992867"><ele>799.58</ele><time>2026-06-12T21:19:17.000Z</time></trkpt>
        <trkpt lat="29.5717345" lon="103.3991902"><ele>800.17</ele><time>2026-06-12T21:19:43.000Z</time></trkpt>
        <trkpt lat="29.571688" lon="103.3990949"><ele>800.61</ele><time>2026-06-12T21:19:55.000Z</time></trkpt>
        <trkpt lat="29.571652" lon="103.3989899"><ele>801.8</ele><time>2026-06-12T21:20:13.000Z</time></trkpt>
        <trkpt lat="29.5716369" lon="103.3989455"><ele>803.95</ele><time>2026-06-12T21:20:19.000Z</time></trkpt>
        <trkpt lat="29.5716424" lon="103.3988507"><ele>805.09</ele><time>2026-06-12T21:21:19.000Z</time></trkpt>
        <trkpt lat="29.5716219" lon="103.3987474"><ele>807.7</ele><time>2026-06-12T21:21:29.000Z</time></trkpt>
        <trkpt lat="29.5716068" lon="103.3986432"><ele>810.72</ele><time>2026-06-12T21:21:37.000Z</time></trkpt>
        <trkpt lat="29.5715931" lon="103.3985322"><ele>812.97</ele><time>2026-06-12T21:21:49.000Z</time></trkpt>
        <trkpt lat="29.5715804" lon="103.3984094"><ele>812.27</ele><time>2026-06-12T21:22:01.000Z</time></trkpt>
        <trkpt lat="29.5715688" lon="103.3982927"><ele>811.3</ele><time>2026-06-12T21:22:13.000Z</time></trkpt>
        <trkpt lat="29.5715755" lon="103.3981716"><ele>810.69</ele><time>2026-06-12T21:22:23.000Z</time></trkpt>
        <trkpt lat="29.5715784" lon="103.39805"><ele>807.88</ele><time>2026-06-12T21:22:33.000Z</time></trkpt>
        <trkpt lat="29.5715615" lon="103.3979431"><ele>803.47</ele><time>2026-06-12T21:22:45.000Z</time></trkpt>
        <trkpt lat="29.5715411" lon="103.3978411"><ele>797.94</ele><time>2026-06-12T21:22:55.000Z</time></trkpt>
        <trkpt lat="29.5715076" lon="103.3977277"><ele>793.18</ele><time>2026-06-12T21:23:03.000Z</time></trkpt>
        <trkpt lat="29.5714629" lon="103.3976281"><ele>789.29</ele><time>2026-06-12T21:23:11.000Z</time></trkpt>
        <trkpt lat="29.5714558" lon="103.3975154"><ele>787.17</ele><time>2026-06-12T21:23:23.000Z</time></trkpt>
        <trkpt lat="29.5714636" lon="103.3973957"><ele>785.27</ele><time>2026-06-12T21:23:35.000Z</time></trkpt>
        <trkpt lat="29.5714998" lon="103.3972843"><ele>783.4</ele><time>2026-06-12T21:23:47.000Z</time></trkpt>
        <trkpt lat="29.5715425" lon="103.3971779"><ele>782.76</ele><time>2026-06-12T21:23:57.000Z</time></trkpt>
        <trkpt lat="29.5715964" lon="103.3970894"><ele>780.21</ele><time>2026-06-12T21:24:11.000Z</time></trkpt>
        <trkpt lat="29.5716496" lon="103.3969973"><ele>777.72</ele><time>2026-06-12T21:24:17.000Z</time></trkpt>
        <trkpt lat="29.5717081" lon="103.3968958"><ele>775.08</ele><time>2026-06-12T21:24:25.000Z</time></trkpt>
        <trkpt lat="29.5717689" lon="103.3968115"><ele>771.07</ele><time>2026-06-12T21:24:35.000Z</time></trkpt>
        <trkpt lat="29.5718406" lon="103.3967474"><ele>767.77</ele><time>2026-06-12T21:24:41.000Z</time></trkpt>
        <trkpt lat="29.5719308" lon="103.3967196"><ele>764.13</ele><time>2026-06-12T21:24:49.000Z</time></trkpt>
        <trkpt lat="29.5720338" lon="103.3967088"><ele>760.49</ele><time>2026-06-12T21:25:03.000Z</time></trkpt>
        <trkpt lat="29.5721428" lon="103.396706"><ele>756.82</ele><time>2026-06-12T21:25:17.000Z</time></trkpt>
        <trkpt lat="29.5722382" lon="103.3966885"><ele>752.41</ele><time>2026-06-12T21:25:31.000Z</time></trkpt>
        <trkpt lat="29.5723222" lon="103.3966284"><ele>749.66</ele><time>2026-06-12T21:25:45.000Z</time></trkpt>
        <trkpt lat="29.5723581" lon="103.3965316"><ele>745.97</ele><time>2026-06-12T21:25:53.000Z</time></trkpt>
        <trkpt lat="29.5723555" lon="103.3964184"><ele>743.02</ele><time>2026-06-12T21:26:01.000Z</time></trkpt>
        <trkpt lat="29.5723768" lon="103.3963125"><ele>740.86</ele><time>2026-06-12T21:26:09.000Z</time></trkpt>
        <trkpt lat="29.5723889" lon="103.3962055"><ele>739.43</ele><time>2026-06-12T21:26:17.000Z</time></trkpt>
        <trkpt lat="29.5724016" lon="103.3960994"><ele>736.76</ele><time>2026-06-12T21:26:27.000Z</time></trkpt>
        <trkpt lat="29.5724583" lon="103.3960068"><ele>736.47</ele><time>2026-06-12T21:26:35.000Z</time></trkpt>
        <trkpt lat="29.5725323" lon="103.3959347"><ele>736.48</ele><time>2026-06-12T21:26:45.000Z</time></trkpt>
        <trkpt lat="29.5726279" lon="103.3958703"><ele>735.46</ele><time>2026-06-12T21:26:55.000Z</time></trkpt>
        <trkpt lat="29.5727244" lon="103.3958044"><ele>733.61</ele><time>2026-06-12T21:27:03.000Z</time></trkpt>
        <trkpt lat="29.5727974" lon="103.3957102"><ele>730.99</ele><time>2026-06-12T21:27:11.000Z</time></trkpt>
        <trkpt lat="29.5728596" lon="103.3956055"><ele>728.77</ele><time>2026-06-12T21:27:19.000Z</time></trkpt>
        <trkpt lat="29.5729076" lon="103.3955051"><ele>726.49</ele><time>2026-06-12T21:27:27.000Z</time></trkpt>
        <trkpt lat="29.5729439" lon="103.3953895"><ele>724.62</ele><time>2026-06-12T21:27:37.000Z</time></trkpt>
        <trkpt lat="29.5729868" lon="103.395281"><ele>724.27</ele><time>2026-06-12T21:27:45.000Z</time></trkpt>
        <trkpt lat="29.5729556" lon="103.3951828"><ele>722.34</ele><time>2026-06-12T21:27:53.000Z</time></trkpt>
        <trkpt lat="29.5729011" lon="103.3950873"><ele>717.38</ele><time>2026-06-12T21:28:03.000Z</time></trkpt>
        <trkpt lat="29.5728547" lon="103.3949763"><ele>713.92</ele><time>2026-06-12T21:28:11.000Z</time></trkpt>
        <trkpt lat="29.5728903" lon="103.3948812"><ele>712.61</ele><time>2026-06-12T21:28:19.000Z</time></trkpt>
        <trkpt lat="29.5728885" lon="103.3947812"><ele>712.14</ele><time>2026-06-12T21:28:29.000Z</time></trkpt>
        <trkpt lat="29.5728313" lon="103.3946779"><ele>711.43</ele><time>2026-06-12T21:28:39.000Z</time></trkpt>
        <trkpt lat="29.5727648" lon="103.3945833"><ele>708.95</ele><time>2026-06-12T21:28:51.000Z</time></trkpt>
        <trkpt lat="29.5727474" lon="103.3944711"><ele>706.5</ele><time>2026-06-12T21:29:03.000Z</time></trkpt>
        <trkpt lat="29.5727606" lon="103.3944157"><ele>704.54</ele><time>2026-06-12T21:29:09.000Z</time></trkpt>
        <trkpt lat="29.5728085" lon="103.3943251"><ele>701.85</ele><time>2026-06-12T21:29:25.000Z</time></trkpt>
        <trkpt lat="29.5728562" lon="103.3942189"><ele>696.12</ele><time>2026-06-12T21:29:35.000Z</time></trkpt>
        <trkpt lat="29.5728917" lon="103.3941087"><ele>694.08</ele><time>2026-06-12T21:29:43.000Z</time></trkpt>
        <trkpt lat="29.5729313" lon="103.3940086"><ele>692.79</ele><time>2026-06-12T21:29:49.000Z</time></trkpt>
        <trkpt lat="29.5729786" lon="103.3939128"><ele>692.58</ele><time>2026-06-12T21:29:55.000Z</time></trkpt>
        <trkpt lat="29.5730272" lon="103.3938098"><ele>691.61</ele><time>2026-06-12T21:30:03.000Z</time></trkpt>
        <trkpt lat="29.5730923" lon="103.3937133"><ele>691.63</ele><time>2026-06-12T21:30:11.000Z</time></trkpt>
        <trkpt lat="29.5731958" lon="103.3936802"><ele>692.33</ele><time>2026-06-12T21:30:21.000Z</time></trkpt>
        <trkpt lat="29.5732999" lon="103.3936631"><ele>693.06</ele><time>2026-06-12T21:30:33.000Z</time></trkpt>
        <trkpt lat="29.5733884" lon="103.3936133"><ele>692.32</ele><time>2026-06-12T21:30:41.000Z</time></trkpt>
        <trkpt lat="29.5734899" lon="103.3935644"><ele>692.01</ele><time>2026-06-12T21:30:49.000Z</time></trkpt>
        <trkpt lat="29.5735871" lon="103.393521"><ele>691.39</ele><time>2026-06-12T21:30:57.000Z</time></trkpt>
        <trkpt lat="29.5736716" lon="103.3934496"><ele>691.15</ele><time>2026-06-12T21:31:05.000Z</time></trkpt>
        <trkpt lat="29.5737628" lon="103.3933954"><ele>691.05</ele><time>2026-06-12T21:31:13.000Z</time></trkpt>
        <trkpt lat="29.5738565" lon="103.3933498"><ele>690.15</ele><time>2026-06-12T21:31:21.000Z</time></trkpt>
        <trkpt lat="29.5739235" lon="103.3932624"><ele>688.79</ele><time>2026-06-12T21:31:31.000Z</time></trkpt>
        <trkpt lat="29.5739933" lon="103.3932021"><ele>689.03</ele><time>2026-06-12T21:31:41.000Z</time></trkpt>
        <trkpt lat="29.5740382" lon="103.3931127"><ele>687.34</ele><time>2026-06-12T21:32:26.000Z</time></trkpt>
        <trkpt lat="29.5740435" lon="103.3929985"><ele>683.82</ele><time>2026-06-12T21:32:36.000Z</time></trkpt>
        <trkpt lat="29.5740546" lon="103.3928831"><ele>680.55</ele><time>2026-06-12T21:32:56.000Z</time></trkpt>
        <trkpt lat="29.5740832" lon="103.3927734"><ele>679.61</ele><time>2026-06-12T21:33:08.000Z</time></trkpt>
        <trkpt lat="29.5741272" lon="103.3926763"><ele>677.4</ele><time>2026-06-12T21:33:26.000Z</time></trkpt>
        <trkpt lat="29.574129" lon="103.3925747"><ele>675.83</ele><time>2026-06-12T21:33:38.000Z</time></trkpt>
        <trkpt lat="29.5741191" lon="103.3924667"><ele>674.17</ele><time>2026-06-12T21:34:04.000Z</time></trkpt>
        <trkpt lat="29.5741796" lon="103.3923956"><ele>670.64</ele><time>2026-06-12T21:34:34.000Z</time></trkpt>
        <trkpt lat="29.5741825" lon="103.3923649"><ele>664.54</ele><time>2026-06-12T21:34:42.000Z</time></trkpt>
        <trkpt lat="29.5741839" lon="103.3922849"><ele>662.35</ele><time>2026-06-12T21:35:22.000Z</time></trkpt>
        <trkpt lat="29.5741905" lon="103.3922366"><ele>657.73</ele><time>2026-06-12T21:35:31.000Z</time></trkpt>
        <trkpt lat="29.5741865" lon="103.3921304"><ele>652.6</ele><time>2026-06-12T21:35:43.000Z</time></trkpt>
        <trkpt lat="29.574111" lon="103.3920767"><ele>654.95</ele><time>2026-06-12T21:36:17.000Z</time></trkpt>
        <trkpt lat="29.5740036" lon="103.3920544"><ele>655.32</ele><time>2026-06-12T21:36:31.000Z</time></trkpt>
        <trkpt lat="29.573937" lon="103.3920587"><ele>654.7</ele><time>2026-06-12T21:36:39.000Z</time></trkpt>
        <trkpt lat="29.5738494" lon="103.3920592"><ele>655.57</ele><time>2026-06-12T21:36:51.000Z</time></trkpt>
        <trkpt lat="29.5737481" lon="103.3920439"><ele>652.48</ele><time>2026-06-12T21:37:01.000Z</time></trkpt>
        <trkpt lat="29.573648" lon="103.3920085"><ele>650.95</ele><time>2026-06-12T21:37:11.000Z</time></trkpt>
        <trkpt lat="29.5735695" lon="103.3919675"><ele>650.42</ele><time>2026-06-12T21:37:23.000Z</time></trkpt>
        <trkpt lat="29.5734909" lon="103.3919116"><ele>649.8</ele><time>2026-06-12T21:37:57.000Z</time></trkpt>
        <trkpt lat="29.5734734" lon="103.3918874"><ele>660.04</ele><time>2026-06-12T21:38:01.000Z</time></trkpt>
        <trkpt lat="29.573413" lon="103.3918512"><ele>664.23</ele><time>2026-06-12T21:38:15.000Z</time></trkpt>
        <trkpt lat="29.5733207" lon="103.391845"><ele>666.28</ele><time>2026-06-12T21:38:25.000Z</time></trkpt>
        <trkpt lat="29.5732282" lon="103.391819"><ele>666.88</ele><time>2026-06-12T21:38:35.000Z</time></trkpt>
        <trkpt lat="29.5731314" lon="103.3917978"><ele>666.64</ele><time>2026-06-12T21:38:53.000Z</time></trkpt>
        <trkpt lat="29.5730322" lon="103.3918332"><ele>668.39</ele><time>2026-06-12T21:39:05.000Z</time></trkpt>
        <trkpt lat="29.5729274" lon="103.391858"><ele>669.85</ele><time>2026-06-12T21:39:13.000Z</time></trkpt>
        <trkpt lat="29.5728341" lon="103.3918949"><ele>669.1</ele><time>2026-06-12T21:39:25.000Z</time></trkpt>
        <trkpt lat="29.5728341" lon="103.3918949"><ele>669.1</ele><time>2026-06-12T21:39:35.000Z</time></trkpt>
        <trkpt lat="29.572727" lon="103.3918813"><ele>668.42</ele><time>2026-06-12T21:39:50.000Z</time></trkpt>
        <trkpt lat="29.572727" lon="103.3918813"><ele>668.42</ele><time>2026-06-12T21:39:52.000Z</time></trkpt>
        <trkpt lat="29.5726202" lon="103.3918734"><ele>665.12</ele><time>2026-06-12T21:40:07.000Z</time></trkpt>
        <trkpt lat="29.5725184" lon="103.3918952"><ele>669.39</ele><time>2026-06-12T21:40:19.000Z</time></trkpt>
        <trkpt lat="29.5724199" lon="103.391872"><ele>673.6</ele><time>2026-06-12T21:40:27.000Z</time></trkpt>
        <trkpt lat="29.5723284" lon="103.3918317"><ele>677.03</ele><time>2026-06-12T21:40:35.000Z</time></trkpt>
        <trkpt lat="29.5722373" lon="103.3917944"><ele>678.88</ele><time>2026-06-12T21:40:43.000Z</time></trkpt>
        <trkpt lat="29.5721376" lon="103.3917442"><ele>679.68</ele><time>2026-06-12T21:40:51.000Z</time></trkpt>
        <trkpt lat="29.5720387" lon="103.3917225"><ele>680.71</ele><time>2026-06-12T21:40:59.000Z</time></trkpt>
        <trkpt lat="29.5719446" lon="103.3917052"><ele>679.47</ele><time>2026-06-12T21:41:07.000Z</time></trkpt>
        <trkpt lat="29.5718508" lon="103.3917097"><ele>678.52</ele><time>2026-06-12T21:41:15.000Z</time></trkpt>
        <trkpt lat="29.5717605" lon="103.3916741"><ele>676.68</ele><time>2026-06-12T21:41:25.000Z</time></trkpt>
        <trkpt lat="29.5716646" lon="103.3916686"><ele>674</ele><time>2026-06-12T21:41:35.000Z</time></trkpt>
        <trkpt lat="29.5716273" lon="103.391701"><ele>671.96</ele><time>2026-06-12T21:41:43.000Z</time></trkpt>
        <trkpt lat="29.5716273" lon="103.391701"><ele>671.96</ele><time>2026-06-12T21:41:51.000Z</time></trkpt>
        <trkpt lat="29.5715525" lon="103.3917115"><ele>673.09</ele><time>2026-06-12T21:42:02.000Z</time></trkpt>
        <trkpt lat="29.5715525" lon="103.3917115"><ele>673.09</ele><time>2026-06-12T21:42:13.000Z</time></trkpt>
        <trkpt lat="29.5714524" lon="103.3917156"><ele>671.56</ele><time>2026-06-12T21:42:21.000Z</time></trkpt>
        <trkpt lat="29.5713479" lon="103.3917376"><ele>671.35</ele><time>2026-06-12T21:42:29.000Z</time></trkpt>
        <trkpt lat="29.5712403" lon="103.391724"><ele>671.48</ele><time>2026-06-12T21:42:37.000Z</time></trkpt>
        <trkpt lat="29.5711374" lon="103.3917073"><ele>671.67</ele><time>2026-06-12T21:42:45.000Z</time></trkpt>
        <trkpt lat="29.5710364" lon="103.3916958"><ele>671.87</ele><time>2026-06-12T21:42:55.000Z</time></trkpt>
        <trkpt lat="29.5710089" lon="103.3916765"><ele>672.61</ele><time>2026-06-12T21:42:59.000Z</time></trkpt>
        <trkpt lat="29.5709308" lon="103.391653"><ele>672.73</ele><time>2026-06-12T21:43:19.000Z</time></trkpt>
        <trkpt lat="29.5708425" lon="103.3916071"><ele>670.86</ele><time>2026-06-12T21:43:27.000Z</time></trkpt>
        <trkpt lat="29.570782" lon="103.3915781"><ele>671.79</ele><time>2026-06-12T21:43:33.000Z</time></trkpt>
        <trkpt lat="29.5706886" lon="103.3915639"><ele>672.36</ele><time>2026-06-12T21:44:00.000Z</time></trkpt>
        <trkpt lat="29.5705925" lon="103.3915666"><ele>673.98</ele><time>2026-06-12T21:44:18.000Z</time></trkpt>
        <trkpt lat="29.5705621" lon="103.3914901"><ele>672.3</ele><time>2026-06-12T21:44:30.000Z</time></trkpt>
        <trkpt lat="29.5705168" lon="103.3913999"><ele>669.64</ele><time>2026-06-12T21:44:38.000Z</time></trkpt>
        <trkpt lat="29.5704714" lon="103.3913001"><ele>668.09</ele><time>2026-06-12T21:44:46.000Z</time></trkpt>
        <trkpt lat="29.5704036" lon="103.3912071"><ele>666.3</ele><time>2026-06-12T21:44:54.000Z</time></trkpt>
        <trkpt lat="29.5703125" lon="103.3911469"><ele>665.72</ele><time>2026-06-12T21:45:02.000Z</time></trkpt>
        <trkpt lat="29.5702125" lon="103.3911166"><ele>666.3</ele><time>2026-06-12T21:45:14.000Z</time></trkpt>
        <trkpt lat="29.5701177" lon="103.391087"><ele>670.83</ele><time>2026-06-12T21:45:28.000Z</time></trkpt>
        <trkpt lat="29.5700227" lon="103.3910796"><ele>687.97</ele><time>2026-06-12T21:45:36.000Z</time></trkpt>
        <trkpt lat="29.5699295" lon="103.3911071"><ele>692.66</ele><time>2026-06-12T21:45:42.000Z</time></trkpt>
        <trkpt lat="29.5698383" lon="103.3911232"><ele>694.42</ele><time>2026-06-12T21:45:50.000Z</time></trkpt>
        <trkpt lat="29.5697425" lon="103.3911265"><ele>695.16</ele><time>2026-06-12T21:45:58.000Z</time></trkpt>
        <trkpt lat="29.5696514" lon="103.3910978"><ele>695.19</ele><time>2026-06-12T21:46:08.000Z</time></trkpt>
        <trkpt lat="29.5696248" lon="103.3910859"><ele>694.38</ele><time>2026-06-12T21:46:10.000Z</time></trkpt>
        <trkpt lat="29.5695469" lon="103.3910634"><ele>693.47</ele><time>2026-06-12T21:46:22.000Z</time></trkpt>
        <trkpt lat="29.5694599" lon="103.3910108"><ele>692.09</ele><time>2026-06-12T21:46:34.000Z</time></trkpt>
        <trkpt lat="29.5693628" lon="103.3909971"><ele>689.98</ele><time>2026-06-12T21:46:50.000Z</time></trkpt>
        <trkpt lat="29.5692614" lon="103.3909868"><ele>689.84</ele><time>2026-06-12T21:47:00.000Z</time></trkpt>
        <trkpt lat="29.5691589" lon="103.3910102"><ele>688.15</ele><time>2026-06-12T21:47:10.000Z</time></trkpt>
        <trkpt lat="29.5691047" lon="103.3911083"><ele>685.61</ele><time>2026-06-12T21:47:22.000Z</time></trkpt>
        <trkpt lat="29.5690274" lon="103.3911891"><ele>681.36</ele><time>2026-06-12T21:47:32.000Z</time></trkpt>
        <trkpt lat="29.5689807" lon="103.3911968"><ele>678.71</ele><time>2026-06-12T21:47:38.000Z</time></trkpt>
        <trkpt lat="29.5689067" lon="103.3912253"><ele>678.88</ele><time>2026-06-12T21:47:50.000Z</time></trkpt>
        <trkpt lat="29.5688704" lon="103.3912337"><ele>680.58</ele><time>2026-06-12T21:47:56.000Z</time></trkpt>
        <trkpt lat="29.5687911" lon="103.391224"><ele>681.71</ele><time>2026-06-12T21:48:12.000Z</time></trkpt>
        <trkpt lat="29.5687307" lon="103.3911333"><ele>683.97</ele><time>2026-06-12T21:48:24.000Z</time></trkpt>
        <trkpt lat="29.5686895" lon="103.3910412"><ele>685.19</ele><time>2026-06-12T21:48:32.000Z</time></trkpt>
        <trkpt lat="29.568628" lon="103.3909361"><ele>685.81</ele><time>2026-06-12T21:48:39.000Z</time></trkpt>
        <trkpt lat="29.5685513" lon="103.3908588"><ele>690.82</ele><time>2026-06-12T21:48:45.000Z</time></trkpt>
        <trkpt lat="29.5684119" lon="103.3908045"><ele>699.99</ele><time>2026-06-12T21:49:04.000Z</time></trkpt>
        <trkpt lat="29.5682912" lon="103.3908198"><ele>716.55</ele><time>2026-06-12T21:49:20.000Z</time></trkpt>
        <trkpt lat="29.5682188" lon="103.3907617"><ele>721.77</ele><time>2026-06-12T21:49:32.000Z</time></trkpt>
        <trkpt lat="29.5681345" lon="103.3907353"><ele>725.14</ele><time>2026-06-12T21:49:46.000Z</time></trkpt>
        <trkpt lat="29.568049" lon="103.3906812"><ele>731.06</ele><time>2026-06-12T21:50:02.000Z</time></trkpt>
        <trkpt lat="29.5679542" lon="103.3906397"><ele>733.74</ele><time>2026-06-12T21:50:18.000Z</time></trkpt>
        <trkpt lat="29.5678557" lon="103.3906534"><ele>734.33</ele><time>2026-06-12T21:50:28.000Z</time></trkpt>
        <trkpt lat="29.5677645" lon="103.390714"><ele>732.31</ele><time>2026-06-12T21:50:38.000Z</time></trkpt>
        <trkpt lat="29.5676769" lon="103.3906898"><ele>727.62</ele><time>2026-06-12T21:50:51.000Z</time></trkpt>
        <trkpt lat="29.5676438" lon="103.3906011"><ele>718.5</ele><time>2026-06-12T21:50:57.000Z</time></trkpt>
        <trkpt lat="29.567612" lon="103.3904841"><ele>713.25</ele><time>2026-06-12T21:51:09.000Z</time></trkpt>
        <trkpt lat="29.5675814" lon="103.3903734"><ele>711.9</ele><time>2026-06-12T21:51:17.000Z</time></trkpt>
        <trkpt lat="29.5675139" lon="103.390286"><ele>709.64</ele><time>2026-06-12T21:51:29.000Z</time></trkpt>
        <trkpt lat="29.5674185" lon="103.3902697"><ele>703.1</ele><time>2026-06-12T21:51:40.000Z</time></trkpt>
        <trkpt lat="29.5673949" lon="103.3900342"><ele>699.61</ele><time>2026-06-12T21:51:48.000Z</time></trkpt>
        <trkpt lat="29.5673117" lon="103.3899668"><ele>704.07</ele><time>2026-06-12T21:51:58.000Z</time></trkpt>
        <trkpt lat="29.5672197" lon="103.3899413"><ele>710.31</ele><time>2026-06-12T21:52:06.000Z</time></trkpt>
        <trkpt lat="29.5671192" lon="103.389956"><ele>712.77</ele><time>2026-06-12T21:52:14.000Z</time></trkpt>
        <trkpt lat="29.5670269" lon="103.3899387"><ele>712.42</ele><time>2026-06-12T21:52:24.000Z</time></trkpt>
        <trkpt lat="29.5669274" lon="103.3899367"><ele>713.41</ele><time>2026-06-12T21:52:34.000Z</time></trkpt>
        <trkpt lat="29.5668317" lon="103.3899498"><ele>714.4</ele><time>2026-06-12T21:52:42.000Z</time></trkpt>
        <trkpt lat="29.5667319" lon="103.3899736"><ele>715.58</ele><time>2026-06-12T21:52:52.000Z</time></trkpt>
        <trkpt lat="29.5666433" lon="103.3899378"><ele>715.69</ele><time>2026-06-12T21:53:04.000Z</time></trkpt>
        <trkpt lat="29.5665616" lon="103.3898718"><ele>714.32</ele><time>2026-06-12T21:53:18.000Z</time></trkpt>
        <trkpt lat="29.5664758" lon="103.3898226"><ele>711.08</ele><time>2026-06-12T21:53:28.000Z</time></trkpt>
        <trkpt lat="29.5663844" lon="103.3897924"><ele>709.15</ele><time>2026-06-12T21:53:41.000Z</time></trkpt>
        <trkpt lat="29.566329" lon="103.3897803"><ele>706.62</ele><time>2026-06-12T21:53:51.000Z</time></trkpt>
        <trkpt lat="29.5662504" lon="103.38976"><ele>705.48</ele><time>2026-06-12T21:54:03.000Z</time></trkpt>
        <trkpt lat="29.5661636" lon="103.3897081"><ele>704.89</ele><time>2026-06-12T21:54:13.000Z</time></trkpt>
        <trkpt lat="29.5660736" lon="103.3896695"><ele>705.4</ele><time>2026-06-12T21:54:21.000Z</time></trkpt>
        <trkpt lat="29.565969" lon="103.3896901"><ele>704.91</ele><time>2026-06-12T21:54:33.000Z</time></trkpt>
        <trkpt lat="29.5658677" lon="103.3897411"><ele>704.37</ele><time>2026-06-12T21:54:41.000Z</time></trkpt>
        <trkpt lat="29.5657751" lon="103.3897778"><ele>703.43</ele><time>2026-06-12T21:54:53.000Z</time></trkpt>
        <trkpt lat="29.5656826" lon="103.3897788"><ele>702.67</ele><time>2026-06-12T21:55:07.000Z</time></trkpt>
        <trkpt lat="29.5656593" lon="103.3896932"><ele>704.97</ele><time>2026-06-12T21:55:27.000Z</time></trkpt>
        <trkpt lat="29.5656021" lon="103.3896068"><ele>707.73</ele><time>2026-06-12T21:55:45.000Z</time></trkpt>
        <trkpt lat="29.5655184" lon="103.3895294"><ele>711.48</ele><time>2026-06-12T21:55:57.000Z</time></trkpt>
        <trkpt lat="29.5654447" lon="103.3894443"><ele>714.62</ele><time>2026-06-12T21:56:09.000Z</time></trkpt>
        <trkpt lat="29.5654207" lon="103.3894447"><ele>716.21</ele><time>2026-06-12T21:56:13.000Z</time></trkpt>
        <trkpt lat="29.5654207" lon="103.3894447"><ele>716.21</ele><time>2026-06-12T21:56:27.000Z</time></trkpt>
        <trkpt lat="29.565355" lon="103.3894775"><ele>716.12</ele><time>2026-06-12T21:56:28.000Z</time></trkpt>
        <trkpt lat="29.565355" lon="103.3894775"><ele>716.12</ele><time>2026-06-12T21:56:35.000Z</time></trkpt>
        <trkpt lat="29.5652762" lon="103.3894518"><ele>714.47</ele><time>2026-06-12T21:56:43.000Z</time></trkpt>
        <trkpt lat="29.5651845" lon="103.3894122"><ele>714.08</ele><time>2026-06-12T21:56:51.000Z</time></trkpt>
        <trkpt lat="29.56513" lon="103.389321"><ele>712.43</ele><time>2026-06-12T21:56:59.000Z</time></trkpt>
        <trkpt lat="29.5650623" lon="103.38923"><ele>710.67</ele><time>2026-06-12T21:57:11.000Z</time></trkpt>
        <trkpt lat="29.5650104" lon="103.389135"><ele>710.47</ele><time>2026-06-12T21:57:23.000Z</time></trkpt>
        <trkpt lat="29.5649494" lon="103.3890556"><ele>711.69</ele><time>2026-06-12T21:57:37.000Z</time></trkpt>
        <trkpt lat="29.5648875" lon="103.3889594"><ele>713</ele><time>2026-06-12T21:57:49.000Z</time></trkpt>
        <trkpt lat="29.5648312" lon="103.3889233"><ele>713.44</ele><time>2026-06-12T21:57:59.000Z</time></trkpt>
        <trkpt lat="29.5648312" lon="103.3889233"><ele>713.44</ele><time>2026-06-12T21:58:37.000Z</time></trkpt>
        <trkpt lat="29.5647349" lon="103.3889857"><ele>712.67</ele><time>2026-06-12T21:58:44.000Z</time></trkpt>
        <trkpt lat="29.5647349" lon="103.3889857"><ele>712.67</ele><time>2026-06-12T21:59:01.000Z</time></trkpt>
        <trkpt lat="29.5647273" lon="103.3889743"><ele>711.42</ele><time>2026-06-12T21:59:03.000Z</time></trkpt>
        <trkpt lat="29.564659" lon="103.3889157"><ele>710.82</ele><time>2026-06-12T21:59:19.000Z</time></trkpt>
        <trkpt lat="29.5645745" lon="103.3888772"><ele>710.72</ele><time>2026-06-12T21:59:29.000Z</time></trkpt>
        <trkpt lat="29.5645609" lon="103.388859"><ele>710.04</ele><time>2026-06-12T21:59:37.000Z</time></trkpt>
        <trkpt lat="29.5644939" lon="103.388867"><ele>709.29</ele><time>2026-06-12T21:59:58.000Z</time></trkpt>
        <trkpt lat="29.5644076" lon="103.3888396"><ele>708.54</ele><time>2026-06-12T22:00:10.000Z</time></trkpt>
        <trkpt lat="29.564307" lon="103.3888259"><ele>709.27</ele><time>2026-06-12T22:00:26.000Z</time></trkpt>
        <trkpt lat="29.564307" lon="103.3888259"><ele>709.27</ele><time>2026-06-12T22:00:47.000Z</time></trkpt>
        <trkpt lat="29.5642293" lon="103.3889472"><ele>711.12</ele><time>2026-06-12T22:00:56.000Z</time></trkpt>
        <trkpt lat="29.5642293" lon="103.3889472"><ele>711.12</ele><time>2026-06-12T22:01:01.000Z</time></trkpt>
        <trkpt lat="29.5641297" lon="103.3889914"><ele>724.02</ele><time>2026-06-12T22:01:15.000Z</time></trkpt>
        <trkpt lat="29.5640415" lon="103.3890364"><ele>727.67</ele><time>2026-06-12T22:01:25.000Z</time></trkpt>
        <trkpt lat="29.5639523" lon="103.3890603"><ele>728.78</ele><time>2026-06-12T22:01:37.000Z</time></trkpt>
        <trkpt lat="29.5638636" lon="103.3890336"><ele>731.69</ele><time>2026-06-12T22:01:47.000Z</time></trkpt>
        <trkpt lat="29.5637746" lon="103.3889958"><ele>731.26</ele><time>2026-06-12T22:01:53.000Z</time></trkpt>
        <trkpt lat="29.563683" lon="103.3889522"><ele>730.29</ele><time>2026-06-12T22:02:03.000Z</time></trkpt>
        <trkpt lat="29.5636392" lon="103.3888999"><ele>730.84</ele><time>2026-06-12T22:02:15.000Z</time></trkpt>
        <trkpt lat="29.5636392" lon="103.3888999"><ele>730.84</ele><time>2026-06-12T22:02:41.000Z</time></trkpt>
        <trkpt lat="29.563565" lon="103.388861"><ele>729.51</ele><time>2026-06-12T22:02:44.000Z</time></trkpt>
        <trkpt lat="29.563565" lon="103.388861"><ele>729.51</ele><time>2026-06-12T22:02:47.000Z</time></trkpt>
        <trkpt lat="29.5634734" lon="103.3888808"><ele>729.22</ele><time>2026-06-12T22:03:03.000Z</time></trkpt>
        <trkpt lat="29.563371" lon="103.3889023"><ele>729.98</ele><time>2026-06-12T22:03:17.000Z</time></trkpt>
        <trkpt lat="29.5632646" lon="103.3889018"><ele>730.7</ele><time>2026-06-12T22:03:29.000Z</time></trkpt>
        <trkpt lat="29.5631553" lon="103.3889154"><ele>731.35</ele><time>2026-06-12T22:03:39.000Z</time></trkpt>
        <trkpt lat="29.5630627" lon="103.388975"><ele>729.61</ele><time>2026-06-12T22:03:47.000Z</time></trkpt>
        <trkpt lat="29.5630264" lon="103.3890316"><ele>728.38</ele><time>2026-06-12T22:03:57.000Z</time></trkpt>
        <trkpt lat="29.5629464" lon="103.3890558"><ele>728.58</ele><time>2026-06-12T22:04:24.000Z</time></trkpt>
        <trkpt lat="29.5628464" lon="103.3890922"><ele>728.95</ele><time>2026-06-12T22:04:34.000Z</time></trkpt>
        <trkpt lat="29.5627494" lon="103.3891075"><ele>730.08</ele><time>2026-06-12T22:04:46.000Z</time></trkpt>
        <trkpt lat="29.5627494" lon="103.3891075"><ele>730.08</ele><time>2026-06-12T22:05:01.000Z</time></trkpt>
        <trkpt lat="29.5627494" lon="103.3891075"><ele>730.08</ele><time>2026-06-12T22:05:17.000Z</time></trkpt>
        <trkpt lat="29.5627494" lon="103.3891075"><ele>730.08</ele><time>2026-06-12T22:05:19.000Z</time></trkpt>
        <trkpt lat="29.5626537" lon="103.3891086"><ele>732.12</ele><time>2026-06-12T22:05:20.000Z</time></trkpt>
        <trkpt lat="29.5626537" lon="103.3891086"><ele>732.12</ele><time>2026-06-12T22:05:34.000Z</time></trkpt>
        <trkpt lat="29.5625574" lon="103.3891102"><ele>733.83</ele><time>2026-06-12T22:05:48.000Z</time></trkpt>
        <trkpt lat="29.5624606" lon="103.3890874"><ele>734.9</ele><time>2026-06-12T22:06:04.000Z</time></trkpt>
        <trkpt lat="29.5623678" lon="103.3890745"><ele>738.83</ele><time>2026-06-12T22:06:14.000Z</time></trkpt>
        <trkpt lat="29.5622669" lon="103.3890768"><ele>739.38</ele><time>2026-06-12T22:06:22.000Z</time></trkpt>
        <trkpt lat="29.5621639" lon="103.3890931"><ele>740.08</ele><time>2026-06-12T22:06:30.000Z</time></trkpt>
        <trkpt lat="29.5620745" lon="103.3891481"><ele>739.57</ele><time>2026-06-12T22:06:40.000Z</time></trkpt>
        <trkpt lat="29.5620175" lon="103.3892365"><ele>740.63</ele><time>2026-06-12T22:06:54.000Z</time></trkpt>
        <trkpt lat="29.5620726" lon="103.3892937"><ele>740.93</ele><time>2026-06-12T22:07:04.000Z</time></trkpt>
        <trkpt lat="29.5621169" lon="103.3893877"><ele>740.96</ele><time>2026-06-12T22:07:16.000Z</time></trkpt>
        <trkpt lat="29.5620818" lon="103.3894731"><ele>738.77</ele><time>2026-06-12T22:07:26.000Z</time></trkpt>
        <trkpt lat="29.5619982" lon="103.3894884"><ele>736.23</ele><time>2026-06-12T22:07:36.000Z</time></trkpt>
        <trkpt lat="29.5618927" lon="103.3894735"><ele>736.18</ele><time>2026-06-12T22:07:48.000Z</time></trkpt>
        <trkpt lat="29.561789" lon="103.3894264"><ele>740.52</ele><time>2026-06-12T22:08:00.000Z</time></trkpt>
        <trkpt lat="29.5616982" lon="103.3893567"><ele>745.54</ele><time>2026-06-12T22:08:10.000Z</time></trkpt>
        <trkpt lat="29.5616066" lon="103.3893303"><ele>747.85</ele><time>2026-06-12T22:08:18.000Z</time></trkpt>
        <trkpt lat="29.5615098" lon="103.3893336"><ele>749.78</ele><time>2026-06-12T22:08:26.000Z</time></trkpt>
        <trkpt lat="29.5614013" lon="103.3893211"><ele>751.86</ele><time>2026-06-12T22:08:36.000Z</time></trkpt>
        <trkpt lat="29.5612946" lon="103.3893058"><ele>753.73</ele><time>2026-06-12T22:08:46.000Z</time></trkpt>
        <trkpt lat="29.5611949" lon="103.3893336"><ele>753.72</ele><time>2026-06-12T22:08:56.000Z</time></trkpt>
        <trkpt lat="29.5611001" lon="103.3893584"><ele>754.74</ele><time>2026-06-12T22:09:06.000Z</time></trkpt>
        <trkpt lat="29.5609962" lon="103.3893801"><ele>755.49</ele><time>2026-06-12T22:09:18.000Z</time></trkpt>
        <trkpt lat="29.5608864" lon="103.3893956"><ele>754.58</ele><time>2026-06-12T22:09:28.000Z</time></trkpt>
        <trkpt lat="29.5607853" lon="103.3894123"><ele>753.41</ele><time>2026-06-12T22:09:36.000Z</time></trkpt>
        <trkpt lat="29.5606849" lon="103.3894269"><ele>752.2</ele><time>2026-06-12T22:09:44.000Z</time></trkpt>
        <trkpt lat="29.5605916" lon="103.3894504"><ele>751.15</ele><time>2026-06-12T22:09:52.000Z</time></trkpt>
        <trkpt lat="29.5605195" lon="103.3893875"><ele>750.45</ele><time>2026-06-12T22:10:04.000Z</time></trkpt>
        <trkpt lat="29.5604367" lon="103.3893261"><ele>766.5</ele><time>2026-06-12T22:10:12.000Z</time></trkpt>
        <trkpt lat="29.5603498" lon="103.3893323"><ele>773.21</ele><time>2026-06-12T22:10:24.000Z</time></trkpt>
        <trkpt lat="29.5603054" lon="103.3892641"><ele>775.3</ele><time>2026-06-12T22:10:56.000Z</time></trkpt>
        <trkpt lat="29.5602349" lon="103.3892132"><ele>770.77</ele><time>2026-06-12T22:11:20.000Z</time></trkpt>
        <trkpt lat="29.560182" lon="103.3891303"><ele>765.06</ele><time>2026-06-12T22:11:58.000Z</time></trkpt>
        <trkpt lat="29.5601471" lon="103.3890156"><ele>763.5</ele><time>2026-06-12T22:12:08.000Z</time></trkpt>
        <trkpt lat="29.560113" lon="103.3889086"><ele>761.85</ele><time>2026-06-12T22:12:18.000Z</time></trkpt>
        <trkpt lat="29.5601091" lon="103.3887896"><ele>761.08</ele><time>2026-06-12T22:12:32.000Z</time></trkpt>
        <trkpt lat="29.5601708" lon="103.388707"><ele>762.98</ele><time>2026-06-12T22:12:40.000Z</time></trkpt>
        <trkpt lat="29.5601206" lon="103.388673"><ele>763.48</ele><time>2026-06-12T22:12:50.000Z</time></trkpt>
        <trkpt lat="29.5600314" lon="103.3886507"><ele>764.87</ele><time>2026-06-12T22:12:58.000Z</time></trkpt>
        <trkpt lat="29.5599344" lon="103.3886214"><ele>765.02</ele><time>2026-06-12T22:13:06.000Z</time></trkpt>
        <trkpt lat="29.5598508" lon="103.3885684"><ele>765.44</ele><time>2026-06-12T22:13:14.000Z</time></trkpt>
        <trkpt lat="29.5597656" lon="103.3885013"><ele>766.07</ele><time>2026-06-12T22:13:24.000Z</time></trkpt>
        <trkpt lat="29.5596908" lon="103.38841"><ele>768.03</ele><time>2026-06-12T22:13:36.000Z</time></trkpt>
        <trkpt lat="29.5596448" lon="103.3882921"><ele>770.14</ele><time>2026-06-12T22:13:46.000Z</time></trkpt>
        <trkpt lat="29.5595741" lon="103.3882"><ele>771.87</ele><time>2026-06-12T22:13:54.000Z</time></trkpt>
        <trkpt lat="29.559509" lon="103.3881129"><ele>775.1</ele><time>2026-06-12T22:14:06.000Z</time></trkpt>
        <trkpt lat="29.5594385" lon="103.3880202"><ele>775.32</ele><time>2026-06-12T22:14:16.000Z</time></trkpt>
        <trkpt lat="29.5593429" lon="103.3879708"><ele>775.29</ele><time>2026-06-12T22:14:26.000Z</time></trkpt>
        <trkpt lat="29.5592509" lon="103.3879045"><ele>772.29</ele><time>2026-06-12T22:14:34.000Z</time></trkpt>
        <trkpt lat="29.5591611" lon="103.3878434"><ele>769.89</ele><time>2026-06-12T22:14:42.000Z</time></trkpt>
        <trkpt lat="29.5590611" lon="103.3878162"><ele>768.3</ele><time>2026-06-12T22:14:50.000Z</time></trkpt>
        <trkpt lat="29.5589492" lon="103.3878078"><ele>766.33</ele><time>2026-06-12T22:15:03.000Z</time></trkpt>
        <trkpt lat="29.5588527" lon="103.3878266"><ele>763.74</ele><time>2026-06-12T22:15:11.000Z</time></trkpt>
        <trkpt lat="29.5587426" lon="103.387832"><ele>763.26</ele><time>2026-06-12T22:15:19.000Z</time></trkpt>
        <trkpt lat="29.558642" lon="103.3878325"><ele>763.59</ele><time>2026-06-12T22:15:29.000Z</time></trkpt>
        <trkpt lat="29.5585494" lon="103.387797"><ele>766.55</ele><time>2026-06-12T22:15:39.000Z</time></trkpt>
        <trkpt lat="29.5584665" lon="103.3877158"><ele>767.72</ele><time>2026-06-12T22:15:49.000Z</time></trkpt>
        <trkpt lat="29.5584107" lon="103.387609"><ele>768.4</ele><time>2026-06-12T22:15:57.000Z</time></trkpt>
        <trkpt lat="29.5583438" lon="103.3875027"><ele>770.25</ele><time>2026-06-12T22:16:05.000Z</time></trkpt>
        <trkpt lat="29.5582777" lon="103.3874067"><ele>772.86</ele><time>2026-06-12T22:16:15.000Z</time></trkpt>
        <trkpt lat="29.5582121" lon="103.3873244"><ele>771.42</ele><time>2026-06-12T22:16:27.000Z</time></trkpt>
        <trkpt lat="29.5581634" lon="103.387279"><ele>770.96</ele><time>2026-06-12T22:16:41.000Z</time></trkpt>
        <trkpt lat="29.5581012" lon="103.3872121"><ele>771.78</ele><time>2026-06-12T22:17:07.000Z</time></trkpt>
        <trkpt lat="29.5580177" lon="103.3871588"><ele>772.81</ele><time>2026-06-12T22:17:19.000Z</time></trkpt>
        <trkpt lat="29.5579228" lon="103.3871403"><ele>774.76</ele><time>2026-06-12T22:17:31.000Z</time></trkpt>
        <trkpt lat="29.5578304" lon="103.3871121"><ele>776.74</ele><time>2026-06-12T22:17:43.000Z</time></trkpt>
        <trkpt lat="29.5577306" lon="103.3870816"><ele>778.92</ele><time>2026-06-12T22:17:55.000Z</time></trkpt>
        <trkpt lat="29.5576748" lon="103.3870029"><ele>780.46</ele><time>2026-06-12T22:18:11.000Z</time></trkpt>
        <trkpt lat="29.5576985" lon="103.3868989"><ele>783.75</ele><time>2026-06-12T22:18:28.000Z</time></trkpt>
        <trkpt lat="29.5576808" lon="103.3867935"><ele>788.68</ele><time>2026-06-12T22:18:46.000Z</time></trkpt>
        <trkpt lat="29.5576148" lon="103.3867207"><ele>790.18</ele><time>2026-06-12T22:18:58.000Z</time></trkpt>
        <trkpt lat="29.5575427" lon="103.3866528"><ele>790.92</ele><time>2026-06-12T22:19:08.000Z</time></trkpt>
        <trkpt lat="29.5574681" lon="103.386576"><ele>791.38</ele><time>2026-06-12T22:19:18.000Z</time></trkpt>
        <trkpt lat="29.5573758" lon="103.3865351"><ele>792.46</ele><time>2026-06-12T22:19:28.000Z</time></trkpt>
        <trkpt lat="29.5573093" lon="103.3864641"><ele>791.16</ele><time>2026-06-12T22:19:42.000Z</time></trkpt>
        <trkpt lat="29.5572292" lon="103.3864117"><ele>790.64</ele><time>2026-06-12T22:19:54.000Z</time></trkpt>
        <trkpt lat="29.5571385" lon="103.386424"><ele>790.71</ele><time>2026-06-12T22:20:12.000Z</time></trkpt>
        <trkpt lat="29.5570939" lon="103.3864461"><ele>791.5</ele><time>2026-06-12T22:20:18.000Z</time></trkpt>
        <trkpt lat="29.5570939" lon="103.3864461"><ele>791.5</ele><time>2026-06-12T22:20:49.000Z</time></trkpt>
        <trkpt lat="29.5570472" lon="103.3863799"><ele>791.71</ele><time>2026-06-12T22:20:50.000Z</time></trkpt>
        <trkpt lat="29.5570472" lon="103.3863799"><ele>791.71</ele><time>2026-06-12T22:21:06.000Z</time></trkpt>
        <trkpt lat="29.5570127" lon="103.3862779"><ele>792.45</ele><time>2026-06-12T22:21:14.000Z</time></trkpt>
        <trkpt lat="29.5569626" lon="103.3861844"><ele>794.29</ele><time>2026-06-12T22:21:22.000Z</time></trkpt>
        <trkpt lat="29.5568913" lon="103.3861093"><ele>796.6</ele><time>2026-06-12T22:21:30.000Z</time></trkpt>
        <trkpt lat="29.5568281" lon="103.3860257"><ele>798.85</ele><time>2026-06-12T22:21:41.000Z</time></trkpt>
        <trkpt lat="29.5567444" lon="103.3860138"><ele>797.64</ele><time>2026-06-12T22:22:03.000Z</time></trkpt>
        <trkpt lat="29.5567444" lon="103.3860138"><ele>797.64</ele><time>2026-06-12T22:22:21.000Z</time></trkpt>
        <trkpt lat="29.5568359" lon="103.3859433"><ele>793.46</ele><time>2026-06-12T22:22:26.000Z</time></trkpt>
        <trkpt lat="29.5568359" lon="103.3859433"><ele>793.46</ele><time>2026-06-12T22:22:30.000Z</time></trkpt>
        <trkpt lat="29.5568359" lon="103.3859433"><ele>793.46</ele><time>2026-06-12T22:22:37.000Z</time></trkpt>
        <trkpt lat="29.5568359" lon="103.3859433"><ele>793.46</ele><time>2026-06-12T22:24:10.000Z</time></trkpt>
        <trkpt lat="29.5568359" lon="103.3859433"><ele>793.46</ele><time>2026-06-12T22:24:51.000Z</time></trkpt>
        <trkpt lat="29.5567747" lon="103.3861014"><ele>796.07</ele><time>2026-06-12T22:25:20.000Z</time></trkpt>
        <trkpt lat="29.5567747" lon="103.3861014"><ele>796.07</ele><time>2026-06-12T22:25:39.000Z</time></trkpt>
        <trkpt lat="29.5566914" lon="103.3861559"><ele>792.34</ele><time>2026-06-12T22:25:51.000Z</time></trkpt>
        <trkpt lat="29.5565846" lon="103.3861689"><ele>793.67</ele><time>2026-06-12T22:26:09.000Z</time></trkpt>
        <trkpt lat="29.5565846" lon="103.3861689"><ele>793.67</ele><time>2026-06-12T22:27:05.000Z</time></trkpt>
        <trkpt lat="29.556393" lon="103.3862923"><ele>796.42</ele><time>2026-06-12T22:27:10.000Z</time></trkpt>
        <trkpt lat="29.556393" lon="103.3862923"><ele>796.42</ele><time>2026-06-12T22:27:15.000Z</time></trkpt>
        <trkpt lat="29.556393" lon="103.3862923"><ele>796.42</ele><time>2026-06-12T22:27:21.000Z</time></trkpt>
        <trkpt lat="29.5565549" lon="103.3862485"><ele>797.87</ele><time>2026-06-12T22:27:26.000Z</time></trkpt>
        <trkpt lat="29.5565549" lon="103.3862485"><ele>797.87</ele><time>2026-06-12T22:27:30.000Z</time></trkpt>
        <trkpt lat="29.5565454" lon="103.3861535"><ele>806.94</ele><time>2026-06-12T22:27:39.000Z</time></trkpt>
        <trkpt lat="29.5565062" lon="103.386047"><ele>809.3</ele><time>2026-06-12T22:27:51.000Z</time></trkpt>
        <trkpt lat="29.5564651" lon="103.385942"><ele>808.51</ele><time>2026-06-12T22:28:19.000Z</time></trkpt>
        <trkpt lat="29.5564651" lon="103.385942"><ele>808.51</ele><time>2026-06-12T22:28:23.000Z</time></trkpt>
        <trkpt lat="29.556562" lon="103.3859043"><ele>809.39</ele><time>2026-06-12T22:28:26.000Z</time></trkpt>
        <trkpt lat="29.556562" lon="103.3859043"><ele>809.39</ele><time>2026-06-12T22:28:31.000Z</time></trkpt>
        <trkpt lat="29.5565142" lon="103.3859362"><ele>812.98</ele><time>2026-06-12T22:28:39.000Z</time></trkpt>
        <trkpt lat="29.5564419" lon="103.3860089"><ele>813.5</ele><time>2026-06-12T22:28:51.000Z</time></trkpt>
        <trkpt lat="29.5563652" lon="103.3860976"><ele>815.13</ele><time>2026-06-12T22:29:21.000Z</time></trkpt>
        <trkpt lat="29.5562684" lon="103.3861373"><ele>817.67</ele><time>2026-06-12T22:29:49.000Z</time></trkpt>
        <trkpt lat="29.5561772" lon="103.386177"><ele>819.51</ele><time>2026-06-12T22:30:15.000Z</time></trkpt>
        <trkpt lat="29.5560813" lon="103.3861594"><ele>822.59</ele><time>2026-06-12T22:30:49.000Z</time></trkpt>
        <trkpt lat="29.5560813" lon="103.3861594"><ele>822.59</ele><time>2026-06-12T22:31:07.000Z</time></trkpt>
        <trkpt lat="29.5560126" lon="103.3862236"><ele>826.13</ele><time>2026-06-12T22:31:14.000Z</time></trkpt>
        <trkpt lat="29.5560126" lon="103.3862236"><ele>826.13</ele><time>2026-06-12T22:31:18.000Z</time></trkpt>
        <trkpt lat="29.5559792" lon="103.3861696"><ele>834.59</ele><time>2026-06-12T22:31:33.000Z</time></trkpt>
        <trkpt lat="29.5559471" lon="103.3860646"><ele>837.98</ele><time>2026-06-12T22:31:49.000Z</time></trkpt>
        <trkpt lat="29.5559471" lon="103.3860646"><ele>837.98</ele><time>2026-06-12T22:32:15.000Z</time></trkpt>
        <trkpt lat="29.5560006" lon="103.3859696"><ele>839.06</ele><time>2026-06-12T22:32:34.000Z</time></trkpt>
        <trkpt lat="29.5560006" lon="103.3859696"><ele>839.06</ele><time>2026-06-12T22:32:47.000Z</time></trkpt>
        <trkpt lat="29.5560291" lon="103.3858588"><ele>842.81</ele><time>2026-06-12T22:33:39.000Z</time></trkpt>
        <trkpt lat="29.5560291" lon="103.3858588"><ele>842.81</ele><time>2026-06-12T22:34:07.000Z</time></trkpt>
        <trkpt lat="29.5560474" lon="103.3857442"><ele>845.77</ele><time>2026-06-12T22:34:16.000Z</time></trkpt>
        <trkpt lat="29.5560474" lon="103.3857442"><ele>845.77</ele><time>2026-06-12T22:34:23.000Z</time></trkpt>
        <trkpt lat="29.5560732" lon="103.385638"><ele>845.87</ele><time>2026-06-12T22:34:37.000Z</time></trkpt>
        <trkpt lat="29.5561076" lon="103.3855358"><ele>849.29</ele><time>2026-06-12T22:34:53.000Z</time></trkpt>
        <trkpt lat="29.5561076" lon="103.3855358"><ele>849.29</ele><time>2026-06-12T22:35:21.000Z</time></trkpt>
        <trkpt lat="29.5560945" lon="103.3853525"><ele>853.65</ele><time>2026-06-12T22:35:54.000Z</time></trkpt>
        <trkpt lat="29.5560945" lon="103.3853525"><ele>853.65</ele><time>2026-06-12T22:35:57.000Z</time></trkpt>
        <trkpt lat="29.5561698" lon="103.38542"><ele>848.7</ele><time>2026-06-12T22:36:01.000Z</time></trkpt>
        <trkpt lat="29.556158" lon="103.385525"><ele>850.24</ele><time>2026-06-12T22:36:11.000Z</time></trkpt>
        <trkpt lat="29.5560965" lon="103.3856045"><ele>854.81</ele><time>2026-06-12T22:36:27.000Z</time></trkpt>
        <trkpt lat="29.5560059" lon="103.3856535"><ele>859.06</ele><time>2026-06-12T22:36:41.000Z</time></trkpt>
        <trkpt lat="29.5559356" lon="103.3856434"><ele>862.22</ele><time>2026-06-12T22:37:15.000Z</time></trkpt>
        <trkpt lat="29.5559356" lon="103.3856434"><ele>862.22</ele><time>2026-06-12T22:37:25.000Z</time></trkpt>
        <trkpt lat="29.5558491" lon="103.385615"><ele>868.35</ele><time>2026-06-12T22:37:30.000Z</time></trkpt>
        <trkpt lat="29.5558491" lon="103.385615"><ele>868.35</ele><time>2026-06-12T22:38:01.000Z</time></trkpt>
        <trkpt lat="29.5557712" lon="103.3855508"><ele>875.54</ele><time>2026-06-12T22:38:23.000Z</time></trkpt>
        <trkpt lat="29.5557712" lon="103.3855508"><ele>875.54</ele><time>2026-06-12T22:38:43.000Z</time></trkpt>
        <trkpt lat="29.5557287" lon="103.3854304"><ele>877.8</ele><time>2026-06-12T22:39:12.000Z</time></trkpt>
        <trkpt lat="29.5557287" lon="103.3854304"><ele>877.8</ele><time>2026-06-12T22:39:41.000Z</time></trkpt>
        <trkpt lat="29.5557287" lon="103.3854304"><ele>877.8</ele><time>2026-06-12T22:40:07.000Z</time></trkpt>
        <trkpt lat="29.555692" lon="103.3853265"><ele>881.76</ele><time>2026-06-12T22:40:08.000Z</time></trkpt>
        <trkpt lat="29.555692" lon="103.3853265"><ele>881.76</ele><time>2026-06-12T22:40:27.000Z</time></trkpt>
        <trkpt lat="29.5556939" lon="103.3852355"><ele>886.71</ele><time>2026-06-12T22:40:41.000Z</time></trkpt>
        <trkpt lat="29.5556866" lon="103.3851336"><ele>889.46</ele><time>2026-06-12T22:41:05.000Z</time></trkpt>
        <trkpt lat="29.5556866" lon="103.3851336"><ele>889.46</ele><time>2026-06-12T22:41:49.000Z</time></trkpt>
        <trkpt lat="29.5556718" lon="103.3850293"><ele>893.28</ele><time>2026-06-12T22:42:07.000Z</time></trkpt>
        <trkpt lat="29.5556718" lon="103.3850293"><ele>893.28</ele><time>2026-06-12T22:42:16.000Z</time></trkpt>
        <trkpt lat="29.5556718" lon="103.3850293"><ele>893.28</ele><time>2026-06-12T22:42:23.000Z</time></trkpt>
        <trkpt lat="29.5556718" lon="103.3850293"><ele>893.28</ele><time>2026-06-12T22:42:26.000Z</time></trkpt>
        <trkpt lat="29.5556718" lon="103.3850293"><ele>893.28</ele><time>2026-06-12T22:42:41.000Z</time></trkpt>
        <trkpt lat="29.5557454" lon="103.3850912"><ele>897.43</ele><time>2026-06-12T22:42:52.000Z</time></trkpt>
        <trkpt lat="29.5557454" lon="103.3850912"><ele>897.43</ele><time>2026-06-12T22:42:57.000Z</time></trkpt>
        <trkpt lat="29.5556771" lon="103.3851359"><ele>900.18</ele><time>2026-06-12T22:43:15.000Z</time></trkpt>
        <trkpt lat="29.5556771" lon="103.3851359"><ele>900.18</ele><time>2026-06-12T22:43:45.000Z</time></trkpt>
        <trkpt lat="29.5555825" lon="103.3851176"><ele>905.23</ele><time>2026-06-12T22:43:50.000Z</time></trkpt>
        <trkpt lat="29.5555825" lon="103.3851176"><ele>905.23</ele><time>2026-06-12T22:43:58.000Z</time></trkpt>
        <trkpt lat="29.5555311" lon="103.3850863"><ele>905.86</ele><time>2026-06-12T22:44:04.000Z</time></trkpt>
        <trkpt lat="29.5554445" lon="103.3850382"><ele>905.92</ele><time>2026-06-12T22:44:30.000Z</time></trkpt>
        <trkpt lat="29.5553512" lon="103.3850051"><ele>905.11</ele><time>2026-06-12T22:44:54.000Z</time></trkpt>
        <trkpt lat="29.5553512" lon="103.3850051"><ele>905.11</ele><time>2026-06-12T22:45:29.000Z</time></trkpt>
        <trkpt lat="29.5552607" lon="103.3850325"><ele>906.39</ele><time>2026-06-12T22:45:36.000Z</time></trkpt>
        <trkpt lat="29.5552607" lon="103.3850325"><ele>906.39</ele><time>2026-06-12T22:45:51.000Z</time></trkpt>
        <trkpt lat="29.555169" lon="103.3850345"><ele>915.66</ele><time>2026-06-12T22:46:15.000Z</time></trkpt>
        <trkpt lat="29.5550796" lon="103.3850119"><ele>923.22</ele><time>2026-06-12T22:46:33.000Z</time></trkpt>
        <trkpt lat="29.554993" lon="103.3849738"><ele>926.41</ele><time>2026-06-12T22:46:53.000Z</time></trkpt>
        <trkpt lat="29.5549131" lon="103.38491"><ele>929.44</ele><time>2026-06-12T22:47:09.000Z</time></trkpt>
        <trkpt lat="29.5548463" lon="103.3848261"><ele>932.37</ele><time>2026-06-12T22:47:25.000Z</time></trkpt>
        <trkpt lat="29.5547746" lon="103.3847429"><ele>933.68</ele><time>2026-06-12T22:47:41.000Z</time></trkpt>
        <trkpt lat="29.5547072" lon="103.3846666"><ele>935.99</ele><time>2026-06-12T22:48:07.000Z</time></trkpt>
        <trkpt lat="29.5546473" lon="103.3845797"><ele>938.22</ele><time>2026-06-12T22:48:33.000Z</time></trkpt>
        <trkpt lat="29.5546473" lon="103.3845797"><ele>938.22</ele><time>2026-06-12T22:48:51.000Z</time></trkpt>
        <trkpt lat="29.5546473" lon="103.3845797"><ele>938.22</ele><time>2026-06-12T22:49:00.000Z</time></trkpt>
        <trkpt lat="29.5546473" lon="103.3845797"><ele>938.22</ele><time>2026-06-12T22:49:19.000Z</time></trkpt>
        <trkpt lat="29.5546963" lon="103.3844718"><ele>939.06</ele><time>2026-06-12T22:49:34.000Z</time></trkpt>
        <trkpt lat="29.5546963" lon="103.3844718"><ele>939.06</ele><time>2026-06-12T22:49:47.000Z</time></trkpt>
        <trkpt lat="29.5546963" lon="103.3844718"><ele>939.06</ele><time>2026-06-12T22:49:53.000Z</time></trkpt>
        <trkpt lat="29.5546963" lon="103.3844718"><ele>939.06</ele><time>2026-06-12T22:50:30.000Z</time></trkpt>
        <trkpt lat="29.5546963" lon="103.3844718"><ele>939.06</ele><time>2026-06-12T22:50:39.000Z</time></trkpt>
        <trkpt lat="29.5547882" lon="103.3844831"><ele>933.93</ele><time>2026-06-12T22:50:40.000Z</time></trkpt>
        <trkpt lat="29.5547882" lon="103.3844831"><ele>933.93</ele><time>2026-06-12T22:51:20.000Z</time></trkpt>
        <trkpt lat="29.5548536" lon="103.3844099"><ele>943.75</ele><time>2026-06-12T22:51:58.000Z</time></trkpt>
        <trkpt lat="29.5549322" lon="103.3843384"><ele>949.32</ele><time>2026-06-12T22:52:28.000Z</time></trkpt>
        <trkpt lat="29.555022" lon="103.3842901"><ele>950</ele><time>2026-06-12T22:52:48.000Z</time></trkpt>
        <trkpt lat="29.5551189" lon="103.3842677"><ele>952.06</ele><time>2026-06-12T22:53:12.000Z</time></trkpt>
        <trkpt lat="29.5551189" lon="103.3842677"><ele>952.06</ele><time>2026-06-12T22:53:31.000Z</time></trkpt>
        <trkpt lat="29.5550887" lon="103.3842074"><ele>955.56</ele><time>2026-06-12T22:53:56.000Z</time></trkpt>
        <trkpt lat="29.5550887" lon="103.3842074"><ele>955.56</ele><time>2026-06-12T22:53:58.000Z</time></trkpt>
        <trkpt lat="29.5550887" lon="103.3842074"><ele>955.56</ele><time>2026-06-12T22:54:19.000Z</time></trkpt>
        <trkpt lat="29.5550887" lon="103.3842074"><ele>955.56</ele><time>2026-06-12T22:54:23.000Z</time></trkpt>
        <trkpt lat="29.5550887" lon="103.3842074"><ele>955.56</ele><time>2026-06-12T22:54:25.000Z</time></trkpt>
        <trkpt lat="29.5550887" lon="103.3842074"><ele>955.56</ele><time>2026-06-12T22:54:26.000Z</time></trkpt>
        <trkpt lat="29.5550887" lon="103.3842074"><ele>955.56</ele><time>2026-06-12T22:54:37.000Z</time></trkpt>
        <trkpt lat="29.5550322" lon="103.384094"><ele>958.13</ele><time>2026-06-12T22:54:58.000Z</time></trkpt>
        <trkpt lat="29.5550322" lon="103.384094"><ele>958.13</ele><time>2026-06-12T22:55:19.000Z</time></trkpt>
        <trkpt lat="29.5550251" lon="103.3840845"><ele>963.71</ele><time>2026-06-12T22:55:23.000Z</time></trkpt>
        <trkpt lat="29.5549448" lon="103.3840731"><ele>965.84</ele><time>2026-06-12T22:55:47.000Z</time></trkpt>
        <trkpt lat="29.5549092" lon="103.3839832"><ele>969.19</ele><time>2026-06-12T22:56:01.000Z</time></trkpt>
        <trkpt lat="29.554839" lon="103.3838923"><ele>969.9</ele><time>2026-06-12T22:56:09.000Z</time></trkpt>
        <trkpt lat="29.5547505" lon="103.3838594"><ele>970.26</ele><time>2026-06-12T22:56:13.000Z</time></trkpt>
        <trkpt lat="29.5546442" lon="103.3838528"><ele>969.39</ele><time>2026-06-12T22:56:21.000Z</time></trkpt>
        <trkpt lat="29.5546112" lon="103.3839369"><ele>975.55</ele><time>2026-06-12T22:56:31.000Z</time></trkpt>
        <trkpt lat="29.554529" lon="103.3839876"><ele>980.29</ele><time>2026-06-12T22:56:47.000Z</time></trkpt>
        <trkpt lat="29.5544481" lon="103.383962"><ele>982.01</ele><time>2026-06-12T22:56:53.000Z</time></trkpt>
        <trkpt lat="29.5543426" lon="103.3839518"><ele>983.48</ele><time>2026-06-12T22:57:05.000Z</time></trkpt>
        <trkpt lat="29.5542408" lon="103.3839607"><ele>981.51</ele><time>2026-06-12T22:57:11.000Z</time></trkpt>
        <trkpt lat="29.5542408" lon="103.3839607"><ele>981.51</ele><time>2026-06-12T22:57:31.000Z</time></trkpt>
        <trkpt lat="29.5543316" lon="103.3839456"><ele>980.43</ele><time>2026-06-12T22:59:08.000Z</time></trkpt>
        <trkpt lat="29.5543316" lon="103.3839456"><ele>980.43</ele><time>2026-06-12T22:59:31.000Z</time></trkpt>
        <trkpt lat="29.5544256" lon="103.3839477"><ele>980.94</ele><time>2026-06-12T22:59:37.000Z</time></trkpt>
        <trkpt lat="29.5545217" lon="103.3839596"><ele>981.69</ele><time>2026-06-12T22:59:47.000Z</time></trkpt>
        <trkpt lat="29.5546094" lon="103.3839289"><ele>979.57</ele><time>2026-06-12T22:59:55.000Z</time></trkpt>
        <trkpt lat="29.5546995" lon="103.383888"><ele>978.95</ele><time>2026-06-12T23:00:09.000Z</time></trkpt>
        <trkpt lat="29.5548068" lon="103.3838703"><ele>981.29</ele><time>2026-06-12T23:00:17.000Z</time></trkpt>
        <trkpt lat="29.5548549" lon="103.3838423"><ele>980.8</ele><time>2026-06-12T23:00:19.000Z</time></trkpt>
        <trkpt lat="29.554897" lon="103.3839179"><ele>980.2</ele><time>2026-06-12T23:00:53.000Z</time></trkpt>
        <trkpt lat="29.5549714" lon="103.3839869"><ele>976.16</ele><time>2026-06-12T23:00:57.000Z</time></trkpt>
        <trkpt lat="29.5550251" lon="103.3839381"><ele>972.05</ele><time>2026-06-12T23:01:11.000Z</time></trkpt>
        <trkpt lat="29.555046" lon="103.3838314"><ele>971.11</ele><time>2026-06-12T23:01:21.000Z</time></trkpt>
        <trkpt lat="29.555074" lon="103.3837118"><ele>970.29</ele><time>2026-06-12T23:01:29.000Z</time></trkpt>
        <trkpt lat="29.5550796" lon="103.38367"><ele>968.88</ele><time>2026-06-12T23:01:31.000Z</time></trkpt>
        <trkpt lat="29.5550811" lon="103.3835794"><ele>968.18</ele><time>2026-06-12T23:01:45.000Z</time></trkpt>
        <trkpt lat="29.5550432" lon="103.3834843"><ele>966.74</ele><time>2026-06-12T23:01:53.000Z</time></trkpt>
        <trkpt lat="29.5549673" lon="103.3834145"><ele>966.68</ele><time>2026-06-12T23:02:01.000Z</time></trkpt>
        <trkpt lat="29.5548764" lon="103.3833502"><ele>967.12</ele><time>2026-06-12T23:02:09.000Z</time></trkpt>
        <trkpt lat="29.554771" lon="103.3833015"><ele>966.66</ele><time>2026-06-12T23:02:17.000Z</time></trkpt>
        <trkpt lat="29.5546802" lon="103.3832398"><ele>965.57</ele><time>2026-06-12T23:02:25.000Z</time></trkpt>
        <trkpt lat="29.5546024" lon="103.3831545"><ele>964.21</ele><time>2026-06-12T23:02:37.000Z</time></trkpt>
        <trkpt lat="29.5545486" lon="103.3830532"><ele>965.59</ele><time>2026-06-12T23:02:51.000Z</time></trkpt>
        <trkpt lat="29.5544878" lon="103.3829718"><ele>967.75</ele><time>2026-06-12T23:03:07.000Z</time></trkpt>
        <trkpt lat="29.5544878" lon="103.3829718"><ele>967.75</ele><time>2026-06-12T23:03:31.000Z</time></trkpt>
        <trkpt lat="29.5544372" lon="103.3828832"><ele>970.32</ele><time>2026-06-12T23:03:32.000Z</time></trkpt>
        <trkpt lat="29.5544372" lon="103.3828832"><ele>970.32</ele><time>2026-06-12T23:04:08.000Z</time></trkpt>
        <trkpt lat="29.5544382" lon="103.382777"><ele>973.96</ele><time>2026-06-12T23:04:24.000Z</time></trkpt>
        <trkpt lat="29.5544195" lon="103.3826502"><ele>976.83</ele><time>2026-06-12T23:04:50.000Z</time></trkpt>
        <trkpt lat="29.5544195" lon="103.3826502"><ele>976.83</ele><time>2026-06-12T23:05:21.000Z</time></trkpt>
        <trkpt lat="29.5543731" lon="103.3825516"><ele>981.54</ele><time>2026-06-12T23:05:24.000Z</time></trkpt>
        <trkpt lat="29.5543731" lon="103.3825516"><ele>981.54</ele><time>2026-06-12T23:05:40.000Z</time></trkpt>
        <trkpt lat="29.5543124" lon="103.3824637"><ele>983.89</ele><time>2026-06-12T23:05:56.000Z</time></trkpt>
        <trkpt lat="29.5542701" lon="103.3823497"><ele>986.63</ele><time>2026-06-12T23:06:26.000Z</time></trkpt>
        <trkpt lat="29.5542653" lon="103.3822401"><ele>985.52</ele><time>2026-06-12T23:06:40.000Z</time></trkpt>
        <trkpt lat="29.5542573" lon="103.3821257"><ele>987.68</ele><time>2026-06-12T23:07:04.000Z</time></trkpt>
        <trkpt lat="29.5542648" lon="103.3820168"><ele>989.4</ele><time>2026-06-12T23:07:14.000Z</time></trkpt>
        <trkpt lat="29.5542488" lon="103.3819085"><ele>991.55</ele><time>2026-06-12T23:07:28.000Z</time></trkpt>
        <trkpt lat="29.5541914" lon="103.381812"><ele>993.59</ele><time>2026-06-12T23:07:36.000Z</time></trkpt>
        <trkpt lat="29.5541958" lon="103.3817092"><ele>994.39</ele><time>2026-06-12T23:07:50.000Z</time></trkpt>
        <trkpt lat="29.5541709" lon="103.3816099"><ele>998.14</ele><time>2026-06-12T23:08:02.000Z</time></trkpt>
        <trkpt lat="29.5541247" lon="103.3815047"><ele>1000.1</ele><time>2026-06-12T23:08:12.000Z</time></trkpt>
        <trkpt lat="29.5540989" lon="103.3813903"><ele>1001.44</ele><time>2026-06-12T23:08:24.000Z</time></trkpt>
        <trkpt lat="29.5540989" lon="103.3813903"><ele>1001.44</ele><time>2026-06-12T23:08:53.000Z</time></trkpt>
        <trkpt lat="29.5540651" lon="103.3812854"><ele>1003.17</ele><time>2026-06-12T23:08:56.000Z</time></trkpt>
        <trkpt lat="29.5540651" lon="103.3812854"><ele>1003.17</ele><time>2026-06-12T23:09:09.000Z</time></trkpt>
        <trkpt lat="29.5540538" lon="103.3811662"><ele>1002.84</ele><time>2026-06-12T23:09:21.000Z</time></trkpt>
        <trkpt lat="29.5540166" lon="103.3810581"><ele>1003.63</ele><time>2026-06-12T23:09:31.000Z</time></trkpt>
        <trkpt lat="29.5539603" lon="103.380966"><ele>1004.52</ele><time>2026-06-12T23:09:43.000Z</time></trkpt>
        <trkpt lat="29.5539542" lon="103.3808579"><ele>1005.47</ele><time>2026-06-12T23:09:59.000Z</time></trkpt>
        <trkpt lat="29.5539933" lon="103.380754"><ele>1004.94</ele><time>2026-06-12T23:10:11.000Z</time></trkpt>
        <trkpt lat="29.5540425" lon="103.3806486"><ele>1006</ele><time>2026-06-12T23:10:23.000Z</time></trkpt>
        <trkpt lat="29.5540636" lon="103.3805289"><ele>1007.2</ele><time>2026-06-12T23:10:37.000Z</time></trkpt>
        <trkpt lat="29.5540548" lon="103.3804064"><ele>1009.28</ele><time>2026-06-12T23:10:45.000Z</time></trkpt>
        <trkpt lat="29.5540475" lon="103.3802925"><ele>1010.51</ele><time>2026-06-12T23:10:53.000Z</time></trkpt>
        <trkpt lat="29.5540505" lon="103.3801698"><ele>1011.72</ele><time>2026-06-12T23:11:03.000Z</time></trkpt>
        <trkpt lat="29.5540466" lon="103.3800534"><ele>1013.25</ele><time>2026-06-12T23:11:13.000Z</time></trkpt>
        <trkpt lat="29.5540394" lon="103.3799403"><ele>1014.31</ele><time>2026-06-12T23:11:23.000Z</time></trkpt>
        <trkpt lat="29.5539954" lon="103.379846"><ele>1016.46</ele><time>2026-06-12T23:11:47.000Z</time></trkpt>
        <trkpt lat="29.5539544" lon="103.3797527"><ele>1019.15</ele><time>2026-06-12T23:12:19.000Z</time></trkpt>
        <trkpt lat="29.5539313" lon="103.3796483"><ele>1023.06</ele><time>2026-06-12T23:12:59.000Z</time></trkpt>
        <trkpt lat="29.5539051" lon="103.3795444"><ele>1026</ele><time>2026-06-12T23:13:15.000Z</time></trkpt>
        <trkpt lat="29.5538844" lon="103.3794351"><ele>1029.34</ele><time>2026-06-12T23:13:33.000Z</time></trkpt>
        <trkpt lat="29.5538712" lon="103.3793259"><ele>1031.57</ele><time>2026-06-12T23:13:55.000Z</time></trkpt>
        <trkpt lat="29.5538421" lon="103.3792089"><ele>1034.31</ele><time>2026-06-12T23:14:11.000Z</time></trkpt>
        <trkpt lat="29.5538138" lon="103.3790989"><ele>1037.34</ele><time>2026-06-12T23:14:21.000Z</time></trkpt>
        <trkpt lat="29.5537986" lon="103.3789848"><ele>1039.71</ele><time>2026-06-12T23:14:33.000Z</time></trkpt>
        <trkpt lat="29.5538051" lon="103.3788739"><ele>1040.63</ele><time>2026-06-12T23:14:43.000Z</time></trkpt>
        <trkpt lat="29.553832" lon="103.3787595"><ele>1040.65</ele><time>2026-06-12T23:14:53.000Z</time></trkpt>
        <trkpt lat="29.5538775" lon="103.3786635"><ele>1041.31</ele><time>2026-06-12T23:15:01.000Z</time></trkpt>
        <trkpt lat="29.5538774" lon="103.3786157"><ele>1040.78</ele><time>2026-06-12T23:15:07.000Z</time></trkpt>
        <trkpt lat="29.5538774" lon="103.3786157"><ele>1040.78</ele><time>2026-06-12T23:15:31.000Z</time></trkpt>
        <trkpt lat="29.5538774" lon="103.3786157"><ele>1040.78</ele><time>2026-06-12T23:15:34.000Z</time></trkpt>
        <trkpt lat="29.5538774" lon="103.3786157"><ele>1040.78</ele><time>2026-06-12T23:16:21.000Z</time></trkpt>
        <trkpt lat="29.5538774" lon="103.3786157"><ele>1040.78</ele><time>2026-06-12T23:17:46.000Z</time></trkpt>
        <trkpt lat="29.5538774" lon="103.3786157"><ele>1040.78</ele><time>2026-06-12T23:18:05.000Z</time></trkpt>
        <trkpt lat="29.5539636" lon="103.3786365"><ele>1039.95</ele><time>2026-06-12T23:18:28.000Z</time></trkpt>
        <trkpt lat="29.5539636" lon="103.3786365"><ele>1039.95</ele><time>2026-06-12T23:18:33.000Z</time></trkpt>
        <trkpt lat="29.5538727" lon="103.3786007"><ele>1041.06</ele><time>2026-06-12T23:18:53.000Z</time></trkpt>
        <trkpt lat="29.5538232" lon="103.3785137"><ele>1042.97</ele><time>2026-06-12T23:19:03.000Z</time></trkpt>
        <trkpt lat="29.5538232" lon="103.3785137"><ele>1042.97</ele><time>2026-06-12T23:19:23.000Z</time></trkpt>
        <trkpt lat="29.5538232" lon="103.3785137"><ele>1042.97</ele><time>2026-06-12T23:19:28.000Z</time></trkpt>
        <trkpt lat="29.5538232" lon="103.3785137"><ele>1042.97</ele><time>2026-06-12T23:19:29.000Z</time></trkpt>
        <trkpt lat="29.5537943" lon="103.3784141"><ele>1044.34</ele><time>2026-06-12T23:19:31.000Z</time></trkpt>
        <trkpt lat="29.5537943" lon="103.3784141"><ele>1044.34</ele><time>2026-06-12T23:19:35.000Z</time></trkpt>
        <trkpt lat="29.5537384" lon="103.378319"><ele>1047.39</ele><time>2026-06-12T23:20:04.000Z</time></trkpt>
        <trkpt lat="29.5536931" lon="103.3782221"><ele>1050.9</ele><time>2026-06-12T23:20:18.000Z</time></trkpt>
        <trkpt lat="29.5536667" lon="103.37812"><ele>1053.96</ele><time>2026-06-12T23:20:36.000Z</time></trkpt>
        <trkpt lat="29.5536059" lon="103.3780478"><ele>1056.08</ele><time>2026-06-12T23:21:08.000Z</time></trkpt>
        <trkpt lat="29.5535422" lon="103.3779713"><ele>1060.6</ele><time>2026-06-12T23:21:26.000Z</time></trkpt>
        <trkpt lat="29.5535143" lon="103.3779254"><ele>1062.88</ele><time>2026-06-12T23:21:38.000Z</time></trkpt>
        <trkpt lat="29.5535143" lon="103.3779254"><ele>1062.88</ele><time>2026-06-12T23:22:29.000Z</time></trkpt>
        <trkpt lat="29.5534747" lon="103.3778495"><ele>1065.06</ele><time>2026-06-12T23:22:36.000Z</time></trkpt>
        <trkpt lat="29.5534747" lon="103.3778495"><ele>1065.06</ele><time>2026-06-12T23:22:41.000Z</time></trkpt>
        <trkpt lat="29.5533886" lon="103.3777992"><ele>1068.6</ele><time>2026-06-12T23:23:11.000Z</time></trkpt>
        <trkpt lat="29.5533886" lon="103.3777992"><ele>1068.6</ele><time>2026-06-12T23:24:11.000Z</time></trkpt>
        <trkpt lat="29.5533353" lon="103.3776993"><ele>1073.47</ele><time>2026-06-12T23:24:22.000Z</time></trkpt>
        <trkpt lat="29.5533353" lon="103.3776993"><ele>1073.47</ele><time>2026-06-12T23:24:23.000Z</time></trkpt>
        <trkpt lat="29.5532523" lon="103.3776435"><ele>1077.7</ele><time>2026-06-12T23:24:44.000Z</time></trkpt>
        <trkpt lat="29.5531768" lon="103.3775796"><ele>1081.95</ele><time>2026-06-12T23:25:00.000Z</time></trkpt>
        <trkpt lat="29.5531768" lon="103.3775796"><ele>1081.95</ele><time>2026-06-12T23:25:33.000Z</time></trkpt>
        <trkpt lat="29.5531242" lon="103.3774928"><ele>1082.78</ele><time>2026-06-12T23:25:42.000Z</time></trkpt>
        <trkpt lat="29.5531242" lon="103.3774928"><ele>1082.78</ele><time>2026-06-12T23:25:59.000Z</time></trkpt>
        <trkpt lat="29.5531242" lon="103.3774928"><ele>1082.78</ele><time>2026-06-12T23:26:21.000Z</time></trkpt>
        <trkpt lat="29.5530512" lon="103.3774232"><ele>1090.63</ele><time>2026-06-12T23:26:24.000Z</time></trkpt>
        <trkpt lat="29.5530512" lon="103.3774232"><ele>1090.63</ele><time>2026-06-12T23:26:29.000Z</time></trkpt>
        <trkpt lat="29.5530098" lon="103.3773318"><ele>1095.12</ele><time>2026-06-12T23:26:55.000Z</time></trkpt>
        <trkpt lat="29.5529352" lon="103.3772672"><ele>1098.92</ele><time>2026-06-12T23:27:31.000Z</time></trkpt>
        <trkpt lat="29.5528951" lon="103.3772306"><ele>1103.62</ele><time>2026-06-12T23:27:43.000Z</time></trkpt>
        <trkpt lat="29.5528951" lon="103.3772306"><ele>1103.62</ele><time>2026-06-12T23:28:05.000Z</time></trkpt>
        <trkpt lat="29.552814" lon="103.3772129"><ele>1105.99</ele><time>2026-06-12T23:28:12.000Z</time></trkpt>
        <trkpt lat="29.552814" lon="103.3772129"><ele>1105.99</ele><time>2026-06-12T23:28:25.000Z</time></trkpt>
        <trkpt lat="29.552738" lon="103.3771577"><ele>1109.35</ele><time>2026-06-12T23:28:51.000Z</time></trkpt>
        <trkpt lat="29.552738" lon="103.3771577"><ele>1109.35</ele><time>2026-06-12T23:29:05.000Z</time></trkpt>
        <trkpt lat="29.5526522" lon="103.3771056"><ele>1111.87</ele><time>2026-06-12T23:29:08.000Z</time></trkpt>
        <trkpt lat="29.5526522" lon="103.3771056"><ele>1111.87</ele><time>2026-06-12T23:29:31.000Z</time></trkpt>
        <trkpt lat="29.5526522" lon="103.3771056"><ele>1111.87</ele><time>2026-06-12T23:29:41.000Z</time></trkpt>
        <trkpt lat="29.5526522" lon="103.3771056"><ele>1111.87</ele><time>2026-06-12T23:29:44.000Z</time></trkpt>
        <trkpt lat="29.5526522" lon="103.3771056"><ele>1111.87</ele><time>2026-06-12T23:30:21.000Z</time></trkpt>
        <trkpt lat="29.5525862" lon="103.3770066"><ele>1117.02</ele><time>2026-06-12T23:30:32.000Z</time></trkpt>
        <trkpt lat="29.5525862" lon="103.3770066"><ele>1117.02</ele><time>2026-06-12T23:30:37.000Z</time></trkpt>
        <trkpt lat="29.5524935" lon="103.3770344"><ele>1125.29</ele><time>2026-06-12T23:30:55.000Z</time></trkpt>
        <trkpt lat="29.5524935" lon="103.3770344"><ele>1125.29</ele><time>2026-06-12T23:31:33.000Z</time></trkpt>
        <trkpt lat="29.552382" lon="103.3770148"><ele>1129</ele><time>2026-06-12T23:31:40.000Z</time></trkpt>
        <trkpt lat="29.552382" lon="103.3770148"><ele>1129</ele><time>2026-06-12T23:31:43.000Z</time></trkpt>
        <trkpt lat="29.552382" lon="103.3770148"><ele>1129</ele><time>2026-06-12T23:32:15.000Z</time></trkpt>
        <trkpt lat="29.5522959" lon="103.3769416"><ele>1131.36</ele><time>2026-06-12T23:32:58.000Z</time></trkpt>
        <trkpt lat="29.5522959" lon="103.3769416"><ele>1131.36</ele><time>2026-06-12T23:33:17.000Z</time></trkpt>
        <trkpt lat="29.5522014" lon="103.3768978"><ele>1136.24</ele><time>2026-06-12T23:33:27.000Z</time></trkpt>
        <trkpt lat="29.5522014" lon="103.3768978"><ele>1136.24</ele><time>2026-06-12T23:33:57.000Z</time></trkpt>
        <trkpt lat="29.5521238" lon="103.3768302"><ele>1140.49</ele><time>2026-06-12T23:34:10.000Z</time></trkpt>
        <trkpt lat="29.5521238" lon="103.3768302"><ele>1140.49</ele><time>2026-06-12T23:34:19.000Z</time></trkpt>
        <trkpt lat="29.552038" lon="103.3767784"><ele>1143.4</ele><time>2026-06-12T23:34:43.000Z</time></trkpt>
        <trkpt lat="29.551948" lon="103.3767593"><ele>1146.72</ele><time>2026-06-12T23:35:01.000Z</time></trkpt>
        <trkpt lat="29.5518564" lon="103.3767218"><ele>1148.89</ele><time>2026-06-12T23:35:15.000Z</time></trkpt>
        <trkpt lat="29.55186" lon="103.3766352"><ele>1152.15</ele><time>2026-06-12T23:35:45.000Z</time></trkpt>
        <trkpt lat="29.5519096" lon="103.3765504"><ele>1154.05</ele><time>2026-06-12T23:36:01.000Z</time></trkpt>
        <trkpt lat="29.552001" lon="103.3765259"><ele>1155.69</ele><time>2026-06-12T23:36:13.000Z</time></trkpt>
        <trkpt lat="29.552001" lon="103.3765259"><ele>1155.69</ele><time>2026-06-12T23:36:17.000Z</time></trkpt>
        <trkpt lat="29.5518317" lon="103.3765372"><ele>1156.1</ele><time>2026-06-12T23:36:18.000Z</time></trkpt>
        <trkpt lat="29.5518317" lon="103.3765372"><ele>1156.1</ele><time>2026-06-12T23:36:32.000Z</time></trkpt>
        <trkpt lat="29.551832" lon="103.3765297"><ele>1156.11</ele><time>2026-06-12T23:36:40.000Z</time></trkpt>
        <trkpt lat="29.5518496" lon="103.3766202"><ele>1156.07</ele><time>2026-06-12T23:37:10.000Z</time></trkpt>
        <trkpt lat="29.5518276" lon="103.3765521"><ele>1155.98</ele><time>2026-06-12T23:40:56.000Z</time></trkpt>
        <trkpt lat="29.5518276" lon="103.3765521"><ele>1155.98</ele><time>2026-06-12T23:41:23.000Z</time></trkpt>
        <trkpt lat="29.5517823" lon="103.3764287"><ele>1160.84</ele><time>2026-06-12T23:41:26.000Z</time></trkpt>
        <trkpt lat="29.5517823" lon="103.3764287"><ele>1160.84</ele><time>2026-06-12T23:41:31.000Z</time></trkpt>
        <trkpt lat="29.5517823" lon="103.3764287"><ele>1160.84</ele><time>2026-06-12T23:41:37.000Z</time></trkpt>
        <trkpt lat="29.5517436" lon="103.3763298"><ele>1163.48</ele><time>2026-06-12T23:41:40.000Z</time></trkpt>
        <trkpt lat="29.5517436" lon="103.3763298"><ele>1163.48</ele><time>2026-06-12T23:43:21.000Z</time></trkpt>
        <trkpt lat="29.5517789" lon="103.3762321"><ele>1171.9</ele><time>2026-06-12T23:44:22.000Z</time></trkpt>
        <trkpt lat="29.5517789" lon="103.3762321"><ele>1171.9</ele><time>2026-06-12T23:44:53.000Z</time></trkpt>
        <trkpt lat="29.551854" lon="103.3761619"><ele>1175.24</ele><time>2026-06-12T23:45:12.000Z</time></trkpt>
        <trkpt lat="29.551854" lon="103.3761619"><ele>1175.24</ele><time>2026-06-12T23:45:15.000Z</time></trkpt>
        <trkpt lat="29.551854" lon="103.3761619"><ele>1175.24</ele><time>2026-06-12T23:45:25.000Z</time></trkpt>
        <trkpt lat="29.551854" lon="103.3761619"><ele>1175.24</ele><time>2026-06-12T23:46:16.000Z</time></trkpt>
        <trkpt lat="29.551854" lon="103.3761619"><ele>1175.24</ele><time>2026-06-12T23:46:39.000Z</time></trkpt>
        <trkpt lat="29.551854" lon="103.3761619"><ele>1175.24</ele><time>2026-06-12T23:47:48.000Z</time></trkpt>
        <trkpt lat="29.551854" lon="103.3761619"><ele>1175.24</ele><time>2026-06-12T23:47:59.000Z</time></trkpt>
        <trkpt lat="29.551854" lon="103.3761619"><ele>1175.24</ele><time>2026-06-12T23:48:08.000Z</time></trkpt>
        <trkpt lat="29.551854" lon="103.3761619"><ele>1175.24</ele><time>2026-06-12T23:48:17.000Z</time></trkpt>
        <trkpt lat="29.551854" lon="103.3761619"><ele>1175.24</ele><time>2026-06-12T23:48:26.000Z</time></trkpt>
        <trkpt lat="29.551854" lon="103.3761619"><ele>1175.24</ele><time>2026-06-12T23:48:35.000Z</time></trkpt>
        <trkpt lat="29.551854" lon="103.3761619"><ele>1175.24</ele><time>2026-06-12T23:49:00.000Z</time></trkpt>
        <trkpt lat="29.551854" lon="103.3761619"><ele>1175.24</ele><time>2026-06-12T23:49:13.000Z</time></trkpt>
        <trkpt lat="29.551854" lon="103.3761619"><ele>1175.24</ele><time>2026-06-12T23:49:32.000Z</time></trkpt>
        <trkpt lat="29.551854" lon="103.3761619"><ele>1175.24</ele><time>2026-06-12T23:49:49.000Z</time></trkpt>
        <trkpt lat="29.551854" lon="103.3761619"><ele>1175.24</ele><time>2026-06-12T23:50:30.000Z</time></trkpt>
        <trkpt lat="29.551854" lon="103.3761619"><ele>1175.24</ele><time>2026-06-12T23:50:49.000Z</time></trkpt>
        <trkpt lat="29.551854" lon="103.3761619"><ele>1175.24</ele><time>2026-06-12T23:50:58.000Z</time></trkpt>
        <trkpt lat="29.551854" lon="103.3761619"><ele>1175.24</ele><time>2026-06-12T23:51:23.000Z</time></trkpt>
        <trkpt lat="29.551854" lon="103.3761619"><ele>1175.24</ele><time>2026-06-12T23:51:24.000Z</time></trkpt>
        <trkpt lat="29.551854" lon="103.3761619"><ele>1175.24</ele><time>2026-06-12T23:51:43.000Z</time></trkpt>
        <trkpt lat="29.5517676" lon="103.3760997"><ele>1178.52</ele><time>2026-06-12T23:51:46.000Z</time></trkpt>
        <trkpt lat="29.5517676" lon="103.3760997"><ele>1178.52</ele><time>2026-06-12T23:52:13.000Z</time></trkpt>
        <trkpt lat="29.5517149" lon="103.3760127"><ele>1181.98</ele><time>2026-06-12T23:52:33.000Z</time></trkpt>
        <trkpt lat="29.5517032" lon="103.37591"><ele>1185.38</ele><time>2026-06-12T23:52:51.000Z</time></trkpt>
        <trkpt lat="29.5516987" lon="103.3758052"><ele>1189.85</ele><time>2026-06-12T23:53:01.000Z</time></trkpt>
        <trkpt lat="29.5516865" lon="103.3756949"><ele>1193.25</ele><time>2026-06-12T23:53:11.000Z</time></trkpt>
        <trkpt lat="29.5516569" lon="103.3755914"><ele>1194.97</ele><time>2026-06-12T23:53:20.000Z</time></trkpt>
        <trkpt lat="29.551591" lon="103.3754993"><ele>1195.74</ele><time>2026-06-12T23:53:43.000Z</time></trkpt>
        <trkpt lat="29.5515057" lon="103.375426"><ele>1197.54</ele><time>2026-06-12T23:53:47.000Z</time></trkpt>
        <trkpt lat="29.5514177" lon="103.3753691"><ele>1196.81</ele><time>2026-06-12T23:53:58.000Z</time></trkpt>
        <trkpt lat="29.5513213" lon="103.3753346"><ele>1197.22</ele><time>2026-06-12T23:54:20.000Z</time></trkpt>
        <trkpt lat="29.5513213" lon="103.3753346"><ele>1197.22</ele><time>2026-06-12T23:54:49.000Z</time></trkpt>
        <trkpt lat="29.5512257" lon="103.3752936"><ele>1198.74</ele><time>2026-06-12T23:54:56.000Z</time></trkpt>
        <trkpt lat="29.5512257" lon="103.3752936"><ele>1198.74</ele><time>2026-06-12T23:54:59.000Z</time></trkpt>
        <trkpt lat="29.5511339" lon="103.375244"><ele>1200.42</ele><time>2026-06-12T23:55:13.000Z</time></trkpt>
        <trkpt lat="29.5510359" lon="103.375245"><ele>1204.37</ele><time>2026-06-12T23:55:27.000Z</time></trkpt>
        <trkpt lat="29.5509538" lon="103.3752384"><ele>1206.49</ele><time>2026-06-12T23:55:55.000Z</time></trkpt>
        <trkpt lat="29.5508721" lon="103.3751888"><ele>1207.51</ele><time>2026-06-12T23:56:11.000Z</time></trkpt>
        <trkpt lat="29.5507915" lon="103.3751309"><ele>1210.28</ele><time>2026-06-12T23:56:21.000Z</time></trkpt>
        <trkpt lat="29.5507002" lon="103.3750707"><ele>1214.68</ele><time>2026-06-12T23:56:31.000Z</time></trkpt>
        <trkpt lat="29.5506033" lon="103.3750098"><ele>1217.58</ele><time>2026-06-12T23:56:41.000Z</time></trkpt>
        <trkpt lat="29.5505004" lon="103.3749706"><ele>1218.61</ele><time>2026-06-12T23:56:49.000Z</time></trkpt>
        <trkpt lat="29.5504061" lon="103.3749118"><ele>1219.22</ele><time>2026-06-12T23:56:57.000Z</time></trkpt>
        <trkpt lat="29.5503058" lon="103.3748753"><ele>1218.12</ele><time>2026-06-12T23:57:05.000Z</time></trkpt>
        <trkpt lat="29.5502032" lon="103.3748586"><ele>1217.32</ele><time>2026-06-12T23:57:13.000Z</time></trkpt>
        <trkpt lat="29.5501132" lon="103.3748093"><ele>1216.52</ele><time>2026-06-12T23:57:27.000Z</time></trkpt>
        <trkpt lat="29.5500246" lon="103.3747545"><ele>1217.03</ele><time>2026-06-12T23:57:39.000Z</time></trkpt>
        <trkpt lat="29.5499981" lon="103.3746551"><ele>1218.61</ele><time>2026-06-12T23:57:57.000Z</time></trkpt>
        <trkpt lat="29.5500334" lon="103.3745395"><ele>1219.31</ele><time>2026-06-12T23:58:33.000Z</time></trkpt>
        <trkpt lat="29.5500655" lon="103.3744677"><ele>1222.23</ele><time>2026-06-12T23:58:41.000Z</time></trkpt>
        <trkpt lat="29.5500655" lon="103.3744677"><ele>1222.23</ele><time>2026-06-12T23:58:51.000Z</time></trkpt>
        <trkpt lat="29.5501098" lon="103.3746564"><ele>1223.58</ele><time>2026-06-12T23:59:22.000Z</time></trkpt>
        <trkpt lat="29.5501098" lon="103.3746564"><ele>1223.58</ele><time>2026-06-12T23:59:26.000Z</time></trkpt>
        <trkpt lat="29.55008" lon="103.3746717"><ele>1234.07</ele><time>2026-06-12T23:59:33.000Z</time></trkpt>
        <trkpt lat="29.5501185" lon="103.3745698"><ele>1238.48</ele><time>2026-06-12T23:59:51.000Z</time></trkpt>
        <trkpt lat="29.5501705" lon="103.3744624"><ele>1242.91</ele><time>2026-06-13T00:00:05.000Z</time></trkpt>
        <trkpt lat="29.5502288" lon="103.3743584"><ele>1240.76</ele><time>2026-06-13T00:00:15.000Z</time></trkpt>
        <trkpt lat="29.5503142" lon="103.3742948"><ele>1238.86</ele><time>2026-06-13T00:00:29.000Z</time></trkpt>
        <trkpt lat="29.5503975" lon="103.3742215"><ele>1238.74</ele><time>2026-06-13T00:00:43.000Z</time></trkpt>
        <trkpt lat="29.5504733" lon="103.3741511"><ele>1239.94</ele><time>2026-06-13T00:00:51.000Z</time></trkpt>
        <trkpt lat="29.5505668" lon="103.3741377"><ele>1241.13</ele><time>2026-06-13T00:01:05.000Z</time></trkpt>
        <trkpt lat="29.5506534" lon="103.3741849"><ele>1242.29</ele><time>2026-06-13T00:01:17.000Z</time></trkpt>
        <trkpt lat="29.5507404" lon="103.3741655"><ele>1244.39</ele><time>2026-06-13T00:01:29.000Z</time></trkpt>
        <trkpt lat="29.550768" lon="103.3740753"><ele>1245.36</ele><time>2026-06-13T00:01:33.000Z</time></trkpt>
        <trkpt lat="29.550829" lon="103.3739877"><ele>1243.86</ele><time>2026-06-13T00:01:39.000Z</time></trkpt>
        <trkpt lat="29.5509117" lon="103.3739393"><ele>1241.66</ele><time>2026-06-13T00:01:47.000Z</time></trkpt>
        <trkpt lat="29.5509889" lon="103.3738598"><ele>1238.9</ele><time>2026-06-13T00:02:01.000Z</time></trkpt>
        <trkpt lat="29.5510771" lon="103.3738319"><ele>1237.09</ele><time>2026-06-13T00:02:09.000Z</time></trkpt>
        <trkpt lat="29.5511807" lon="103.3738526"><ele>1236.44</ele><time>2026-06-13T00:02:23.000Z</time></trkpt>
        <trkpt lat="29.5512809" lon="103.3738706"><ele>1237.66</ele><time>2026-06-13T00:02:35.000Z</time></trkpt>
        <trkpt lat="29.5513411" lon="103.3738096"><ele>1239.53</ele><time>2026-06-13T00:02:41.000Z</time></trkpt>
        <trkpt lat="29.5513764" lon="103.3736764"><ele>1237.08</ele><time>2026-06-13T00:02:51.000Z</time></trkpt>
        <trkpt lat="29.5513872" lon="103.373542"><ele>1232.16</ele><time>2026-06-13T00:02:59.000Z</time></trkpt>
        <trkpt lat="29.5514283" lon="103.3734333"><ele>1229</ele><time>2026-06-13T00:03:09.000Z</time></trkpt>
        <trkpt lat="29.5514184" lon="103.3733194"><ele>1226.69</ele><time>2026-06-13T00:03:19.000Z</time></trkpt>
        <trkpt lat="29.5513744" lon="103.3732037"><ele>1224.74</ele><time>2026-06-13T00:03:29.000Z</time></trkpt>
        <trkpt lat="29.5513059" lon="103.3731161"><ele>1223.13</ele><time>2026-06-13T00:03:37.000Z</time></trkpt>
        <trkpt lat="29.5512252" lon="103.3730425"><ele>1222.63</ele><time>2026-06-13T00:03:47.000Z</time></trkpt>
        <trkpt lat="29.5511738" lon="103.3729482"><ele>1222.28</ele><time>2026-06-13T00:03:57.000Z</time></trkpt>
        <trkpt lat="29.5510866" lon="103.3729221"><ele>1223.23</ele><time>2026-06-13T00:04:13.000Z</time></trkpt>
        <trkpt lat="29.5509914" lon="103.3729147"><ele>1223.72</ele><time>2026-06-13T00:04:21.000Z</time></trkpt>
        <trkpt lat="29.5508927" lon="103.372922"><ele>1224.05</ele><time>2026-06-13T00:04:29.000Z</time></trkpt>
        <trkpt lat="29.5507808" lon="103.3729391"><ele>1223.88</ele><time>2026-06-13T00:04:37.000Z</time></trkpt>
        <trkpt lat="29.5506814" lon="103.3729506"><ele>1223.59</ele><time>2026-06-13T00:04:45.000Z</time></trkpt>
        <trkpt lat="29.5506256" lon="103.3729666"><ele>1222.54</ele><time>2026-06-13T00:04:55.000Z</time></trkpt>
        <trkpt lat="29.5505468" lon="103.3729708"><ele>1222.11</ele><time>2026-06-13T00:05:05.000Z</time></trkpt>
        <trkpt lat="29.5504459" lon="103.3729467"><ele>1223.44</ele><time>2026-06-13T00:05:15.000Z</time></trkpt>
        <trkpt lat="29.5503733" lon="103.3726646"><ele>1225.89</ele><time>2026-06-13T00:05:25.000Z</time></trkpt>
        <trkpt lat="29.5503507" lon="103.3726489"><ele>1247.63</ele><time>2026-06-13T00:05:50.000Z</time></trkpt>
        <trkpt lat="29.5503889" lon="103.3727352"><ele>1259.68</ele><time>2026-06-13T00:05:54.000Z</time></trkpt>
        <trkpt lat="29.5504735" lon="103.3727829"><ele>1266.51</ele><time>2026-06-13T00:05:59.000Z</time></trkpt>
        <trkpt lat="29.5505975" lon="103.3727792"><ele>1270.72</ele><time>2026-06-13T00:06:08.000Z</time></trkpt>
        <trkpt lat="29.5505945" lon="103.3727005"><ele>1267.59</ele><time>2026-06-13T00:06:18.000Z</time></trkpt>
        <trkpt lat="29.550574" lon="103.3726215"><ele>1262.74</ele><time>2026-06-13T00:06:26.000Z</time></trkpt>
        <trkpt lat="29.5506057" lon="103.3725348"><ele>1256.04</ele><time>2026-06-13T00:06:43.000Z</time></trkpt>
        <trkpt lat="29.5506619" lon="103.3724358"><ele>1244.42</ele><time>2026-06-13T00:06:53.000Z</time></trkpt>
        <trkpt lat="29.5507001" lon="103.3723217"><ele>1236.79</ele><time>2026-06-13T00:07:00.000Z</time></trkpt>
        <trkpt lat="29.550761" lon="103.3722139"><ele>1234.67</ele><time>2026-06-13T00:07:10.000Z</time></trkpt>
        <trkpt lat="29.5507775" lon="103.3721209"><ele>1232.01</ele><time>2026-06-13T00:07:18.000Z</time></trkpt>
        <trkpt lat="29.5507433" lon="103.3720228"><ele>1228.47</ele><time>2026-06-13T00:07:28.000Z</time></trkpt>
        <trkpt lat="29.550662" lon="103.3719478"><ele>1226.18</ele><time>2026-06-13T00:07:42.000Z</time></trkpt>
        <trkpt lat="29.5505794" lon="103.3718589"><ele>1224.38</ele><time>2026-06-13T00:07:54.000Z</time></trkpt>
        <trkpt lat="29.5505139" lon="103.3717526"><ele>1221.62</ele><time>2026-06-13T00:08:04.000Z</time></trkpt>
        <trkpt lat="29.5504667" lon="103.3716475"><ele>1220.26</ele><time>2026-06-13T00:08:14.000Z</time></trkpt>
        <trkpt lat="29.5503969" lon="103.3715783"><ele>1219.53</ele><time>2026-06-13T00:08:32.000Z</time></trkpt>
        <trkpt lat="29.550315" lon="103.3715031"><ele>1216.38</ele><time>2026-06-13T00:08:48.000Z</time></trkpt>
        <trkpt lat="29.5503192" lon="103.3713999"><ele>1217.22</ele><time>2026-06-13T00:09:02.000Z</time></trkpt>
        <trkpt lat="29.5503812" lon="103.3713386"><ele>1219.56</ele><time>2026-06-13T00:09:13.000Z</time></trkpt>
        <trkpt lat="29.5504172" lon="103.3712332"><ele>1218.33</ele><time>2026-06-13T00:09:28.000Z</time></trkpt>
        <trkpt lat="29.5504669" lon="103.3711304"><ele>1217.04</ele><time>2026-06-13T00:09:36.000Z</time></trkpt>
        <trkpt lat="29.5505145" lon="103.3710215"><ele>1216.43</ele><time>2026-06-13T00:09:44.000Z</time></trkpt>
        <trkpt lat="29.5505225" lon="103.3709105"><ele>1215.06</ele><time>2026-06-13T00:09:55.000Z</time></trkpt>
        <trkpt lat="29.5505" lon="103.3708532"><ele>1213.34</ele><time>2026-06-13T00:10:01.000Z</time></trkpt>
        <trkpt lat="29.5504346" lon="103.3707833"><ele>1210.17</ele><time>2026-06-13T00:10:11.000Z</time></trkpt>
        <trkpt lat="29.5503833" lon="103.3706941"><ele>1206.79</ele><time>2026-06-13T00:10:23.000Z</time></trkpt>
        <trkpt lat="29.5503847" lon="103.3706379"><ele>1202.76</ele><time>2026-06-13T00:10:29.000Z</time></trkpt>
        <trkpt lat="29.5503915" lon="103.3705447"><ele>1202.31</ele><time>2026-06-13T00:10:48.000Z</time></trkpt>
        <trkpt lat="29.5503762" lon="103.370422"><ele>1202.62</ele><time>2026-06-13T00:11:04.000Z</time></trkpt>
        <trkpt lat="29.5503922" lon="103.3703771"><ele>1203.53</ele><time>2026-06-13T00:11:11.000Z</time></trkpt>
        <trkpt lat="29.5503922" lon="103.3703771"><ele>1203.53</ele><time>2026-06-13T00:11:25.000Z</time></trkpt>
        <trkpt lat="29.5504118" lon="103.3702925"><ele>1203.77</ele><time>2026-06-13T00:11:28.000Z</time></trkpt>
        <trkpt lat="29.5504118" lon="103.3702925"><ele>1203.77</ele><time>2026-06-13T00:12:04.000Z</time></trkpt>
        <trkpt lat="29.5503395" lon="103.3702573"><ele>1201.43</ele><time>2026-06-13T00:12:16.000Z</time></trkpt>
        <trkpt lat="29.5502466" lon="103.370276"><ele>1197.4</ele><time>2026-06-13T00:12:24.000Z</time></trkpt>
        <trkpt lat="29.5502466" lon="103.370276"><ele>1197.4</ele><time>2026-06-13T00:12:41.000Z</time></trkpt>
        <trkpt lat="29.5502466" lon="103.370276"><ele>1197.4</ele><time>2026-06-13T00:12:48.000Z</time></trkpt>
        <trkpt lat="29.5502466" lon="103.370276"><ele>1197.4</ele><time>2026-06-13T00:12:59.000Z</time></trkpt>
        <trkpt lat="29.5502131" lon="103.3703803"><ele>1195.92</ele><time>2026-06-13T00:13:02.000Z</time></trkpt>
        <trkpt lat="29.5502131" lon="103.3703803"><ele>1195.92</ele><time>2026-06-13T00:13:06.000Z</time></trkpt>
        <trkpt lat="29.5502131" lon="103.3703803"><ele>1195.92</ele><time>2026-06-13T00:13:11.000Z</time></trkpt>
        <trkpt lat="29.5502511" lon="103.3703574"><ele>1205.57</ele><time>2026-06-13T00:13:16.000Z</time></trkpt>
        <trkpt lat="29.5502511" lon="103.3703574"><ele>1205.57</ele><time>2026-06-13T00:13:20.000Z</time></trkpt>
        <trkpt lat="29.5501788" lon="103.3704274"><ele>1206.92</ele><time>2026-06-13T00:13:25.000Z</time></trkpt>
        <trkpt lat="29.5501788" lon="103.3704274"><ele>1206.92</ele><time>2026-06-13T00:13:27.000Z</time></trkpt>
        <trkpt lat="29.5502144" lon="103.3703134"><ele>1205.46</ele><time>2026-06-13T00:13:34.000Z</time></trkpt>
        <trkpt lat="29.5502144" lon="103.3703134"><ele>1205.46</ele><time>2026-06-13T00:13:42.000Z</time></trkpt>
        <trkpt lat="29.5502457" lon="103.3701898"><ele>1205.07</ele><time>2026-06-13T00:13:50.000Z</time></trkpt>
        <trkpt lat="29.5502682" lon="103.3700522"><ele>1203.53</ele><time>2026-06-13T00:13:58.000Z</time></trkpt>
        <trkpt lat="29.5502846" lon="103.369928"><ele>1202.92</ele><time>2026-06-13T00:14:08.000Z</time></trkpt>
        <trkpt lat="29.5502936" lon="103.3698743"><ele>1206.58</ele><time>2026-06-13T00:14:14.000Z</time></trkpt>
        <trkpt lat="29.5502301" lon="103.3698394"><ele>1207.65</ele><time>2026-06-13T00:14:38.000Z</time></trkpt>
        <trkpt lat="29.5501578" lon="103.3697797"><ele>1209.32</ele><time>2026-06-13T00:15:06.000Z</time></trkpt>
        <trkpt lat="29.5501816" lon="103.3697089"><ele>1211.45</ele><time>2026-06-13T00:15:37.000Z</time></trkpt>
        <trkpt lat="29.5501816" lon="103.3697089"><ele>1211.45</ele><time>2026-06-13T00:16:33.000Z</time></trkpt>
        <trkpt lat="29.55019" lon="103.3697058"><ele>1215.35</ele><time>2026-06-13T00:16:54.000Z</time></trkpt>
        <trkpt lat="29.55019" lon="103.3697058"><ele>1215.35</ele><time>2026-06-13T00:16:56.000Z</time></trkpt>
        <trkpt lat="29.5501681" lon="103.369602"><ele>1223.9</ele><time>2026-06-13T00:18:02.000Z</time></trkpt>
        <trkpt lat="29.5501498" lon="103.3695949"><ele>1229.08</ele><time>2026-06-13T00:18:08.000Z</time></trkpt>
        <trkpt lat="29.550073" lon="103.3696185"><ele>1231.9</ele><time>2026-06-13T00:18:20.000Z</time></trkpt>
        <trkpt lat="29.5500502" lon="103.3695662"><ele>1234.99</ele><time>2026-06-13T00:18:28.000Z</time></trkpt>
        <trkpt lat="29.550032" lon="103.3694626"><ele>1236.6</ele><time>2026-06-13T00:19:12.000Z</time></trkpt>
        <trkpt lat="29.5499847" lon="103.369352"><ele>1237.96</ele><time>2026-06-13T00:19:26.000Z</time></trkpt>
        <trkpt lat="29.5499434" lon="103.3692341"><ele>1240.88</ele><time>2026-06-13T00:19:36.000Z</time></trkpt>
        <trkpt lat="29.5499729" lon="103.3691294"><ele>1240.28</ele><time>2026-06-13T00:19:48.000Z</time></trkpt>
        <trkpt lat="29.549971" lon="103.3690225"><ele>1240.14</ele><time>2026-06-13T00:20:02.000Z</time></trkpt>
        <trkpt lat="29.5499838" lon="103.3689144"><ele>1240.76</ele><time>2026-06-13T00:20:24.000Z</time></trkpt>
        <trkpt lat="29.5499476" lon="103.3689631"><ele>1246.67</ele><time>2026-06-13T00:20:36.000Z</time></trkpt>
        <trkpt lat="29.5499375" lon="103.3689788"><ele>1250.92</ele><time>2026-06-13T00:20:38.000Z</time></trkpt>
        <trkpt lat="29.5499238" lon="103.3688831"><ele>1253.13</ele><time>2026-06-13T00:21:46.000Z</time></trkpt>
        <trkpt lat="29.5499238" lon="103.3688831"><ele>1253.13</ele><time>2026-06-13T00:22:45.000Z</time></trkpt>
        <trkpt lat="29.5498359" lon="103.3689107"><ele>1255.51</ele><time>2026-06-13T00:23:04.000Z</time></trkpt>
        <trkpt lat="29.5498359" lon="103.3689107"><ele>1255.51</ele><time>2026-06-13T00:23:55.000Z</time></trkpt>
        <trkpt lat="29.5498131" lon="103.3688024"><ele>1257.98</ele><time>2026-06-13T00:24:07.000Z</time></trkpt>
        <trkpt lat="29.5497405" lon="103.3687434"><ele>1260.4</ele><time>2026-06-13T00:24:17.000Z</time></trkpt>
        <trkpt lat="29.549678" lon="103.3686603"><ele>1261</ele><time>2026-06-13T00:24:31.000Z</time></trkpt>
        <trkpt lat="29.549678" lon="103.3686603"><ele>1261</ele><time>2026-06-13T00:25:33.000Z</time></trkpt>
        <trkpt lat="29.5494553" lon="103.3686746"><ele>1262.33</ele><time>2026-06-13T00:25:36.000Z</time></trkpt>
        <trkpt lat="29.5494553" lon="103.3686746"><ele>1262.33</ele><time>2026-06-13T00:25:40.000Z</time></trkpt>
        <trkpt lat="29.5495638" lon="103.3686279"><ele>1262.65</ele><time>2026-06-13T00:25:47.000Z</time></trkpt>
        <trkpt lat="29.5495962" lon="103.3686399"><ele>1264.07</ele><time>2026-06-13T00:25:49.000Z</time></trkpt>
        <trkpt lat="29.5496635" lon="103.3686052"><ele>1267.13</ele><time>2026-06-13T00:26:05.000Z</time></trkpt>
        <trkpt lat="29.5497522" lon="103.3685991"><ele>1272.84</ele><time>2026-06-13T00:26:27.000Z</time></trkpt>
        <trkpt lat="29.549719" lon="103.3685543"><ele>1276.71</ele><time>2026-06-13T00:27:07.000Z</time></trkpt>
        <trkpt lat="29.549719" lon="103.3685543"><ele>1276.71</ele><time>2026-06-13T00:27:45.000Z</time></trkpt>
        <trkpt lat="29.5497668" lon="103.3685134"><ele>1284.48</ele><time>2026-06-13T00:27:48.000Z</time></trkpt>
        <trkpt lat="29.5497668" lon="103.3685134"><ele>1284.48</ele><time>2026-06-13T00:27:55.000Z</time></trkpt>
        <trkpt lat="29.5497668" lon="103.3685134"><ele>1284.48</ele><time>2026-06-13T00:28:21.000Z</time></trkpt>
        <trkpt lat="29.5497668" lon="103.3685134"><ele>1284.48</ele><time>2026-06-13T00:28:44.000Z</time></trkpt>
        <trkpt lat="29.5497668" lon="103.3685134"><ele>1284.48</ele><time>2026-06-13T00:30:03.000Z</time></trkpt>
        <trkpt lat="29.5498149" lon="103.3684109"><ele>1285.57</ele><time>2026-06-13T00:30:08.000Z</time></trkpt>
        <trkpt lat="29.5498149" lon="103.3684109"><ele>1285.57</ele><time>2026-06-13T00:30:15.000Z</time></trkpt>
        <trkpt lat="29.5498149" lon="103.3684109"><ele>1285.57</ele><time>2026-06-13T00:30:59.000Z</time></trkpt>
        <trkpt lat="29.5498149" lon="103.3684109"><ele>1285.57</ele><time>2026-06-13T00:31:20.000Z</time></trkpt>
        <trkpt lat="29.5498149" lon="103.3684109"><ele>1285.57</ele><time>2026-06-13T00:31:31.000Z</time></trkpt>
        <trkpt lat="29.5498149" lon="103.3684109"><ele>1285.57</ele><time>2026-06-13T00:31:38.000Z</time></trkpt>
        <trkpt lat="29.5498149" lon="103.3684109"><ele>1285.57</ele><time>2026-06-13T00:33:05.000Z</time></trkpt>
        <trkpt lat="29.5498149" lon="103.3684109"><ele>1285.57</ele><time>2026-06-13T00:33:24.000Z</time></trkpt>
        <trkpt lat="29.5498149" lon="103.3684109"><ele>1285.57</ele><time>2026-06-13T00:33:33.000Z</time></trkpt>
        <trkpt lat="29.5498696" lon="103.3683244"><ele>1295.44</ele><time>2026-06-13T00:33:38.000Z</time></trkpt>
        <trkpt lat="29.5498696" lon="103.3683244"><ele>1295.44</ele><time>2026-06-13T00:33:46.000Z</time></trkpt>
        <trkpt lat="29.5498696" lon="103.3683244"><ele>1295.44</ele><time>2026-06-13T00:35:13.000Z</time></trkpt>
        <trkpt lat="29.5498696" lon="103.3683244"><ele>1295.44</ele><time>2026-06-13T00:35:32.000Z</time></trkpt>
        <trkpt lat="29.5498696" lon="103.3683244"><ele>1295.44</ele><time>2026-06-13T00:35:41.000Z</time></trkpt>
        <trkpt lat="29.5499522" lon="103.3682644"><ele>1301.44</ele><time>2026-06-13T00:35:44.000Z</time></trkpt>
        <trkpt lat="29.5499522" lon="103.3682644"><ele>1301.44</ele><time>2026-06-13T00:36:14.000Z</time></trkpt>
        <trkpt lat="29.5498819" lon="103.3681934"><ele>1306.65</ele><time>2026-06-13T00:37:06.000Z</time></trkpt>
        <trkpt lat="29.5498819" lon="103.3681934"><ele>1306.65</ele><time>2026-06-13T00:37:51.000Z</time></trkpt>
        <trkpt lat="29.5498819" lon="103.3681934"><ele>1306.65</ele><time>2026-06-13T00:38:32.000Z</time></trkpt>
        <trkpt lat="29.5498819" lon="103.3681934"><ele>1306.65</ele><time>2026-06-13T00:38:59.000Z</time></trkpt>
        <trkpt lat="29.5499448" lon="103.3681082"><ele>1308.99</ele><time>2026-06-13T00:39:20.000Z</time></trkpt>
        <trkpt lat="29.5499448" lon="103.3681082"><ele>1308.99</ele><time>2026-06-13T00:40:11.000Z</time></trkpt>
        <trkpt lat="29.5499622" lon="103.3679981"><ele>1313.42</ele><time>2026-06-13T00:40:25.000Z</time></trkpt>
        <trkpt lat="29.5499139" lon="103.3679454"><ele>1316.57</ele><time>2026-06-13T00:40:43.000Z</time></trkpt>
        <trkpt lat="29.5499139" lon="103.3679454"><ele>1316.57</ele><time>2026-06-13T00:43:31.000Z</time></trkpt>
        <trkpt lat="29.5499557" lon="103.3678662"><ele>1318.54</ele><time>2026-06-13T00:44:08.000Z</time></trkpt>
        <trkpt lat="29.5499557" lon="103.3678662"><ele>1318.54</ele><time>2026-06-13T00:44:43.000Z</time></trkpt>
        <trkpt lat="29.5500492" lon="103.367877"><ele>1331.6</ele><time>2026-06-13T00:45:05.000Z</time></trkpt>
        <trkpt lat="29.5500492" lon="103.367877"><ele>1331.6</ele><time>2026-06-13T00:45:37.000Z</time></trkpt>
        <trkpt lat="29.5500492" lon="103.367877"><ele>1331.6</ele><time>2026-06-13T00:45:38.000Z</time></trkpt>
        <trkpt lat="29.5500492" lon="103.367877"><ele>1331.6</ele><time>2026-06-13T00:45:57.000Z</time></trkpt>
        <trkpt lat="29.5499803" lon="103.3678019"><ele>1341.04</ele><time>2026-06-13T00:46:08.000Z</time></trkpt>
        <trkpt lat="29.5499803" lon="103.3678019"><ele>1341.04</ele><time>2026-06-13T00:46:17.000Z</time></trkpt>
        <trkpt lat="29.5500506" lon="103.3677347"><ele>1347.14</ele><time>2026-06-13T00:46:49.000Z</time></trkpt>
        <trkpt lat="29.5500506" lon="103.3677347"><ele>1347.14</ele><time>2026-06-13T00:47:19.000Z</time></trkpt>
        <trkpt lat="29.5501279" lon="103.3676741"><ele>1351.94</ele><time>2026-06-13T00:47:28.000Z</time></trkpt>
        <trkpt lat="29.5501279" lon="103.3676741"><ele>1351.94</ele><time>2026-06-13T00:47:42.000Z</time></trkpt>
        <trkpt lat="29.5502105" lon="103.3676077"><ele>1357.96</ele><time>2026-06-13T00:47:58.000Z</time></trkpt>
        <trkpt lat="29.550244" lon="103.3675621"><ele>1362.32</ele><time>2026-06-13T00:48:06.000Z</time></trkpt>
        <trkpt lat="29.550244" lon="103.3675621"><ele>1362.32</ele><time>2026-06-13T00:48:55.000Z</time></trkpt>
        <trkpt lat="29.550244" lon="103.3675621"><ele>1362.32</ele><time>2026-06-13T00:49:00.000Z</time></trkpt>
        <trkpt lat="29.550244" lon="103.3675621"><ele>1362.32</ele><time>2026-06-13T00:49:45.000Z</time></trkpt>
        <trkpt lat="29.5502234" lon="103.3674628"><ele>1364.83</ele><time>2026-06-13T00:49:52.000Z</time></trkpt>
        <trkpt lat="29.5502234" lon="103.3674628"><ele>1364.83</ele><time>2026-06-13T00:50:17.000Z</time></trkpt>
        <trkpt lat="29.5502234" lon="103.3674628"><ele>1364.83</ele><time>2026-06-13T00:50:35.000Z</time></trkpt>
        <trkpt lat="29.5502234" lon="103.3674628"><ele>1364.83</ele><time>2026-06-13T00:50:48.000Z</time></trkpt>
        <trkpt lat="29.5502234" lon="103.3674628"><ele>1364.83</ele><time>2026-06-13T00:51:43.000Z</time></trkpt>
        <trkpt lat="29.5502234" lon="103.3674628"><ele>1364.83</ele><time>2026-06-13T00:51:48.000Z</time></trkpt>
        <trkpt lat="29.5502234" lon="103.3674628"><ele>1364.83</ele><time>2026-06-13T00:52:01.000Z</time></trkpt>
        <trkpt lat="29.5502234" lon="103.3674628"><ele>1364.83</ele><time>2026-06-13T00:52:10.000Z</time></trkpt>
        <trkpt lat="29.5502234" lon="103.3674628"><ele>1364.83</ele><time>2026-06-13T00:52:29.000Z</time></trkpt>
        <trkpt lat="29.5502234" lon="103.3674628"><ele>1364.83</ele><time>2026-06-13T00:52:38.000Z</time></trkpt>
        <trkpt lat="29.5502234" lon="103.3674628"><ele>1364.83</ele><time>2026-06-13T00:52:51.000Z</time></trkpt>
        <trkpt lat="29.5502889" lon="103.3673695"><ele>1367.56</ele><time>2026-06-13T00:53:02.000Z</time></trkpt>
        <trkpt lat="29.5502889" lon="103.3673695"><ele>1367.56</ele><time>2026-06-13T00:53:31.000Z</time></trkpt>
        <trkpt lat="29.5502011" lon="103.3673939"><ele>1373.83</ele><time>2026-06-13T00:53:55.000Z</time></trkpt>
        <trkpt lat="29.5501143" lon="103.3673599"><ele>1379.14</ele><time>2026-06-13T00:54:27.000Z</time></trkpt>
        <trkpt lat="29.5501143" lon="103.3673599"><ele>1379.14</ele><time>2026-06-13T00:55:05.000Z</time></trkpt>
        <trkpt lat="29.5501402" lon="103.3672691"><ele>1383.48</ele><time>2026-06-13T00:55:10.000Z</time></trkpt>
        <trkpt lat="29.5501402" lon="103.3672691"><ele>1383.48</ele><time>2026-06-13T00:55:14.000Z</time></trkpt>
        <trkpt lat="29.5501896" lon="103.3671688"><ele>1386.91</ele><time>2026-06-13T00:55:32.000Z</time></trkpt>
        <trkpt lat="29.550237" lon="103.3670537"><ele>1390.16</ele><time>2026-06-13T00:55:50.000Z</time></trkpt>
        <trkpt lat="29.5503126" lon="103.3669812"><ele>1394.51</ele><time>2026-06-13T00:56:10.000Z</time></trkpt>
        <trkpt lat="29.5502985" lon="103.3669004"><ele>1397.76</ele><time>2026-06-13T00:56:39.000Z</time></trkpt>
        <trkpt lat="29.5502199" lon="103.3668717"><ele>1407.56</ele><time>2026-06-13T00:57:27.000Z</time></trkpt>
        <trkpt lat="29.5501799" lon="103.3667897"><ele>1412.98</ele><time>2026-06-13T00:58:13.000Z</time></trkpt>
        <trkpt lat="29.5501799" lon="103.3667897"><ele>1412.98</ele><time>2026-06-13T00:59:17.000Z</time></trkpt>
        <trkpt lat="29.5501799" lon="103.3667897"><ele>1412.98</ele><time>2026-06-13T00:59:18.000Z</time></trkpt>
        <trkpt lat="29.5501799" lon="103.3667897"><ele>1412.98</ele><time>2026-06-13T00:59:29.000Z</time></trkpt>
        <trkpt lat="29.5500875" lon="103.3667532"><ele>1413.23</ele><time>2026-06-13T00:59:36.000Z</time></trkpt>
        <trkpt lat="29.5500875" lon="103.3667532"><ele>1413.23</ele><time>2026-06-13T01:00:01.000Z</time></trkpt>
        <trkpt lat="29.5500198" lon="103.3666841"><ele>1416.25</ele><time>2026-06-13T01:00:51.000Z</time></trkpt>
        <trkpt lat="29.5499354" lon="103.3666242"><ele>1422.68</ele><time>2026-06-13T01:01:39.000Z</time></trkpt>
        <trkpt lat="29.5499354" lon="103.3666242"><ele>1422.68</ele><time>2026-06-13T01:02:15.000Z</time></trkpt>
        <trkpt lat="29.5498618" lon="103.3664243"><ele>1427.44</ele><time>2026-06-13T01:03:00.000Z</time></trkpt>
        <trkpt lat="29.5498618" lon="103.3664243"><ele>1427.44</ele><time>2026-06-13T01:03:04.000Z</time></trkpt>
        <trkpt lat="29.5498618" lon="103.3664243"><ele>1427.44</ele><time>2026-06-13T01:03:09.000Z</time></trkpt>
        <trkpt lat="29.5498469" lon="103.3665652"><ele>1420.6</ele><time>2026-06-13T01:04:00.000Z</time></trkpt>
        <trkpt lat="29.5498469" lon="103.3665652"><ele>1420.6</ele><time>2026-06-13T01:04:05.000Z</time></trkpt>
        <trkpt lat="29.5498469" lon="103.3665652"><ele>1420.6</ele><time>2026-06-13T01:04:11.000Z</time></trkpt>
        <trkpt lat="29.5498469" lon="103.3665652"><ele>1420.6</ele><time>2026-06-13T01:04:36.000Z</time></trkpt>
        <trkpt lat="29.5498469" lon="103.3665652"><ele>1420.6</ele><time>2026-06-13T01:04:45.000Z</time></trkpt>
        <trkpt lat="29.5498469" lon="103.3665652"><ele>1420.6</ele><time>2026-06-13T01:06:22.000Z</time></trkpt>
        <trkpt lat="29.5498469" lon="103.3665652"><ele>1420.6</ele><time>2026-06-13T01:06:33.000Z</time></trkpt>
        <trkpt lat="29.5498469" lon="103.3665652"><ele>1420.6</ele><time>2026-06-13T01:06:36.000Z</time></trkpt>
        <trkpt lat="29.5498469" lon="103.3665652"><ele>1420.6</ele><time>2026-06-13T01:06:49.000Z</time></trkpt>
        <trkpt lat="29.5498469" lon="103.3665652"><ele>1420.6</ele><time>2026-06-13T01:07:06.000Z</time></trkpt>
        <trkpt lat="29.5498469" lon="103.3665652"><ele>1420.6</ele><time>2026-06-13T01:07:33.000Z</time></trkpt>
        <trkpt lat="29.5498587" lon="103.3666847"><ele>1421.68</ele><time>2026-06-13T01:08:20.000Z</time></trkpt>
        <trkpt lat="29.5498587" lon="103.3666847"><ele>1421.68</ele><time>2026-06-13T01:08:31.000Z</time></trkpt>
        <trkpt lat="29.5497706" lon="103.3666572"><ele>1427.57</ele><time>2026-06-13T01:08:49.000Z</time></trkpt>
        <trkpt lat="29.5496958" lon="103.3665886"><ele>1430.55</ele><time>2026-06-13T01:09:09.000Z</time></trkpt>
        <trkpt lat="29.549657" lon="103.3665652"><ele>1432.34</ele><time>2026-06-13T01:09:17.000Z</time></trkpt>
        <trkpt lat="29.5495828" lon="103.366549"><ele>1433.78</ele><time>2026-06-13T01:10:01.000Z</time></trkpt>
        <trkpt lat="29.5495828" lon="103.366549"><ele>1433.78</ele><time>2026-06-13T01:10:49.000Z</time></trkpt>
        <trkpt lat="29.5494926" lon="103.3665116"><ele>1437.49</ele><time>2026-06-13T01:10:56.000Z</time></trkpt>
        <trkpt lat="29.5494926" lon="103.3665116"><ele>1437.49</ele><time>2026-06-13T01:11:19.000Z</time></trkpt>
        <trkpt lat="29.5494432" lon="103.3664239"><ele>1443.48</ele><time>2026-06-13T01:12:13.000Z</time></trkpt>
        <trkpt lat="29.549439" lon="103.3663893"><ele>1447.35</ele><time>2026-06-13T01:12:27.000Z</time></trkpt>
        <trkpt lat="29.5494269" lon="103.3663026"><ele>1449.85</ele><time>2026-06-13T01:13:08.000Z</time></trkpt>
        <trkpt lat="29.5494269" lon="103.3663026"><ele>1449.85</ele><time>2026-06-13T01:14:03.000Z</time></trkpt>
        <trkpt lat="29.5494269" lon="103.3663026"><ele>1449.85</ele><time>2026-06-13T01:14:12.000Z</time></trkpt>
        <trkpt lat="29.5494269" lon="103.3663026"><ele>1449.85</ele><time>2026-06-13T01:14:59.000Z</time></trkpt>
        <trkpt lat="29.5495183" lon="103.3662354"><ele>1452.87</ele><time>2026-06-13T01:15:02.000Z</time></trkpt>
        <trkpt lat="29.5495183" lon="103.3662354"><ele>1452.87</ele><time>2026-06-13T01:15:42.000Z</time></trkpt>
        <trkpt lat="29.5496008" lon="103.3661851"><ele>1456.56</ele><time>2026-06-13T01:15:56.000Z</time></trkpt>
        <trkpt lat="29.5496008" lon="103.3661851"><ele>1456.56</ele><time>2026-06-13T01:16:15.000Z</time></trkpt>
        <trkpt lat="29.5496255" lon="103.3660845"><ele>1458.64</ele><time>2026-06-13T01:16:20.000Z</time></trkpt>
        <trkpt lat="29.5496255" lon="103.3660845"><ele>1458.64</ele><time>2026-06-13T01:16:31.000Z</time></trkpt>
        <trkpt lat="29.5496596" lon="103.3660364"><ele>1464</ele><time>2026-06-13T01:16:37.000Z</time></trkpt>
        <trkpt lat="29.5496596" lon="103.3660364"><ele>1464</ele><time>2026-06-13T01:17:05.000Z</time></trkpt>
        <trkpt lat="29.5496641" lon="103.3659415"><ele>1467.86</ele><time>2026-06-13T01:17:08.000Z</time></trkpt>
        <trkpt lat="29.5496641" lon="103.3659415"><ele>1467.86</ele><time>2026-06-13T01:17:40.000Z</time></trkpt>
        <trkpt lat="29.5496526" lon="103.3658373"><ele>1470.06</ele><time>2026-06-13T01:18:08.000Z</time></trkpt>
        <trkpt lat="29.5496486" lon="103.3657224"><ele>1471.13</ele><time>2026-06-13T01:18:26.000Z</time></trkpt>
        <trkpt lat="29.5496094" lon="103.3656196"><ele>1471.93</ele><time>2026-06-13T01:18:38.000Z</time></trkpt>
        <trkpt lat="29.5495812" lon="103.3655151"><ele>1471.13</ele><time>2026-06-13T01:18:48.000Z</time></trkpt>
        <trkpt lat="29.5496319" lon="103.3654289"><ele>1470.24</ele><time>2026-06-13T01:18:58.000Z</time></trkpt>
        <trkpt lat="29.5496967" lon="103.3653434"><ele>1469.89</ele><time>2026-06-13T01:19:06.000Z</time></trkpt>
        <trkpt lat="29.5497635" lon="103.3652542"><ele>1470.26</ele><time>2026-06-13T01:19:14.000Z</time></trkpt>
        <trkpt lat="29.5498352" lon="103.3651749"><ele>1470.78</ele><time>2026-06-13T01:19:22.000Z</time></trkpt>
        <trkpt lat="29.5499099" lon="103.3650852"><ele>1471.57</ele><time>2026-06-13T01:19:32.000Z</time></trkpt>
        <trkpt lat="29.5499521" lon="103.3649881"><ele>1472.96</ele><time>2026-06-13T01:19:40.000Z</time></trkpt>
        <trkpt lat="29.5500108" lon="103.3648994"><ele>1472.96</ele><time>2026-06-13T01:19:50.000Z</time></trkpt>
        <trkpt lat="29.550086" lon="103.36482"><ele>1472.69</ele><time>2026-06-13T01:19:58.000Z</time></trkpt>
        <trkpt lat="29.5501235" lon="103.3647164"><ele>1472.79</ele><time>2026-06-13T01:20:08.000Z</time></trkpt>
        <trkpt lat="29.5501522" lon="103.3646075"><ele>1472.89</ele><time>2026-06-13T01:20:20.000Z</time></trkpt>
        <trkpt lat="29.550199" lon="103.3645161"><ele>1472.64</ele><time>2026-06-13T01:20:30.000Z</time></trkpt>
        <trkpt lat="29.5502683" lon="103.3644374"><ele>1472.58</ele><time>2026-06-13T01:20:42.000Z</time></trkpt>
        <trkpt lat="29.5503471" lon="103.3643581"><ele>1472.43</ele><time>2026-06-13T01:20:54.000Z</time></trkpt>
        <trkpt lat="29.550401" lon="103.3642579"><ele>1472.84</ele><time>2026-06-13T01:21:06.000Z</time></trkpt>
        <trkpt lat="29.5504252" lon="103.3641461"><ele>1472.41</ele><time>2026-06-13T01:21:26.000Z</time></trkpt>
        <trkpt lat="29.5504252" lon="103.3641461"><ele>1472.41</ele><time>2026-06-13T01:22:05.000Z</time></trkpt>
        <trkpt lat="29.5504025" lon="103.3640141"><ele>1472.83</ele><time>2026-06-13T01:22:12.000Z</time></trkpt>
        <trkpt lat="29.5504025" lon="103.3640141"><ele>1472.83</ele><time>2026-06-13T01:22:13.000Z</time></trkpt>
        <trkpt lat="29.5504564" lon="103.3639413"><ele>1475.68</ele><time>2026-06-13T01:22:34.000Z</time></trkpt>
        <trkpt lat="29.550527" lon="103.3639822"><ele>1476.54</ele><time>2026-06-13T01:23:04.000Z</time></trkpt>
        <trkpt lat="29.550527" lon="103.3639822"><ele>1476.54</ele><time>2026-06-13T01:23:17.000Z</time></trkpt>
        <trkpt lat="29.5504797" lon="103.3639767"><ele>1479.11</ele><time>2026-06-13T01:23:40.000Z</time></trkpt>
        <trkpt lat="29.5504797" lon="103.3639767"><ele>1479.11</ele><time>2026-06-13T01:23:45.000Z</time></trkpt>
        <trkpt lat="29.5504676" lon="103.3638936"><ele>1487.43</ele><time>2026-06-13T01:24:01.000Z</time></trkpt>
        <trkpt lat="29.5505266" lon="103.3638057"><ele>1490.87</ele><time>2026-06-13T01:24:23.000Z</time></trkpt>
        <trkpt lat="29.5506171" lon="103.3637443"><ele>1492.09</ele><time>2026-06-13T01:24:35.000Z</time></trkpt>
        <trkpt lat="29.5507117" lon="103.3636777"><ele>1493.28</ele><time>2026-06-13T01:24:51.000Z</time></trkpt>
        <trkpt lat="29.5508036" lon="103.3636307"><ele>1494.36</ele><time>2026-06-13T01:24:59.000Z</time></trkpt>
        <trkpt lat="29.5507958" lon="103.3635338"><ele>1494.44</ele><time>2026-06-13T01:25:11.000Z</time></trkpt>
        <trkpt lat="29.5507584" lon="103.3634894"><ele>1494.91</ele><time>2026-06-13T01:25:17.000Z</time></trkpt>
        <trkpt lat="29.5507584" lon="103.3634894"><ele>1494.91</ele><time>2026-06-13T01:25:25.000Z</time></trkpt>
        <trkpt lat="29.5507584" lon="103.3634894"><ele>1494.91</ele><time>2026-06-13T01:25:30.000Z</time></trkpt>
        <trkpt lat="29.5507584" lon="103.3634894"><ele>1494.91</ele><time>2026-06-13T01:26:03.000Z</time></trkpt>
        <trkpt lat="29.5507518" lon="103.3633877"><ele>1495.41</ele><time>2026-06-13T01:26:08.000Z</time></trkpt>
        <trkpt lat="29.5507518" lon="103.3633877"><ele>1495.41</ele><time>2026-06-13T01:26:13.000Z</time></trkpt>
        <trkpt lat="29.5507518" lon="103.3633877"><ele>1495.41</ele><time>2026-06-13T01:27:43.000Z</time></trkpt>
        <trkpt lat="29.5507518" lon="103.3633877"><ele>1495.41</ele><time>2026-06-13T01:27:48.000Z</time></trkpt>
        <trkpt lat="29.5507518" lon="103.3633877"><ele>1495.41</ele><time>2026-06-13T01:27:59.000Z</time></trkpt>
        <trkpt lat="29.5507292" lon="103.36326"><ele>1498.06</ele><time>2026-06-13T01:28:08.000Z</time></trkpt>
        <trkpt lat="29.5507292" lon="103.36326"><ele>1498.06</ele><time>2026-06-13T01:28:25.000Z</time></trkpt>
        <trkpt lat="29.5507917" lon="103.36318"><ele>1506.17</ele><time>2026-06-13T01:28:43.000Z</time></trkpt>
        <trkpt lat="29.5507917" lon="103.36318"><ele>1506.17</ele><time>2026-06-13T01:28:55.000Z</time></trkpt>
        <trkpt lat="29.5507464" lon="103.3632412"><ele>1510.48</ele><time>2026-06-13T01:29:12.000Z</time></trkpt>
        <trkpt lat="29.5507464" lon="103.3632412"><ele>1510.48</ele><time>2026-06-13T01:29:15.000Z</time></trkpt>
        <trkpt lat="29.5507644" lon="103.3631863"><ele>1521.83</ele><time>2026-06-13T01:29:31.000Z</time></trkpt>
        <trkpt lat="29.5507644" lon="103.3631863"><ele>1521.83</ele><time>2026-06-13T01:30:09.000Z</time></trkpt>
        <trkpt lat="29.5507238" lon="103.3633607"><ele>1523.08</ele><time>2026-06-13T01:30:56.000Z</time></trkpt>
        <trkpt lat="29.5507238" lon="103.3633607"><ele>1523.08</ele><time>2026-06-13T01:30:59.000Z</time></trkpt>
        <trkpt lat="29.5508393" lon="103.3631074"><ele>1524.08</ele><time>2026-06-13T01:31:07.000Z</time></trkpt>
        <trkpt lat="29.5508393" lon="103.3631074"><ele>1524.08</ele><time>2026-06-13T01:31:29.000Z</time></trkpt>
        <trkpt lat="29.5508523" lon="103.3630022"><ele>1525.11</ele><time>2026-06-13T01:31:46.000Z</time></trkpt>
        <trkpt lat="29.5508523" lon="103.3630022"><ele>1525.11</ele><time>2026-06-13T01:32:45.000Z</time></trkpt>
        <trkpt lat="29.5508523" lon="103.3630022"><ele>1525.11</ele><time>2026-06-13T01:33:07.000Z</time></trkpt>
        <trkpt lat="29.5507598" lon="103.3630179"><ele>1528.42</ele><time>2026-06-13T01:33:16.000Z</time></trkpt>
        <trkpt lat="29.5507598" lon="103.3630179"><ele>1528.42</ele><time>2026-06-13T01:33:24.000Z</time></trkpt>
        <trkpt lat="29.5507598" lon="103.3630179"><ele>1528.42</ele><time>2026-06-13T01:33:37.000Z</time></trkpt>
        <trkpt lat="29.5507598" lon="103.3630179"><ele>1528.42</ele><time>2026-06-13T01:33:44.000Z</time></trkpt>
        <trkpt lat="29.5507598" lon="103.3630179"><ele>1528.42</ele><time>2026-06-13T01:33:57.000Z</time></trkpt>
        <trkpt lat="29.5507598" lon="103.3630179"><ele>1528.42</ele><time>2026-06-13T01:34:00.000Z</time></trkpt>
        <trkpt lat="29.5507598" lon="103.3630179"><ele>1528.42</ele><time>2026-06-13T01:34:31.000Z</time></trkpt>
        <trkpt lat="29.5507598" lon="103.3630179"><ele>1528.42</ele><time>2026-06-13T01:34:36.000Z</time></trkpt>
        <trkpt lat="29.5507598" lon="103.3630179"><ele>1528.42</ele><time>2026-06-13T01:34:45.000Z</time></trkpt>
        <trkpt lat="29.5506673" lon="103.3630413"><ele>1535.47</ele><time>2026-06-13T01:35:12.000Z</time></trkpt>
        <trkpt lat="29.5506673" lon="103.3630413"><ele>1535.47</ele><time>2026-06-13T01:35:51.000Z</time></trkpt>
        <trkpt lat="29.5506144" lon="103.362938"><ele>1542.6</ele><time>2026-06-13T01:36:05.000Z</time></trkpt>
        <trkpt lat="29.5506144" lon="103.362938"><ele>1542.6</ele><time>2026-06-13T01:36:37.000Z</time></trkpt>
        <trkpt lat="29.5506144" lon="103.362938"><ele>1542.6</ele><time>2026-06-13T01:36:42.000Z</time></trkpt>
        <trkpt lat="29.5506144" lon="103.362938"><ele>1542.6</ele><time>2026-06-13T01:36:51.000Z</time></trkpt>
        <trkpt lat="29.5505749" lon="103.3628172"><ele>1544.3</ele><time>2026-06-13T01:37:04.000Z</time></trkpt>
        <trkpt lat="29.5505749" lon="103.3628172"><ele>1544.3</ele><time>2026-06-13T01:37:09.000Z</time></trkpt>
        <trkpt lat="29.5506341" lon="103.3627346"><ele>1544.81</ele><time>2026-06-13T01:37:51.000Z</time></trkpt>
        <trkpt lat="29.5506836" lon="103.3626358"><ele>1545.39</ele><time>2026-06-13T01:38:30.000Z</time></trkpt>
        <trkpt lat="29.5506836" lon="103.3626358"><ele>1545.39</ele><time>2026-06-13T01:38:47.000Z</time></trkpt>
        <trkpt lat="29.5506836" lon="103.3626358"><ele>1545.39</ele><time>2026-06-13T01:39:04.000Z</time></trkpt>
        <trkpt lat="29.5506836" lon="103.3626358"><ele>1545.39</ele><time>2026-06-13T01:39:13.000Z</time></trkpt>
        <trkpt lat="29.5506836" lon="103.3626358"><ele>1545.39</ele><time>2026-06-13T01:39:28.000Z</time></trkpt>
        <trkpt lat="29.5506836" lon="103.3626358"><ele>1545.39</ele><time>2026-06-13T01:39:53.000Z</time></trkpt>
        <trkpt lat="29.5506764" lon="103.3625207"><ele>1549.31</ele><time>2026-06-13T01:40:08.000Z</time></trkpt>
        <trkpt lat="29.5506764" lon="103.3625207"><ele>1549.31</ele><time>2026-06-13T01:40:31.000Z</time></trkpt>
        <trkpt lat="29.550705" lon="103.3624195"><ele>1555.02</ele><time>2026-06-13T01:41:25.000Z</time></trkpt>
        <trkpt lat="29.550705" lon="103.3624195"><ele>1555.02</ele><time>2026-06-13T01:42:23.000Z</time></trkpt>
        <trkpt lat="29.5506993" lon="103.3623099"><ele>1561.53</ele><time>2026-06-13T01:42:28.000Z</time></trkpt>
        <trkpt lat="29.5506993" lon="103.3623099"><ele>1561.53</ele><time>2026-06-13T01:42:34.000Z</time></trkpt>
        <trkpt lat="29.5506464" lon="103.3622196"><ele>1568.48</ele><time>2026-06-13T01:43:04.000Z</time></trkpt>
        <trkpt lat="29.5506464" lon="103.3622196"><ele>1568.48</ele><time>2026-06-13T01:43:19.000Z</time></trkpt>
        <trkpt lat="29.5506464" lon="103.3622196"><ele>1568.48</ele><time>2026-06-13T01:43:26.000Z</time></trkpt>
        <trkpt lat="29.5506464" lon="103.3622196"><ele>1568.48</ele><time>2026-06-13T01:43:43.000Z</time></trkpt>
        <trkpt lat="29.5506086" lon="103.3621223"><ele>1573.54</ele><time>2026-06-13T01:44:20.000Z</time></trkpt>
        <trkpt lat="29.5506086" lon="103.3621223"><ele>1573.54</ele><time>2026-06-13T01:44:27.000Z</time></trkpt>
        <trkpt lat="29.550608" lon="103.3620151"><ele>1576.94</ele><time>2026-06-13T01:45:17.000Z</time></trkpt>
        <trkpt lat="29.550608" lon="103.3620151"><ele>1576.94</ele><time>2026-06-13T01:45:45.000Z</time></trkpt>
        <trkpt lat="29.5505914" lon="103.3619107"><ele>1582.44</ele><time>2026-06-13T01:46:00.000Z</time></trkpt>
        <trkpt lat="29.5505914" lon="103.3619107"><ele>1582.44</ele><time>2026-06-13T01:46:25.000Z</time></trkpt>
        <trkpt lat="29.5505914" lon="103.3619107"><ele>1582.44</ele><time>2026-06-13T01:47:03.000Z</time></trkpt>
        <trkpt lat="29.5505976" lon="103.3617813"><ele>1588.54</ele><time>2026-06-13T01:47:12.000Z</time></trkpt>
        <trkpt lat="29.5505976" lon="103.3617813"><ele>1588.54</ele><time>2026-06-13T01:47:13.000Z</time></trkpt>
        <trkpt lat="29.5505301" lon="103.3617074"><ele>1592.07</ele><time>2026-06-13T01:47:28.000Z</time></trkpt>
        <trkpt lat="29.5504552" lon="103.3616413"><ele>1597.32</ele><time>2026-06-13T01:47:50.000Z</time></trkpt>
        <trkpt lat="29.5504552" lon="103.3616413"><ele>1597.32</ele><time>2026-06-13T01:48:01.000Z</time></trkpt>
        <trkpt lat="29.5504576" lon="103.3615499"><ele>1600.52</ele><time>2026-06-13T01:48:04.000Z</time></trkpt>
        <trkpt lat="29.5504576" lon="103.3615499"><ele>1600.52</ele><time>2026-06-13T01:48:46.000Z</time></trkpt>
        <trkpt lat="29.5504059" lon="103.3614823"><ele>1602.28</ele><time>2026-06-13T01:49:16.000Z</time></trkpt>
        <trkpt lat="29.5504059" lon="103.3614823"><ele>1602.28</ele><time>2026-06-13T01:49:31.000Z</time></trkpt>
        <trkpt lat="29.5503376" lon="103.3614181"><ele>1607.17</ele><time>2026-06-13T01:49:36.000Z</time></trkpt>
        <trkpt lat="29.5503376" lon="103.3614181"><ele>1607.17</ele><time>2026-06-13T01:49:54.000Z</time></trkpt>
        <trkpt lat="29.5502694" lon="103.3613471"><ele>1613.39</ele><time>2026-06-13T01:50:22.000Z</time></trkpt>
        <trkpt lat="29.5501777" lon="103.3613143"><ele>1616.24</ele><time>2026-06-13T01:50:42.000Z</time></trkpt>
        <trkpt lat="29.5501065" lon="103.3612513"><ele>1618.41</ele><time>2026-06-13T01:50:52.000Z</time></trkpt>
        <trkpt lat="29.5500176" lon="103.3612301"><ele>1620.35</ele><time>2026-06-13T01:51:04.000Z</time></trkpt>
        <trkpt lat="29.5499616" lon="103.3611479"><ele>1622.42</ele><time>2026-06-13T01:51:32.000Z</time></trkpt>
        <trkpt lat="29.549939" lon="103.3610439"><ele>1622.6</ele><time>2026-06-13T01:51:46.000Z</time></trkpt>
        <trkpt lat="29.5499093" lon="103.3609377"><ele>1623.52</ele><time>2026-06-13T01:52:00.000Z</time></trkpt>
        <trkpt lat="29.5498644" lon="103.3608309"><ele>1625.22</ele><time>2026-06-13T01:52:12.000Z</time></trkpt>
        <trkpt lat="29.549895" lon="103.3607369"><ele>1626.14</ele><time>2026-06-13T01:52:22.000Z</time></trkpt>
        <trkpt lat="29.5499312" lon="103.3606274"><ele>1626.04</ele><time>2026-06-13T01:52:34.000Z</time></trkpt>
        <trkpt lat="29.5499774" lon="103.3605166"><ele>1624.8</ele><time>2026-06-13T01:52:48.000Z</time></trkpt>
        <trkpt lat="29.5500415" lon="103.3604337"><ele>1623.35</ele><time>2026-06-13T01:52:58.000Z</time></trkpt>
        <trkpt lat="29.5500858" lon="103.3603321"><ele>1621.29</ele><time>2026-06-13T01:53:10.000Z</time></trkpt>
        <trkpt lat="29.5501202" lon="103.3602279"><ele>1618.93</ele><time>2026-06-13T01:53:24.000Z</time></trkpt>
        <trkpt lat="29.5501611" lon="103.3601313"><ele>1618.27</ele><time>2026-06-13T01:53:44.000Z</time></trkpt>
        <trkpt lat="29.5501611" lon="103.3601313"><ele>1618.27</ele><time>2026-06-13T01:54:33.000Z</time></trkpt>
        <trkpt lat="29.5501611" lon="103.3601313"><ele>1618.27</ele><time>2026-06-13T01:54:36.000Z</time></trkpt>
        <trkpt lat="29.5501611" lon="103.3601313"><ele>1618.27</ele><time>2026-06-13T01:55:07.000Z</time></trkpt>
        <trkpt lat="29.5501611" lon="103.3601313"><ele>1618.27</ele><time>2026-06-13T01:55:20.000Z</time></trkpt>
        <trkpt lat="29.5501611" lon="103.3601313"><ele>1618.27</ele><time>2026-06-13T01:55:41.000Z</time></trkpt>
        <trkpt lat="29.5501293" lon="103.360028"><ele>1619.15</ele><time>2026-06-13T01:55:46.000Z</time></trkpt>
        <trkpt lat="29.5501293" lon="103.360028"><ele>1619.15</ele><time>2026-06-13T01:56:15.000Z</time></trkpt>
        <trkpt lat="29.5501079" lon="103.3599196"><ele>1622.06</ele><time>2026-06-13T01:57:11.000Z</time></trkpt>
        <trkpt lat="29.5501079" lon="103.3599196"><ele>1622.06</ele><time>2026-06-13T01:57:51.000Z</time></trkpt>
        <trkpt lat="29.5500674" lon="103.3598164"><ele>1625.69</ele><time>2026-06-13T01:57:56.000Z</time></trkpt>
        <trkpt lat="29.5500674" lon="103.3598164"><ele>1625.69</ele><time>2026-06-13T01:58:24.000Z</time></trkpt>
        <trkpt lat="29.5500674" lon="103.3598164"><ele>1625.69</ele><time>2026-06-13T01:58:51.000Z</time></trkpt>
        <trkpt lat="29.5499919" lon="103.3597122"><ele>1630.04</ele><time>2026-06-13T01:58:54.000Z</time></trkpt>
        <trkpt lat="29.5499919" lon="103.3597122"><ele>1630.04</ele><time>2026-06-13T01:59:00.000Z</time></trkpt>
        <trkpt lat="29.5499641" lon="103.3596468"><ele>1634.16</ele><time>2026-06-13T01:59:14.000Z</time></trkpt>
        <trkpt lat="29.5499641" lon="103.3596468"><ele>1634.16</ele><time>2026-06-13T01:59:37.000Z</time></trkpt>
        <trkpt lat="29.549914" lon="103.3595484"><ele>1635.52</ele><time>2026-06-13T01:59:44.000Z</time></trkpt>
        <trkpt lat="29.549914" lon="103.3595484"><ele>1635.52</ele><time>2026-06-13T02:00:30.000Z</time></trkpt>
        <trkpt lat="29.5499003" lon="103.3594421"><ele>1640.46</ele><time>2026-06-13T02:00:44.000Z</time></trkpt>
        <trkpt lat="29.5499003" lon="103.3594421"><ele>1640.46</ele><time>2026-06-13T02:01:31.000Z</time></trkpt>
        <trkpt lat="29.5499003" lon="103.3594421"><ele>1640.46</ele><time>2026-06-13T02:01:42.000Z</time></trkpt>
        <trkpt lat="29.5499003" lon="103.3594421"><ele>1640.46</ele><time>2026-06-13T02:02:17.000Z</time></trkpt>
        <trkpt lat="29.5499564" lon="103.3593532"><ele>1643.79</ele><time>2026-06-13T02:02:20.000Z</time></trkpt>
        <trkpt lat="29.5499564" lon="103.3593532"><ele>1643.79</ele><time>2026-06-13T02:02:47.000Z</time></trkpt>
        <trkpt lat="29.5500385" lon="103.3592776"><ele>1649.43</ele><time>2026-06-13T02:02:57.000Z</time></trkpt>
        <trkpt lat="29.5501157" lon="103.3592167"><ele>1652.19</ele><time>2026-06-13T02:03:13.000Z</time></trkpt>
        <trkpt lat="29.5501298" lon="103.3592219"><ele>1655.26</ele><time>2026-06-13T02:03:15.000Z</time></trkpt>
        <trkpt lat="29.5501573" lon="103.3591515"><ele>1657.25</ele><time>2026-06-13T02:03:32.000Z</time></trkpt>
        <trkpt lat="29.5502362" lon="103.3591379"><ele>1657.27</ele><time>2026-06-13T02:03:40.000Z</time></trkpt>
        <trkpt lat="29.550308" lon="103.3590754"><ele>1659.01</ele><time>2026-06-13T02:03:50.000Z</time></trkpt>
        <trkpt lat="29.5503212" lon="103.3589784"><ele>1659.23</ele><time>2026-06-13T02:03:58.000Z</time></trkpt>
        <trkpt lat="29.5502787" lon="103.3588823"><ele>1658.3</ele><time>2026-06-13T02:04:20.000Z</time></trkpt>
        <trkpt lat="29.5502725" lon="103.3587931"><ele>1657.08</ele><time>2026-06-13T02:04:36.000Z</time></trkpt>
        <trkpt lat="29.5502691" lon="103.3586851"><ele>1656.98</ele><time>2026-06-13T02:05:19.000Z</time></trkpt>
        <trkpt lat="29.5502891" lon="103.3585794"><ele>1659.32</ele><time>2026-06-13T02:05:37.000Z</time></trkpt>
        <trkpt lat="29.5502891" lon="103.3585794"><ele>1659.32</ele><time>2026-06-13T02:06:19.000Z</time></trkpt>
        <trkpt lat="29.5503495" lon="103.3584816"><ele>1661.54</ele><time>2026-06-13T02:06:20.000Z</time></trkpt>
        <trkpt lat="29.5503495" lon="103.3584816"><ele>1661.54</ele><time>2026-06-13T02:06:26.000Z</time></trkpt>
        <trkpt lat="29.5503846" lon="103.3583786"><ele>1668.36</ele><time>2026-06-13T02:06:42.000Z</time></trkpt>
        <trkpt lat="29.5503598" lon="103.3582737"><ele>1672.54</ele><time>2026-06-13T02:06:56.000Z</time></trkpt>
        <trkpt lat="29.5503309" lon="103.3581622"><ele>1675.04</ele><time>2026-06-13T02:07:08.000Z</time></trkpt>
        <trkpt lat="29.5503359" lon="103.3580523"><ele>1677.29</ele><time>2026-06-13T02:07:33.000Z</time></trkpt>
        <trkpt lat="29.5503504" lon="103.3579412"><ele>1678.42</ele><time>2026-06-13T02:07:56.000Z</time></trkpt>
        <trkpt lat="29.550389" lon="103.3578377"><ele>1679.21</ele><time>2026-06-13T02:08:12.000Z</time></trkpt>
        <trkpt lat="29.5504371" lon="103.3577376"><ele>1680.75</ele><time>2026-06-13T02:08:57.000Z</time></trkpt>
        <trkpt lat="29.5504391" lon="103.3576333"><ele>1683.31</ele><time>2026-06-13T02:09:09.000Z</time></trkpt>
        <trkpt lat="29.5504277" lon="103.3575259"><ele>1685.42</ele><time>2026-06-13T02:09:23.000Z</time></trkpt>
        <trkpt lat="29.5504396" lon="103.3574184"><ele>1686.58</ele><time>2026-06-13T02:09:37.000Z</time></trkpt>
        <trkpt lat="29.5504396" lon="103.3574184"><ele>1686.58</ele><time>2026-06-13T02:09:59.000Z</time></trkpt>
        <trkpt lat="29.5504396" lon="103.3574184"><ele>1686.58</ele><time>2026-06-13T02:10:03.000Z</time></trkpt>
        <trkpt lat="29.5504396" lon="103.3574184"><ele>1686.58</ele><time>2026-06-13T02:10:05.000Z</time></trkpt>
        <trkpt lat="29.550435" lon="103.3573072"><ele>1688.12</ele><time>2026-06-13T02:10:06.000Z</time></trkpt>
        <trkpt lat="29.550435" lon="103.3573072"><ele>1688.12</ele><time>2026-06-13T02:10:29.000Z</time></trkpt>
        <trkpt lat="29.5504261" lon="103.3571989"><ele>1690.01</ele><time>2026-06-13T02:10:47.000Z</time></trkpt>
        <trkpt lat="29.5504201" lon="103.3570845"><ele>1693.2</ele><time>2026-06-13T02:11:05.000Z</time></trkpt>
        <trkpt lat="29.5503829" lon="103.3569762"><ele>1696.32</ele><time>2026-06-13T02:11:15.000Z</time></trkpt>
        <trkpt lat="29.5503281" lon="103.3569359"><ele>1697.94</ele><time>2026-06-13T02:11:29.000Z</time></trkpt>
        <trkpt lat="29.5502414" lon="103.3569126"><ele>1699.66</ele><time>2026-06-13T02:11:52.000Z</time></trkpt>
        <trkpt lat="29.5501377" lon="103.3569442"><ele>1701.41</ele><time>2026-06-13T02:12:15.000Z</time></trkpt>
        <trkpt lat="29.5500395" lon="103.3569537"><ele>1705.43</ele><time>2026-06-13T02:12:31.000Z</time></trkpt>
        <trkpt lat="29.5499409" lon="103.3569618"><ele>1707.9</ele><time>2026-06-13T02:12:51.000Z</time></trkpt>
        <trkpt lat="29.5498522" lon="103.3569194"><ele>1708.97</ele><time>2026-06-13T02:13:01.000Z</time></trkpt>
        <trkpt lat="29.5497674" lon="103.3568721"><ele>1708.5</ele><time>2026-06-13T02:13:11.000Z</time></trkpt>
        <trkpt lat="29.5496937" lon="103.3568698"><ele>1706.91</ele><time>2026-06-13T02:13:21.000Z</time></trkpt>
        <trkpt lat="29.54968" lon="103.3569629"><ele>1706.04</ele><time>2026-06-13T02:14:10.000Z</time></trkpt>
        <trkpt lat="29.5496885" lon="103.3570806"><ele>1706.56</ele><time>2026-06-13T02:14:20.000Z</time></trkpt>
        <trkpt lat="29.5496362" lon="103.3570937"><ele>1706.4</ele><time>2026-06-13T02:14:38.000Z</time></trkpt>
        <trkpt lat="29.5496634" lon="103.3570056"><ele>1707.38</ele><time>2026-06-13T02:14:56.000Z</time></trkpt>
        <trkpt lat="29.5493877" lon="103.3568504"><ele>1707.03</ele><time>2026-06-13T02:15:06.000Z</time></trkpt>
        <trkpt lat="29.5493248" lon="103.3567293"><ele>1708.89</ele><time>2026-06-13T02:15:20.000Z</time></trkpt>
        <trkpt lat="29.5493004" lon="103.3566065"><ele>1704.84</ele><time>2026-06-13T02:15:30.000Z</time></trkpt>
        <trkpt lat="29.5492312" lon="103.356534"><ele>1703.11</ele><time>2026-06-13T02:15:54.000Z</time></trkpt>
        <trkpt lat="29.5492916" lon="103.3564802"><ele>1704.74</ele><time>2026-06-13T02:16:02.000Z</time></trkpt>
        <trkpt lat="29.5492916" lon="103.3564802"><ele>1704.74</ele><time>2026-06-13T02:16:37.000Z</time></trkpt>
        <trkpt lat="29.5497427" lon="103.3568508"><ele>1703.39</ele><time>2026-06-13T02:16:54.000Z</time></trkpt>
        <trkpt lat="29.5497427" lon="103.3568508"><ele>1703.39</ele><time>2026-06-13T02:17:03.000Z</time></trkpt>
        <trkpt lat="29.549688" lon="103.3567468"><ele>1708.02</ele><time>2026-06-13T02:17:13.000Z</time></trkpt>
        <trkpt lat="29.5495751" lon="103.3566329"><ele>1710.69</ele><time>2026-06-13T02:17:23.000Z</time></trkpt>
        <trkpt lat="29.5494632" lon="103.3566233"><ele>1711.46</ele><time>2026-06-13T02:17:31.000Z</time></trkpt>
        <trkpt lat="29.5494632" lon="103.3566233"><ele>1711.46</ele><time>2026-06-13T02:17:53.000Z</time></trkpt>
        <trkpt lat="29.5494003" lon="103.3565584"><ele>1712.97</ele><time>2026-06-13T02:18:02.000Z</time></trkpt>
        <trkpt lat="29.5494003" lon="103.3565584"><ele>1712.97</ele><time>2026-06-13T02:18:05.000Z</time></trkpt>
        <trkpt lat="29.549408" lon="103.3566307"><ele>1709.07</ele><time>2026-06-13T02:18:29.000Z</time></trkpt>
        <trkpt lat="29.5494048" lon="103.3567648"><ele>1702.01</ele><time>2026-06-13T02:18:37.000Z</time></trkpt>
        <trkpt lat="29.5494061" lon="103.3569013"><ele>1700.66</ele><time>2026-06-13T02:18:53.000Z</time></trkpt>
        <trkpt lat="29.5494765" lon="103.3569782"><ele>1698.36</ele><time>2026-06-13T02:18:59.000Z</time></trkpt>
        <trkpt lat="29.5494566" lon="103.3569276"><ele>1695.65</ele><time>2026-06-13T02:19:07.000Z</time></trkpt>
        <trkpt lat="29.5494566" lon="103.3569276"><ele>1695.65</ele><time>2026-06-13T02:19:13.000Z</time></trkpt>
        <trkpt lat="29.5498006" lon="103.3569453"><ele>1693.36</ele><time>2026-06-13T02:19:18.000Z</time></trkpt>
        <trkpt lat="29.5498006" lon="103.3569453"><ele>1693.36</ele><time>2026-06-13T02:19:25.000Z</time></trkpt>
        <trkpt lat="29.5498522" lon="103.3569634"><ele>1674.47</ele><time>2026-06-13T02:19:27.000Z</time></trkpt>
        <trkpt lat="29.5498083" lon="103.3570339"><ele>1668.2</ele><time>2026-06-13T02:19:31.000Z</time></trkpt>
        <trkpt lat="29.5497167" lon="103.3570919"><ele>1674.83</ele><time>2026-06-13T02:19:39.000Z</time></trkpt>
        <trkpt lat="29.5497167" lon="103.3570919"><ele>1674.83</ele><time>2026-06-13T02:19:55.000Z</time></trkpt>
        <trkpt lat="29.5497281" lon="103.3570364"><ele>1685.13</ele><time>2026-06-13T02:20:06.000Z</time></trkpt>
        <trkpt lat="29.5497281" lon="103.3570364"><ele>1685.13</ele><time>2026-06-13T02:20:37.000Z</time></trkpt>
        <trkpt lat="29.5497014" lon="103.3569424"><ele>1693.83</ele><time>2026-06-13T02:20:47.000Z</time></trkpt>
        <trkpt lat="29.5497479" lon="103.3568593"><ele>1699.02</ele><time>2026-06-13T02:21:06.000Z</time></trkpt>
        <trkpt lat="29.5497888" lon="103.3568777"><ele>1700.6</ele><time>2026-06-13T02:21:26.000Z</time></trkpt>
        <trkpt lat="29.54988" lon="103.3569224"><ele>1701.44</ele><time>2026-06-13T02:21:38.000Z</time></trkpt>
        <trkpt lat="29.5499891" lon="103.3569453"><ele>1701.73</ele><time>2026-06-13T02:21:52.000Z</time></trkpt>
        <trkpt lat="29.5500287" lon="103.3568671"><ele>1701.88</ele><time>2026-06-13T02:22:04.000Z</time></trkpt>
        <trkpt lat="29.5500287" lon="103.3568671"><ele>1701.88</ele><time>2026-06-13T02:22:51.000Z</time></trkpt>
        <trkpt lat="29.5500716" lon="103.3569246"><ele>1702.58</ele><time>2026-06-13T02:22:52.000Z</time></trkpt>
        <trkpt lat="29.5500716" lon="103.3569246"><ele>1702.58</ele><time>2026-06-13T02:23:28.000Z</time></trkpt>
        <trkpt lat="29.5501701" lon="103.3569317"><ele>1706.43</ele><time>2026-06-13T02:23:46.000Z</time></trkpt>
        <trkpt lat="29.5502892" lon="103.3569216"><ele>1706.19</ele><time>2026-06-13T02:24:02.000Z</time></trkpt>
        <trkpt lat="29.5503452" lon="103.3569392"><ele>1705.5</ele><time>2026-06-13T02:24:08.000Z</time></trkpt>
        <trkpt lat="29.5503452" lon="103.3569392"><ele>1705.5</ele><time>2026-06-13T02:24:17.000Z</time></trkpt>
        <trkpt lat="29.5502854" lon="103.3569515"><ele>1705.38</ele><time>2026-06-13T02:24:22.000Z</time></trkpt>
        <trkpt lat="29.5502854" lon="103.3569515"><ele>1705.38</ele><time>2026-06-13T02:24:56.000Z</time></trkpt>
        <trkpt lat="29.5501792" lon="103.3569595"><ele>1704.72</ele><time>2026-06-13T02:25:04.000Z</time></trkpt>
        <trkpt lat="29.5500733" lon="103.3569388"><ele>1704.63</ele><time>2026-06-13T02:25:16.000Z</time></trkpt>
        <trkpt lat="29.5500324" lon="103.3568945"><ele>1706.57</ele><time>2026-06-13T02:25:28.000Z</time></trkpt>
        <trkpt lat="29.5500099" lon="103.3569564"><ele>1707.86</ele><time>2026-06-13T02:25:46.000Z</time></trkpt>
        <trkpt lat="29.5500099" lon="103.3569564"><ele>1707.86</ele><time>2026-06-13T02:26:13.000Z</time></trkpt>
        <trkpt lat="29.5500743" lon="103.3569556"><ele>1705.6</ele><time>2026-06-13T02:26:14.000Z</time></trkpt>
        <trkpt lat="29.5500743" lon="103.3569556"><ele>1705.6</ele><time>2026-06-13T02:26:20.000Z</time></trkpt>
        <trkpt lat="29.5500743" lon="103.3569556"><ele>1705.6</ele><time>2026-06-13T02:26:25.000Z</time></trkpt>
        <trkpt lat="29.5500676" lon="103.3568834"><ele>1708.37</ele><time>2026-06-13T02:26:30.000Z</time></trkpt>
        <trkpt lat="29.5500676" lon="103.3568834"><ele>1708.37</ele><time>2026-06-13T02:26:36.000Z</time></trkpt>
        <trkpt lat="29.5500676" lon="103.3568834"><ele>1708.37</ele><time>2026-06-13T02:26:45.000Z</time></trkpt>
        <trkpt lat="29.5499099" lon="103.3567041"><ele>1711.82</ele><time>2026-06-13T02:26:54.000Z</time></trkpt>
        <trkpt lat="29.5499099" lon="103.3567041"><ele>1711.82</ele><time>2026-06-13T02:26:59.000Z</time></trkpt>
        <trkpt lat="29.5499099" lon="103.3567041"><ele>1711.82</ele><time>2026-06-13T02:27:09.000Z</time></trkpt>
        <trkpt lat="29.5499114" lon="103.3567493"><ele>1699.35</ele><time>2026-06-13T02:27:48.000Z</time></trkpt>
        <trkpt lat="29.5499114" lon="103.3567493"><ele>1699.35</ele><time>2026-06-13T02:27:56.000Z</time></trkpt>
        <trkpt lat="29.5499114" lon="103.3567493"><ele>1699.35</ele><time>2026-06-13T02:27:59.000Z</time></trkpt>
        <trkpt lat="29.5499581" lon="103.3568419"><ele>1689.69</ele><time>2026-06-13T02:28:02.000Z</time></trkpt>
        <trkpt lat="29.5499581" lon="103.3568419"><ele>1689.69</ele><time>2026-06-13T02:28:05.000Z</time></trkpt>
        <trkpt lat="29.5499581" lon="103.3568419"><ele>1689.69</ele><time>2026-06-13T02:28:39.000Z</time></trkpt>
        <trkpt lat="29.5499581" lon="103.3568419"><ele>1689.69</ele><time>2026-06-13T02:28:40.000Z</time></trkpt>
        <trkpt lat="29.5499581" lon="103.3568419"><ele>1689.69</ele><time>2026-06-13T02:29:07.000Z</time></trkpt>
        <trkpt lat="29.5499581" lon="103.3568419"><ele>1689.69</ele><time>2026-06-13T02:29:14.000Z</time></trkpt>
        <trkpt lat="29.5499581" lon="103.3568419"><ele>1689.69</ele><time>2026-06-13T02:29:45.000Z</time></trkpt>
        <trkpt lat="29.5499581" lon="103.3568419"><ele>1689.69</ele><time>2026-06-13T02:30:04.000Z</time></trkpt>
        <trkpt lat="29.5499581" lon="103.3568419"><ele>1689.69</ele><time>2026-06-13T02:30:17.000Z</time></trkpt>
        <trkpt lat="29.5499581" lon="103.3568419"><ele>1689.69</ele><time>2026-06-13T02:30:20.000Z</time></trkpt>
        <trkpt lat="29.5499581" lon="103.3568419"><ele>1689.69</ele><time>2026-06-13T02:30:29.000Z</time></trkpt>
        <trkpt lat="29.5499581" lon="103.3568419"><ele>1689.69</ele><time>2026-06-13T02:30:40.000Z</time></trkpt>
        <trkpt lat="29.5499581" lon="103.3568419"><ele>1689.69</ele><time>2026-06-13T02:30:51.000Z</time></trkpt>
        <trkpt lat="29.5499581" lon="103.3568419"><ele>1689.69</ele><time>2026-06-13T02:37:06.000Z</time></trkpt>
        <trkpt lat="29.5499581" lon="103.3568419"><ele>1689.69</ele><time>2026-06-13T02:38:21.000Z</time></trkpt>
        <trkpt lat="29.5499581" lon="103.3568419"><ele>1689.69</ele><time>2026-06-13T02:38:44.000Z</time></trkpt>
        <trkpt lat="29.5499581" lon="103.3568419"><ele>1689.69</ele><time>2026-06-13T02:39:05.000Z</time></trkpt>
        <trkpt lat="29.5499581" lon="103.3568419"><ele>1689.69</ele><time>2026-06-13T02:44:50.000Z</time></trkpt>
        <trkpt lat="29.5499581" lon="103.3568419"><ele>1689.69</ele><time>2026-06-13T02:44:59.000Z</time></trkpt>
        <trkpt lat="29.5500204" lon="103.3567719"><ele>1692.04</ele><time>2026-06-13T02:45:04.000Z</time></trkpt>
        <trkpt lat="29.5500204" lon="103.3567719"><ele>1692.04</ele><time>2026-06-13T02:45:39.000Z</time></trkpt>
        <trkpt lat="29.5499769" lon="103.3566765"><ele>1696.54</ele><time>2026-06-13T02:45:53.000Z</time></trkpt>
        <trkpt lat="29.5499637" lon="103.3565658"><ele>1698.47</ele><time>2026-06-13T02:46:11.000Z</time></trkpt>
        <trkpt lat="29.5499749" lon="103.3564606"><ele>1701</ele><time>2026-06-13T02:46:25.000Z</time></trkpt>
        <trkpt lat="29.5500274" lon="103.3563755"><ele>1701.87</ele><time>2026-06-13T02:46:35.000Z</time></trkpt>
        <trkpt lat="29.5500938" lon="103.356293"><ele>1701.42</ele><time>2026-06-13T02:46:43.000Z</time></trkpt>
        <trkpt lat="29.5501677" lon="103.3561968"><ele>1701.33</ele><time>2026-06-13T02:46:53.000Z</time></trkpt>
        <trkpt lat="29.5501966" lon="103.3560853"><ele>1701.47</ele><time>2026-06-13T02:46:59.000Z</time></trkpt>
        <trkpt lat="29.5502237" lon="103.3559675"><ele>1700.15</ele><time>2026-06-13T02:47:09.000Z</time></trkpt>
        <trkpt lat="29.5502404" lon="103.3558448"><ele>1699.03</ele><time>2026-06-13T02:47:19.000Z</time></trkpt>
        <trkpt lat="29.5502958" lon="103.3557651"><ele>1696.59</ele><time>2026-06-13T02:47:27.000Z</time></trkpt>
        <trkpt lat="29.5503719" lon="103.3557037"><ele>1690.67</ele><time>2026-06-13T02:47:37.000Z</time></trkpt>
        <trkpt lat="29.5504689" lon="103.3556992"><ele>1686.63</ele><time>2026-06-13T02:47:45.000Z</time></trkpt>
        <trkpt lat="29.5505809" lon="103.3557032"><ele>1682.64</ele><time>2026-06-13T02:47:55.000Z</time></trkpt>
        <trkpt lat="29.5506819" lon="103.3557273"><ele>1679.45</ele><time>2026-06-13T02:48:07.000Z</time></trkpt>
        <trkpt lat="29.5507825" lon="103.3557065"><ele>1676.41</ele><time>2026-06-13T02:48:19.000Z</time></trkpt>
        <trkpt lat="29.5508809" lon="103.3556562"><ele>1675.53</ele><time>2026-06-13T02:48:31.000Z</time></trkpt>
        <trkpt lat="29.5509775" lon="103.3555912"><ele>1675.24</ele><time>2026-06-13T02:48:41.000Z</time></trkpt>
        <trkpt lat="29.551078" lon="103.3555531"><ele>1673.76</ele><time>2026-06-13T02:48:51.000Z</time></trkpt>
        <trkpt lat="29.5511707" lon="103.3554911"><ele>1672.5</ele><time>2026-06-13T02:49:01.000Z</time></trkpt>
        <trkpt lat="29.551249" lon="103.3554261"><ele>1671</ele><time>2026-06-13T02:49:09.000Z</time></trkpt>
        <trkpt lat="29.5513392" lon="103.3553466"><ele>1669.4</ele><time>2026-06-13T02:49:21.000Z</time></trkpt>
        <trkpt lat="29.5513655" lon="103.3552386"><ele>1666.48</ele><time>2026-06-13T02:49:33.000Z</time></trkpt>
        <trkpt lat="29.551413" lon="103.3551378"><ele>1665.31</ele><time>2026-06-13T02:49:43.000Z</time></trkpt>
        <trkpt lat="29.5514526" lon="103.3550282"><ele>1664.62</ele><time>2026-06-13T02:49:51.000Z</time></trkpt>
        <trkpt lat="29.5515029" lon="103.354936"><ele>1663.52</ele><time>2026-06-13T02:50:05.000Z</time></trkpt>
        <trkpt lat="29.5515376" lon="103.3548371"><ele>1657.9</ele><time>2026-06-13T02:50:13.000Z</time></trkpt>
        <trkpt lat="29.5515682" lon="103.354737"><ele>1654.33</ele><time>2026-06-13T02:50:23.000Z</time></trkpt>
        <trkpt lat="29.5516052" lon="103.3546365"><ele>1649.17</ele><time>2026-06-13T02:50:31.000Z</time></trkpt>
        <trkpt lat="29.5516686" lon="103.354538"><ele>1646.76</ele><time>2026-06-13T02:50:37.000Z</time></trkpt>
        <trkpt lat="29.5517411" lon="103.3544644"><ele>1646.33</ele><time>2026-06-13T02:50:47.000Z</time></trkpt>
        <trkpt lat="29.5518216" lon="103.354412"><ele>1647.07</ele><time>2026-06-13T02:50:59.000Z</time></trkpt>
        <trkpt lat="29.5518221" lon="103.3543129"><ele>1645.83</ele><time>2026-06-13T02:51:11.000Z</time></trkpt>
        <trkpt lat="29.5518362" lon="103.3542044"><ele>1644.58</ele><time>2026-06-13T02:51:19.000Z</time></trkpt>
        <trkpt lat="29.5518983" lon="103.3541273"><ele>1643.58</ele><time>2026-06-13T02:51:27.000Z</time></trkpt>
        <trkpt lat="29.5519492" lon="103.3540381"><ele>1640.73</ele><time>2026-06-13T02:51:37.000Z</time></trkpt>
        <trkpt lat="29.5519204" lon="103.3539376"><ele>1639.61</ele><time>2026-06-13T02:51:47.000Z</time></trkpt>
        <trkpt lat="29.5518503" lon="103.3538492"><ele>1637.77</ele><time>2026-06-13T02:51:57.000Z</time></trkpt>
        <trkpt lat="29.5517928" lon="103.353752"><ele>1635.44</ele><time>2026-06-13T02:52:05.000Z</time></trkpt>
        <trkpt lat="29.5517202" lon="103.3536682"><ele>1634.79</ele><time>2026-06-13T02:52:13.000Z</time></trkpt>
        <trkpt lat="29.5516872" lon="103.3535662"><ele>1633.56</ele><time>2026-06-13T02:52:23.000Z</time></trkpt>
        <trkpt lat="29.5516936" lon="103.3534542"><ele>1634.65</ele><time>2026-06-13T02:52:31.000Z</time></trkpt>
        <trkpt lat="29.5517203" lon="103.3533363"><ele>1635.13</ele><time>2026-06-13T02:52:49.000Z</time></trkpt>
        <trkpt lat="29.5517483" lon="103.3532268"><ele>1633.52</ele><time>2026-06-13T02:52:57.000Z</time></trkpt>
        <trkpt lat="29.5517659" lon="103.3531177"><ele>1631.25</ele><time>2026-06-13T02:53:05.000Z</time></trkpt>
        <trkpt lat="29.5517946" lon="103.3530092"><ele>1629.92</ele><time>2026-06-13T02:53:15.000Z</time></trkpt>
        <trkpt lat="29.5518609" lon="103.3528876"><ele>1629.61</ele><time>2026-06-13T02:53:29.000Z</time></trkpt>
        <trkpt lat="29.551882" lon="103.3527772"><ele>1625.38</ele><time>2026-06-13T02:53:42.000Z</time></trkpt>
        <trkpt lat="29.5519194" lon="103.3526769"><ele>1619.91</ele><time>2026-06-13T02:53:56.000Z</time></trkpt>
        <trkpt lat="29.5519603" lon="103.3526643"><ele>1617.15</ele><time>2026-06-13T02:54:02.000Z</time></trkpt>
        <trkpt lat="29.5520456" lon="103.3527088"><ele>1615.73</ele><time>2026-06-13T02:54:10.000Z</time></trkpt>
        <trkpt lat="29.5521417" lon="103.352733"><ele>1618.96</ele><time>2026-06-13T02:54:24.000Z</time></trkpt>
        <trkpt lat="29.5522445" lon="103.3527524"><ele>1614.52</ele><time>2026-06-13T02:54:38.000Z</time></trkpt>
        <trkpt lat="29.5522527" lon="103.3526753"><ele>1609.08</ele><time>2026-06-13T02:54:52.000Z</time></trkpt>
        <trkpt lat="29.5522381" lon="103.3525658"><ele>1603.36</ele><time>2026-06-13T02:55:04.000Z</time></trkpt>
        <trkpt lat="29.5522009" lon="103.3524386"><ele>1607.56</ele><time>2026-06-13T02:55:27.000Z</time></trkpt>
        <trkpt lat="29.552226" lon="103.3523371"><ele>1600.99</ele><time>2026-06-13T02:55:43.000Z</time></trkpt>
        <trkpt lat="29.5522924" lon="103.3522612"><ele>1590.11</ele><time>2026-06-13T02:56:01.000Z</time></trkpt>
        <trkpt lat="29.552348" lon="103.3523193"><ele>1583.99</ele><time>2026-06-13T02:56:23.000Z</time></trkpt>
        <trkpt lat="29.5523645" lon="103.3524313"><ele>1583.11</ele><time>2026-06-13T02:56:33.000Z</time></trkpt>
        <trkpt lat="29.5524258" lon="103.3525203"><ele>1582.32</ele><time>2026-06-13T02:56:43.000Z</time></trkpt>
        <trkpt lat="29.5525191" lon="103.3525376"><ele>1581.04</ele><time>2026-06-13T02:56:53.000Z</time></trkpt>
        <trkpt lat="29.5526135" lon="103.3525349"><ele>1581.14</ele><time>2026-06-13T02:57:03.000Z</time></trkpt>
        <trkpt lat="29.5527025" lon="103.3524985"><ele>1583.82</ele><time>2026-06-13T02:57:35.000Z</time></trkpt>
        <trkpt lat="29.5527897" lon="103.3524285"><ele>1585.73</ele><time>2026-06-13T02:57:57.000Z</time></trkpt>
        <trkpt lat="29.5528415" lon="103.3524867"><ele>1588.2</ele><time>2026-06-13T02:58:07.000Z</time></trkpt>
        <trkpt lat="29.5529156" lon="103.3525387"><ele>1593.23</ele><time>2026-06-13T02:58:15.000Z</time></trkpt>
        <trkpt lat="29.5529651" lon="103.3526312"><ele>1596.58</ele><time>2026-06-13T02:58:39.000Z</time></trkpt>
        <trkpt lat="29.5530401" lon="103.3526837"><ele>1599.12</ele><time>2026-06-13T02:58:47.000Z</time></trkpt>
        <trkpt lat="29.5531343" lon="103.3527114"><ele>1601.26</ele><time>2026-06-13T02:58:55.000Z</time></trkpt>
        <trkpt lat="29.5532347" lon="103.3527146"><ele>1601.55</ele><time>2026-06-13T02:59:03.000Z</time></trkpt>
        <trkpt lat="29.5533327" lon="103.3526988"><ele>1600.81</ele><time>2026-06-13T02:59:18.000Z</time></trkpt>
        <trkpt lat="29.5534203" lon="103.3526494"><ele>1599.48</ele><time>2026-06-13T02:59:28.000Z</time></trkpt>
        <trkpt lat="29.5535097" lon="103.3525968"><ele>1598.9</ele><time>2026-06-13T02:59:40.000Z</time></trkpt>
        <trkpt lat="29.5536058" lon="103.3525688"><ele>1596.85</ele><time>2026-06-13T02:59:50.000Z</time></trkpt>
        <trkpt lat="29.5537124" lon="103.3525368"><ele>1595.02</ele><time>2026-06-13T03:00:00.000Z</time></trkpt>
        <trkpt lat="29.5538146" lon="103.3525138"><ele>1594.68</ele><time>2026-06-13T03:00:10.000Z</time></trkpt>
        <trkpt lat="29.5538946" lon="103.3525727"><ele>1595.45</ele><time>2026-06-13T03:00:22.000Z</time></trkpt>
        <trkpt lat="29.5539666" lon="103.3526447"><ele>1597.13</ele><time>2026-06-13T03:00:30.000Z</time></trkpt>
        <trkpt lat="29.5540581" lon="103.352662"><ele>1599.5</ele><time>2026-06-13T03:00:40.000Z</time></trkpt>
        <trkpt lat="29.5541607" lon="103.3526668"><ele>1600.89</ele><time>2026-06-13T03:00:52.000Z</time></trkpt>
        <trkpt lat="29.5542598" lon="103.3527016"><ele>1600.26</ele><time>2026-06-13T03:01:02.000Z</time></trkpt>
        <trkpt lat="29.5543522" lon="103.352748"><ele>1601.47</ele><time>2026-06-13T03:01:12.000Z</time></trkpt>
        <trkpt lat="29.5543522" lon="103.352748"><ele>1601.47</ele><time>2026-06-13T03:01:35.000Z</time></trkpt>
        <trkpt lat="29.5544233" lon="103.3528251"><ele>1604.16</ele><time>2026-06-13T03:01:42.000Z</time></trkpt>
        <trkpt lat="29.5544233" lon="103.3528251"><ele>1604.16</ele><time>2026-06-13T03:02:21.000Z</time></trkpt>
        <trkpt lat="29.5544559" lon="103.3529381"><ele>1607.7</ele><time>2026-06-13T03:02:33.000Z</time></trkpt>
        <trkpt lat="29.5544774" lon="103.3530475"><ele>1609.09</ele><time>2026-06-13T03:02:43.000Z</time></trkpt>
        <trkpt lat="29.5544924" lon="103.3531292"><ele>1611.73</ele><time>2026-06-13T03:02:55.000Z</time></trkpt>
        <trkpt lat="29.554562" lon="103.3531736"><ele>1614.08</ele><time>2026-06-13T03:03:17.000Z</time></trkpt>
        <trkpt lat="29.554562" lon="103.3531736"><ele>1614.08</ele><time>2026-06-13T03:03:51.000Z</time></trkpt>
        <trkpt lat="29.5546464" lon="103.3532347"><ele>1615.02</ele><time>2026-06-13T03:03:58.000Z</time></trkpt>
        <trkpt lat="29.5546464" lon="103.3532347"><ele>1615.02</ele><time>2026-06-13T03:03:59.000Z</time></trkpt>
        <trkpt lat="29.5546739" lon="103.3533323"><ele>1620.43</ele><time>2026-06-13T03:04:12.000Z</time></trkpt>
        <trkpt lat="29.5547075" lon="103.3534301"><ele>1622.11</ele><time>2026-06-13T03:04:30.000Z</time></trkpt>
        <trkpt lat="29.5546715" lon="103.3535296"><ele>1624.99</ele><time>2026-06-13T03:04:38.000Z</time></trkpt>
        <trkpt lat="29.5546818" lon="103.3536348"><ele>1627.37</ele><time>2026-06-13T03:04:56.000Z</time></trkpt>
        <trkpt lat="29.5547516" lon="103.3536918"><ele>1627.43</ele><time>2026-06-13T03:05:04.000Z</time></trkpt>
        <trkpt lat="29.5548403" lon="103.3537323"><ele>1627.04</ele><time>2026-06-13T03:05:14.000Z</time></trkpt>
        <trkpt lat="29.5549458" lon="103.3537399"><ele>1625.99</ele><time>2026-06-13T03:05:24.000Z</time></trkpt>
        <trkpt lat="29.5550207" lon="103.3536712"><ele>1624.16</ele><time>2026-06-13T03:05:48.000Z</time></trkpt>
        <trkpt lat="29.5550809" lon="103.3535754"><ele>1619.6</ele><time>2026-06-13T03:06:04.000Z</time></trkpt>
        <trkpt lat="29.5551408" lon="103.3534718"><ele>1614.22</ele><time>2026-06-13T03:06:16.000Z</time></trkpt>
        <trkpt lat="29.5552169" lon="103.3533941"><ele>1610.19</ele><time>2026-06-13T03:06:28.000Z</time></trkpt>
        <trkpt lat="29.5553022" lon="103.3533472"><ele>1605.27</ele><time>2026-06-13T03:06:40.000Z</time></trkpt>
        <trkpt lat="29.5553966" lon="103.3533244"><ele>1601.8</ele><time>2026-06-13T03:06:50.000Z</time></trkpt>
        <trkpt lat="29.5554901" lon="103.3533319"><ele>1599.94</ele><time>2026-06-13T03:07:00.000Z</time></trkpt>
        <trkpt lat="29.5555958" lon="103.3533326"><ele>1598.45</ele><time>2026-06-13T03:07:12.000Z</time></trkpt>
        <trkpt lat="29.5556922" lon="103.3533184"><ele>1596.61</ele><time>2026-06-13T03:07:20.000Z</time></trkpt>
        <trkpt lat="29.5557917" lon="103.3533573"><ele>1595.05</ele><time>2026-06-13T03:07:30.000Z</time></trkpt>
        <trkpt lat="29.5558882" lon="103.3534006"><ele>1595.77</ele><time>2026-06-13T03:07:38.000Z</time></trkpt>
        <trkpt lat="29.555982" lon="103.3534551"><ele>1596.86</ele><time>2026-06-13T03:07:46.000Z</time></trkpt>
        <trkpt lat="29.5560783" lon="103.3535048"><ele>1598.04</ele><time>2026-06-13T03:08:00.000Z</time></trkpt>
        <trkpt lat="29.556176" lon="103.3535289"><ele>1598.67</ele><time>2026-06-13T03:08:16.000Z</time></trkpt>
        <trkpt lat="29.5562809" lon="103.3535128"><ele>1600.13</ele><time>2026-06-13T03:08:34.000Z</time></trkpt>
        <trkpt lat="29.5563618" lon="103.3534517"><ele>1600.66</ele><time>2026-06-13T03:08:42.000Z</time></trkpt>
        <trkpt lat="29.5564233" lon="103.3533419"><ele>1601.85</ele><time>2026-06-13T03:08:52.000Z</time></trkpt>
        <trkpt lat="29.5564904" lon="103.3532466"><ele>1601.48</ele><time>2026-06-13T03:09:00.000Z</time></trkpt>
        <trkpt lat="29.5565637" lon="103.3531657"><ele>1600.92</ele><time>2026-06-13T03:09:10.000Z</time></trkpt>
        <trkpt lat="29.5566353" lon="103.3530906"><ele>1599.96</ele><time>2026-06-13T03:09:18.000Z</time></trkpt>
        <trkpt lat="29.5567122" lon="103.3530252"><ele>1598.39</ele><time>2026-06-13T03:09:28.000Z</time></trkpt>
        <trkpt lat="29.5567928" lon="103.3529623"><ele>1596.34</ele><time>2026-06-13T03:09:40.000Z</time></trkpt>
        <trkpt lat="29.5568668" lon="103.3528703"><ele>1593.48</ele><time>2026-06-13T03:09:48.000Z</time></trkpt>
        <trkpt lat="29.5569154" lon="103.3527635"><ele>1589.3</ele><time>2026-06-13T03:09:58.000Z</time></trkpt>
        <trkpt lat="29.5569654" lon="103.3526532"><ele>1586.69</ele><time>2026-06-13T03:10:10.000Z</time></trkpt>
        <trkpt lat="29.556961" lon="103.3527176"><ele>1585.11</ele><time>2026-06-13T03:10:20.000Z</time></trkpt>
        <trkpt lat="29.5569395" lon="103.3528225"><ele>1582.66</ele><time>2026-06-13T03:10:30.000Z</time></trkpt>
        <trkpt lat="29.5568996" lon="103.3529406"><ele>1580.33</ele><time>2026-06-13T03:11:12.000Z</time></trkpt>
        <trkpt lat="29.5569268" lon="103.3529188"><ele>1578.34</ele><time>2026-06-13T03:12:04.000Z</time></trkpt>
        <trkpt lat="29.5569065" lon="103.3528184"><ele>1576.23</ele><time>2026-06-13T03:12:20.000Z</time></trkpt>
        <trkpt lat="29.5569415" lon="103.3526958"><ele>1576.28</ele><time>2026-06-13T03:12:32.000Z</time></trkpt>
        <trkpt lat="29.557023" lon="103.3526025"><ele>1578.94</ele><time>2026-06-13T03:12:44.000Z</time></trkpt>
        <trkpt lat="29.5571016" lon="103.3525198"><ele>1581.39</ele><time>2026-06-13T03:12:54.000Z</time></trkpt>
        <trkpt lat="29.557171" lon="103.3524373"><ele>1580.6</ele><time>2026-06-13T03:13:12.000Z</time></trkpt>
        <trkpt lat="29.5572253" lon="103.3523402"><ele>1576.83</ele><time>2026-06-13T03:13:30.000Z</time></trkpt>
        <trkpt lat="29.5572931" lon="103.3522636"><ele>1572.2</ele><time>2026-06-13T03:13:40.000Z</time></trkpt>
        <trkpt lat="29.5573746" lon="103.3521967"><ele>1571.05</ele><time>2026-06-13T03:13:48.000Z</time></trkpt>
        <trkpt lat="29.5574462" lon="103.352122"><ele>1569.77</ele><time>2026-06-13T03:13:58.000Z</time></trkpt>
        <trkpt lat="29.5574919" lon="103.3520225"><ele>1569.53</ele><time>2026-06-13T03:14:08.000Z</time></trkpt>
        <trkpt lat="29.5575251" lon="103.3519032"><ele>1568.07</ele><time>2026-06-13T03:14:18.000Z</time></trkpt>
        <trkpt lat="29.5575436" lon="103.3517863"><ele>1566.35</ele><time>2026-06-13T03:14:30.000Z</time></trkpt>
        <trkpt lat="29.5575838" lon="103.3516836"><ele>1562.78</ele><time>2026-06-13T03:14:48.000Z</time></trkpt>
        <trkpt lat="29.557611" lon="103.3515763"><ele>1559.76</ele><time>2026-06-13T03:15:10.000Z</time></trkpt>
        <trkpt lat="29.5576915" lon="103.3515253"><ele>1555.18</ele><time>2026-06-13T03:15:31.000Z</time></trkpt>
        <trkpt lat="29.5577129" lon="103.3515007"><ele>1559.03</ele><time>2026-06-13T03:15:35.000Z</time></trkpt>
        <trkpt lat="29.5577872" lon="103.3515241"><ele>1558.8</ele><time>2026-06-13T03:15:51.000Z</time></trkpt>
        <trkpt lat="29.5578863" lon="103.3515508"><ele>1559.56</ele><time>2026-06-13T03:16:03.000Z</time></trkpt>
        <trkpt lat="29.5579912" lon="103.3515417"><ele>1560.97</ele><time>2026-06-13T03:16:21.000Z</time></trkpt>
        <trkpt lat="29.5580901" lon="103.3515703"><ele>1560.12</ele><time>2026-06-13T03:16:37.000Z</time></trkpt>
        <trkpt lat="29.5581962" lon="103.3515568"><ele>1560.74</ele><time>2026-06-13T03:16:47.000Z</time></trkpt>
        <trkpt lat="29.5582945" lon="103.3515209"><ele>1561.06</ele><time>2026-06-13T03:16:57.000Z</time></trkpt>
        <trkpt lat="29.5583847" lon="103.3514732"><ele>1559.24</ele><time>2026-06-13T03:17:05.000Z</time></trkpt>
        <trkpt lat="29.558468" lon="103.3514117"><ele>1557.75</ele><time>2026-06-13T03:17:16.000Z</time></trkpt>
        <trkpt lat="29.5585577" lon="103.3513733"><ele>1555.56</ele><time>2026-06-13T03:17:36.000Z</time></trkpt>
        <trkpt lat="29.5586414" lon="103.3513124"><ele>1552.01</ele><time>2026-06-13T03:17:44.000Z</time></trkpt>
        <trkpt lat="29.5587166" lon="103.3512326"><ele>1550.24</ele><time>2026-06-13T03:17:52.000Z</time></trkpt>
        <trkpt lat="29.5588042" lon="103.351186"><ele>1548.94</ele><time>2026-06-13T03:18:04.000Z</time></trkpt>
        <trkpt lat="29.5588801" lon="103.3511216"><ele>1547.76</ele><time>2026-06-13T03:18:12.000Z</time></trkpt>
        <trkpt lat="29.5589703" lon="103.3510585"><ele>1544.49</ele><time>2026-06-13T03:18:20.000Z</time></trkpt>
        <trkpt lat="29.5590307" lon="103.3509706"><ele>1542.85</ele><time>2026-06-13T03:18:28.000Z</time></trkpt>
        <trkpt lat="29.5590936" lon="103.3508765"><ele>1542.22</ele><time>2026-06-13T03:18:38.000Z</time></trkpt>
        <trkpt lat="29.5591684" lon="103.3508118"><ele>1542.9</ele><time>2026-06-13T03:18:46.000Z</time></trkpt>
        <trkpt lat="29.559261" lon="103.3507809"><ele>1543.71</ele><time>2026-06-13T03:18:58.000Z</time></trkpt>
        <trkpt lat="29.5593418" lon="103.350776"><ele>1543.82</ele><time>2026-06-13T03:19:06.000Z</time></trkpt>
        <trkpt lat="29.559413" lon="103.3507211"><ele>1541.37</ele><time>2026-06-13T03:19:24.000Z</time></trkpt>
        <trkpt lat="29.5594876" lon="103.3506491"><ele>1538.6</ele><time>2026-06-13T03:19:38.000Z</time></trkpt>
        <trkpt lat="29.5595714" lon="103.3506041"><ele>1535.7</ele><time>2026-06-13T03:19:46.000Z</time></trkpt>
        <trkpt lat="29.5596377" lon="103.3505333"><ele>1534.69</ele><time>2026-06-13T03:19:56.000Z</time></trkpt>
        <trkpt lat="29.559725" lon="103.3504784"><ele>1534.46</ele><time>2026-06-13T03:20:46.000Z</time></trkpt>
        <trkpt lat="29.5597903" lon="103.3504033"><ele>1534.83</ele><time>2026-06-13T03:21:04.000Z</time></trkpt>
        <trkpt lat="29.5598657" lon="103.3503504"><ele>1535.89</ele><time>2026-06-13T03:22:06.000Z</time></trkpt>
        <trkpt lat="29.5598657" lon="103.3503504"><ele>1535.89</ele><time>2026-06-13T03:22:31.000Z</time></trkpt>
        <trkpt lat="29.5599527" lon="103.3503068"><ele>1539.22</ele><time>2026-06-13T03:22:38.000Z</time></trkpt>
        <trkpt lat="29.5599527" lon="103.3503068"><ele>1539.22</ele><time>2026-06-13T03:22:45.000Z</time></trkpt>
        <trkpt lat="29.5600332" lon="103.3503432"><ele>1543.71</ele><time>2026-06-13T03:23:15.000Z</time></trkpt>
        <trkpt lat="29.5600332" lon="103.3503432"><ele>1543.71</ele><time>2026-06-13T03:23:27.000Z</time></trkpt>
        <trkpt lat="29.5601212" lon="103.3503927"><ele>1547.33</ele><time>2026-06-13T03:24:38.000Z</time></trkpt>
        <trkpt lat="29.5601212" lon="103.3503927"><ele>1547.33</ele><time>2026-06-13T03:25:05.000Z</time></trkpt>
        <trkpt lat="29.5601212" lon="103.3503927"><ele>1547.33</ele><time>2026-06-13T03:25:37.000Z</time></trkpt>
        <trkpt lat="29.560246" lon="103.3505788"><ele>1552.13</ele><time>2026-06-13T03:25:56.000Z</time></trkpt>
        <trkpt lat="29.560246" lon="103.3505788"><ele>1552.13</ele><time>2026-06-13T03:25:59.000Z</time></trkpt>
        <trkpt lat="29.5602189" lon="103.3505371"><ele>1556.75</ele><time>2026-06-13T03:26:23.000Z</time></trkpt>
        <trkpt lat="29.5602189" lon="103.3505371"><ele>1556.75</ele><time>2026-06-13T03:26:25.000Z</time></trkpt>
        <trkpt lat="29.5602619" lon="103.3505656"><ele>1558.81</ele><time>2026-06-13T03:26:32.000Z</time></trkpt>
        <trkpt lat="29.5602619" lon="103.3505656"><ele>1558.81</ele><time>2026-06-13T03:27:57.000Z</time></trkpt>
        <trkpt lat="29.5602619" lon="103.3505656"><ele>1558.81</ele><time>2026-06-13T03:28:25.000Z</time></trkpt>
        <trkpt lat="29.5602619" lon="103.3505656"><ele>1558.81</ele><time>2026-06-13T03:28:30.000Z</time></trkpt>
        <trkpt lat="29.5602619" lon="103.3505656"><ele>1558.81</ele><time>2026-06-13T03:29:09.000Z</time></trkpt>
        <trkpt lat="29.5602831" lon="103.3507299"><ele>1565.81</ele><time>2026-06-13T03:29:18.000Z</time></trkpt>
        <trkpt lat="29.5602831" lon="103.3507299"><ele>1565.81</ele><time>2026-06-13T03:29:21.000Z</time></trkpt>
        <trkpt lat="29.5602806" lon="103.3508355"><ele>1570.8</ele><time>2026-06-13T03:29:49.000Z</time></trkpt>
        <trkpt lat="29.5602814" lon="103.3509396"><ele>1580.04</ele><time>2026-06-13T03:30:11.000Z</time></trkpt>
        <trkpt lat="29.5602814" lon="103.3509396"><ele>1580.04</ele><time>2026-06-13T03:30:15.000Z</time></trkpt>
        <trkpt lat="29.5602725" lon="103.3510504"><ele>1585.86</ele><time>2026-06-13T03:30:18.000Z</time></trkpt>
        <trkpt lat="29.5602725" lon="103.3510504"><ele>1585.86</ele><time>2026-06-13T03:30:40.000Z</time></trkpt>
        <trkpt lat="29.5602607" lon="103.3511394"><ele>1590.92</ele><time>2026-06-13T03:30:54.000Z</time></trkpt>
        <trkpt lat="29.5602607" lon="103.3511394"><ele>1590.92</ele><time>2026-06-13T03:31:19.000Z</time></trkpt>
        <trkpt lat="29.5603282" lon="103.3510598"><ele>1592.79</ele><time>2026-06-13T03:32:00.000Z</time></trkpt>
        <trkpt lat="29.5603282" lon="103.3510598"><ele>1592.79</ele><time>2026-06-13T03:32:27.000Z</time></trkpt>
        <trkpt lat="29.5603282" lon="103.3510598"><ele>1592.79</ele><time>2026-06-13T03:32:47.000Z</time></trkpt>
        <trkpt lat="29.5604111" lon="103.3511071"><ele>1598.92</ele><time>2026-06-13T03:32:56.000Z</time></trkpt>
        <trkpt lat="29.5604111" lon="103.3511071"><ele>1598.92</ele><time>2026-06-13T03:33:05.000Z</time></trkpt>
        <trkpt lat="29.5604111" lon="103.3511071"><ele>1598.92</ele><time>2026-06-13T03:33:09.000Z</time></trkpt>
        <trkpt lat="29.5605085" lon="103.3511276"><ele>1595.76</ele><time>2026-06-13T03:33:12.000Z</time></trkpt>
        <trkpt lat="29.5605085" lon="103.3511276"><ele>1595.76</ele><time>2026-06-13T03:33:17.000Z</time></trkpt>
        <trkpt lat="29.5605085" lon="103.3511276"><ele>1595.76</ele><time>2026-06-13T03:33:37.000Z</time></trkpt>
        <trkpt lat="29.5605085" lon="103.3511276"><ele>1595.76</ele><time>2026-06-13T03:33:42.000Z</time></trkpt>
        <trkpt lat="29.5605085" lon="103.3511276"><ele>1595.76</ele><time>2026-06-13T03:33:55.000Z</time></trkpt>
        <trkpt lat="29.5605085" lon="103.3511276"><ele>1595.76</ele><time>2026-06-13T03:33:58.000Z</time></trkpt>
        <trkpt lat="29.5605085" lon="103.3511276"><ele>1595.76</ele><time>2026-06-13T03:34:09.000Z</time></trkpt>
        <trkpt lat="29.5604619" lon="103.3511267"><ele>1595.11</ele><time>2026-06-13T03:34:10.000Z</time></trkpt>
        <trkpt lat="29.5604619" lon="103.3511267"><ele>1595.11</ele><time>2026-06-13T03:34:14.000Z</time></trkpt>
        <trkpt lat="29.5604619" lon="103.3511267"><ele>1595.11</ele><time>2026-06-13T03:34:45.000Z</time></trkpt>
        <trkpt lat="29.5604644" lon="103.3510424"><ele>1597.43</ele><time>2026-06-13T03:34:48.000Z</time></trkpt>
        <trkpt lat="29.5604644" lon="103.3510424"><ele>1597.43</ele><time>2026-06-13T03:35:13.000Z</time></trkpt>
        <trkpt lat="29.5604644" lon="103.3510424"><ele>1597.43</ele><time>2026-06-13T03:35:31.000Z</time></trkpt>
        <trkpt lat="29.56054" lon="103.3509766"><ele>1605.58</ele><time>2026-06-13T03:35:32.000Z</time></trkpt>
        <trkpt lat="29.56054" lon="103.3509766"><ele>1605.58</ele><time>2026-06-13T03:35:37.000Z</time></trkpt>
        <trkpt lat="29.5605533" lon="103.3510529"><ele>1616.54</ele><time>2026-06-13T03:35:44.000Z</time></trkpt>
        <trkpt lat="29.5605533" lon="103.3510529"><ele>1616.54</ele><time>2026-06-13T03:36:35.000Z</time></trkpt>
        <trkpt lat="29.5606263" lon="103.3510397"><ele>1610.99</ele><time>2026-06-13T03:37:04.000Z</time></trkpt>
        <trkpt lat="29.5606263" lon="103.3510397"><ele>1610.99</ele><time>2026-06-13T03:37:27.000Z</time></trkpt>
        <trkpt lat="29.5606263" lon="103.3510397"><ele>1610.99</ele><time>2026-06-13T03:38:01.000Z</time></trkpt>
        <trkpt lat="29.5606261" lon="103.3511572"><ele>1614.42</ele><time>2026-06-13T03:38:04.000Z</time></trkpt>
        <trkpt lat="29.5606261" lon="103.3511572"><ele>1614.42</ele><time>2026-06-13T03:38:21.000Z</time></trkpt>
        <trkpt lat="29.5606261" lon="103.3511572"><ele>1614.42</ele><time>2026-06-13T03:38:49.000Z</time></trkpt>
        <trkpt lat="29.5606395" lon="103.3512625"><ele>1623.48</ele><time>2026-06-13T03:38:54.000Z</time></trkpt>
        <trkpt lat="29.5606395" lon="103.3512625"><ele>1623.48</ele><time>2026-06-13T03:38:57.000Z</time></trkpt>
        <trkpt lat="29.5606395" lon="103.3512625"><ele>1623.48</ele><time>2026-06-13T03:39:09.000Z</time></trkpt>
        <trkpt lat="29.5606395" lon="103.3512625"><ele>1623.48</ele><time>2026-06-13T03:39:30.000Z</time></trkpt>
        <trkpt lat="29.5606395" lon="103.3512625"><ele>1623.48</ele><time>2026-06-13T03:40:19.000Z</time></trkpt>
        <trkpt lat="29.5606095" lon="103.3512115"><ele>1627.28</ele><time>2026-06-13T03:40:24.000Z</time></trkpt>
        <trkpt lat="29.5606095" lon="103.3512115"><ele>1627.28</ele><time>2026-06-13T03:40:33.000Z</time></trkpt>
        <trkpt lat="29.5606998" lon="103.3511978"><ele>1633.18</ele><time>2026-06-13T03:41:05.000Z</time></trkpt>
        <trkpt lat="29.560712" lon="103.3512894"><ele>1639.89</ele><time>2026-06-13T03:41:49.000Z</time></trkpt>
        <trkpt lat="29.5606712" lon="103.3513814"><ele>1642.69</ele><time>2026-06-13T03:42:13.000Z</time></trkpt>
        <trkpt lat="29.560619" lon="103.3514828"><ele>1644.93</ele><time>2026-06-13T03:42:31.000Z</time></trkpt>
        <trkpt lat="29.5605542" lon="103.3515721"><ele>1644.51</ele><time>2026-06-13T03:42:43.000Z</time></trkpt>
        <trkpt lat="29.5605724" lon="103.3516738"><ele>1643.66</ele><time>2026-06-13T03:43:49.000Z</time></trkpt>
        <trkpt lat="29.560664" lon="103.3516811"><ele>1649.1</ele><time>2026-06-13T03:44:16.000Z</time></trkpt>
        <trkpt lat="29.5606865" lon="103.3515872"><ele>1654.12</ele><time>2026-06-13T03:44:40.000Z</time></trkpt>
        <trkpt lat="29.5607533" lon="103.3515188"><ele>1657.77</ele><time>2026-06-13T03:45:26.000Z</time></trkpt>
        <trkpt lat="29.56083" lon="103.3515385"><ele>1660.13</ele><time>2026-06-13T03:46:22.000Z</time></trkpt>
        <trkpt lat="29.5608071" lon="103.3514546"><ele>1662.78</ele><time>2026-06-13T03:46:28.000Z</time></trkpt>
        <trkpt lat="29.560856" lon="103.3514542"><ele>1666.44</ele><time>2026-06-13T03:46:40.000Z</time></trkpt>
        <trkpt lat="29.5609423" lon="103.3514831"><ele>1667.93</ele><time>2026-06-13T03:46:54.000Z</time></trkpt>
        <trkpt lat="29.5610323" lon="103.3515443"><ele>1669.32</ele><time>2026-06-13T03:47:22.000Z</time></trkpt>
        <trkpt lat="29.5611293" lon="103.3515719"><ele>1671.14</ele><time>2026-06-13T03:47:32.000Z</time></trkpt>
        <trkpt lat="29.5612186" lon="103.3516201"><ele>1671.44</ele><time>2026-06-13T03:47:44.000Z</time></trkpt>
        <trkpt lat="29.5613152" lon="103.3516467"><ele>1671.44</ele><time>2026-06-13T03:47:58.000Z</time></trkpt>
        <trkpt lat="29.5613977" lon="103.3516936"><ele>1672.38</ele><time>2026-06-13T03:48:33.000Z</time></trkpt>
        <trkpt lat="29.5613977" lon="103.3516936"><ele>1672.38</ele><time>2026-06-13T03:48:57.000Z</time></trkpt>
        <trkpt lat="29.5614914" lon="103.3517316"><ele>1675.64</ele><time>2026-06-13T03:49:04.000Z</time></trkpt>
        <trkpt lat="29.5614914" lon="103.3517316"><ele>1675.64</ele><time>2026-06-13T03:50:00.000Z</time></trkpt>
        <trkpt lat="29.5614914" lon="103.3517316"><ele>1675.64</ele><time>2026-06-13T03:51:05.000Z</time></trkpt>
        <trkpt lat="29.5614833" lon="103.3518419"><ele>1683.57</ele><time>2026-06-13T03:51:10.000Z</time></trkpt>
        <trkpt lat="29.5614833" lon="103.3518419"><ele>1683.57</ele><time>2026-06-13T03:51:16.000Z</time></trkpt>
        <trkpt lat="29.5614833" lon="103.3518419"><ele>1683.57</ele><time>2026-06-13T03:51:33.000Z</time></trkpt>
        <trkpt lat="29.5614833" lon="103.3518419"><ele>1683.57</ele><time>2026-06-13T03:51:36.000Z</time></trkpt>
        <trkpt lat="29.5614833" lon="103.3518419"><ele>1683.57</ele><time>2026-06-13T03:51:53.000Z</time></trkpt>
        <trkpt lat="29.5615235" lon="103.3519361"><ele>1690.47</ele><time>2026-06-13T03:52:04.000Z</time></trkpt>
        <trkpt lat="29.5615235" lon="103.3519361"><ele>1690.47</ele><time>2026-06-13T03:53:05.000Z</time></trkpt>
        <trkpt lat="29.5615235" lon="103.3519361"><ele>1690.47</ele><time>2026-06-13T03:53:41.000Z</time></trkpt>
        <trkpt lat="29.5616143" lon="103.3519179"><ele>1697.62</ele><time>2026-06-13T03:53:52.000Z</time></trkpt>
        <trkpt lat="29.5616143" lon="103.3519179"><ele>1697.62</ele><time>2026-06-13T03:54:09.000Z</time></trkpt>
        <trkpt lat="29.5617136" lon="103.3519266"><ele>1702.95</ele><time>2026-06-13T03:54:33.000Z</time></trkpt>
        <trkpt lat="29.5617136" lon="103.3519266"><ele>1702.95</ele><time>2026-06-13T03:54:57.000Z</time></trkpt>
        <trkpt lat="29.561812" lon="103.35203"><ele>1706.64</ele><time>2026-06-13T03:55:16.000Z</time></trkpt>
        <trkpt lat="29.561812" lon="103.35203"><ele>1706.64</ele><time>2026-06-13T03:55:17.000Z</time></trkpt>
        <trkpt lat="29.561812" lon="103.35203"><ele>1706.64</ele><time>2026-06-13T03:56:51.000Z</time></trkpt>
        <trkpt lat="29.561812" lon="103.35203"><ele>1706.64</ele><time>2026-06-13T03:56:54.000Z</time></trkpt>
        <trkpt lat="29.561812" lon="103.35203"><ele>1706.64</ele><time>2026-06-13T03:57:09.000Z</time></trkpt>
        <trkpt lat="29.5618699" lon="103.3521329"><ele>1703.01</ele><time>2026-06-13T03:57:14.000Z</time></trkpt>
        <trkpt lat="29.5618699" lon="103.3521329"><ele>1703.01</ele><time>2026-06-13T03:58:07.000Z</time></trkpt>
        <trkpt lat="29.5618699" lon="103.3521329"><ele>1703.01</ele><time>2026-06-13T03:58:53.000Z</time></trkpt>
        <trkpt lat="29.561953" lon="103.3520728"><ele>1716.04</ele><time>2026-06-13T03:59:48.000Z</time></trkpt>
        <trkpt lat="29.561953" lon="103.3520728"><ele>1716.04</ele><time>2026-06-13T03:59:53.000Z</time></trkpt>
        <trkpt lat="29.561953" lon="103.3520728"><ele>1716.04</ele><time>2026-06-13T04:00:01.000Z</time></trkpt>
        <trkpt lat="29.5619888" lon="103.3522571"><ele>1723.73</ele><time>2026-06-13T04:02:30.000Z</time></trkpt>
        <trkpt lat="29.5619888" lon="103.3522571"><ele>1723.73</ele><time>2026-06-13T04:02:33.000Z</time></trkpt>
        <trkpt lat="29.5620551" lon="103.352183"><ele>1728.52</ele><time>2026-06-13T04:02:47.000Z</time></trkpt>
        <trkpt lat="29.5621299" lon="103.3521235"><ele>1732.79</ele><time>2026-06-13T04:03:17.000Z</time></trkpt>
        <trkpt lat="29.5621299" lon="103.3521235"><ele>1732.79</ele><time>2026-06-13T04:03:25.000Z</time></trkpt>
        <trkpt lat="29.5621299" lon="103.3521235"><ele>1732.79</ele><time>2026-06-13T04:03:40.000Z</time></trkpt>
        <trkpt lat="29.5621299" lon="103.3521235"><ele>1732.79</ele><time>2026-06-13T04:04:03.000Z</time></trkpt>
        <trkpt lat="29.5622229" lon="103.3521176"><ele>1737.22</ele><time>2026-06-13T04:04:06.000Z</time></trkpt>
        <trkpt lat="29.5622229" lon="103.3521176"><ele>1737.22</ele><time>2026-06-13T04:04:51.000Z</time></trkpt>
        <trkpt lat="29.5623124" lon="103.3521315"><ele>1744.82</ele><time>2026-06-13T04:05:09.000Z</time></trkpt>
        <trkpt lat="29.5624074" lon="103.3521274"><ele>1749.95</ele><time>2026-06-13T04:05:44.000Z</time></trkpt>
        <trkpt lat="29.5624978" lon="103.3521543"><ele>1753.56</ele><time>2026-06-13T04:06:20.000Z</time></trkpt>
        <trkpt lat="29.5624978" lon="103.3521543"><ele>1753.56</ele><time>2026-06-13T04:06:51.000Z</time></trkpt>
        <trkpt lat="29.5624978" lon="103.3521543"><ele>1753.56</ele><time>2026-06-13T04:06:54.000Z</time></trkpt>
        <trkpt lat="29.5624978" lon="103.3521543"><ele>1753.56</ele><time>2026-06-13T04:07:03.000Z</time></trkpt>
        <trkpt lat="29.5624978" lon="103.3521543"><ele>1753.56</ele><time>2026-06-13T04:07:20.000Z</time></trkpt>
        <trkpt lat="29.5624978" lon="103.3521543"><ele>1753.56</ele><time>2026-06-13T04:07:21.000Z</time></trkpt>
        <trkpt lat="29.5625904" lon="103.3521749"><ele>1756.61</ele><time>2026-06-13T04:07:22.000Z</time></trkpt>
        <trkpt lat="29.5625904" lon="103.3521749"><ele>1756.61</ele><time>2026-06-13T04:07:48.000Z</time></trkpt>
        <trkpt lat="29.5625713" lon="103.3522772"><ele>1763.11</ele><time>2026-06-13T04:08:06.000Z</time></trkpt>
        <trkpt lat="29.5626378" lon="103.3522422"><ele>1766.76</ele><time>2026-06-13T04:08:30.000Z</time></trkpt>
        <trkpt lat="29.562713" lon="103.3521815"><ele>1770.25</ele><time>2026-06-13T04:08:48.000Z</time></trkpt>
        <trkpt lat="29.5627085" lon="103.352082"><ele>1773.14</ele><time>2026-06-13T04:09:00.000Z</time></trkpt>
        <trkpt lat="29.5626432" lon="103.3520024"><ele>1775.16</ele><time>2026-06-13T04:09:12.000Z</time></trkpt>
        <trkpt lat="29.5625844" lon="103.3519058"><ele>1776.59</ele><time>2026-06-13T04:09:22.000Z</time></trkpt>
        <trkpt lat="29.5625263" lon="103.3518141"><ele>1775.07</ele><time>2026-06-13T04:09:47.000Z</time></trkpt>
        <trkpt lat="29.5625391" lon="103.3517168"><ele>1772.54</ele><time>2026-06-13T04:10:15.000Z</time></trkpt>
        <trkpt lat="29.5626011" lon="103.3516306"><ele>1772.38</ele><time>2026-06-13T04:11:06.000Z</time></trkpt>
        <trkpt lat="29.5626011" lon="103.3516306"><ele>1772.38</ele><time>2026-06-13T04:11:29.000Z</time></trkpt>
        <trkpt lat="29.562665" lon="103.3515434"><ele>1774.24</ele><time>2026-06-13T04:11:34.000Z</time></trkpt>
        <trkpt lat="29.562665" lon="103.3515434"><ele>1774.24</ele><time>2026-06-13T04:11:39.000Z</time></trkpt>
        <trkpt lat="29.5626871" lon="103.3514418"><ele>1775.69</ele><time>2026-06-13T04:11:57.000Z</time></trkpt>
        <trkpt lat="29.5627176" lon="103.3513338"><ele>1778.34</ele><time>2026-06-13T04:12:11.000Z</time></trkpt>
        <trkpt lat="29.5627493" lon="103.3512262"><ele>1780.79</ele><time>2026-06-13T04:12:23.000Z</time></trkpt>
        <trkpt lat="29.5627493" lon="103.3512262"><ele>1780.79</ele><time>2026-06-13T04:12:47.000Z</time></trkpt>
        <trkpt lat="29.5628274" lon="103.3511273"><ele>1784.16</ele><time>2026-06-13T04:12:56.000Z</time></trkpt>
        <trkpt lat="29.5628274" lon="103.3511273"><ele>1784.16</ele><time>2026-06-13T04:12:59.000Z</time></trkpt>
        <trkpt lat="29.5628274" lon="103.3511273"><ele>1784.16</ele><time>2026-06-13T04:13:25.000Z</time></trkpt>
        <trkpt lat="29.5628498" lon="103.3510227"><ele>1789.75</ele><time>2026-06-13T04:13:36.000Z</time></trkpt>
        <trkpt lat="29.5628498" lon="103.3510227"><ele>1789.75</ele><time>2026-06-13T04:13:55.000Z</time></trkpt>
        <trkpt lat="29.562854" lon="103.3509143"><ele>1792.07</ele><time>2026-06-13T04:14:19.000Z</time></trkpt>
        <trkpt lat="29.562847" lon="103.3508037"><ele>1794.7</ele><time>2026-06-13T04:14:33.000Z</time></trkpt>
        <trkpt lat="29.5628592" lon="103.3506963"><ele>1795.53</ele><time>2026-06-13T04:14:57.000Z</time></trkpt>
        <trkpt lat="29.5628442" lon="103.3505873"><ele>1797.02</ele><time>2026-06-13T04:15:07.000Z</time></trkpt>
        <trkpt lat="29.5628396" lon="103.3504661"><ele>1797.1</ele><time>2026-06-13T04:15:30.000Z</time></trkpt>
        <trkpt lat="29.5628493" lon="103.3503574"><ele>1795.49</ele><time>2026-06-13T04:15:40.000Z</time></trkpt>
        <trkpt lat="29.5628847" lon="103.3502524"><ele>1793.21</ele><time>2026-06-13T04:15:52.000Z</time></trkpt>
        <trkpt lat="29.5628973" lon="103.3501915"><ele>1790.86</ele><time>2026-06-13T04:15:58.000Z</time></trkpt>
        <trkpt lat="29.562905" lon="103.3500969"><ele>1789.03</ele><time>2026-06-13T04:16:10.000Z</time></trkpt>
        <trkpt lat="29.5629188" lon="103.3499921"><ele>1787.36</ele><time>2026-06-13T04:16:20.000Z</time></trkpt>
        <trkpt lat="29.5629325" lon="103.3498793"><ele>1784.75</ele><time>2026-06-13T04:16:28.000Z</time></trkpt>
        <trkpt lat="29.562963" lon="103.3497746"><ele>1784.39</ele><time>2026-06-13T04:16:36.000Z</time></trkpt>
        <trkpt lat="29.5629833" lon="103.3496632"><ele>1783.57</ele><time>2026-06-13T04:16:46.000Z</time></trkpt>
        <trkpt lat="29.5630365" lon="103.3495596"><ele>1783.15</ele><time>2026-06-13T04:16:54.000Z</time></trkpt>
        <trkpt lat="29.5631051" lon="103.3494708"><ele>1783.12</ele><time>2026-06-13T04:17:02.000Z</time></trkpt>
        <trkpt lat="29.5631466" lon="103.3493767"><ele>1783.59</ele><time>2026-06-13T04:17:08.000Z</time></trkpt>
        <trkpt lat="29.5631765" lon="103.3492757"><ele>1784.23</ele><time>2026-06-13T04:17:16.000Z</time></trkpt>
        <trkpt lat="29.5632269" lon="103.3491806"><ele>1783.96</ele><time>2026-06-13T04:17:24.000Z</time></trkpt>
        <trkpt lat="29.5632355" lon="103.3490799"><ele>1783.56</ele><time>2026-06-13T04:17:32.000Z</time></trkpt>
        <trkpt lat="29.5632486" lon="103.3489704"><ele>1783.5</ele><time>2026-06-13T04:17:42.000Z</time></trkpt>
        <trkpt lat="29.5632616" lon="103.3488483"><ele>1784.64</ele><time>2026-06-13T04:17:52.000Z</time></trkpt>
        <trkpt lat="29.5632451" lon="103.3487227"><ele>1785.23</ele><time>2026-06-13T04:18:00.000Z</time></trkpt>
        <trkpt lat="29.563225" lon="103.34861"><ele>1786.71</ele><time>2026-06-13T04:18:08.000Z</time></trkpt>
        <trkpt lat="29.5632354" lon="103.3484998"><ele>1787.81</ele><time>2026-06-13T04:18:16.000Z</time></trkpt>
        <trkpt lat="29.5632545" lon="103.3483877"><ele>1787.66</ele><time>2026-06-13T04:18:24.000Z</time></trkpt>
        <trkpt lat="29.5633043" lon="103.3482921"><ele>1787.1</ele><time>2026-06-13T04:18:32.000Z</time></trkpt>
        <trkpt lat="29.5633844" lon="103.3482149"><ele>1787.37</ele><time>2026-06-13T04:18:42.000Z</time></trkpt>
        <trkpt lat="29.5634458" lon="103.3481127"><ele>1788.85</ele><time>2026-06-13T04:18:52.000Z</time></trkpt>
        <trkpt lat="29.563498" lon="103.3480172"><ele>1790.31</ele><time>2026-06-13T04:19:00.000Z</time></trkpt>
        <trkpt lat="29.5635599" lon="103.3479353"><ele>1791.3</ele><time>2026-06-13T04:19:08.000Z</time></trkpt>
        <trkpt lat="29.563584" lon="103.3478266"><ele>1791.41</ele><time>2026-06-13T04:19:18.000Z</time></trkpt>
        <trkpt lat="29.5635866" lon="103.3477132"><ele>1790.73</ele><time>2026-06-13T04:19:28.000Z</time></trkpt>
        <trkpt lat="29.5635803" lon="103.3476052"><ele>1790.89</ele><time>2026-06-13T04:19:36.000Z</time></trkpt>
        <trkpt lat="29.5635937" lon="103.3474825"><ele>1790.88</ele><time>2026-06-13T04:19:50.000Z</time></trkpt>
        <trkpt lat="29.5635482" lon="103.3473841"><ele>1789.64</ele><time>2026-06-13T04:19:58.000Z</time></trkpt>
        <trkpt lat="29.5634962" lon="103.3472933"><ele>1788.62</ele><time>2026-06-13T04:20:08.000Z</time></trkpt>
        <trkpt lat="29.5634281" lon="103.3472147"><ele>1787.75</ele><time>2026-06-13T04:20:18.000Z</time></trkpt>
        <trkpt lat="29.5633331" lon="103.3471605"><ele>1786.83</ele><time>2026-06-13T04:20:28.000Z</time></trkpt>
        <trkpt lat="29.5632449" lon="103.3471116"><ele>1786.48</ele><time>2026-06-13T04:20:36.000Z</time></trkpt>
        <trkpt lat="29.5631657" lon="103.3470291"><ele>1785.82</ele><time>2026-06-13T04:20:46.000Z</time></trkpt>
        <trkpt lat="29.5630935" lon="103.346934"><ele>1784.76</ele><time>2026-06-13T04:20:56.000Z</time></trkpt>
        <trkpt lat="29.5630377" lon="103.3468439"><ele>1783.58</ele><time>2026-06-13T04:21:10.000Z</time></trkpt>
        <trkpt lat="29.5629652" lon="103.3467572"><ele>1781.54</ele><time>2026-06-13T04:21:20.000Z</time></trkpt>
        <trkpt lat="29.5629102" lon="103.3466643"><ele>1779.88</ele><time>2026-06-13T04:21:28.000Z</time></trkpt>
        <trkpt lat="29.5628554" lon="103.3465688"><ele>1778.97</ele><time>2026-06-13T04:21:36.000Z</time></trkpt>
        <trkpt lat="29.5627727" lon="103.3465033"><ele>1778.23</ele><time>2026-06-13T04:21:44.000Z</time></trkpt>
        <trkpt lat="29.5626764" lon="103.3464739"><ele>1776.85</ele><time>2026-06-13T04:21:52.000Z</time></trkpt>
        <trkpt lat="29.5625893" lon="103.3464121"><ele>1775.18</ele><time>2026-06-13T04:22:00.000Z</time></trkpt>
        <trkpt lat="29.5625104" lon="103.3463494"><ele>1774.35</ele><time>2026-06-13T04:22:08.000Z</time></trkpt>
        <trkpt lat="29.5624388" lon="103.3462669"><ele>1773.76</ele><time>2026-06-13T04:22:18.000Z</time></trkpt>
        <trkpt lat="29.5623756" lon="103.3461833"><ele>1772.76</ele><time>2026-06-13T04:22:26.000Z</time></trkpt>
        <trkpt lat="29.5623126" lon="103.346104"><ele>1772.51</ele><time>2026-06-13T04:22:34.000Z</time></trkpt>
        <trkpt lat="29.5622621" lon="103.3460079"><ele>1772.17</ele><time>2026-06-13T04:22:42.000Z</time></trkpt>
        <trkpt lat="29.562221" lon="103.3458999"><ele>1771.22</ele><time>2026-06-13T04:22:50.000Z</time></trkpt>
        <trkpt lat="29.5621694" lon="103.3457974"><ele>1770.57</ele><time>2026-06-13T04:22:58.000Z</time></trkpt>
        <trkpt lat="29.5621016" lon="103.3457095"><ele>1770.25</ele><time>2026-06-13T04:23:08.000Z</time></trkpt>
        <trkpt lat="29.5620263" lon="103.3456294"><ele>1768.97</ele><time>2026-06-13T04:23:24.000Z</time></trkpt>
        <trkpt lat="29.5619305" lon="103.3455983"><ele>1769.13</ele><time>2026-06-13T04:23:34.000Z</time></trkpt>
        <trkpt lat="29.5618338" lon="103.3455928"><ele>1769.7</ele><time>2026-06-13T04:23:44.000Z</time></trkpt>
        <trkpt lat="29.5617313" lon="103.3455975"><ele>1771.41</ele><time>2026-06-13T04:23:54.000Z</time></trkpt>
        <trkpt lat="29.5616317" lon="103.3455749"><ele>1773.51</ele><time>2026-06-13T04:24:06.000Z</time></trkpt>
        <trkpt lat="29.5615493" lon="103.34551"><ele>1774.96</ele><time>2026-06-13T04:24:16.000Z</time></trkpt>
        <trkpt lat="29.561502" lon="103.3454286"><ele>1775.45</ele><time>2026-06-13T04:24:27.000Z</time></trkpt>
        <trkpt lat="29.5614422" lon="103.3453396"><ele>1776.33</ele><time>2026-06-13T04:24:47.000Z</time></trkpt>
        <trkpt lat="29.5613879" lon="103.3452518"><ele>1777.53</ele><time>2026-06-13T04:25:17.000Z</time></trkpt>
        <trkpt lat="29.5613103" lon="103.3451969"><ele>1779.92</ele><time>2026-06-13T04:25:55.000Z</time></trkpt>
        <trkpt lat="29.5613103" lon="103.3451969"><ele>1779.92</ele><time>2026-06-13T04:26:35.000Z</time></trkpt>
        <trkpt lat="29.5612448" lon="103.3451195"><ele>1783.65</ele><time>2026-06-13T04:26:42.000Z</time></trkpt>
        <trkpt lat="29.5612448" lon="103.3451195"><ele>1783.65</ele><time>2026-06-13T04:27:33.000Z</time></trkpt>
        <trkpt lat="29.5612448" lon="103.3451195"><ele>1783.65</ele><time>2026-06-13T04:28:17.000Z</time></trkpt>
        <trkpt lat="29.5611932" lon="103.3450264"><ele>1786.53</ele><time>2026-06-13T04:28:32.000Z</time></trkpt>
        <trkpt lat="29.5611932" lon="103.3450264"><ele>1786.53</ele><time>2026-06-13T04:28:37.000Z</time></trkpt>
        <trkpt lat="29.5611932" lon="103.3450264"><ele>1786.53</ele><time>2026-06-13T04:29:11.000Z</time></trkpt>
        <trkpt lat="29.561107" lon="103.3449841"><ele>1792.32</ele><time>2026-06-13T04:29:12.000Z</time></trkpt>
        <trkpt lat="29.561107" lon="103.3449841"><ele>1792.32</ele><time>2026-06-13T04:29:40.000Z</time></trkpt>
        <trkpt lat="29.561107" lon="103.3449841"><ele>1792.32</ele><time>2026-06-13T04:30:13.000Z</time></trkpt>
        <trkpt lat="29.561107" lon="103.3449841"><ele>1792.32</ele><time>2026-06-13T04:30:28.000Z</time></trkpt>
        <trkpt lat="29.561107" lon="103.3449841"><ele>1792.32</ele><time>2026-06-13T04:30:41.000Z</time></trkpt>
        <trkpt lat="29.5610329" lon="103.3450565"><ele>1798.37</ele><time>2026-06-13T04:31:04.000Z</time></trkpt>
        <trkpt lat="29.5610329" lon="103.3450565"><ele>1798.37</ele><time>2026-06-13T04:31:28.000Z</time></trkpt>
        <trkpt lat="29.5609501" lon="103.345098"><ele>1802.47</ele><time>2026-06-13T04:32:00.000Z</time></trkpt>
        <trkpt lat="29.5608895" lon="103.3450111"><ele>1806.78</ele><time>2026-06-13T04:33:08.000Z</time></trkpt>
        <trkpt lat="29.5608685" lon="103.3449099"><ele>1813.93</ele><time>2026-06-13T04:33:48.000Z</time></trkpt>
        <trkpt lat="29.5608685" lon="103.3449099"><ele>1813.93</ele><time>2026-06-13T04:35:21.000Z</time></trkpt>
        <trkpt lat="29.56077" lon="103.3448986"><ele>1819.25</ele><time>2026-06-13T04:35:30.000Z</time></trkpt>
        <trkpt lat="29.56077" lon="103.3448986"><ele>1819.25</ele><time>2026-06-13T04:35:34.000Z</time></trkpt>
        <trkpt lat="29.560757" lon="103.3447926"><ele>1828.35</ele><time>2026-06-13T04:36:04.000Z</time></trkpt>
        <trkpt lat="29.5607158" lon="103.3446965"><ele>1834.31</ele><time>2026-06-13T04:36:56.000Z</time></trkpt>
        <trkpt lat="29.5607158" lon="103.3446965"><ele>1834.31</ele><time>2026-06-13T04:37:09.000Z</time></trkpt>
        <trkpt lat="29.5607158" lon="103.3446965"><ele>1834.31</ele><time>2026-06-13T04:37:16.000Z</time></trkpt>
        <trkpt lat="29.5607158" lon="103.3446965"><ele>1834.31</ele><time>2026-06-13T04:37:49.000Z</time></trkpt>
        <trkpt lat="29.5607158" lon="103.3446965"><ele>1834.31</ele><time>2026-06-13T04:38:00.000Z</time></trkpt>
        <trkpt lat="29.5607158" lon="103.3446965"><ele>1834.31</ele><time>2026-06-13T04:38:17.000Z</time></trkpt>
        <trkpt lat="29.5607158" lon="103.3446965"><ele>1834.31</ele><time>2026-06-13T04:38:22.000Z</time></trkpt>
        <trkpt lat="29.5607158" lon="103.3446965"><ele>1834.31</ele><time>2026-06-13T04:38:33.000Z</time></trkpt>
        <trkpt lat="29.5606186" lon="103.3446704"><ele>1839.51</ele><time>2026-06-13T04:38:40.000Z</time></trkpt>
        <trkpt lat="29.5606186" lon="103.3446704"><ele>1839.51</ele><time>2026-06-13T04:39:08.000Z</time></trkpt>
        <trkpt lat="29.5606186" lon="103.3446704"><ele>1839.51</ele><time>2026-06-13T04:39:37.000Z</time></trkpt>
        <trkpt lat="29.5605434" lon="103.3446057"><ele>1843.61</ele><time>2026-06-13T04:39:44.000Z</time></trkpt>
        <trkpt lat="29.5605434" lon="103.3446057"><ele>1843.61</ele><time>2026-06-13T04:39:48.000Z</time></trkpt>
        <trkpt lat="29.5605434" lon="103.3446057"><ele>1843.61</ele><time>2026-06-13T04:40:15.000Z</time></trkpt>
        <trkpt lat="29.5604523" lon="103.3445887"><ele>1847.95</ele><time>2026-06-13T04:40:16.000Z</time></trkpt>
        <trkpt lat="29.5604523" lon="103.3445887"><ele>1847.95</ele><time>2026-06-13T04:40:28.000Z</time></trkpt>
        <trkpt lat="29.5603583" lon="103.3445514"><ele>1856.43</ele><time>2026-06-13T04:40:58.000Z</time></trkpt>
        <trkpt lat="29.5602833" lon="103.34449"><ele>1862.07</ele><time>2026-06-13T04:41:22.000Z</time></trkpt>
        <trkpt lat="29.5603247" lon="103.3444322"><ele>1864.32</ele><time>2026-06-13T04:42:06.000Z</time></trkpt>
        <trkpt lat="29.5603247" lon="103.3444322"><ele>1864.32</ele><time>2026-06-13T04:42:27.000Z</time></trkpt>
        <trkpt lat="29.5603247" lon="103.3444322"><ele>1864.32</ele><time>2026-06-13T04:43:06.000Z</time></trkpt>
        <trkpt lat="29.5603247" lon="103.3444322"><ele>1864.32</ele><time>2026-06-13T04:43:27.000Z</time></trkpt>
        <trkpt lat="29.5603329" lon="103.3445309"><ele>1865.15</ele><time>2026-06-13T04:43:30.000Z</time></trkpt>
        <trkpt lat="29.5603329" lon="103.3445309"><ele>1865.15</ele><time>2026-06-13T04:44:25.000Z</time></trkpt>
        <trkpt lat="29.5602613" lon="103.3444684"><ele>1869.83</ele><time>2026-06-13T04:44:45.000Z</time></trkpt>
        <trkpt lat="29.5602613" lon="103.3444684"><ele>1869.83</ele><time>2026-06-13T04:45:25.000Z</time></trkpt>
        <trkpt lat="29.5601807" lon="103.3444067"><ele>1874.12</ele><time>2026-06-13T04:45:28.000Z</time></trkpt>
        <trkpt lat="29.5601807" lon="103.3444067"><ele>1874.12</ele><time>2026-06-13T04:45:32.000Z</time></trkpt>
        <trkpt lat="29.5601653" lon="103.3443123"><ele>1878.43</ele><time>2026-06-13T04:45:54.000Z</time></trkpt>
        <trkpt lat="29.5601653" lon="103.3443123"><ele>1878.43</ele><time>2026-06-13T04:46:27.000Z</time></trkpt>
        <trkpt lat="29.5600961" lon="103.3442568"><ele>1879.87</ele><time>2026-06-13T04:46:46.000Z</time></trkpt>
        <trkpt lat="29.5600961" lon="103.3442568"><ele>1879.87</ele><time>2026-06-13T04:47:16.000Z</time></trkpt>
        <trkpt lat="29.5600696" lon="103.3441544"><ele>1885.77</ele><time>2026-06-13T04:47:46.000Z</time></trkpt>
        <trkpt lat="29.5600696" lon="103.3441544"><ele>1885.77</ele><time>2026-06-13T04:48:01.000Z</time></trkpt>
        <trkpt lat="29.5600696" lon="103.3441544"><ele>1885.77</ele><time>2026-06-13T04:48:08.000Z</time></trkpt>
        <trkpt lat="29.5600696" lon="103.3441544"><ele>1885.77</ele><time>2026-06-13T04:48:27.000Z</time></trkpt>
        <trkpt lat="29.5601531" lon="103.3441944"><ele>1888.28</ele><time>2026-06-13T04:49:30.000Z</time></trkpt>
        <trkpt lat="29.5601531" lon="103.3441944"><ele>1888.28</ele><time>2026-06-13T04:49:34.000Z</time></trkpt>
        <trkpt lat="29.5601591" lon="103.3441852"><ele>1894.66</ele><time>2026-06-13T04:49:41.000Z</time></trkpt>
        <trkpt lat="29.5601591" lon="103.3441852"><ele>1894.66</ele><time>2026-06-13T04:49:47.000Z</time></trkpt>
        <trkpt lat="29.5601591" lon="103.3441852"><ele>1894.66</ele><time>2026-06-13T04:50:00.000Z</time></trkpt>
        <trkpt lat="29.5601591" lon="103.3441852"><ele>1894.66</ele><time>2026-06-13T04:50:17.000Z</time></trkpt>
        <trkpt lat="29.5601591" lon="103.3441852"><ele>1894.66</ele><time>2026-06-13T04:50:26.000Z</time></trkpt>
        <trkpt lat="29.5601591" lon="103.3441852"><ele>1894.66</ele><time>2026-06-13T04:50:55.000Z</time></trkpt>
        <trkpt lat="29.5601591" lon="103.3441852"><ele>1894.66</ele><time>2026-06-13T04:51:10.000Z</time></trkpt>
        <trkpt lat="29.5601591" lon="103.3441852"><ele>1894.66</ele><time>2026-06-13T04:51:21.000Z</time></trkpt>
        <trkpt lat="29.5601591" lon="103.3441852"><ele>1894.66</ele><time>2026-06-13T04:51:22.000Z</time></trkpt>
        <trkpt lat="29.5601591" lon="103.3441852"><ele>1894.66</ele><time>2026-06-13T04:51:39.000Z</time></trkpt>
        <trkpt lat="29.560125" lon="103.3440808"><ele>1898.42</ele><time>2026-06-13T04:51:40.000Z</time></trkpt>
        <trkpt lat="29.560125" lon="103.3440808"><ele>1898.42</ele><time>2026-06-13T04:51:58.000Z</time></trkpt>
        <trkpt lat="29.5601417" lon="103.3439785"><ele>1902.53</ele><time>2026-06-13T04:52:36.000Z</time></trkpt>
        <trkpt lat="29.5601417" lon="103.3439785"><ele>1902.53</ele><time>2026-06-13T04:52:57.000Z</time></trkpt>
        <trkpt lat="29.5601174" lon="103.3438805"><ele>1905.98</ele><time>2026-06-13T04:53:00.000Z</time></trkpt>
        <trkpt lat="29.5601174" lon="103.3438805"><ele>1905.98</ele><time>2026-06-13T04:53:32.000Z</time></trkpt>
        <trkpt lat="29.5600432" lon="103.34383"><ele>1910.42</ele><time>2026-06-13T04:54:10.000Z</time></trkpt>
        <trkpt lat="29.5600432" lon="103.34383"><ele>1910.42</ele><time>2026-06-13T04:54:19.000Z</time></trkpt>
        <trkpt lat="29.5600432" lon="103.34383"><ele>1910.42</ele><time>2026-06-13T04:54:24.000Z</time></trkpt>
        <trkpt lat="29.5600432" lon="103.34383"><ele>1910.42</ele><time>2026-06-13T04:54:59.000Z</time></trkpt>
        <trkpt lat="29.5599677" lon="103.3437709"><ele>1913.73</ele><time>2026-06-13T04:55:02.000Z</time></trkpt>
        <trkpt lat="29.5599677" lon="103.3437709"><ele>1913.73</ele><time>2026-06-13T04:55:05.000Z</time></trkpt>
        <trkpt lat="29.5599677" lon="103.3437709"><ele>1913.73</ele><time>2026-06-13T04:55:41.000Z</time></trkpt>
        <trkpt lat="29.5598857" lon="103.3437154"><ele>1918.21</ele><time>2026-06-13T04:55:42.000Z</time></trkpt>
        <trkpt lat="29.5598857" lon="103.3437154"><ele>1918.21</ele><time>2026-06-13T04:55:53.000Z</time></trkpt>
        <trkpt lat="29.5598857" lon="103.3437154"><ele>1918.21</ele><time>2026-06-13T04:56:03.000Z</time></trkpt>
        <trkpt lat="29.5598857" lon="103.3437154"><ele>1918.21</ele><time>2026-06-13T04:56:06.000Z</time></trkpt>
        <trkpt lat="29.5598857" lon="103.3437154"><ele>1918.21</ele><time>2026-06-13T04:56:49.000Z</time></trkpt>
        <trkpt lat="29.5598011" lon="103.34362"><ele>1921.86</ele><time>2026-06-13T04:56:52.000Z</time></trkpt>
        <trkpt lat="29.5598011" lon="103.34362"><ele>1921.86</ele><time>2026-06-13T04:56:57.000Z</time></trkpt>
        <trkpt lat="29.5597457" lon="103.3435331"><ele>1926</ele><time>2026-06-13T04:57:29.000Z</time></trkpt>
        <trkpt lat="29.5597457" lon="103.3435331"><ele>1926</ele><time>2026-06-13T04:57:51.000Z</time></trkpt>
        <trkpt lat="29.5597457" lon="103.3435331"><ele>1926</ele><time>2026-06-13T04:58:04.000Z</time></trkpt>
        <trkpt lat="29.5597457" lon="103.3435331"><ele>1926</ele><time>2026-06-13T04:58:23.000Z</time></trkpt>
        <trkpt lat="29.5597457" lon="103.3435331"><ele>1926</ele><time>2026-06-13T04:58:24.000Z</time></trkpt>
        <trkpt lat="29.5597457" lon="103.3435331"><ele>1926</ele><time>2026-06-13T04:58:55.000Z</time></trkpt>
        <trkpt lat="29.5596765" lon="103.3436055"><ele>1931.22</ele><time>2026-06-13T04:59:40.000Z</time></trkpt>
        <trkpt lat="29.5596765" lon="103.3436055"><ele>1931.22</ele><time>2026-06-13T05:00:09.000Z</time></trkpt>
        <trkpt lat="29.5595902" lon="103.3435705"><ele>1937.08</ele><time>2026-06-13T05:01:26.000Z</time></trkpt>
        <trkpt lat="29.5595154" lon="103.3435046"><ele>1942.88</ele><time>2026-06-13T05:01:54.000Z</time></trkpt>
        <trkpt lat="29.5595154" lon="103.3435046"><ele>1942.88</ele><time>2026-06-13T05:02:07.000Z</time></trkpt>
        <trkpt lat="29.5594693" lon="103.3435775"><ele>1948.56</ele><time>2026-06-13T05:02:20.000Z</time></trkpt>
        <trkpt lat="29.5594693" lon="103.3435775"><ele>1948.56</ele><time>2026-06-13T05:02:40.000Z</time></trkpt>
        <trkpt lat="29.5594693" lon="103.3435775"><ele>1948.56</ele><time>2026-06-13T05:02:57.000Z</time></trkpt>
        <trkpt lat="29.5594693" lon="103.3435775"><ele>1948.56</ele><time>2026-06-13T05:03:24.000Z</time></trkpt>
        <trkpt lat="29.5594693" lon="103.3435775"><ele>1948.56</ele><time>2026-06-13T05:03:41.000Z</time></trkpt>
        <trkpt lat="29.5594693" lon="103.3435775"><ele>1948.56</ele><time>2026-06-13T05:03:52.000Z</time></trkpt>
        <trkpt lat="29.5594693" lon="103.3435775"><ele>1948.56</ele><time>2026-06-13T05:04:17.000Z</time></trkpt>
        <trkpt lat="29.5594693" lon="103.3435775"><ele>1948.56</ele><time>2026-06-13T05:04:48.000Z</time></trkpt>
        <trkpt lat="29.5594693" lon="103.3435775"><ele>1948.56</ele><time>2026-06-13T05:05:03.000Z</time></trkpt>
        <trkpt lat="29.5594693" lon="103.3435775"><ele>1948.56</ele><time>2026-06-13T05:05:50.000Z</time></trkpt>
        <trkpt lat="29.5594693" lon="103.3435775"><ele>1948.56</ele><time>2026-06-13T05:06:01.000Z</time></trkpt>
        <trkpt lat="29.5593806" lon="103.3436042"><ele>1952.14</ele><time>2026-06-13T05:06:06.000Z</time></trkpt>
        <trkpt lat="29.5593806" lon="103.3436042"><ele>1952.14</ele><time>2026-06-13T05:06:56.000Z</time></trkpt>
        <trkpt lat="29.5593806" lon="103.3436042"><ele>1952.14</ele><time>2026-06-13T05:07:15.000Z</time></trkpt>
        <trkpt lat="29.5593806" lon="103.3436042"><ele>1952.14</ele><time>2026-06-13T05:07:28.000Z</time></trkpt>
        <trkpt lat="29.5593806" lon="103.3436042"><ele>1952.14</ele><time>2026-06-13T05:07:49.000Z</time></trkpt>
        <trkpt lat="29.5593806" lon="103.3436042"><ele>1952.14</ele><time>2026-06-13T05:08:00.000Z</time></trkpt>
        <trkpt lat="29.5593806" lon="103.3436042"><ele>1952.14</ele><time>2026-06-13T05:08:19.000Z</time></trkpt>
        <trkpt lat="29.5593806" lon="103.3436042"><ele>1952.14</ele><time>2026-06-13T05:08:30.000Z</time></trkpt>
        <trkpt lat="29.5593806" lon="103.3436042"><ele>1952.14</ele><time>2026-06-13T05:08:43.000Z</time></trkpt>
        <trkpt lat="29.5593806" lon="103.3436042"><ele>1952.14</ele><time>2026-06-13T05:09:24.000Z</time></trkpt>
        <trkpt lat="29.5593806" lon="103.3436042"><ele>1952.14</ele><time>2026-06-13T05:09:39.000Z</time></trkpt>
        <trkpt lat="29.5593806" lon="103.3436042"><ele>1952.14</ele><time>2026-06-13T05:09:48.000Z</time></trkpt>
        <trkpt lat="29.5593806" lon="103.3436042"><ele>1952.14</ele><time>2026-06-13T05:10:03.000Z</time></trkpt>
        <trkpt lat="29.5593806" lon="103.3436042"><ele>1952.14</ele><time>2026-06-13T05:10:24.000Z</time></trkpt>
        <trkpt lat="29.5593806" lon="103.3436042"><ele>1952.14</ele><time>2026-06-13T05:10:55.000Z</time></trkpt>
        <trkpt lat="29.5593806" lon="103.3436042"><ele>1952.14</ele><time>2026-06-13T05:10:56.000Z</time></trkpt>
        <trkpt lat="29.5593806" lon="103.3436042"><ele>1952.14</ele><time>2026-06-13T05:11:23.000Z</time></trkpt>
        <trkpt lat="29.5593806" lon="103.3436042"><ele>1952.14</ele><time>2026-06-13T05:11:28.000Z</time></trkpt>
        <trkpt lat="29.5593806" lon="103.3436042"><ele>1952.14</ele><time>2026-06-13T05:12:41.000Z</time></trkpt>
        <trkpt lat="29.5592967" lon="103.34365"><ele>1958.43</ele><time>2026-06-13T05:12:58.000Z</time></trkpt>
        <trkpt lat="29.5592967" lon="103.34365"><ele>1958.43</ele><time>2026-06-13T05:13:23.000Z</time></trkpt>
        <trkpt lat="29.5592967" lon="103.34365"><ele>1958.43</ele><time>2026-06-13T05:13:43.000Z</time></trkpt>
        <trkpt lat="29.5592967" lon="103.34365"><ele>1958.43</ele><time>2026-06-13T05:14:00.000Z</time></trkpt>
        <trkpt lat="29.5592967" lon="103.34365"><ele>1958.43</ele><time>2026-06-13T05:14:19.000Z</time></trkpt>
        <trkpt lat="29.5592967" lon="103.34365"><ele>1958.43</ele><time>2026-06-13T05:14:22.000Z</time></trkpt>
        <trkpt lat="29.5592967" lon="103.34365"><ele>1958.43</ele><time>2026-06-13T05:14:31.000Z</time></trkpt>
        <trkpt lat="29.5592842" lon="103.3437612"><ele>1964.72</ele><time>2026-06-13T05:14:42.000Z</time></trkpt>
        <trkpt lat="29.5592842" lon="103.3437612"><ele>1964.72</ele><time>2026-06-13T05:15:11.000Z</time></trkpt>
        <trkpt lat="29.5592184" lon="103.3438361"><ele>1970.87</ele><time>2026-06-13T05:15:27.000Z</time></trkpt>
        <trkpt lat="29.5592184" lon="103.3438361"><ele>1970.87</ele><time>2026-06-13T05:15:39.000Z</time></trkpt>
        <trkpt lat="29.5591664" lon="103.3437739"><ele>1975.72</ele><time>2026-06-13T05:15:44.000Z</time></trkpt>
        <trkpt lat="29.5591664" lon="103.3437739"><ele>1975.72</ele><time>2026-06-13T05:16:15.000Z</time></trkpt>
        <trkpt lat="29.5591664" lon="103.3437739"><ele>1975.72</ele><time>2026-06-13T05:16:33.000Z</time></trkpt>
        <trkpt lat="29.5590963" lon="103.3437063"><ele>1981.52</ele><time>2026-06-13T05:16:36.000Z</time></trkpt>
        <trkpt lat="29.5590963" lon="103.3437063"><ele>1981.52</ele><time>2026-06-13T05:17:09.000Z</time></trkpt>
        <trkpt lat="29.5590963" lon="103.3437063"><ele>1981.52</ele><time>2026-06-13T05:17:23.000Z</time></trkpt>
        <trkpt lat="29.5590165" lon="103.3437442"><ele>1987.25</ele><time>2026-06-13T05:17:30.000Z</time></trkpt>
        <trkpt lat="29.5590165" lon="103.3437442"><ele>1987.25</ele><time>2026-06-13T05:18:33.000Z</time></trkpt>
        <trkpt lat="29.5590165" lon="103.3437442"><ele>1987.25</ele><time>2026-06-13T05:18:35.000Z</time></trkpt>
        <trkpt lat="29.5589232" lon="103.3437712"><ele>1992.51</ele><time>2026-06-13T05:18:46.000Z</time></trkpt>
        <trkpt lat="29.5589232" lon="103.3437712"><ele>1992.51</ele><time>2026-06-13T05:19:15.000Z</time></trkpt>
        <trkpt lat="29.5588959" lon="103.3438689"><ele>1998.98</ele><time>2026-06-13T05:19:33.000Z</time></trkpt>
        <trkpt lat="29.5589197" lon="103.3439704"><ele>2002.9</ele><time>2026-06-13T05:19:45.000Z</time></trkpt>
        <trkpt lat="29.5589572" lon="103.344082"><ele>2004.91</ele><time>2026-06-13T05:19:59.000Z</time></trkpt>
        <trkpt lat="29.5589572" lon="103.344082"><ele>2004.91</ele><time>2026-06-13T05:20:29.000Z</time></trkpt>
        <trkpt lat="29.5589572" lon="103.344082"><ele>2004.91</ele><time>2026-06-13T05:20:32.000Z</time></trkpt>
        <trkpt lat="29.5589572" lon="103.344082"><ele>2004.91</ele><time>2026-06-13T05:21:05.000Z</time></trkpt>
        <trkpt lat="29.5588764" lon="103.344141"><ele>2007.03</ele><time>2026-06-13T05:21:10.000Z</time></trkpt>
        <trkpt lat="29.5588764" lon="103.344141"><ele>2007.03</ele><time>2026-06-13T05:21:15.000Z</time></trkpt>
        <trkpt lat="29.5588965" lon="103.3442478"><ele>2010.03</ele><time>2026-06-13T05:21:47.000Z</time></trkpt>
        <trkpt lat="29.5588965" lon="103.3442478"><ele>2010.03</ele><time>2026-06-13T05:23:31.000Z</time></trkpt>
        <trkpt lat="29.5588965" lon="103.3442478"><ele>2010.03</ele><time>2026-06-13T05:23:42.000Z</time></trkpt>
        <trkpt lat="29.5588965" lon="103.3442478"><ele>2010.03</ele><time>2026-06-13T05:23:53.000Z</time></trkpt>
        <trkpt lat="29.5588965" lon="103.3442478"><ele>2010.03</ele><time>2026-06-13T05:25:14.000Z</time></trkpt>
        <trkpt lat="29.5588965" lon="103.3442478"><ele>2010.03</ele><time>2026-06-13T05:25:33.000Z</time></trkpt>
        <trkpt lat="29.5587937" lon="103.3442318"><ele>2013.62</ele><time>2026-06-13T05:25:46.000Z</time></trkpt>
        <trkpt lat="29.5587937" lon="103.3442318"><ele>2013.62</ele><time>2026-06-13T05:26:01.000Z</time></trkpt>
        <trkpt lat="29.5586958" lon="103.344222"><ele>2017.94</ele><time>2026-06-13T05:26:21.000Z</time></trkpt>
        <trkpt lat="29.5586003" lon="103.3442008"><ele>2021.67</ele><time>2026-06-13T05:26:37.000Z</time></trkpt>
        <trkpt lat="29.5585149" lon="103.3441516"><ele>2025.03</ele><time>2026-06-13T05:27:47.000Z</time></trkpt>
        <trkpt lat="29.5584266" lon="103.3441239"><ele>2028.05</ele><time>2026-06-13T05:28:17.000Z</time></trkpt>
        <trkpt lat="29.5583323" lon="103.3441023"><ele>2031.92</ele><time>2026-06-13T05:29:50.000Z</time></trkpt>
        <trkpt lat="29.5582341" lon="103.3440906"><ele>2035.17</ele><time>2026-06-13T05:30:14.000Z</time></trkpt>
        <trkpt lat="29.5581397" lon="103.3440707"><ele>2037.72</ele><time>2026-06-13T05:30:20.000Z</time></trkpt>
        <trkpt lat="29.5580972" lon="103.3439751"><ele>2039.43</ele><time>2026-06-13T05:30:28.000Z</time></trkpt>
        <trkpt lat="29.5580636" lon="103.3439009"><ele>2041.17</ele><time>2026-06-13T05:30:34.000Z</time></trkpt>
        <trkpt lat="29.558089" lon="103.3439531"><ele>2041.92</ele><time>2026-06-13T05:30:56.000Z</time></trkpt>
        <trkpt lat="29.5581124" lon="103.3439888"><ele>2042.03</ele><time>2026-06-13T05:30:58.000Z</time></trkpt>
        <trkpt lat="29.557883" lon="103.3439032"><ele>2042.2</ele><time>2026-06-13T05:31:08.000Z</time></trkpt>
        <trkpt lat="29.5577306" lon="103.3439019"><ele>2046.7</ele><time>2026-06-13T05:31:16.000Z</time></trkpt>
        <trkpt lat="29.5576742" lon="103.3439078"><ele>2047.62</ele><time>2026-06-13T05:31:20.000Z</time></trkpt>
        <trkpt lat="29.5577997" lon="103.3439931"><ele>2048.05</ele><time>2026-06-13T05:31:58.000Z</time></trkpt>
        <trkpt lat="29.5577955" lon="103.3439814"><ele>2047.69</ele><time>2026-06-13T05:32:04.000Z</time></trkpt>
        <trkpt lat="29.5577222" lon="103.3440035"><ele>2044.03</ele><time>2026-06-13T05:32:12.000Z</time></trkpt>
        <trkpt lat="29.557615" lon="103.3439533"><ele>2044.44</ele><time>2026-06-13T05:33:57.000Z</time></trkpt>
        <trkpt lat="29.5575477" lon="103.3438796"><ele>2044.66</ele><time>2026-06-13T05:34:09.000Z</time></trkpt>
        <trkpt lat="29.5575093" lon="103.3437865"><ele>2043.6</ele><time>2026-06-13T05:34:17.000Z</time></trkpt>
        <trkpt lat="29.5574367" lon="103.3437035"><ele>2042.58</ele><time>2026-06-13T05:34:29.000Z</time></trkpt>
        <trkpt lat="29.5573476" lon="103.3436638"><ele>2041.78</ele><time>2026-06-13T05:34:39.000Z</time></trkpt>
        <trkpt lat="29.5573476" lon="103.3436638"><ele>2041.78</ele><time>2026-06-13T05:35:29.000Z</time></trkpt>
        <trkpt lat="29.5572596" lon="103.3436212"><ele>2041.8</ele><time>2026-06-13T05:35:34.000Z</time></trkpt>
        <trkpt lat="29.5572596" lon="103.3436212"><ele>2041.8</ele><time>2026-06-13T05:35:38.000Z</time></trkpt>
        <trkpt lat="29.5571629" lon="103.3436058"><ele>2044.13</ele><time>2026-06-13T05:36:10.000Z</time></trkpt>
        <trkpt lat="29.5570737" lon="103.3436372"><ele>2047.62</ele><time>2026-06-13T05:36:50.000Z</time></trkpt>
        <trkpt lat="29.5569891" lon="103.3436853"><ele>2051.38</ele><time>2026-06-13T05:37:40.000Z</time></trkpt>
        <trkpt lat="29.5569891" lon="103.3436853"><ele>2051.38</ele><time>2026-06-13T05:38:33.000Z</time></trkpt>
        <trkpt lat="29.5569015" lon="103.3437462"><ele>2055.46</ele><time>2026-06-13T05:39:14.000Z</time></trkpt>
        <trkpt lat="29.5569015" lon="103.3437462"><ele>2055.46</ele><time>2026-06-13T05:39:32.000Z</time></trkpt>
        <trkpt lat="29.5568078" lon="103.3437499"><ele>2059.6</ele><time>2026-06-13T05:39:56.000Z</time></trkpt>
        <trkpt lat="29.5567187" lon="103.343725"><ele>2062.49</ele><time>2026-06-13T05:40:30.000Z</time></trkpt>
        <trkpt lat="29.5567187" lon="103.343725"><ele>2062.49</ele><time>2026-06-13T05:41:09.000Z</time></trkpt>
        <trkpt lat="29.556637" lon="103.343761"><ele>2065.82</ele><time>2026-06-13T05:41:12.000Z</time></trkpt>
        <trkpt lat="29.556637" lon="103.343761"><ele>2065.82</ele><time>2026-06-13T05:41:19.000Z</time></trkpt>
        <trkpt lat="29.5565757" lon="103.3438356"><ele>2072.33</ele><time>2026-06-13T05:41:57.000Z</time></trkpt>
        <trkpt lat="29.5565757" lon="103.3438356"><ele>2072.33</ele><time>2026-06-13T05:42:09.000Z</time></trkpt>
        <trkpt lat="29.5565757" lon="103.3438356"><ele>2072.33</ele><time>2026-06-13T05:42:14.000Z</time></trkpt>
        <trkpt lat="29.5565757" lon="103.3438356"><ele>2072.33</ele><time>2026-06-13T05:42:37.000Z</time></trkpt>
        <trkpt lat="29.5565924" lon="103.3439607"><ele>2077.26</ele><time>2026-06-13T05:42:56.000Z</time></trkpt>
        <trkpt lat="29.5565924" lon="103.3439607"><ele>2077.26</ele><time>2026-06-13T05:43:09.000Z</time></trkpt>
        <trkpt lat="29.5565614" lon="103.3440638"><ele>2081.85</ele><time>2026-06-13T05:43:57.000Z</time></trkpt>
        <trkpt lat="29.5565032" lon="103.3441475"><ele>2087.71</ele><time>2026-06-13T05:44:31.000Z</time></trkpt>
        <trkpt lat="29.5565032" lon="103.3441475"><ele>2087.71</ele><time>2026-06-13T05:44:53.000Z</time></trkpt>
        <trkpt lat="29.5564408" lon="103.3442235"><ele>2092.22</ele><time>2026-06-13T05:45:00.000Z</time></trkpt>
        <trkpt lat="29.5564408" lon="103.3442235"><ele>2092.22</ele><time>2026-06-13T05:45:13.000Z</time></trkpt>
        <trkpt lat="29.5564408" lon="103.3442235"><ele>2092.22</ele><time>2026-06-13T05:45:45.000Z</time></trkpt>
        <trkpt lat="29.5563498" lon="103.344275"><ele>2097.09</ele><time>2026-06-13T05:46:08.000Z</time></trkpt>
        <trkpt lat="29.5563498" lon="103.344275"><ele>2097.09</ele><time>2026-06-13T05:46:11.000Z</time></trkpt>
        <trkpt lat="29.55627" lon="103.3443349"><ele>2106.24</ele><time>2026-06-13T05:46:37.000Z</time></trkpt>
        <trkpt lat="29.5562087" lon="103.3444168"><ele>2108.72</ele><time>2026-06-13T05:47:15.000Z</time></trkpt>
        <trkpt lat="29.5562087" lon="103.3444168"><ele>2108.72</ele><time>2026-06-13T05:47:47.000Z</time></trkpt>
        <trkpt lat="29.5562087" lon="103.3444168"><ele>2108.72</ele><time>2026-06-13T05:48:08.000Z</time></trkpt>
        <trkpt lat="29.5562087" lon="103.3444168"><ele>2108.72</ele><time>2026-06-13T05:48:19.000Z</time></trkpt>
        <trkpt lat="29.5561518" lon="103.3444987"><ele>2111.38</ele><time>2026-06-13T05:48:38.000Z</time></trkpt>
        <trkpt lat="29.5561518" lon="103.3444987"><ele>2111.38</ele><time>2026-06-13T05:49:00.000Z</time></trkpt>
        <trkpt lat="29.5560935" lon="103.3445786"><ele>2113.01</ele><time>2026-06-13T05:49:18.000Z</time></trkpt>
        <trkpt lat="29.5560196" lon="103.344655"><ele>2115.18</ele><time>2026-06-13T05:49:42.000Z</time></trkpt>
        <trkpt lat="29.5560196" lon="103.344655"><ele>2115.18</ele><time>2026-06-13T05:49:59.000Z</time></trkpt>
        <trkpt lat="29.5559767" lon="103.3447467"><ele>2118.13</ele><time>2026-06-13T05:50:06.000Z</time></trkpt>
        <trkpt lat="29.5559767" lon="103.3447467"><ele>2118.13</ele><time>2026-06-13T05:50:19.000Z</time></trkpt>
        <trkpt lat="29.555924" lon="103.3448369"><ele>2119.11</ele><time>2026-06-13T05:51:11.000Z</time></trkpt>
        <trkpt lat="29.5558817" lon="103.3449425"><ele>2124.8</ele><time>2026-06-13T05:51:29.000Z</time></trkpt>
        <trkpt lat="29.5558817" lon="103.3449425"><ele>2124.8</ele><time>2026-06-13T05:51:49.000Z</time></trkpt>
        <trkpt lat="29.5558087" lon="103.3450017"><ele>2129.2</ele><time>2026-06-13T05:51:58.000Z</time></trkpt>
        <trkpt lat="29.5558087" lon="103.3450017"><ele>2129.2</ele><time>2026-06-13T05:52:05.000Z</time></trkpt>
        <trkpt lat="29.5558087" lon="103.3450017"><ele>2129.2</ele><time>2026-06-13T05:52:29.000Z</time></trkpt>
        <trkpt lat="29.5557188" lon="103.3450137"><ele>2133.99</ele><time>2026-06-13T05:52:40.000Z</time></trkpt>
        <trkpt lat="29.5557188" lon="103.3450137"><ele>2133.99</ele><time>2026-06-13T05:52:51.000Z</time></trkpt>
        <trkpt lat="29.5556366" lon="103.3449638"><ele>2135.95</ele><time>2026-06-13T05:53:27.000Z</time></trkpt>
        <trkpt lat="29.5556366" lon="103.3449638"><ele>2135.95</ele><time>2026-06-13T05:54:05.000Z</time></trkpt>
        <trkpt lat="29.5555672" lon="103.3450053"><ele>2139.59</ele><time>2026-06-13T05:54:08.000Z</time></trkpt>
        <trkpt lat="29.5555672" lon="103.3450053"><ele>2139.59</ele><time>2026-06-13T05:54:31.000Z</time></trkpt>
        <trkpt lat="29.5555089" lon="103.345088"><ele>2144.17</ele><time>2026-06-13T05:55:17.000Z</time></trkpt>
        <trkpt lat="29.5555089" lon="103.345088"><ele>2144.17</ele><time>2026-06-13T05:55:55.000Z</time></trkpt>
        <trkpt lat="29.5554354" lon="103.3451544"><ele>2149.01</ele><time>2026-06-13T05:56:08.000Z</time></trkpt>
        <trkpt lat="29.5554354" lon="103.3451544"><ele>2149.01</ele><time>2026-06-13T05:56:14.000Z</time></trkpt>
        <trkpt lat="29.5554354" lon="103.3451544"><ele>2149.01</ele><time>2026-06-13T05:56:41.000Z</time></trkpt>
        <trkpt lat="29.5553584" lon="103.3451209"><ele>2154.97</ele><time>2026-06-13T05:56:46.000Z</time></trkpt>
        <trkpt lat="29.5553584" lon="103.3451209"><ele>2154.97</ele><time>2026-06-13T05:56:56.000Z</time></trkpt>
        <trkpt lat="29.5552992" lon="103.3450343"><ele>2158.96</ele><time>2026-06-13T05:57:14.000Z</time></trkpt>
        <trkpt lat="29.5552338" lon="103.3450567"><ele>2161.84</ele><time>2026-06-13T05:57:34.000Z</time></trkpt>
        <trkpt lat="29.5551538" lon="103.3451121"><ele>2166.55</ele><time>2026-06-13T05:57:48.000Z</time></trkpt>
        <trkpt lat="29.5550655" lon="103.3451571"><ele>2169.7</ele><time>2026-06-13T05:58:02.000Z</time></trkpt>
        <trkpt lat="29.5549669" lon="103.3451817"><ele>2171.07</ele><time>2026-06-13T05:58:18.000Z</time></trkpt>
        <trkpt lat="29.5549669" lon="103.3451817"><ele>2171.07</ele><time>2026-06-13T05:58:33.000Z</time></trkpt>
        <trkpt lat="29.5548757" lon="103.3452142"><ele>2173.08</ele><time>2026-06-13T05:58:36.000Z</time></trkpt>
        <trkpt lat="29.5548757" lon="103.3452142"><ele>2173.08</ele><time>2026-06-13T05:58:55.000Z</time></trkpt>
        <trkpt lat="29.5548757" lon="103.3452142"><ele>2173.08</ele><time>2026-06-13T05:59:03.000Z</time></trkpt>
        <trkpt lat="29.5547955" lon="103.3452752"><ele>2174.62</ele><time>2026-06-13T05:59:16.000Z</time></trkpt>
        <trkpt lat="29.5547955" lon="103.3452752"><ele>2174.62</ele><time>2026-06-13T05:59:41.000Z</time></trkpt>
        <trkpt lat="29.5547955" lon="103.3452752"><ele>2174.62</ele><time>2026-06-13T05:59:55.000Z</time></trkpt>
        <trkpt lat="29.5547955" lon="103.3452752"><ele>2174.62</ele><time>2026-06-13T05:59:58.000Z</time></trkpt>
        <trkpt lat="29.5547955" lon="103.3452752"><ele>2174.62</ele><time>2026-06-13T06:00:19.000Z</time></trkpt>
        <trkpt lat="29.5547157" lon="103.3453337"><ele>2178.11</ele><time>2026-06-13T06:00:26.000Z</time></trkpt>
        <trkpt lat="29.5547157" lon="103.3453337"><ele>2178.11</ele><time>2026-06-13T06:00:35.000Z</time></trkpt>
        <trkpt lat="29.5547157" lon="103.3453337"><ele>2178.11</ele><time>2026-06-13T06:01:31.000Z</time></trkpt>
        <trkpt lat="29.5547157" lon="103.3453337"><ele>2178.11</ele><time>2026-06-13T06:01:40.000Z</time></trkpt>
        <trkpt lat="29.5547157" lon="103.3453337"><ele>2178.11</ele><time>2026-06-13T06:02:03.000Z</time></trkpt>
        <trkpt lat="29.5547157" lon="103.3453337"><ele>2178.11</ele><time>2026-06-13T06:02:20.000Z</time></trkpt>
        <trkpt lat="29.5547157" lon="103.3453337"><ele>2178.11</ele><time>2026-06-13T06:02:47.000Z</time></trkpt>
        <trkpt lat="29.5546282" lon="103.3453663"><ele>2180.64</ele><time>2026-06-13T06:02:48.000Z</time></trkpt>
        <trkpt lat="29.5546282" lon="103.3453663"><ele>2180.64</ele><time>2026-06-13T06:02:53.000Z</time></trkpt>
        <trkpt lat="29.5545391" lon="103.3453977"><ele>2185.51</ele><time>2026-06-13T06:03:17.000Z</time></trkpt>
        <trkpt lat="29.5545391" lon="103.3453977"><ele>2185.51</ele><time>2026-06-13T06:03:47.000Z</time></trkpt>
        <trkpt lat="29.5544426" lon="103.3454052"><ele>2189.94</ele><time>2026-06-13T06:03:56.000Z</time></trkpt>
        <trkpt lat="29.5544426" lon="103.3454052"><ele>2189.94</ele><time>2026-06-13T06:04:21.000Z</time></trkpt>
        <trkpt lat="29.5544426" lon="103.3454052"><ele>2189.94</ele><time>2026-06-13T06:04:41.000Z</time></trkpt>
        <trkpt lat="29.5543481" lon="103.3454205"><ele>2196.19</ele><time>2026-06-13T06:04:42.000Z</time></trkpt>
        <trkpt lat="29.5543481" lon="103.3454205"><ele>2196.19</ele><time>2026-06-13T06:06:03.000Z</time></trkpt>
        <trkpt lat="29.5542634" lon="103.3454684"><ele>2200.21</ele><time>2026-06-13T06:06:47.000Z</time></trkpt>
        <trkpt lat="29.5542634" lon="103.3454684"><ele>2200.21</ele><time>2026-06-13T06:07:31.000Z</time></trkpt>
        <trkpt lat="29.5541699" lon="103.3454955"><ele>2204.65</ele><time>2026-06-13T06:07:34.000Z</time></trkpt>
        <trkpt lat="29.5541699" lon="103.3454955"><ele>2204.65</ele><time>2026-06-13T06:07:37.000Z</time></trkpt>
        <trkpt lat="29.5541699" lon="103.3454955"><ele>2204.65</ele><time>2026-06-13T06:08:03.000Z</time></trkpt>
        <trkpt lat="29.554077" lon="103.3455142"><ele>2208.59</ele><time>2026-06-13T06:08:06.000Z</time></trkpt>
        <trkpt lat="29.554077" lon="103.3455142"><ele>2208.59</ele><time>2026-06-13T06:08:17.000Z</time></trkpt>
        <trkpt lat="29.5539839" lon="103.3454853"><ele>2215.49</ele><time>2026-06-13T06:08:41.000Z</time></trkpt>
        <trkpt lat="29.5539034" lon="103.3454261"><ele>2219.56</ele><time>2026-06-13T06:08:57.000Z</time></trkpt>
        <trkpt lat="29.5539034" lon="103.3454261"><ele>2219.56</ele><time>2026-06-13T06:09:39.000Z</time></trkpt>
        <trkpt lat="29.5538145" lon="103.3453945"><ele>2222.56</ele><time>2026-06-13T06:09:42.000Z</time></trkpt>
        <trkpt lat="29.5538145" lon="103.3453945"><ele>2222.56</ele><time>2026-06-13T06:09:45.000Z</time></trkpt>
        <trkpt lat="29.5537234" lon="103.3453526"><ele>2226.2</ele><time>2026-06-13T06:10:03.000Z</time></trkpt>
        <trkpt lat="29.5536246" lon="103.3453462"><ele>2228.3</ele><time>2026-06-13T06:10:29.000Z</time></trkpt>
        <trkpt lat="29.5535302" lon="103.34535"><ele>2231.81</ele><time>2026-06-13T06:10:53.000Z</time></trkpt>
        <trkpt lat="29.5534328" lon="103.3453607"><ele>2234.15</ele><time>2026-06-13T06:11:11.000Z</time></trkpt>
        <trkpt lat="29.5533324" lon="103.3453935"><ele>2237.71</ele><time>2026-06-13T06:11:43.000Z</time></trkpt>
        <trkpt lat="29.5532319" lon="103.3454171"><ele>2239.39</ele><time>2026-06-13T06:11:57.000Z</time></trkpt>
        <trkpt lat="29.5531291" lon="103.3454215"><ele>2240.74</ele><time>2026-06-13T06:12:09.000Z</time></trkpt>
        <trkpt lat="29.5530277" lon="103.3454159"><ele>2241.17</ele><time>2026-06-13T06:12:21.000Z</time></trkpt>
        <trkpt lat="29.5530277" lon="103.3454159"><ele>2241.17</ele><time>2026-06-13T06:12:39.000Z</time></trkpt>
        <trkpt lat="29.5529236" lon="103.3454132"><ele>2241.83</ele><time>2026-06-13T06:12:40.000Z</time></trkpt>
        <trkpt lat="29.5529236" lon="103.3454132"><ele>2241.83</ele><time>2026-06-13T06:12:47.000Z</time></trkpt>
        <trkpt lat="29.5528308" lon="103.3454416"><ele>2247.72</ele><time>2026-06-13T06:12:57.000Z</time></trkpt>
        <trkpt lat="29.55274" lon="103.345454"><ele>2249.64</ele><time>2026-06-13T06:13:07.000Z</time></trkpt>
        <trkpt lat="29.552646" lon="103.3454525"><ele>2250.41</ele><time>2026-06-13T06:13:17.000Z</time></trkpt>
        <trkpt lat="29.5525514" lon="103.3454771"><ele>2251.25</ele><time>2026-06-13T06:13:29.000Z</time></trkpt>
        <trkpt lat="29.5524568" lon="103.3454826"><ele>2252.24</ele><time>2026-06-13T06:13:45.000Z</time></trkpt>
        <trkpt lat="29.5524098" lon="103.3454066"><ele>2252.18</ele><time>2026-06-13T06:13:57.000Z</time></trkpt>
        <trkpt lat="29.5524219" lon="103.3452988"><ele>2250.64</ele><time>2026-06-13T06:14:11.000Z</time></trkpt>
        <trkpt lat="29.552363" lon="103.3452299"><ele>2250.44</ele><time>2026-06-13T06:14:29.000Z</time></trkpt>
        <trkpt lat="29.552277" lon="103.3451673"><ele>2251.19</ele><time>2026-06-13T06:14:43.000Z</time></trkpt>
        <trkpt lat="29.5521731" lon="103.3451482"><ele>2251.33</ele><time>2026-06-13T06:14:55.000Z</time></trkpt>
        <trkpt lat="29.5520853" lon="103.3451071"><ele>2250.77</ele><time>2026-06-13T06:15:05.000Z</time></trkpt>
        <trkpt lat="29.5520006" lon="103.3450604"><ele>2249.26</ele><time>2026-06-13T06:15:17.000Z</time></trkpt>
        <trkpt lat="29.5519876" lon="103.3449664"><ele>2247.11</ele><time>2026-06-13T06:15:35.000Z</time></trkpt>
        <trkpt lat="29.5519567" lon="103.3448583"><ele>2244.28</ele><time>2026-06-13T06:15:47.000Z</time></trkpt>
        <trkpt lat="29.5519053" lon="103.3447697"><ele>2242.71</ele><time>2026-06-13T06:15:57.000Z</time></trkpt>
        <trkpt lat="29.5518388" lon="103.344676"><ele>2241.4</ele><time>2026-06-13T06:16:07.000Z</time></trkpt>
        <trkpt lat="29.5517797" lon="103.3445798"><ele>2240.62</ele><time>2026-06-13T06:16:17.000Z</time></trkpt>
        <trkpt lat="29.551722" lon="103.3444943"><ele>2239.37</ele><time>2026-06-13T06:16:27.000Z</time></trkpt>
        <trkpt lat="29.5516578" lon="103.3444161"><ele>2239.04</ele><time>2026-06-13T06:16:39.000Z</time></trkpt>
        <trkpt lat="29.5516578" lon="103.3444161"><ele>2239.04</ele><time>2026-06-13T06:17:05.000Z</time></trkpt>
        <trkpt lat="29.5515981" lon="103.3443274"><ele>2239.65</ele><time>2026-06-13T06:17:08.000Z</time></trkpt>
        <trkpt lat="29.5515981" lon="103.3443274"><ele>2239.65</ele><time>2026-06-13T06:17:43.000Z</time></trkpt>
        <trkpt lat="29.5515173" lon="103.3442618"><ele>2243.16</ele><time>2026-06-13T06:18:07.000Z</time></trkpt>
        <trkpt lat="29.5514265" lon="103.3442113"><ele>2243.1</ele><time>2026-06-13T06:18:19.000Z</time></trkpt>
        <trkpt lat="29.5513245" lon="103.3441972"><ele>2241.91</ele><time>2026-06-13T06:18:31.000Z</time></trkpt>
        <trkpt lat="29.5512219" lon="103.3442027"><ele>2240.28</ele><time>2026-06-13T06:18:41.000Z</time></trkpt>
        <trkpt lat="29.5511174" lon="103.3442119"><ele>2240.14</ele><time>2026-06-13T06:18:53.000Z</time></trkpt>
        <trkpt lat="29.5510239" lon="103.3441735"><ele>2240.12</ele><time>2026-06-13T06:19:07.000Z</time></trkpt>
        <trkpt lat="29.5509183" lon="103.3441579"><ele>2240.1</ele><time>2026-06-13T06:19:17.000Z</time></trkpt>
        <trkpt lat="29.5508412" lon="103.3441463"><ele>2240</ele><time>2026-06-13T06:19:25.000Z</time></trkpt>
        <trkpt lat="29.5507504" lon="103.3441235"><ele>2240.83</ele><time>2026-06-13T06:20:03.000Z</time></trkpt>
        <trkpt lat="29.5507274" lon="103.3440225"><ele>2240.21</ele><time>2026-06-13T06:20:11.000Z</time></trkpt>
        <trkpt lat="29.5506582" lon="103.3439554"><ele>2237.11</ele><time>2026-06-13T06:20:27.000Z</time></trkpt>
        <trkpt lat="29.5505715" lon="103.3439006"><ele>2236.08</ele><time>2026-06-13T06:20:39.000Z</time></trkpt>
        <trkpt lat="29.5505081" lon="103.3438151"><ele>2236.47</ele><time>2026-06-13T06:20:49.000Z</time></trkpt>
        <trkpt lat="29.5504442" lon="103.3437266"><ele>2236.25</ele><time>2026-06-13T06:21:01.000Z</time></trkpt>
        <trkpt lat="29.5503751" lon="103.3436541"><ele>2236.73</ele><time>2026-06-13T06:21:09.000Z</time></trkpt>
        <trkpt lat="29.5503104" lon="103.3435748"><ele>2235.93</ele><time>2026-06-13T06:21:19.000Z</time></trkpt>
        <trkpt lat="29.5502628" lon="103.3434678"><ele>2236</ele><time>2026-06-13T06:21:29.000Z</time></trkpt>
        <trkpt lat="29.5502176" lon="103.3433539"><ele>2237.19</ele><time>2026-06-13T06:21:39.000Z</time></trkpt>
        <trkpt lat="29.5501522" lon="103.3432541"><ele>2236.97</ele><time>2026-06-13T06:21:47.000Z</time></trkpt>
        <trkpt lat="29.5500725" lon="103.3431836"><ele>2237.15</ele><time>2026-06-13T06:21:57.000Z</time></trkpt>
        <trkpt lat="29.5499964" lon="103.3431027"><ele>2237.14</ele><time>2026-06-13T06:22:09.000Z</time></trkpt>
        <trkpt lat="29.5499376" lon="103.3430175"><ele>2237.94</ele><time>2026-06-13T06:22:19.000Z</time></trkpt>
        <trkpt lat="29.549877" lon="103.3429214"><ele>2238.81</ele><time>2026-06-13T06:22:31.000Z</time></trkpt>
        <trkpt lat="29.549839" lon="103.3428624"><ele>2240.01</ele><time>2026-06-13T06:22:41.000Z</time></trkpt>
        <trkpt lat="29.5498174" lon="103.3427564"><ele>2239.78</ele><time>2026-06-13T06:23:45.000Z</time></trkpt>
        <trkpt lat="29.5497627" lon="103.3426533"><ele>2240.03</ele><time>2026-06-13T06:23:55.000Z</time></trkpt>
        <trkpt lat="29.5496932" lon="103.3425515"><ele>2240.84</ele><time>2026-06-13T06:24:05.000Z</time></trkpt>
        <trkpt lat="29.5496197" lon="103.3424707"><ele>2240.86</ele><time>2026-06-13T06:24:13.000Z</time></trkpt>
        <trkpt lat="29.5495433" lon="103.3423955"><ele>2241.85</ele><time>2026-06-13T06:24:25.000Z</time></trkpt>
        <trkpt lat="29.5494703" lon="103.3423099"><ele>2242.3</ele><time>2026-06-13T06:24:37.000Z</time></trkpt>
        <trkpt lat="29.5494014" lon="103.3422225"><ele>2242.81</ele><time>2026-06-13T06:24:47.000Z</time></trkpt>
        <trkpt lat="29.5493643" lon="103.3421243"><ele>2243.4</ele><time>2026-06-13T06:24:59.000Z</time></trkpt>
        <trkpt lat="29.5493438" lon="103.342009"><ele>2244.82</ele><time>2026-06-13T06:25:11.000Z</time></trkpt>
        <trkpt lat="29.5493244" lon="103.3419014"><ele>2245.91</ele><time>2026-06-13T06:25:21.000Z</time></trkpt>
        <trkpt lat="29.5493007" lon="103.3417901"><ele>2246.38</ele><time>2026-06-13T06:25:31.000Z</time></trkpt>
        <trkpt lat="29.5492671" lon="103.3416781"><ele>2247.27</ele><time>2026-06-13T06:25:43.000Z</time></trkpt>
        <trkpt lat="29.5492076" lon="103.3415796"><ele>2247.04</ele><time>2026-06-13T06:25:55.000Z</time></trkpt>
        <trkpt lat="29.5491821" lon="103.3414768"><ele>2244.25</ele><time>2026-06-13T06:26:07.000Z</time></trkpt>
        <trkpt lat="29.5491696" lon="103.3413738"><ele>2241.73</ele><time>2026-06-13T06:26:39.000Z</time></trkpt>
        <trkpt lat="29.5491168" lon="103.3412981"><ele>2241.52</ele><time>2026-06-13T06:27:09.000Z</time></trkpt>
        <trkpt lat="29.5490849" lon="103.3412063"><ele>2244.97</ele><time>2026-06-13T06:27:29.000Z</time></trkpt>
        <trkpt lat="29.5490102" lon="103.3411597"><ele>2249.04</ele><time>2026-06-13T06:27:55.000Z</time></trkpt>
        <trkpt lat="29.5490102" lon="103.3411597"><ele>2249.04</ele><time>2026-06-13T06:28:15.000Z</time></trkpt>
        <trkpt lat="29.5490102" lon="103.3411597"><ele>2249.04</ele><time>2026-06-13T06:28:24.000Z</time></trkpt>
        <trkpt lat="29.5490102" lon="103.3411597"><ele>2249.04</ele><time>2026-06-13T06:28:39.000Z</time></trkpt>
        <trkpt lat="29.5490102" lon="103.3411597"><ele>2249.04</ele><time>2026-06-13T06:29:00.000Z</time></trkpt>
        <trkpt lat="29.5490102" lon="103.3411597"><ele>2249.04</ele><time>2026-06-13T06:29:11.000Z</time></trkpt>
        <trkpt lat="29.5490102" lon="103.3411597"><ele>2249.04</ele><time>2026-06-13T06:29:24.000Z</time></trkpt>
        <trkpt lat="29.5490102" lon="103.3411597"><ele>2249.04</ele><time>2026-06-13T06:29:33.000Z</time></trkpt>
        <trkpt lat="29.5489002" lon="103.3411939"><ele>2251.73</ele><time>2026-06-13T06:29:56.000Z</time></trkpt>
        <trkpt lat="29.5489002" lon="103.3411939"><ele>2251.73</ele><time>2026-06-13T06:30:06.000Z</time></trkpt>
        <trkpt lat="29.5488091" lon="103.3411961"><ele>2255.38</ele><time>2026-06-13T06:30:28.000Z</time></trkpt>
        <trkpt lat="29.5488091" lon="103.3411961"><ele>2255.38</ele><time>2026-06-13T06:30:45.000Z</time></trkpt>
        <trkpt lat="29.5487193" lon="103.3412113"><ele>2259.04</ele><time>2026-06-13T06:30:50.000Z</time></trkpt>
        <trkpt lat="29.5487193" lon="103.3412113"><ele>2259.04</ele><time>2026-06-13T06:31:08.000Z</time></trkpt>
        <trkpt lat="29.5486238" lon="103.3412213"><ele>2262.18</ele><time>2026-06-13T06:31:40.000Z</time></trkpt>
        <trkpt lat="29.5486238" lon="103.3412213"><ele>2262.18</ele><time>2026-06-13T06:31:57.000Z</time></trkpt>
        <trkpt lat="29.5485279" lon="103.3412432"><ele>2266.23</ele><time>2026-06-13T06:31:58.000Z</time></trkpt>
        <trkpt lat="29.5485279" lon="103.3412432"><ele>2266.23</ele><time>2026-06-13T06:32:26.000Z</time></trkpt>
        <trkpt lat="29.5484355" lon="103.3412711"><ele>2268.71</ele><time>2026-06-13T06:33:00.000Z</time></trkpt>
        <trkpt lat="29.5484355" lon="103.3412711"><ele>2268.71</ele><time>2026-06-13T06:33:39.000Z</time></trkpt>
        <trkpt lat="29.5483419" lon="103.3412735"><ele>2271.01</ele><time>2026-06-13T06:33:44.000Z</time></trkpt>
        <trkpt lat="29.5483419" lon="103.3412735"><ele>2271.01</ele><time>2026-06-13T06:33:47.000Z</time></trkpt>
        <trkpt lat="29.5483419" lon="103.3412735"><ele>2271.01</ele><time>2026-06-13T06:34:09.000Z</time></trkpt>
        <trkpt lat="29.5482446" lon="103.3412526"><ele>2274.98</ele><time>2026-06-13T06:34:12.000Z</time></trkpt>
        <trkpt lat="29.5482446" lon="103.3412526"><ele>2274.98</ele><time>2026-06-13T06:34:26.000Z</time></trkpt>
        <trkpt lat="29.5481446" lon="103.341226"><ele>2278.92</ele><time>2026-06-13T06:34:56.000Z</time></trkpt>
        <trkpt lat="29.5480449" lon="103.3412243"><ele>2282.22</ele><time>2026-06-13T06:35:10.000Z</time></trkpt>
        <trkpt lat="29.5480449" lon="103.3412243"><ele>2282.22</ele><time>2026-06-13T06:35:27.000Z</time></trkpt>
        <trkpt lat="29.5480167" lon="103.3411174"><ele>2285.2</ele><time>2026-06-13T06:38:44.000Z</time></trkpt>
        <trkpt lat="29.5480167" lon="103.3411174"><ele>2285.2</ele><time>2026-06-13T06:38:47.000Z</time></trkpt>
        <trkpt lat="29.5480167" lon="103.3411174"><ele>2285.2</ele><time>2026-06-13T06:38:57.000Z</time></trkpt>
        <trkpt lat="29.5480261" lon="103.341223"><ele>2295.69</ele><time>2026-06-13T06:39:00.000Z</time></trkpt>
        <trkpt lat="29.5480261" lon="103.341223"><ele>2295.69</ele><time>2026-06-13T06:39:07.000Z</time></trkpt>
        <trkpt lat="29.5480261" lon="103.341223"><ele>2295.69</ele><time>2026-06-13T06:39:11.000Z</time></trkpt>
        <trkpt lat="29.5480261" lon="103.341223"><ele>2295.69</ele><time>2026-06-13T06:39:16.000Z</time></trkpt>
        <trkpt lat="29.5480261" lon="103.341223"><ele>2295.69</ele><time>2026-06-13T06:39:55.000Z</time></trkpt>
        <trkpt lat="29.5479322" lon="103.3412351"><ele>2300.06</ele><time>2026-06-13T06:40:08.000Z</time></trkpt>
        <trkpt lat="29.5479322" lon="103.3412351"><ele>2300.06</ele><time>2026-06-13T06:40:25.000Z</time></trkpt>
        <trkpt lat="29.5478752" lon="103.3411776"><ele>2299.71</ele><time>2026-06-13T06:40:35.000Z</time></trkpt>
        <trkpt lat="29.5477952" lon="103.3411376"><ele>2299</ele><time>2026-06-13T06:40:55.000Z</time></trkpt>
        <trkpt lat="29.5477082" lon="103.3411037"><ele>2297.54</ele><time>2026-06-13T06:41:05.000Z</time></trkpt>
        <trkpt lat="29.5476135" lon="103.341069"><ele>2296.87</ele><time>2026-06-13T06:41:19.000Z</time></trkpt>
        <trkpt lat="29.547517" lon="103.3410686"><ele>2297.78</ele><time>2026-06-13T06:41:43.000Z</time></trkpt>
        <trkpt lat="29.5474331" lon="103.3410226"><ele>2299.35</ele><time>2026-06-13T06:42:01.000Z</time></trkpt>
        <trkpt lat="29.5474376" lon="103.3408926"><ele>2299.95</ele><time>2026-06-13T06:43:03.000Z</time></trkpt>
        <trkpt lat="29.5473754" lon="103.3407806"><ele>2302.34</ele><time>2026-06-13T06:43:11.000Z</time></trkpt>
        <trkpt lat="29.5473038" lon="103.34069"><ele>2304.73</ele><time>2026-06-13T06:43:19.000Z</time></trkpt>
        <trkpt lat="29.5472319" lon="103.3406"><ele>2306.15</ele><time>2026-06-13T06:43:29.000Z</time></trkpt>
        <trkpt lat="29.5472345" lon="103.340561"><ele>2306.68</ele><time>2026-06-13T06:43:33.000Z</time></trkpt>
        <trkpt lat="29.5472161" lon="103.340485"><ele>2308.28</ele><time>2026-06-13T06:44:07.000Z</time></trkpt>
        <trkpt lat="29.5472161" lon="103.340485"><ele>2308.28</ele><time>2026-06-13T06:44:29.000Z</time></trkpt>
        <trkpt lat="29.5471632" lon="103.3404057"><ele>2309.98</ele><time>2026-06-13T06:44:32.000Z</time></trkpt>
        <trkpt lat="29.5471632" lon="103.3404057"><ele>2309.98</ele><time>2026-06-13T06:45:03.000Z</time></trkpt>
        <trkpt lat="29.5471845" lon="103.3403195"><ele>2312.06</ele><time>2026-06-13T06:45:41.000Z</time></trkpt>
        <trkpt lat="29.5471406" lon="103.3402484"><ele>2316.56</ele><time>2026-06-13T06:46:37.000Z</time></trkpt>
        <trkpt lat="29.5471406" lon="103.3402484"><ele>2316.56</ele><time>2026-06-13T06:47:07.000Z</time></trkpt>
        <trkpt lat="29.547161" lon="103.3401543"><ele>2319.05</ele><time>2026-06-13T06:47:18.000Z</time></trkpt>
        <trkpt lat="29.547161" lon="103.3401543"><ele>2319.05</ele><time>2026-06-13T06:48:09.000Z</time></trkpt>
        <trkpt lat="29.547161" lon="103.3401543"><ele>2319.05</ele><time>2026-06-13T06:48:19.000Z</time></trkpt>
        <trkpt lat="29.547161" lon="103.3401543"><ele>2319.05</ele><time>2026-06-13T06:48:22.000Z</time></trkpt>
        <trkpt lat="29.547161" lon="103.3401543"><ele>2319.05</ele><time>2026-06-13T06:48:35.000Z</time></trkpt>
        <trkpt lat="29.547161" lon="103.3401543"><ele>2319.05</ele><time>2026-06-13T06:48:36.000Z</time></trkpt>
        <trkpt lat="29.547161" lon="103.3401543"><ele>2319.05</ele><time>2026-06-13T06:49:25.000Z</time></trkpt>
        <trkpt lat="29.5471241" lon="103.3400586"><ele>2325.19</ele><time>2026-06-13T06:49:32.000Z</time></trkpt>
        <trkpt lat="29.5471241" lon="103.3400586"><ele>2325.19</ele><time>2026-06-13T06:49:57.000Z</time></trkpt>
        <trkpt lat="29.5470707" lon="103.3399751"><ele>2330.49</ele><time>2026-06-13T06:50:23.000Z</time></trkpt>
        <trkpt lat="29.5470707" lon="103.3399751"><ele>2330.49</ele><time>2026-06-13T06:50:51.000Z</time></trkpt>
        <trkpt lat="29.5470802" lon="103.3398728"><ele>2334.48</ele><time>2026-06-13T06:50:54.000Z</time></trkpt>
        <trkpt lat="29.5470802" lon="103.3398728"><ele>2334.48</ele><time>2026-06-13T06:51:16.000Z</time></trkpt>
        <trkpt lat="29.5470805" lon="103.3397691"><ele>2339.37</ele><time>2026-06-13T06:51:47.000Z</time></trkpt>
        <trkpt lat="29.5470461" lon="103.339675"><ele>2342.86</ele><time>2026-06-13T06:52:17.000Z</time></trkpt>
        <trkpt lat="29.5470461" lon="103.339675"><ele>2342.86</ele><time>2026-06-13T06:53:09.000Z</time></trkpt>
        <trkpt lat="29.5469504" lon="103.3396318"><ele>2345.6</ele><time>2026-06-13T06:53:28.000Z</time></trkpt>
        <trkpt lat="29.5469504" lon="103.3396318"><ele>2345.6</ele><time>2026-06-13T06:53:49.000Z</time></trkpt>
        <trkpt lat="29.5468969" lon="103.3395404"><ele>2349.15</ele><time>2026-06-13T06:54:17.000Z</time></trkpt>
        <trkpt lat="29.5468969" lon="103.3395404"><ele>2349.15</ele><time>2026-06-13T06:54:29.000Z</time></trkpt>
        <trkpt lat="29.5468969" lon="103.3395404"><ele>2349.15</ele><time>2026-06-13T06:54:32.000Z</time></trkpt>
        <trkpt lat="29.5468969" lon="103.3395404"><ele>2349.15</ele><time>2026-06-13T06:54:53.000Z</time></trkpt>
        <trkpt lat="29.54688" lon="103.3394388"><ele>2353.33</ele><time>2026-06-13T06:54:54.000Z</time></trkpt>
        <trkpt lat="29.54688" lon="103.3394388"><ele>2353.33</ele><time>2026-06-13T06:55:23.000Z</time></trkpt>
        <trkpt lat="29.54688" lon="103.3394388"><ele>2353.33</ele><time>2026-06-13T06:55:45.000Z</time></trkpt>
        <trkpt lat="29.5468111" lon="103.3393656"><ele>2358.51</ele><time>2026-06-13T06:55:52.000Z</time></trkpt>
        <trkpt lat="29.5468111" lon="103.3393656"><ele>2358.51</ele><time>2026-06-13T06:56:38.000Z</time></trkpt>
        <trkpt lat="29.5468111" lon="103.3393656"><ele>2358.51</ele><time>2026-06-13T06:57:13.000Z</time></trkpt>
        <trkpt lat="29.5468111" lon="103.3393656"><ele>2358.51</ele><time>2026-06-13T06:57:44.000Z</time></trkpt>
        <trkpt lat="29.5468111" lon="103.3393656"><ele>2358.51</ele><time>2026-06-13T06:57:53.000Z</time></trkpt>
        <trkpt lat="29.5468111" lon="103.3393656"><ele>2358.51</ele><time>2026-06-13T06:58:02.000Z</time></trkpt>
        <trkpt lat="29.5468111" lon="103.3393656"><ele>2358.51</ele><time>2026-06-13T06:58:15.000Z</time></trkpt>
        <trkpt lat="29.5468111" lon="103.3393656"><ele>2358.51</ele><time>2026-06-13T06:58:26.000Z</time></trkpt>
        <trkpt lat="29.5468111" lon="103.3393656"><ele>2358.51</ele><time>2026-06-13T06:59:03.000Z</time></trkpt>
        <trkpt lat="29.5468111" lon="103.3393656"><ele>2358.51</ele><time>2026-06-13T06:59:16.000Z</time></trkpt>
        <trkpt lat="29.5468111" lon="103.3393656"><ele>2358.51</ele><time>2026-06-13T06:59:27.000Z</time></trkpt>
        <trkpt lat="29.5467488" lon="103.3392892"><ele>2365.39</ele><time>2026-06-13T07:02:38.000Z</time></trkpt>
        <trkpt lat="29.5467488" lon="103.3392892"><ele>2365.39</ele><time>2026-06-13T07:03:12.000Z</time></trkpt>
        <trkpt lat="29.5466912" lon="103.3392063"><ele>2369.58</ele><time>2026-06-13T07:03:34.000Z</time></trkpt>
        <trkpt lat="29.5466305" lon="103.3391293"><ele>2372.27</ele><time>2026-06-13T07:04:04.000Z</time></trkpt>
        <trkpt lat="29.5465856" lon="103.3390336"><ele>2375.88</ele><time>2026-06-13T07:04:30.000Z</time></trkpt>
        <trkpt lat="29.5465236" lon="103.3389487"><ele>2379.44</ele><time>2026-06-13T07:05:26.000Z</time></trkpt>
        <trkpt lat="29.546478" lon="103.3388497"><ele>2382.88</ele><time>2026-06-13T07:05:48.000Z</time></trkpt>
        <trkpt lat="29.5463982" lon="103.3387988"><ele>2387.61</ele><time>2026-06-13T07:06:52.000Z</time></trkpt>
        <trkpt lat="29.5463982" lon="103.3387988"><ele>2387.61</ele><time>2026-06-13T07:07:13.000Z</time></trkpt>
        <trkpt lat="29.5463982" lon="103.3387988"><ele>2387.61</ele><time>2026-06-13T07:07:22.000Z</time></trkpt>
        <trkpt lat="29.5463982" lon="103.3387988"><ele>2387.61</ele><time>2026-06-13T07:07:41.000Z</time></trkpt>
        <trkpt lat="29.5463183" lon="103.3387473"><ele>2391.38</ele><time>2026-06-13T07:07:44.000Z</time></trkpt>
        <trkpt lat="29.5463183" lon="103.3387473"><ele>2391.38</ele><time>2026-06-13T07:08:09.000Z</time></trkpt>
        <trkpt lat="29.5462815" lon="103.3386428"><ele>2397.03</ele><time>2026-06-13T07:08:31.000Z</time></trkpt>
        <trkpt lat="29.546238" lon="103.3385452"><ele>2401.11</ele><time>2026-06-13T07:08:59.000Z</time></trkpt>
        <trkpt lat="29.5462034" lon="103.3384473"><ele>2404.44</ele><time>2026-06-13T07:09:25.000Z</time></trkpt>
        <trkpt lat="29.5462034" lon="103.3384473"><ele>2404.44</ele><time>2026-06-13T07:09:51.000Z</time></trkpt>
        <trkpt lat="29.5462034" lon="103.3384473"><ele>2404.44</ele><time>2026-06-13T07:09:54.000Z</time></trkpt>
        <trkpt lat="29.5462034" lon="103.3384473"><ele>2404.44</ele><time>2026-06-13T07:10:13.000Z</time></trkpt>
        <trkpt lat="29.5461768" lon="103.338336"><ele>2407.28</ele><time>2026-06-13T07:10:18.000Z</time></trkpt>
        <trkpt lat="29.5461768" lon="103.338336"><ele>2407.28</ele><time>2026-06-13T07:10:27.000Z</time></trkpt>
        <trkpt lat="29.5462009" lon="103.3382357"><ele>2409.92</ele><time>2026-06-13T07:10:49.000Z</time></trkpt>
        <trkpt lat="29.5462543" lon="103.3381517"><ele>2413.13</ele><time>2026-06-13T07:11:33.000Z</time></trkpt>
        <trkpt lat="29.5462726" lon="103.3380466"><ele>2417.79</ele><time>2026-06-13T07:11:53.000Z</time></trkpt>
        <trkpt lat="29.5462951" lon="103.3379438"><ele>2422.13</ele><time>2026-06-13T07:12:07.000Z</time></trkpt>
        <trkpt lat="29.5463544" lon="103.3378669"><ele>2424.21</ele><time>2026-06-13T07:12:23.000Z</time></trkpt>
        <trkpt lat="29.5464034" lon="103.3377698"><ele>2424.65</ele><time>2026-06-13T07:12:37.000Z</time></trkpt>
        <trkpt lat="29.5464233" lon="103.3376617"><ele>2424.73</ele><time>2026-06-13T07:12:51.000Z</time></trkpt>
        <trkpt lat="29.5464529" lon="103.3375498"><ele>2424.72</ele><time>2026-06-13T07:13:03.000Z</time></trkpt>
        <trkpt lat="29.5465096" lon="103.3374672"><ele>2424.54</ele><time>2026-06-13T07:13:13.000Z</time></trkpt>
        <trkpt lat="29.5465623" lon="103.3373795"><ele>2424.12</ele><time>2026-06-13T07:13:23.000Z</time></trkpt>
        <trkpt lat="29.5465923" lon="103.337275"><ele>2424.07</ele><time>2026-06-13T07:13:37.000Z</time></trkpt>
        <trkpt lat="29.5466228" lon="103.3371614"><ele>2424.69</ele><time>2026-06-13T07:14:05.000Z</time></trkpt>
        <trkpt lat="29.5466061" lon="103.3370554"><ele>2425.72</ele><time>2026-06-13T07:14:17.000Z</time></trkpt>
        <trkpt lat="29.546539" lon="103.3369756"><ele>2426.62</ele><time>2026-06-13T07:14:31.000Z</time></trkpt>
        <trkpt lat="29.5464681" lon="103.3368864"><ele>2426.79</ele><time>2026-06-13T07:14:45.000Z</time></trkpt>
        <trkpt lat="29.5464195" lon="103.3367839"><ele>2425.34</ele><time>2026-06-13T07:14:55.000Z</time></trkpt>
        <trkpt lat="29.5464141" lon="103.3367098"><ele>2425.49</ele><time>2026-06-13T07:15:07.000Z</time></trkpt>
        <trkpt lat="29.5464141" lon="103.3367098"><ele>2425.49</ele><time>2026-06-13T07:15:15.000Z</time></trkpt>
        <trkpt lat="29.5464104" lon="103.336614"><ele>2425.11</ele><time>2026-06-13T07:15:17.000Z</time></trkpt>
        <trkpt lat="29.5464104" lon="103.336614"><ele>2425.11</ele><time>2026-06-13T07:15:33.000Z</time></trkpt>
        <trkpt lat="29.5464416" lon="103.336517"><ele>2424.18</ele><time>2026-06-13T07:15:45.000Z</time></trkpt>
        <trkpt lat="29.546477" lon="103.3364176"><ele>2422.76</ele><time>2026-06-13T07:16:05.000Z</time></trkpt>
        <trkpt lat="29.54648" lon="103.3363127"><ele>2420.97</ele><time>2026-06-13T07:16:25.000Z</time></trkpt>
        <trkpt lat="29.5464874" lon="103.3362049"><ele>2417.67</ele><time>2026-06-13T07:16:37.000Z</time></trkpt>
        <trkpt lat="29.5465323" lon="103.3361085"><ele>2415.31</ele><time>2026-06-13T07:16:53.000Z</time></trkpt>
        <trkpt lat="29.5465798" lon="103.3359974"><ele>2412.31</ele><time>2026-06-13T07:17:23.000Z</time></trkpt>
        <trkpt lat="29.5466251" lon="103.3358842"><ele>2409.94</ele><time>2026-06-13T07:17:37.000Z</time></trkpt>
        <trkpt lat="29.5466583" lon="103.3357782"><ele>2407.3</ele><time>2026-06-13T07:17:47.000Z</time></trkpt>
        <trkpt lat="29.5466709" lon="103.3356601"><ele>2405.26</ele><time>2026-06-13T07:17:59.000Z</time></trkpt>
        <trkpt lat="29.5467021" lon="103.3355509"><ele>2403.69</ele><time>2026-06-13T07:18:11.000Z</time></trkpt>
        <trkpt lat="29.5467336" lon="103.3354458"><ele>2402.99</ele><time>2026-06-13T07:18:37.000Z</time></trkpt>
        <trkpt lat="29.5467554" lon="103.3353343"><ele>2402.35</ele><time>2026-06-13T07:18:49.000Z</time></trkpt>
        <trkpt lat="29.5467789" lon="103.3352261"><ele>2402.57</ele><time>2026-06-13T07:19:01.000Z</time></trkpt>
        <trkpt lat="29.5467769" lon="103.3351138"><ele>2403.27</ele><time>2026-06-13T07:19:15.000Z</time></trkpt>
        <trkpt lat="29.5467347" lon="103.3350094"><ele>2404.01</ele><time>2026-06-13T07:19:39.000Z</time></trkpt>
        <trkpt lat="29.5467182" lon="103.3349866"><ele>2403.43</ele><time>2026-06-13T07:19:43.000Z</time></trkpt>
        <trkpt lat="29.5467182" lon="103.3349866"><ele>2403.43</ele><time>2026-06-13T07:19:59.000Z</time></trkpt>
        <trkpt lat="29.5466446" lon="103.3349535"><ele>2402.83</ele><time>2026-06-13T07:20:06.000Z</time></trkpt>
        <trkpt lat="29.5466446" lon="103.3349535"><ele>2402.83</ele><time>2026-06-13T07:20:25.000Z</time></trkpt>
        <trkpt lat="29.5465693" lon="103.3348901"><ele>2403.34</ele><time>2026-06-13T07:20:35.000Z</time></trkpt>
        <trkpt lat="29.5464938" lon="103.3348239"><ele>2402.93</ele><time>2026-06-13T07:20:49.000Z</time></trkpt>
        <trkpt lat="29.5464059" lon="103.3347838"><ele>2403.24</ele><time>2026-06-13T07:21:07.000Z</time></trkpt>
        <trkpt lat="29.5463134" lon="103.334753"><ele>2403.76</ele><time>2026-06-13T07:21:51.000Z</time></trkpt>
        <trkpt lat="29.5462173" lon="103.3347584"><ele>2404.95</ele><time>2026-06-13T07:22:35.000Z</time></trkpt>
        <trkpt lat="29.5461168" lon="103.3347724"><ele>2407.41</ele><time>2026-06-13T07:22:49.000Z</time></trkpt>
        <trkpt lat="29.5460223" lon="103.3347605"><ele>2408.42</ele><time>2026-06-13T07:23:03.000Z</time></trkpt>
        <trkpt lat="29.5459274" lon="103.3347332"><ele>2407.87</ele><time>2026-06-13T07:23:21.000Z</time></trkpt>
        <trkpt lat="29.5458576" lon="103.3346541"><ele>2406.48</ele><time>2026-06-13T07:23:39.000Z</time></trkpt>
        <trkpt lat="29.5458006" lon="103.3345628"><ele>2402.93</ele><time>2026-06-13T07:23:51.000Z</time></trkpt>
        <trkpt lat="29.54572" lon="103.3345006"><ele>2400.28</ele><time>2026-06-13T07:24:05.000Z</time></trkpt>
        <trkpt lat="29.545629" lon="103.3344474"><ele>2397.75</ele><time>2026-06-13T07:24:17.000Z</time></trkpt>
        <trkpt lat="29.5455285" lon="103.3343951"><ele>2395.07</ele><time>2026-06-13T07:24:29.000Z</time></trkpt>
        <trkpt lat="29.5454432" lon="103.334336"><ele>2392.61</ele><time>2026-06-13T07:24:55.000Z</time></trkpt>
        <trkpt lat="29.5453556" lon="103.3342804"><ele>2391.97</ele><time>2026-06-13T07:25:13.000Z</time></trkpt>
        <trkpt lat="29.5452763" lon="103.334205"><ele>2391.32</ele><time>2026-06-13T07:25:27.000Z</time></trkpt>
        <trkpt lat="29.5452109" lon="103.334116"><ele>2391.6</ele><time>2026-06-13T07:25:44.000Z</time></trkpt>
        <trkpt lat="29.5451254" lon="103.3340578"><ele>2393.33</ele><time>2026-06-13T07:26:01.000Z</time></trkpt>
        <trkpt lat="29.5451254" lon="103.3340578"><ele>2393.33</ele><time>2026-06-13T07:26:33.000Z</time></trkpt>
        <trkpt lat="29.5450328" lon="103.3340281"><ele>2396.46</ele><time>2026-06-13T07:26:40.000Z</time></trkpt>
        <trkpt lat="29.5450328" lon="103.3340281"><ele>2396.46</ele><time>2026-06-13T07:26:55.000Z</time></trkpt>
        <trkpt lat="29.5449406" lon="103.3340383"><ele>2401.23</ele><time>2026-06-13T07:27:05.000Z</time></trkpt>
        <trkpt lat="29.5448503" lon="103.3340675"><ele>2403.61</ele><time>2026-06-13T07:27:17.000Z</time></trkpt>
        <trkpt lat="29.544782" lon="103.3341472"><ele>2402.85</ele><time>2026-06-13T07:27:27.000Z</time></trkpt>
        <trkpt lat="29.5447091" lon="103.3342166"><ele>2401.63</ele><time>2026-06-13T07:27:37.000Z</time></trkpt>
        <trkpt lat="29.5446308" lon="103.3342821"><ele>2400.98</ele><time>2026-06-13T07:27:47.000Z</time></trkpt>
        <trkpt lat="29.5445356" lon="103.3342716"><ele>2402.26</ele><time>2026-06-13T07:27:57.000Z</time></trkpt>
        <trkpt lat="29.5444418" lon="103.3342307"><ele>2402.04</ele><time>2026-06-13T07:28:07.000Z</time></trkpt>
        <trkpt lat="29.5443432" lon="103.3341911"><ele>2399.41</ele><time>2026-06-13T07:28:19.000Z</time></trkpt>
        <trkpt lat="29.5442413" lon="103.3341609"><ele>2397.85</ele><time>2026-06-13T07:28:31.000Z</time></trkpt>
        <trkpt lat="29.5441477" lon="103.3341372"><ele>2398.06</ele><time>2026-06-13T07:28:41.000Z</time></trkpt>
        <trkpt lat="29.5440538" lon="103.3340921"><ele>2398.57</ele><time>2026-06-13T07:28:53.000Z</time></trkpt>
        <trkpt lat="29.5439677" lon="103.3340264"><ele>2398.81</ele><time>2026-06-13T07:29:05.000Z</time></trkpt>
        <trkpt lat="29.5438985" lon="103.3339316"><ele>2398.85</ele><time>2026-06-13T07:29:17.000Z</time></trkpt>
        <trkpt lat="29.5438084" lon="103.3339099"><ele>2399.14</ele><time>2026-06-13T07:29:31.000Z</time></trkpt>
        <trkpt lat="29.5437121" lon="103.3339196"><ele>2399.17</ele><time>2026-06-13T07:29:43.000Z</time></trkpt>
        <trkpt lat="29.5436308" lon="103.3338804"><ele>2398.79</ele><time>2026-06-13T07:29:53.000Z</time></trkpt>
        <trkpt lat="29.5435631" lon="103.3338006"><ele>2398.94</ele><time>2026-06-13T07:30:05.000Z</time></trkpt>
        <trkpt lat="29.5434923" lon="103.333707"><ele>2398.99</ele><time>2026-06-13T07:30:17.000Z</time></trkpt>
        <trkpt lat="29.543473" lon="103.3336672"><ele>2399.69</ele><time>2026-06-13T07:30:21.000Z</time></trkpt>
        <trkpt lat="29.5434209" lon="103.3336135"><ele>2400.21</ele><time>2026-06-13T07:31:15.000Z</time></trkpt>
        <trkpt lat="29.543386" lon="103.3335177"><ele>2397.12</ele><time>2026-06-13T07:31:27.000Z</time></trkpt>
        <trkpt lat="29.5433623" lon="103.3334077"><ele>2394.88</ele><time>2026-06-13T07:31:35.000Z</time></trkpt>
        <trkpt lat="29.5433255" lon="103.3332979"><ele>2393.22</ele><time>2026-06-13T07:31:45.000Z</time></trkpt>
        <trkpt lat="29.543295" lon="103.333191"><ele>2392.94</ele><time>2026-06-13T07:31:59.000Z</time></trkpt>
        <trkpt lat="29.5432421" lon="103.3330997"><ele>2392.35</ele><time>2026-06-13T07:32:11.000Z</time></trkpt>
        <trkpt lat="29.5431787" lon="103.3330079"><ele>2391.92</ele><time>2026-06-13T07:32:29.000Z</time></trkpt>
        <trkpt lat="29.5430837" lon="103.3329591"><ele>2391.46</ele><time>2026-06-13T07:32:41.000Z</time></trkpt>
        <trkpt lat="29.5429822" lon="103.3329447"><ele>2392.3</ele><time>2026-06-13T07:32:53.000Z</time></trkpt>
        <trkpt lat="29.5428903" lon="103.3329036"><ele>2393.69</ele><time>2026-06-13T07:33:03.000Z</time></trkpt>
        <trkpt lat="29.5428254" lon="103.3328219"><ele>2394.21</ele><time>2026-06-13T07:33:15.000Z</time></trkpt>
        <trkpt lat="29.5427739" lon="103.3327237"><ele>2393.29</ele><time>2026-06-13T07:33:27.000Z</time></trkpt>
        <trkpt lat="29.5427105" lon="103.3326421"><ele>2393.06</ele><time>2026-06-13T07:33:39.000Z</time></trkpt>
        <trkpt lat="29.5426235" lon="103.3326041"><ele>2393.52</ele><time>2026-06-13T07:33:49.000Z</time></trkpt>
        <trkpt lat="29.5425553" lon="103.3325354"><ele>2393.51</ele><time>2026-06-13T07:33:59.000Z</time></trkpt>
        <trkpt lat="29.5425288" lon="103.3324311"><ele>2393.77</ele><time>2026-06-13T07:34:11.000Z</time></trkpt>
        <trkpt lat="29.5424792" lon="103.332332"><ele>2394.56</ele><time>2026-06-13T07:34:27.000Z</time></trkpt>
        <trkpt lat="29.5424449" lon="103.3322296"><ele>2394.93</ele><time>2026-06-13T07:34:43.000Z</time></trkpt>
        <trkpt lat="29.5424002" lon="103.3321326"><ele>2396.12</ele><time>2026-06-13T07:34:56.000Z</time></trkpt>
        <trkpt lat="29.5423206" lon="103.3320632"><ele>2395.62</ele><time>2026-06-13T07:35:29.000Z</time></trkpt>
        <trkpt lat="29.5422364" lon="103.3320012"><ele>2394.4</ele><time>2026-06-13T07:35:39.000Z</time></trkpt>
        <trkpt lat="29.5421907" lon="103.3319838"><ele>2394.3</ele><time>2026-06-13T07:35:44.000Z</time></trkpt>
        <trkpt lat="29.5421125" lon="103.3319922"><ele>2394.12</ele><time>2026-06-13T07:36:08.000Z</time></trkpt>
        <trkpt lat="29.5420407" lon="103.3320566"><ele>2393.37</ele><time>2026-06-13T07:36:26.000Z</time></trkpt>
        <trkpt lat="29.5419416" lon="103.3320814"><ele>2392.16</ele><time>2026-06-13T07:36:40.000Z</time></trkpt>
        <trkpt lat="29.5418419" lon="103.3320793"><ele>2391.85</ele><time>2026-06-13T07:36:50.000Z</time></trkpt>
        <trkpt lat="29.5417459" lon="103.332077"><ele>2391.25</ele><time>2026-06-13T07:37:02.000Z</time></trkpt>
        <trkpt lat="29.5417013" lon="103.3319907"><ele>2390.93</ele><time>2026-06-13T07:37:18.000Z</time></trkpt>
        <trkpt lat="29.5417426" lon="103.3318916"><ele>2389.76</ele><time>2026-06-13T07:37:28.000Z</time></trkpt>
        <trkpt lat="29.5418043" lon="103.3317943"><ele>2389.1</ele><time>2026-06-13T07:37:38.000Z</time></trkpt>
        <trkpt lat="29.5418245" lon="103.3316833"><ele>2388.61</ele><time>2026-06-13T07:37:50.000Z</time></trkpt>
        <trkpt lat="29.5417764" lon="103.3315921"><ele>2388.64</ele><time>2026-06-13T07:38:06.000Z</time></trkpt>
        <trkpt lat="29.5416768" lon="103.3315666"><ele>2389.34</ele><time>2026-06-13T07:38:18.000Z</time></trkpt>
        <trkpt lat="29.541564" lon="103.3315887"><ele>2390.36</ele><time>2026-06-13T07:38:30.000Z</time></trkpt>
        <trkpt lat="29.5414634" lon="103.3316293"><ele>2391.4</ele><time>2026-06-13T07:38:40.000Z</time></trkpt>
        <trkpt lat="29.5413785" lon="103.3315839"><ele>2392.12</ele><time>2026-06-13T07:38:50.000Z</time></trkpt>
        <trkpt lat="29.5413059" lon="103.3314973"><ele>2392.74</ele><time>2026-06-13T07:39:00.000Z</time></trkpt>
        <trkpt lat="29.5412292" lon="103.3314166"><ele>2393.38</ele><time>2026-06-13T07:39:10.000Z</time></trkpt>
        <trkpt lat="29.5411446" lon="103.3313407"><ele>2394.16</ele><time>2026-06-13T07:39:20.000Z</time></trkpt>
        <trkpt lat="29.5410639" lon="103.3312581"><ele>2394.44</ele><time>2026-06-13T07:39:30.000Z</time></trkpt>
        <trkpt lat="29.5409922" lon="103.331186"><ele>2397.13</ele><time>2026-06-13T07:39:38.000Z</time></trkpt>
        <trkpt lat="29.5409165" lon="103.3311272"><ele>2399.72</ele><time>2026-06-13T07:39:46.000Z</time></trkpt>
        <trkpt lat="29.5408456" lon="103.3310642"><ele>2401.23</ele><time>2026-06-13T07:39:56.000Z</time></trkpt>
        <trkpt lat="29.5407841" lon="103.3309836"><ele>2402.14</ele><time>2026-06-13T07:40:06.000Z</time></trkpt>
        <trkpt lat="29.5406924" lon="103.3309519"><ele>2401.03</ele><time>2026-06-13T07:40:18.000Z</time></trkpt>
        <trkpt lat="29.5406211" lon="103.331016"><ele>2400.16</ele><time>2026-06-13T07:40:26.000Z</time></trkpt>
        <trkpt lat="29.5405341" lon="103.3310451"><ele>2401.27</ele><time>2026-06-13T07:40:40.000Z</time></trkpt>
        <trkpt lat="29.5404434" lon="103.331056"><ele>2402.66</ele><time>2026-06-13T07:40:54.000Z</time></trkpt>
        <trkpt lat="29.5403449" lon="103.3310519"><ele>2402.32</ele><time>2026-06-13T07:41:10.000Z</time></trkpt>
        <trkpt lat="29.5403449" lon="103.3310519"><ele>2402.32</ele><time>2026-06-13T07:41:45.000Z</time></trkpt>
        <trkpt lat="29.5403866" lon="103.3310839"><ele>2401.96</ele><time>2026-06-13T07:41:54.000Z</time></trkpt>
        <trkpt lat="29.5403866" lon="103.3310839"><ele>2401.96</ele><time>2026-06-13T07:41:59.000Z</time></trkpt>
        <trkpt lat="29.5403866" lon="103.3310839"><ele>2401.96</ele><time>2026-06-13T07:42:05.000Z</time></trkpt>
        <trkpt lat="29.5403832" lon="103.3310242"><ele>2401.61</ele><time>2026-06-13T07:42:10.000Z</time></trkpt>
        <trkpt lat="29.5403832" lon="103.3310242"><ele>2401.61</ele><time>2026-06-13T07:42:33.000Z</time></trkpt>
        <trkpt lat="29.5403832" lon="103.3310242"><ele>2401.61</ele><time>2026-06-13T07:44:27.000Z</time></trkpt>
        <trkpt lat="29.5403832" lon="103.3310242"><ele>2401.61</ele><time>2026-06-13T07:44:40.000Z</time></trkpt>
        <trkpt lat="29.5403832" lon="103.3310242"><ele>2401.61</ele><time>2026-06-13T07:44:50.000Z</time></trkpt>
      </trkseg>
      <trkseg>
        <trkpt lat="29.5404488" lon="103.3309892"><ele>2392.17</ele><time>2026-06-13T12:28:12.000Z</time></trkpt>
        <trkpt lat="29.5404592" lon="103.3310124"><ele>2392.17</ele><time>2026-06-13T12:28:14.000Z</time></trkpt>
        <trkpt lat="29.5404592" lon="103.3310124"><ele>2392.17</ele><time>2026-06-13T12:28:17.000Z</time></trkpt>
        <trkpt lat="29.5405384" lon="103.3310191"><ele>2391.93</ele><time>2026-06-13T12:28:24.000Z</time></trkpt>
        <trkpt lat="29.5405384" lon="103.3310191"><ele>2391.93</ele><time>2026-06-13T12:28:36.000Z</time></trkpt>
        <trkpt lat="29.5406382" lon="103.3309899"><ele>2393.06</ele><time>2026-06-13T12:28:50.000Z</time></trkpt>
        <trkpt lat="29.5407445" lon="103.3309781"><ele>2394.14</ele><time>2026-06-13T12:28:58.000Z</time></trkpt>
        <trkpt lat="29.54082" lon="103.3310403"><ele>2394</ele><time>2026-06-13T12:29:06.000Z</time></trkpt>
        <trkpt lat="29.5408824" lon="103.3311346"><ele>2392.99</ele><time>2026-06-13T12:29:14.000Z</time></trkpt>
        <trkpt lat="29.5409647" lon="103.3312134"><ele>2391.81</ele><time>2026-06-13T12:29:24.000Z</time></trkpt>
        <trkpt lat="29.5410505" lon="103.3312711"><ele>2390.79</ele><time>2026-06-13T12:29:32.000Z</time></trkpt>
        <trkpt lat="29.5411419" lon="103.3313268"><ele>2390.34</ele><time>2026-06-13T12:29:40.000Z</time></trkpt>
        <trkpt lat="29.5412278" lon="103.3313863"><ele>2389.98</ele><time>2026-06-13T12:29:48.000Z</time></trkpt>
        <trkpt lat="29.5413075" lon="103.3314494"><ele>2389.86</ele><time>2026-06-13T12:29:58.000Z</time></trkpt>
        <trkpt lat="29.5413156" lon="103.3315524"><ele>2389.88</ele><time>2026-06-13T12:30:08.000Z</time></trkpt>
        <trkpt lat="29.5412755" lon="103.3316561"><ele>2389.52</ele><time>2026-06-13T12:30:16.000Z</time></trkpt>
        <trkpt lat="29.5412153" lon="103.331757"><ele>2389.73</ele><time>2026-06-13T12:30:24.000Z</time></trkpt>
        <trkpt lat="29.5411243" lon="103.3318138"><ele>2390.93</ele><time>2026-06-13T12:30:34.000Z</time></trkpt>
        <trkpt lat="29.5410173" lon="103.3318318"><ele>2390.97</ele><time>2026-06-13T12:30:56.000Z</time></trkpt>
        <trkpt lat="29.5409166" lon="103.3318172"><ele>2391.54</ele><time>2026-06-13T12:31:10.000Z</time></trkpt>
        <trkpt lat="29.5408281" lon="103.3317678"><ele>2392.79</ele><time>2026-06-13T12:31:20.000Z</time></trkpt>
        <trkpt lat="29.5407365" lon="103.3317342"><ele>2392.94</ele><time>2026-06-13T12:31:32.000Z</time></trkpt>
        <trkpt lat="29.5406471" lon="103.3317473"><ele>2393.43</ele><time>2026-06-13T12:31:42.000Z</time></trkpt>
        <trkpt lat="29.5405741" lon="103.3318091"><ele>2393.95</ele><time>2026-06-13T12:31:50.000Z</time></trkpt>
        <trkpt lat="29.5404843" lon="103.3318655"><ele>2394.69</ele><time>2026-06-13T12:32:00.000Z</time></trkpt>
        <trkpt lat="29.5404597" lon="103.331871"><ele>2394.94</ele><time>2026-06-13T12:32:02.000Z</time></trkpt>
        <trkpt lat="29.5403852" lon="103.3318932"><ele>2394.7</ele><time>2026-06-13T12:32:22.000Z</time></trkpt>
        <trkpt lat="29.540342" lon="103.3319096"><ele>2396.33</ele><time>2026-06-13T12:32:26.000Z</time></trkpt>
        <trkpt lat="29.5402731" lon="103.3319525"><ele>2397.01</ele><time>2026-06-13T12:32:36.000Z</time></trkpt>
        <trkpt lat="29.5402191" lon="103.3320403"><ele>2396.45</ele><time>2026-06-13T12:32:48.000Z</time></trkpt>
        <trkpt lat="29.5401496" lon="103.332122"><ele>2397.3</ele><time>2026-06-13T12:32:58.000Z</time></trkpt>
        <trkpt lat="29.5400574" lon="103.3321823"><ele>2398.5</ele><time>2026-06-13T12:33:08.000Z</time></trkpt>
        <trkpt lat="29.539972" lon="103.3322342"><ele>2400.38</ele><time>2026-06-13T12:33:18.000Z</time></trkpt>
        <trkpt lat="29.5399363" lon="103.3322566"><ele>2400.72</ele><time>2026-06-13T12:33:24.000Z</time></trkpt>
        <trkpt lat="29.5399363" lon="103.3322566"><ele>2400.72</ele><time>2026-06-13T12:33:31.000Z</time></trkpt>
        <trkpt lat="29.5399363" lon="103.3322566"><ele>2400.72</ele><time>2026-06-13T12:33:34.000Z</time></trkpt>
        <trkpt lat="29.5399363" lon="103.3322566"><ele>2400.72</ele><time>2026-06-13T12:33:51.000Z</time></trkpt>
        <trkpt lat="29.5398522" lon="103.3322745"><ele>2399.55</ele><time>2026-06-13T12:34:02.000Z</time></trkpt>
        <trkpt lat="29.5398522" lon="103.3322745"><ele>2399.55</ele><time>2026-06-13T12:34:11.000Z</time></trkpt>
        <trkpt lat="29.5397648" lon="103.3323221"><ele>2400.85</ele><time>2026-06-13T12:34:21.000Z</time></trkpt>
        <trkpt lat="29.5396875" lon="103.3323999"><ele>2400.7</ele><time>2026-06-13T12:34:31.000Z</time></trkpt>
        <trkpt lat="29.5396023" lon="103.3324499"><ele>2400.34</ele><time>2026-06-13T12:34:43.000Z</time></trkpt>
        <trkpt lat="29.5395337" lon="103.3325179"><ele>2401.06</ele><time>2026-06-13T12:34:57.000Z</time></trkpt>
        <trkpt lat="29.5395337" lon="103.3325179"><ele>2401.06</ele><time>2026-06-13T12:35:29.000Z</time></trkpt>
        <trkpt lat="29.539455" lon="103.3325904"><ele>2402.99</ele><time>2026-06-13T12:35:36.000Z</time></trkpt>
        <trkpt lat="29.539455" lon="103.3325904"><ele>2402.99</ele><time>2026-06-13T12:36:01.000Z</time></trkpt>
        <trkpt lat="29.5393826" lon="103.3326532"><ele>2405.08</ele><time>2026-06-13T12:36:15.000Z</time></trkpt>
        <trkpt lat="29.5393165" lon="103.3327288"><ele>2407.09</ele><time>2026-06-13T12:36:25.000Z</time></trkpt>
        <trkpt lat="29.5392386" lon="103.3328029"><ele>2409.66</ele><time>2026-06-13T12:36:37.000Z</time></trkpt>
        <trkpt lat="29.5391493" lon="103.332865"><ele>2411.79</ele><time>2026-06-13T12:36:49.000Z</time></trkpt>
        <trkpt lat="29.5390665" lon="103.3329266"><ele>2413.39</ele><time>2026-06-13T12:37:00.000Z</time></trkpt>
        <trkpt lat="29.5389849" lon="103.3329958"><ele>2414.53</ele><time>2026-06-13T12:37:15.000Z</time></trkpt>
        <trkpt lat="29.5388965" lon="103.3330662"><ele>2415.53</ele><time>2026-06-13T12:37:25.000Z</time></trkpt>
        <trkpt lat="29.5387982" lon="103.3331079"><ele>2417.51</ele><time>2026-06-13T12:37:35.000Z</time></trkpt>
        <trkpt lat="29.5387012" lon="103.3331452"><ele>2418.15</ele><time>2026-06-13T12:37:45.000Z</time></trkpt>
        <trkpt lat="29.5385984" lon="103.3331743"><ele>2418.7</ele><time>2026-06-13T12:37:57.000Z</time></trkpt>
        <trkpt lat="29.5384959" lon="103.3332054"><ele>2419.62</ele><time>2026-06-13T12:38:09.000Z</time></trkpt>
        <trkpt lat="29.538394" lon="103.3332351"><ele>2420.16</ele><time>2026-06-13T12:38:21.000Z</time></trkpt>
        <trkpt lat="29.5382929" lon="103.3332553"><ele>2420.16</ele><time>2026-06-13T12:38:33.000Z</time></trkpt>
        <trkpt lat="29.5382102" lon="103.3333098"><ele>2419.62</ele><time>2026-06-13T12:38:43.000Z</time></trkpt>
        <trkpt lat="29.538129" lon="103.3333708"><ele>2419.54</ele><time>2026-06-13T12:38:53.000Z</time></trkpt>
        <trkpt lat="29.5380482" lon="103.3334225"><ele>2419.62</ele><time>2026-06-13T12:39:01.000Z</time></trkpt>
        <trkpt lat="29.5379642" lon="103.333461"><ele>2420.88</ele><time>2026-06-13T12:39:09.000Z</time></trkpt>
        <trkpt lat="29.5378744" lon="103.3335135"><ele>2421.61</ele><time>2026-06-13T12:39:19.000Z</time></trkpt>
        <trkpt lat="29.5378394" lon="103.3335322"><ele>2421.8</ele><time>2026-06-13T12:39:26.000Z</time></trkpt>
        <trkpt lat="29.5377779" lon="103.3335728"><ele>2422.64</ele><time>2026-06-13T12:39:38.000Z</time></trkpt>
        <trkpt lat="29.5377073" lon="103.3336362"><ele>2422.93</ele><time>2026-06-13T12:39:48.000Z</time></trkpt>
        <trkpt lat="29.5376424" lon="103.3337173"><ele>2423.53</ele><time>2026-06-13T12:40:02.000Z</time></trkpt>
        <trkpt lat="29.5375564" lon="103.3337657"><ele>2424.71</ele><time>2026-06-13T12:40:14.000Z</time></trkpt>
        <trkpt lat="29.5374636" lon="103.3337532"><ele>2425.94</ele><time>2026-06-13T12:40:24.000Z</time></trkpt>
        <trkpt lat="29.5373623" lon="103.3337511"><ele>2425.85</ele><time>2026-06-13T12:40:36.000Z</time></trkpt>
        <trkpt lat="29.5372877" lon="103.3338046"><ele>2426.99</ele><time>2026-06-13T12:40:48.000Z</time></trkpt>
        <trkpt lat="29.5372388" lon="103.3338975"><ele>2429.52</ele><time>2026-06-13T12:41:04.000Z</time></trkpt>
        <trkpt lat="29.5372227" lon="103.334008"><ele>2433.71</ele><time>2026-06-13T12:41:38.000Z</time></trkpt>
        <trkpt lat="29.5372227" lon="103.334008"><ele>2433.71</ele><time>2026-06-13T12:42:07.000Z</time></trkpt>
        <trkpt lat="29.5371822" lon="103.3341505"><ele>2437.7</ele><time>2026-06-13T12:42:50.000Z</time></trkpt>
        <trkpt lat="29.5371822" lon="103.3341505"><ele>2437.7</ele><time>2026-06-13T12:42:55.000Z</time></trkpt>
        <trkpt lat="29.5370897" lon="103.3341618"><ele>2440.96</ele><time>2026-06-13T12:43:09.000Z</time></trkpt>
        <trkpt lat="29.5370074" lon="103.3342101"><ele>2442.67</ele><time>2026-06-13T12:43:25.000Z</time></trkpt>
        <trkpt lat="29.5369182" lon="103.3342435"><ele>2444.25</ele><time>2026-06-13T12:43:39.000Z</time></trkpt>
        <trkpt lat="29.5369182" lon="103.3342435"><ele>2444.25</ele><time>2026-06-13T12:44:03.000Z</time></trkpt>
        <trkpt lat="29.5368341" lon="103.3342902"><ele>2445.62</ele><time>2026-06-13T12:44:10.000Z</time></trkpt>
        <trkpt lat="29.5368341" lon="103.3342902"><ele>2445.62</ele><time>2026-06-13T12:44:33.000Z</time></trkpt>
        <trkpt lat="29.5367422" lon="103.3343234"><ele>2447.86</ele><time>2026-06-13T12:44:49.000Z</time></trkpt>
        <trkpt lat="29.5366441" lon="103.3343578"><ele>2449.04</ele><time>2026-06-13T12:44:59.000Z</time></trkpt>
        <trkpt lat="29.5365449" lon="103.3343651"><ele>2450.1</ele><time>2026-06-13T12:45:09.000Z</time></trkpt>
        <trkpt lat="29.5364461" lon="103.3343511"><ele>2449.5</ele><time>2026-06-13T12:45:19.000Z</time></trkpt>
        <trkpt lat="29.5363535" lon="103.3343462"><ele>2448.62</ele><time>2026-06-13T12:45:31.000Z</time></trkpt>
        <trkpt lat="29.5362572" lon="103.3343456"><ele>2448.2</ele><time>2026-06-13T12:45:49.000Z</time></trkpt>
        <trkpt lat="29.5361688" lon="103.3343082"><ele>2449.33</ele><time>2026-06-13T12:46:03.000Z</time></trkpt>
        <trkpt lat="29.5360775" lon="103.3342645"><ele>2450.81</ele><time>2026-06-13T12:46:25.000Z</time></trkpt>
        <trkpt lat="29.5359978" lon="103.3342079"><ele>2452.51</ele><time>2026-06-13T12:46:45.000Z</time></trkpt>
        <trkpt lat="29.535915" lon="103.3341468"><ele>2455.15</ele><time>2026-06-13T12:47:29.000Z</time></trkpt>
        <trkpt lat="29.5358269" lon="103.3341028"><ele>2457.66</ele><time>2026-06-13T12:47:45.000Z</time></trkpt>
        <trkpt lat="29.5357439" lon="103.3340583"><ele>2460.33</ele><time>2026-06-13T12:47:55.000Z</time></trkpt>
        <trkpt lat="29.5356548" lon="103.3340091"><ele>2463.05</ele><time>2026-06-13T12:48:05.000Z</time></trkpt>
        <trkpt lat="29.5355793" lon="103.3339417"><ele>2464.77</ele><time>2026-06-13T12:48:19.000Z</time></trkpt>
        <trkpt lat="29.5355793" lon="103.3339417"><ele>2464.77</ele><time>2026-06-13T12:48:31.000Z</time></trkpt>
        <trkpt lat="29.5355347" lon="103.3338426"><ele>2465.34</ele><time>2026-06-13T12:48:34.000Z</time></trkpt>
        <trkpt lat="29.5355347" lon="103.3338426"><ele>2465.34</ele><time>2026-06-13T12:49:11.000Z</time></trkpt>
        <trkpt lat="29.5354702" lon="103.3337541"><ele>2468.65</ele><time>2026-06-13T12:49:29.000Z</time></trkpt>
        <trkpt lat="29.5354071" lon="103.3336652"><ele>2470.83</ele><time>2026-06-13T12:49:39.000Z</time></trkpt>
        <trkpt lat="29.5353544" lon="103.3335763"><ele>2472.33</ele><time>2026-06-13T12:49:49.000Z</time></trkpt>
        <trkpt lat="29.5352992" lon="103.3334895"><ele>2473.96</ele><time>2026-06-13T12:50:03.000Z</time></trkpt>
        <trkpt lat="29.5352554" lon="103.3333934"><ele>2475.25</ele><time>2026-06-13T12:50:19.000Z</time></trkpt>
        <trkpt lat="29.5352554" lon="103.3333934"><ele>2475.25</ele><time>2026-06-13T12:51:11.000Z</time></trkpt>
        <trkpt lat="29.5352374" lon="103.3332875"><ele>2476.74</ele><time>2026-06-13T12:51:26.000Z</time></trkpt>
        <trkpt lat="29.5352374" lon="103.3332875"><ele>2476.74</ele><time>2026-06-13T12:51:33.000Z</time></trkpt>
        <trkpt lat="29.5351956" lon="103.3331901"><ele>2479.31</ele><time>2026-06-13T12:51:57.000Z</time></trkpt>
        <trkpt lat="29.5351706" lon="103.3330854"><ele>2481.73</ele><time>2026-06-13T12:52:29.000Z</time></trkpt>
        <trkpt lat="29.5351706" lon="103.3330854"><ele>2481.73</ele><time>2026-06-13T12:52:43.000Z</time></trkpt>
        <trkpt lat="29.5351191" lon="103.3329962"><ele>2484</ele><time>2026-06-13T12:52:50.000Z</time></trkpt>
        <trkpt lat="29.5351191" lon="103.3329962"><ele>2484</ele><time>2026-06-13T12:53:07.000Z</time></trkpt>
        <trkpt lat="29.5350617" lon="103.3329116"><ele>2488.6</ele><time>2026-06-13T12:53:23.000Z</time></trkpt>
        <trkpt lat="29.5349864" lon="103.332848"><ele>2491.26</ele><time>2026-06-13T12:53:35.000Z</time></trkpt>
        <trkpt lat="29.5348971" lon="103.3328307"><ele>2494.31</ele><time>2026-06-13T12:53:45.000Z</time></trkpt>
        <trkpt lat="29.5348307" lon="103.332896"><ele>2497.46</ele><time>2026-06-13T12:53:57.000Z</time></trkpt>
        <trkpt lat="29.5347497" lon="103.3329524"><ele>2498.89</ele><time>2026-06-13T12:54:29.000Z</time></trkpt>
        <trkpt lat="29.5346634" lon="103.3330056"><ele>2499.53</ele><time>2026-06-13T12:54:57.000Z</time></trkpt>
        <trkpt lat="29.5346634" lon="103.3330056"><ele>2499.53</ele><time>2026-06-13T12:55:23.000Z</time></trkpt>
        <trkpt lat="29.5345704" lon="103.3330285"><ele>2501.51</ele><time>2026-06-13T12:55:54.000Z</time></trkpt>
        <trkpt lat="29.5345704" lon="103.3330285"><ele>2501.51</ele><time>2026-06-13T12:56:18.000Z</time></trkpt>
        <trkpt lat="29.534485" lon="103.3330633"><ele>2503.24</ele><time>2026-06-13T12:56:30.000Z</time></trkpt>
        <trkpt lat="29.5343974" lon="103.3331182"><ele>2505.84</ele><time>2026-06-13T12:56:50.000Z</time></trkpt>
        <trkpt lat="29.5343094" lon="103.3331691"><ele>2509</ele><time>2026-06-13T12:57:12.000Z</time></trkpt>
        <trkpt lat="29.5343094" lon="103.3331691"><ele>2509</ele><time>2026-06-13T12:57:35.000Z</time></trkpt>
        <trkpt lat="29.5343094" lon="103.3331691"><ele>2509</ele><time>2026-06-13T12:57:38.000Z</time></trkpt>
        <trkpt lat="29.5343094" lon="103.3331691"><ele>2509</ele><time>2026-06-13T12:57:55.000Z</time></trkpt>
        <trkpt lat="29.5343094" lon="103.3331691"><ele>2509</ele><time>2026-06-13T12:58:00.000Z</time></trkpt>
        <trkpt lat="29.5343094" lon="103.3331691"><ele>2509</ele><time>2026-06-13T12:58:31.000Z</time></trkpt>
        <trkpt lat="29.5342392" lon="103.3331052"><ele>2511.06</ele><time>2026-06-13T12:58:36.000Z</time></trkpt>
        <trkpt lat="29.5342392" lon="103.3331052"><ele>2511.06</ele><time>2026-06-13T12:58:44.000Z</time></trkpt>
        <trkpt lat="29.5341536" lon="103.3331442"><ele>2512.94</ele><time>2026-06-13T12:59:02.000Z</time></trkpt>
        <trkpt lat="29.5340677" lon="103.3331893"><ele>2514.96</ele><time>2026-06-13T12:59:34.000Z</time></trkpt>
        <trkpt lat="29.5339668" lon="103.333212"><ele>2518.34</ele><time>2026-06-13T12:59:56.000Z</time></trkpt>
        <trkpt lat="29.5339668" lon="103.333212"><ele>2518.34</ele><time>2026-06-13T13:00:27.000Z</time></trkpt>
        <trkpt lat="29.5338714" lon="103.3332087"><ele>2520.01</ele><time>2026-06-13T13:00:30.000Z</time></trkpt>
        <trkpt lat="29.5338714" lon="103.3332087"><ele>2520.01</ele><time>2026-06-13T13:00:36.000Z</time></trkpt>
        <trkpt lat="29.5338714" lon="103.3332087"><ele>2520.01</ele><time>2026-06-13T13:01:03.000Z</time></trkpt>
        <trkpt lat="29.5337958" lon="103.3331452"><ele>2522.82</ele><time>2026-06-13T13:01:06.000Z</time></trkpt>
        <trkpt lat="29.5337958" lon="103.3331452"><ele>2522.82</ele><time>2026-06-13T13:01:20.000Z</time></trkpt>
        <trkpt lat="29.5337958" lon="103.3331452"><ele>2522.82</ele><time>2026-06-13T13:01:33.000Z</time></trkpt>
        <trkpt lat="29.5337958" lon="103.3331452"><ele>2522.82</ele><time>2026-06-13T13:01:52.000Z</time></trkpt>
        <trkpt lat="29.5337958" lon="103.3331452"><ele>2522.82</ele><time>2026-06-13T13:02:11.000Z</time></trkpt>
        <trkpt lat="29.5337226" lon="103.3330672"><ele>2528.29</ele><time>2026-06-13T13:02:14.000Z</time></trkpt>
        <trkpt lat="29.5337226" lon="103.3330672"><ele>2528.29</ele><time>2026-06-13T13:02:25.000Z</time></trkpt>
        <trkpt lat="29.533657" lon="103.332986"><ele>2535.26</ele><time>2026-06-13T13:03:09.000Z</time></trkpt>
        <trkpt lat="29.533657" lon="103.332986"><ele>2535.26</ele><time>2026-06-13T13:03:33.000Z</time></trkpt>
        <trkpt lat="29.533577" lon="103.3329203"><ele>2543</ele><time>2026-06-13T13:03:46.000Z</time></trkpt>
        <trkpt lat="29.533577" lon="103.3329203"><ele>2543</ele><time>2026-06-13T13:03:49.000Z</time></trkpt>
        <trkpt lat="29.5335132" lon="103.3328441"><ele>2548.17</ele><time>2026-06-13T13:04:31.000Z</time></trkpt>
        <trkpt lat="29.5334427" lon="103.3327672"><ele>2551.16</ele><time>2026-06-13T13:04:47.000Z</time></trkpt>
        <trkpt lat="29.5334427" lon="103.3327672"><ele>2551.16</ele><time>2026-06-13T13:05:37.000Z</time></trkpt>
        <trkpt lat="29.5333449" lon="103.3327274"><ele>2554.29</ele><time>2026-06-13T13:06:02.000Z</time></trkpt>
        <trkpt lat="29.5333449" lon="103.3327274"><ele>2554.29</ele><time>2026-06-13T13:06:07.000Z</time></trkpt>
        <trkpt lat="29.5332627" lon="103.3326779"><ele>2558.55</ele><time>2026-06-13T13:06:27.000Z</time></trkpt>
        <trkpt lat="29.5332043" lon="103.3325925"><ele>2562.07</ele><time>2026-06-13T13:06:57.000Z</time></trkpt>
        <trkpt lat="29.5331279" lon="103.3325273"><ele>2565.39</ele><time>2026-06-13T13:07:45.000Z</time></trkpt>
        <trkpt lat="29.5330524" lon="103.3324659"><ele>2569.45</ele><time>2026-06-13T13:08:07.000Z</time></trkpt>
        <trkpt lat="29.5329835" lon="103.3323934"><ele>2572.29</ele><time>2026-06-13T13:08:25.000Z</time></trkpt>
        <trkpt lat="29.5329835" lon="103.3323934"><ele>2572.29</ele><time>2026-06-13T13:08:43.000Z</time></trkpt>
        <trkpt lat="29.5329075" lon="103.3323259"><ele>2575.2</ele><time>2026-06-13T13:08:46.000Z</time></trkpt>
        <trkpt lat="29.5329075" lon="103.3323259"><ele>2575.2</ele><time>2026-06-13T13:09:07.000Z</time></trkpt>
        <trkpt lat="29.5329075" lon="103.3323259"><ele>2575.2</ele><time>2026-06-13T13:09:23.000Z</time></trkpt>
        <trkpt lat="29.5328406" lon="103.3322462"><ele>2576.68</ele><time>2026-06-13T13:09:34.000Z</time></trkpt>
        <trkpt lat="29.5328406" lon="103.3322462"><ele>2576.68</ele><time>2026-06-13T13:09:49.000Z</time></trkpt>
        <trkpt lat="29.532782" lon="103.3321628"><ele>2578.71</ele><time>2026-06-13T13:10:17.000Z</time></trkpt>
        <trkpt lat="29.532782" lon="103.3321628"><ele>2578.71</ele><time>2026-06-13T13:11:05.000Z</time></trkpt>
        <trkpt lat="29.5327214" lon="103.3320785"><ele>2581.42</ele><time>2026-06-13T13:11:10.000Z</time></trkpt>
        <trkpt lat="29.5327214" lon="103.3320785"><ele>2581.42</ele><time>2026-06-13T13:11:15.000Z</time></trkpt>
        <trkpt lat="29.5327214" lon="103.3320785"><ele>2581.42</ele><time>2026-06-13T13:11:57.000Z</time></trkpt>
        <trkpt lat="29.5326636" lon="103.3319946"><ele>2584.77</ele><time>2026-06-13T13:12:04.000Z</time></trkpt>
        <trkpt lat="29.5326636" lon="103.3319946"><ele>2584.77</ele><time>2026-06-13T13:12:13.000Z</time></trkpt>
        <trkpt lat="29.5326636" lon="103.3319946"><ele>2584.77</ele><time>2026-06-13T13:12:51.000Z</time></trkpt>
        <trkpt lat="29.5326636" lon="103.3319946"><ele>2584.77</ele><time>2026-06-13T13:13:00.000Z</time></trkpt>
        <trkpt lat="29.5326636" lon="103.3319946"><ele>2584.77</ele><time>2026-06-13T13:13:17.000Z</time></trkpt>
        <trkpt lat="29.5326014" lon="103.3319154"><ele>2588.55</ele><time>2026-06-13T13:13:28.000Z</time></trkpt>
        <trkpt lat="29.5326014" lon="103.3319154"><ele>2588.55</ele><time>2026-06-13T13:13:45.000Z</time></trkpt>
        <trkpt lat="29.5326014" lon="103.3319154"><ele>2588.55</ele><time>2026-06-13T13:14:39.000Z</time></trkpt>
        <trkpt lat="29.5325556" lon="103.3318175"><ele>2592.01</ele><time>2026-06-13T13:14:40.000Z</time></trkpt>
        <trkpt lat="29.5325556" lon="103.3318175"><ele>2592.01</ele><time>2026-06-13T13:14:41.000Z</time></trkpt>
        <trkpt lat="29.5325556" lon="103.3318175"><ele>2592.01</ele><time>2026-06-13T13:15:19.000Z</time></trkpt>
        <trkpt lat="29.5325158" lon="103.3317193"><ele>2595.54</ele><time>2026-06-13T13:15:36.000Z</time></trkpt>
        <trkpt lat="29.5325158" lon="103.3317193"><ele>2595.54</ele><time>2026-06-13T13:15:41.000Z</time></trkpt>
        <trkpt lat="29.5325158" lon="103.3317193"><ele>2595.54</ele><time>2026-06-13T13:16:03.000Z</time></trkpt>
        <trkpt lat="29.532466" lon="103.3316306"><ele>2598.86</ele><time>2026-06-13T13:16:12.000Z</time></trkpt>
        <trkpt lat="29.532466" lon="103.3316306"><ele>2598.86</ele><time>2026-06-13T13:16:27.000Z</time></trkpt>
        <trkpt lat="29.532466" lon="103.3316306"><ele>2598.86</ele><time>2026-06-13T13:16:59.000Z</time></trkpt>
        <trkpt lat="29.532466" lon="103.3316306"><ele>2598.86</ele><time>2026-06-13T13:17:04.000Z</time></trkpt>
        <trkpt lat="29.532466" lon="103.3316306"><ele>2598.86</ele><time>2026-06-13T13:17:15.000Z</time></trkpt>
        <trkpt lat="29.5324276" lon="103.3315384"><ele>2603</ele><time>2026-06-13T13:17:20.000Z</time></trkpt>
        <trkpt lat="29.5324276" lon="103.3315384"><ele>2603</ele><time>2026-06-13T13:17:59.000Z</time></trkpt>
        <trkpt lat="29.5323986" lon="103.3314403"><ele>2608.41</ele><time>2026-06-13T13:18:19.000Z</time></trkpt>
        <trkpt lat="29.5323986" lon="103.3314403"><ele>2608.41</ele><time>2026-06-13T13:18:39.000Z</time></trkpt>
        <trkpt lat="29.5323817" lon="103.3313352"><ele>2612.58</ele><time>2026-06-13T13:19:02.000Z</time></trkpt>
        <trkpt lat="29.5323817" lon="103.3313352"><ele>2612.58</ele><time>2026-06-13T13:19:15.000Z</time></trkpt>
        <trkpt lat="29.5323419" lon="103.3312415"><ele>2617.16</ele><time>2026-06-13T13:19:45.000Z</time></trkpt>
        <trkpt lat="29.5322615" lon="103.3313209"><ele>2620.26</ele><time>2026-06-13T13:21:17.000Z</time></trkpt>
        <trkpt lat="29.5322092" lon="103.3314145"><ele>2624.82</ele><time>2026-06-13T13:21:37.000Z</time></trkpt>
        <trkpt lat="29.5322092" lon="103.3314145"><ele>2624.82</ele><time>2026-06-13T13:21:55.000Z</time></trkpt>
        <trkpt lat="29.5321478" lon="103.3313559"><ele>2628.68</ele><time>2026-06-13T13:22:08.000Z</time></trkpt>
        <trkpt lat="29.5321478" lon="103.3313559"><ele>2628.68</ele><time>2026-06-13T13:22:21.000Z</time></trkpt>
        <trkpt lat="29.5321249" lon="103.3312525"><ele>2631.33</ele><time>2026-06-13T13:22:39.000Z</time></trkpt>
        <trkpt lat="29.5321249" lon="103.3312525"><ele>2631.33</ele><time>2026-06-13T13:23:09.000Z</time></trkpt>
        <trkpt lat="29.5321332" lon="103.331138"><ele>2633.68</ele><time>2026-06-13T13:23:12.000Z</time></trkpt>
        <trkpt lat="29.5321332" lon="103.331138"><ele>2633.68</ele><time>2026-06-13T13:23:17.000Z</time></trkpt>
        <trkpt lat="29.5321367" lon="103.3310229"><ele>2637.74</ele><time>2026-06-13T13:23:33.000Z</time></trkpt>
        <trkpt lat="29.5321367" lon="103.3310229"><ele>2637.74</ele><time>2026-06-13T13:24:09.000Z</time></trkpt>
        <trkpt lat="29.5321419" lon="103.3309013"><ele>2640.88</ele><time>2026-06-13T13:24:14.000Z</time></trkpt>
        <trkpt lat="29.5321419" lon="103.3309013"><ele>2640.88</ele><time>2026-06-13T13:24:21.000Z</time></trkpt>
        <trkpt lat="29.5321266" lon="103.3307847"><ele>2642.62</ele><time>2026-06-13T13:24:33.000Z</time></trkpt>
        <trkpt lat="29.5321383" lon="103.3306693"><ele>2644.21</ele><time>2026-06-13T13:24:45.000Z</time></trkpt>
        <trkpt lat="29.53216" lon="103.3305608"><ele>2645.8</ele><time>2026-06-13T13:25:13.000Z</time></trkpt>
        <trkpt lat="29.5321094" lon="103.3304754"><ele>2646.95</ele><time>2026-06-13T13:26:14.000Z</time></trkpt>
        <trkpt lat="29.5321041" lon="103.3303716"><ele>2653.66</ele><time>2026-06-13T13:26:38.000Z</time></trkpt>
        <trkpt lat="29.5321138" lon="103.3302681"><ele>2656.25</ele><time>2026-06-13T13:27:10.000Z</time></trkpt>
        <trkpt lat="29.5320294" lon="103.3302394"><ele>2658.09</ele><time>2026-06-13T13:28:41.000Z</time></trkpt>
        <trkpt lat="29.5319782" lon="103.3303408"><ele>2662.44</ele><time>2026-06-13T13:29:02.000Z</time></trkpt>
        <trkpt lat="29.5319263" lon="103.3302751"><ele>2670.28</ele><time>2026-06-13T13:29:30.000Z</time></trkpt>
        <trkpt lat="29.5319263" lon="103.3302751"><ele>2670.28</ele><time>2026-06-13T13:29:59.000Z</time></trkpt>
        <trkpt lat="29.5318459" lon="103.3302268"><ele>2673.25</ele><time>2026-06-13T13:30:02.000Z</time></trkpt>
        <trkpt lat="29.5318459" lon="103.3302268"><ele>2673.25</ele><time>2026-06-13T13:30:24.000Z</time></trkpt>
        <trkpt lat="29.5318459" lon="103.3302268"><ele>2673.25</ele><time>2026-06-13T13:30:39.000Z</time></trkpt>
        <trkpt lat="29.5317812" lon="103.3301413"><ele>2676.67</ele><time>2026-06-13T13:30:46.000Z</time></trkpt>
        <trkpt lat="29.5317812" lon="103.3301413"><ele>2676.67</ele><time>2026-06-13T13:31:02.000Z</time></trkpt>
        <trkpt lat="29.5317118" lon="103.3300603"><ele>2681.42</ele><time>2026-06-13T13:31:18.000Z</time></trkpt>
        <trkpt lat="29.5317118" lon="103.3300603"><ele>2681.42</ele><time>2026-06-13T13:31:45.000Z</time></trkpt>
        <trkpt lat="29.5316308" lon="103.3300081"><ele>2684.95</ele><time>2026-06-13T13:31:50.000Z</time></trkpt>
        <trkpt lat="29.5316308" lon="103.3300081"><ele>2684.95</ele><time>2026-06-13T13:32:15.000Z</time></trkpt>
        <trkpt lat="29.5316308" lon="103.3300081"><ele>2684.95</ele><time>2026-06-13T13:32:33.000Z</time></trkpt>
        <trkpt lat="29.5315405" lon="103.3299649"><ele>2688.75</ele><time>2026-06-13T13:32:36.000Z</time></trkpt>
        <trkpt lat="29.5315405" lon="103.3299649"><ele>2688.75</ele><time>2026-06-13T13:32:58.000Z</time></trkpt>
        <trkpt lat="29.5314594" lon="103.3299054"><ele>2692.61</ele><time>2026-06-13T13:34:02.000Z</time></trkpt>
        <trkpt lat="29.5314594" lon="103.3299054"><ele>2692.61</ele><time>2026-06-13T13:34:15.000Z</time></trkpt>
        <trkpt lat="29.5313857" lon="103.3298446"><ele>2698.06</ele><time>2026-06-13T13:34:30.000Z</time></trkpt>
        <trkpt lat="29.5313857" lon="103.3298446"><ele>2698.06</ele><time>2026-06-13T13:35:14.000Z</time></trkpt>
        <trkpt lat="29.5313164" lon="103.3297677"><ele>2703.19</ele><time>2026-06-13T13:36:10.000Z</time></trkpt>
        <trkpt lat="29.5313164" lon="103.3297677"><ele>2703.19</ele><time>2026-06-13T13:36:45.000Z</time></trkpt>
        <trkpt lat="29.5312524" lon="103.329686"><ele>2709.86</ele><time>2026-06-13T13:36:46.000Z</time></trkpt>
        <trkpt lat="29.5312524" lon="103.329686"><ele>2709.86</ele><time>2026-06-13T13:37:12.000Z</time></trkpt>
        <trkpt lat="29.5312524" lon="103.329686"><ele>2709.86</ele><time>2026-06-13T13:37:31.000Z</time></trkpt>
        <trkpt lat="29.53119" lon="103.3296048"><ele>2714.57</ele><time>2026-06-13T13:37:34.000Z</time></trkpt>
        <trkpt lat="29.53119" lon="103.3296048"><ele>2714.57</ele><time>2026-06-13T13:37:50.000Z</time></trkpt>
        <trkpt lat="29.5311404" lon="103.3295095"><ele>2719.46</ele><time>2026-06-13T13:38:32.000Z</time></trkpt>
        <trkpt lat="29.5311058" lon="103.3294075"><ele>2724.55</ele><time>2026-06-13T13:38:58.000Z</time></trkpt>
        <trkpt lat="29.5310894" lon="103.3293022"><ele>2728.29</ele><time>2026-06-13T13:39:12.000Z</time></trkpt>
        <trkpt lat="29.5310733" lon="103.3291874"><ele>2731.66</ele><time>2026-06-13T13:39:43.000Z</time></trkpt>
        <trkpt lat="29.5310733" lon="103.3291874"><ele>2731.66</ele><time>2026-06-13T13:39:55.000Z</time></trkpt>
        <trkpt lat="29.5310538" lon="103.3290715"><ele>2732.6</ele><time>2026-06-13T13:40:04.000Z</time></trkpt>
        <trkpt lat="29.5310538" lon="103.3290715"><ele>2732.6</ele><time>2026-06-13T13:40:13.000Z</time></trkpt>
        <trkpt lat="29.5310502" lon="103.3289612"><ele>2734.96</ele><time>2026-06-13T13:40:23.000Z</time></trkpt>
        <trkpt lat="29.531066" lon="103.3288581"><ele>2738.63</ele><time>2026-06-13T13:40:37.000Z</time></trkpt>
        <trkpt lat="29.531088" lon="103.328753"><ele>2741.62</ele><time>2026-06-13T13:40:53.000Z</time></trkpt>
        <trkpt lat="29.5311069" lon="103.3286437"><ele>2743.7</ele><time>2026-06-13T13:41:23.000Z</time></trkpt>
        <trkpt lat="29.531129" lon="103.3285376"><ele>2746.01</ele><time>2026-06-13T13:41:39.000Z</time></trkpt>
        <trkpt lat="29.5311582" lon="103.3284366"><ele>2747.36</ele><time>2026-06-13T13:41:55.000Z</time></trkpt>
        <trkpt lat="29.5311962" lon="103.3283345"><ele>2749.05</ele><time>2026-06-13T13:42:16.000Z</time></trkpt>
        <trkpt lat="29.5312274" lon="103.328226"><ele>2749.41</ele><time>2026-06-13T13:42:26.000Z</time></trkpt>
        <trkpt lat="29.5312348" lon="103.3281094"><ele>2749.59</ele><time>2026-06-13T13:42:36.000Z</time></trkpt>
        <trkpt lat="29.5312314" lon="103.3279899"><ele>2750.17</ele><time>2026-06-13T13:42:48.000Z</time></trkpt>
        <trkpt lat="29.5312314" lon="103.3279899"><ele>2750.17</ele><time>2026-06-13T13:43:05.000Z</time></trkpt>
        <trkpt lat="29.5312392" lon="103.3278794"><ele>2751.48</ele><time>2026-06-13T13:43:08.000Z</time></trkpt>
        <trkpt lat="29.5312392" lon="103.3278794"><ele>2751.48</ele><time>2026-06-13T13:43:29.000Z</time></trkpt>
        <trkpt lat="29.5311788" lon="103.3278147"><ele>2753.4</ele><time>2026-06-13T13:43:57.000Z</time></trkpt>
        <trkpt lat="29.5311877" lon="103.3277327"><ele>2753.21</ele><time>2026-06-13T13:44:10.000Z</time></trkpt>
        <trkpt lat="29.5312087" lon="103.3276363"><ele>2757.05</ele><time>2026-06-13T13:44:26.000Z</time></trkpt>
        <trkpt lat="29.5312143" lon="103.3275299"><ele>2761.11</ele><time>2026-06-13T13:45:02.000Z</time></trkpt>
        <trkpt lat="29.5312084" lon="103.3274199"><ele>2765.25</ele><time>2026-06-13T13:45:34.000Z</time></trkpt>
        <trkpt lat="29.5312025" lon="103.3273119"><ele>2768.78</ele><time>2026-06-13T13:46:12.000Z</time></trkpt>
        <trkpt lat="29.5311983" lon="103.3272022"><ele>2771.74</ele><time>2026-06-13T13:46:52.000Z</time></trkpt>
        <trkpt lat="29.5311596" lon="103.3271056"><ele>2774.1</ele><time>2026-06-13T13:47:49.000Z</time></trkpt>
        <trkpt lat="29.5310798" lon="103.3270461"><ele>2777.17</ele><time>2026-06-13T13:48:13.000Z</time></trkpt>
        <trkpt lat="29.5309912" lon="103.3270005"><ele>2778.88</ele><time>2026-06-13T13:48:29.000Z</time></trkpt>
        <trkpt lat="29.5309912" lon="103.3270005"><ele>2778.88</ele><time>2026-06-13T13:48:47.000Z</time></trkpt>
        <trkpt lat="29.5308945" lon="103.3269602"><ele>2781.86</ele><time>2026-06-13T13:48:54.000Z</time></trkpt>
        <trkpt lat="29.5308945" lon="103.3269602"><ele>2781.86</ele><time>2026-06-13T13:48:59.000Z</time></trkpt>
        <trkpt lat="29.5307961" lon="103.3269336"><ele>2784.9</ele><time>2026-06-13T13:49:25.000Z</time></trkpt>
        <trkpt lat="29.5307635" lon="103.3268503"><ele>2787.03</ele><time>2026-06-13T13:49:55.000Z</time></trkpt>
        <trkpt lat="29.5306996" lon="103.3268548"><ele>2789.11</ele><time>2026-06-13T13:50:29.000Z</time></trkpt>
        <trkpt lat="29.5306996" lon="103.3268548"><ele>2789.11</ele><time>2026-06-13T13:50:43.000Z</time></trkpt>
        <trkpt lat="29.5306193" lon="103.3268918"><ele>2792.47</ele><time>2026-06-13T13:50:50.000Z</time></trkpt>
        <trkpt lat="29.5306193" lon="103.3268918"><ele>2792.47</ele><time>2026-06-13T13:51:07.000Z</time></trkpt>
        <trkpt lat="29.5306193" lon="103.3268918"><ele>2792.47</ele><time>2026-06-13T13:51:21.000Z</time></trkpt>
        <trkpt lat="29.5304942" lon="103.326902"><ele>2795.59</ele><time>2026-06-13T13:51:24.000Z</time></trkpt>
        <trkpt lat="29.5304942" lon="103.326902"><ele>2795.59</ele><time>2026-06-13T13:51:29.000Z</time></trkpt>
        <trkpt lat="29.5304007" lon="103.3269617"><ele>2799.18</ele><time>2026-06-13T13:52:19.000Z</time></trkpt>
        <trkpt lat="29.5304007" lon="103.3269617"><ele>2799.18</ele><time>2026-06-13T13:52:33.000Z</time></trkpt>
        <trkpt lat="29.5303175" lon="103.3270296"><ele>2804.56</ele><time>2026-06-13T13:52:40.000Z</time></trkpt>
        <trkpt lat="29.5303175" lon="103.3270296"><ele>2804.56</ele><time>2026-06-13T13:52:49.000Z</time></trkpt>
        <trkpt lat="29.5302228" lon="103.3270673"><ele>2809.89</ele><time>2026-06-13T13:53:13.000Z</time></trkpt>
        <trkpt lat="29.5301375" lon="103.3271185"><ele>2812.37</ele><time>2026-06-13T13:53:25.000Z</time></trkpt>
        <trkpt lat="29.530059" lon="103.3271745"><ele>2814.41</ele><time>2026-06-13T13:53:41.000Z</time></trkpt>
        <trkpt lat="29.5299807" lon="103.3272387"><ele>2816.1</ele><time>2026-06-13T13:53:51.000Z</time></trkpt>
        <trkpt lat="29.5299102" lon="103.3273075"><ele>2817.1</ele><time>2026-06-13T13:54:01.000Z</time></trkpt>
        <trkpt lat="29.5298549" lon="103.3273961"><ele>2818.06</ele><time>2026-06-13T13:54:11.000Z</time></trkpt>
        <trkpt lat="29.5298205" lon="103.3274978"><ele>2818.31</ele><time>2026-06-13T13:54:19.000Z</time></trkpt>
        <trkpt lat="29.5297875" lon="103.3276006"><ele>2818.28</ele><time>2026-06-13T13:54:27.000Z</time></trkpt>
        <trkpt lat="29.5297418" lon="103.3277001"><ele>2818.62</ele><time>2026-06-13T13:54:37.000Z</time></trkpt>
        <trkpt lat="29.5296816" lon="103.3277879"><ele>2818.91</ele><time>2026-06-13T13:54:47.000Z</time></trkpt>
        <trkpt lat="29.529598" lon="103.327825"><ele>2819.48</ele><time>2026-06-13T13:54:57.000Z</time></trkpt>
        <trkpt lat="29.5294944" lon="103.3278286"><ele>2819.56</ele><time>2026-06-13T13:55:07.000Z</time></trkpt>
        <trkpt lat="29.5293845" lon="103.3278056"><ele>2819.92</ele><time>2026-06-13T13:55:17.000Z</time></trkpt>
        <trkpt lat="29.5292907" lon="103.3277981"><ele>2820.37</ele><time>2026-06-13T13:55:31.000Z</time></trkpt>
        <trkpt lat="29.5292907" lon="103.3277981"><ele>2820.37</ele><time>2026-06-13T13:55:49.000Z</time></trkpt>
        <trkpt lat="29.5292332" lon="103.3278668"><ele>2821.22</ele><time>2026-06-13T13:55:50.000Z</time></trkpt>
        <trkpt lat="29.5292332" lon="103.3278668"><ele>2821.22</ele><time>2026-06-13T13:56:04.000Z</time></trkpt>
        <trkpt lat="29.5292026" lon="103.3279667"><ele>2821.26</ele><time>2026-06-13T13:56:28.000Z</time></trkpt>
        <trkpt lat="29.5292026" lon="103.3279667"><ele>2821.26</ele><time>2026-06-13T13:56:37.000Z</time></trkpt>
        <trkpt lat="29.5291959" lon="103.3280886"><ele>2821.9</ele><time>2026-06-13T13:56:50.000Z</time></trkpt>
        <trkpt lat="29.5291959" lon="103.3280886"><ele>2821.9</ele><time>2026-06-13T13:57:11.000Z</time></trkpt>
        <trkpt lat="29.5291777" lon="103.3282037"><ele>2827.6</ele><time>2026-06-13T13:57:23.000Z</time></trkpt>
        <trkpt lat="29.5291777" lon="103.3282037"><ele>2827.6</ele><time>2026-06-13T13:57:37.000Z</time></trkpt>
        <trkpt lat="29.5291394" lon="103.328305"><ele>2831.77</ele><time>2026-06-13T13:57:40.000Z</time></trkpt>
        <trkpt lat="29.5291394" lon="103.328305"><ele>2831.77</ele><time>2026-06-13T13:58:01.000Z</time></trkpt>
        <trkpt lat="29.5291266" lon="103.3284109"><ele>2834.74</ele><time>2026-06-13T13:58:29.000Z</time></trkpt>
        <trkpt lat="29.5291266" lon="103.3284109"><ele>2834.74</ele><time>2026-06-13T13:58:51.000Z</time></trkpt>
        <trkpt lat="29.5291113" lon="103.3285219"><ele>2835.48</ele><time>2026-06-13T13:58:56.000Z</time></trkpt>
        <trkpt lat="29.5291113" lon="103.3285219"><ele>2835.48</ele><time>2026-06-13T13:59:05.000Z</time></trkpt>
        <trkpt lat="29.5290606" lon="103.3286123"><ele>2839.87</ele><time>2026-06-13T13:59:59.000Z</time></trkpt>
        <trkpt lat="29.5290108" lon="103.3287012"><ele>2845.29</ele><time>2026-06-13T14:00:13.000Z</time></trkpt>
        <trkpt lat="29.5289644" lon="103.3287949"><ele>2847.15</ele><time>2026-06-13T14:00:25.000Z</time></trkpt>
        <trkpt lat="29.5289342" lon="103.328893"><ele>2848.67</ele><time>2026-06-13T14:00:39.000Z</time></trkpt>
        <trkpt lat="29.5288902" lon="103.3289932"><ele>2850.02</ele><time>2026-06-13T14:01:01.000Z</time></trkpt>
        <trkpt lat="29.5288386" lon="103.3290874"><ele>2851.87</ele><time>2026-06-13T14:01:13.000Z</time></trkpt>
        <trkpt lat="29.5287827" lon="103.3291769"><ele>2853.35</ele><time>2026-06-13T14:01:27.000Z</time></trkpt>
        <trkpt lat="29.528725" lon="103.3292648"><ele>2854.5</ele><time>2026-06-13T14:01:49.000Z</time></trkpt>
        <trkpt lat="29.5286759" lon="103.3293563"><ele>2855.25</ele><time>2026-06-13T14:02:01.000Z</time></trkpt>
        <trkpt lat="29.5286759" lon="103.3293563"><ele>2855.25</ele><time>2026-06-13T14:02:19.000Z</time></trkpt>
        <trkpt lat="29.5286309" lon="103.3294794"><ele>2856.23</ele><time>2026-06-13T14:02:22.000Z</time></trkpt>
        <trkpt lat="29.5286309" lon="103.3294794"><ele>2856.23</ele><time>2026-06-13T14:02:27.000Z</time></trkpt>
        <trkpt lat="29.5286309" lon="103.3294794"><ele>2856.23</ele><time>2026-06-13T14:02:53.000Z</time></trkpt>
        <trkpt lat="29.5285899" lon="103.3295931"><ele>2860.55</ele><time>2026-06-13T14:02:54.000Z</time></trkpt>
        <trkpt lat="29.5285899" lon="103.3295931"><ele>2860.55</ele><time>2026-06-13T14:02:58.000Z</time></trkpt>
        <trkpt lat="29.5285811" lon="103.3297115"><ele>2862.51</ele><time>2026-06-13T14:03:14.000Z</time></trkpt>
        <trkpt lat="29.5285793" lon="103.3298236"><ele>2865.2</ele><time>2026-06-13T14:03:28.000Z</time></trkpt>
        <trkpt lat="29.5285585" lon="103.3299364"><ele>2866.81</ele><time>2026-06-13T14:03:42.000Z</time></trkpt>
        <trkpt lat="29.5285089" lon="103.3300376"><ele>2868.13</ele><time>2026-06-13T14:03:54.000Z</time></trkpt>
        <trkpt lat="29.5284434" lon="103.3301262"><ele>2869.46</ele><time>2026-06-13T14:04:04.000Z</time></trkpt>
        <trkpt lat="29.528361" lon="103.3301953"><ele>2869.68</ele><time>2026-06-13T14:04:14.000Z</time></trkpt>
        <trkpt lat="29.5282953" lon="103.3302842"><ele>2868.24</ele><time>2026-06-13T14:04:24.000Z</time></trkpt>
        <trkpt lat="29.5283462" lon="103.3303338"><ele>2867.48</ele><time>2026-06-13T14:04:38.000Z</time></trkpt>
        <trkpt lat="29.5284011" lon="103.3303176"><ele>2865.71</ele><time>2026-06-13T14:04:44.000Z</time></trkpt>
        <trkpt lat="29.5284011" lon="103.3303176"><ele>2865.71</ele><time>2026-06-13T14:04:53.000Z</time></trkpt>
        <trkpt lat="29.5283264" lon="103.330383"><ele>2865.36</ele><time>2026-06-13T14:05:06.000Z</time></trkpt>
        <trkpt lat="29.5283264" lon="103.330383"><ele>2865.36</ele><time>2026-06-13T14:05:09.000Z</time></trkpt>
        <trkpt lat="29.528317" lon="103.3304804"><ele>2871.99</ele><time>2026-06-13T14:05:41.000Z</time></trkpt>
        <trkpt lat="29.5283142" lon="103.3305958"><ele>2872.92</ele><time>2026-06-13T14:06:05.000Z</time></trkpt>
        <trkpt lat="29.5283097" lon="103.3306288"><ele>2875.67</ele><time>2026-06-13T14:06:11.000Z</time></trkpt>
        <trkpt lat="29.5283097" lon="103.3306288"><ele>2875.67</ele><time>2026-06-13T14:06:25.000Z</time></trkpt>
        <trkpt lat="29.5282644" lon="103.3306974"><ele>2878.18</ele><time>2026-06-13T14:06:36.000Z</time></trkpt>
        <trkpt lat="29.5282644" lon="103.3306974"><ele>2878.18</ele><time>2026-06-13T14:07:03.000Z</time></trkpt>
        <trkpt lat="29.5282088" lon="103.3307793"><ele>2878.96</ele><time>2026-06-13T14:07:48.000Z</time></trkpt>
        <trkpt lat="29.5282088" lon="103.3307793"><ele>2878.96</ele><time>2026-06-13T14:08:15.000Z</time></trkpt>
        <trkpt lat="29.5281408" lon="103.3308599"><ele>2879.45</ele><time>2026-06-13T14:08:20.000Z</time></trkpt>
        <trkpt lat="29.5281408" lon="103.3308599"><ele>2879.45</ele><time>2026-06-13T14:08:33.000Z</time></trkpt>
        <trkpt lat="29.5280955" lon="103.3309583"><ele>2881.28</ele><time>2026-06-13T14:08:47.000Z</time></trkpt>
        <trkpt lat="29.5280613" lon="103.3310641"><ele>2883.66</ele><time>2026-06-13T14:09:05.000Z</time></trkpt>
        <trkpt lat="29.5280336" lon="103.3311762"><ele>2886.08</ele><time>2026-06-13T14:09:39.000Z</time></trkpt>
        <trkpt lat="29.5280336" lon="103.3311762"><ele>2886.08</ele><time>2026-06-13T14:10:15.000Z</time></trkpt>
        <trkpt lat="29.5279674" lon="103.3312658"><ele>2887.42</ele><time>2026-06-13T14:10:26.000Z</time></trkpt>
        <trkpt lat="29.5279674" lon="103.3312658"><ele>2887.42</ele><time>2026-06-13T14:10:31.000Z</time></trkpt>
        <trkpt lat="29.5278957" lon="103.3313402"><ele>2891.49</ele><time>2026-06-13T14:10:43.000Z</time></trkpt>
        <trkpt lat="29.5278164" lon="103.3314138"><ele>2893.8</ele><time>2026-06-13T14:11:01.000Z</time></trkpt>
        <trkpt lat="29.5278164" lon="103.3314138"><ele>2893.8</ele><time>2026-06-13T14:11:23.000Z</time></trkpt>
        <trkpt lat="29.5277649" lon="103.3315043"><ele>2895.29</ele><time>2026-06-13T14:11:26.000Z</time></trkpt>
        <trkpt lat="29.5277649" lon="103.3315043"><ele>2895.29</ele><time>2026-06-13T14:11:35.000Z</time></trkpt>
        <trkpt lat="29.5277649" lon="103.3315043"><ele>2895.29</ele><time>2026-06-13T14:11:49.000Z</time></trkpt>
        <trkpt lat="29.5277226" lon="103.3316006"><ele>2895.76</ele><time>2026-06-13T14:12:00.000Z</time></trkpt>
        <trkpt lat="29.5277226" lon="103.3316006"><ele>2895.76</ele><time>2026-06-13T14:12:11.000Z</time></trkpt>
        <trkpt lat="29.5277032" lon="103.3317159"><ele>2897.65</ele><time>2026-06-13T14:12:25.000Z</time></trkpt>
        <trkpt lat="29.5277032" lon="103.3317159"><ele>2897.65</ele><time>2026-06-13T14:12:47.000Z</time></trkpt>
        <trkpt lat="29.5277032" lon="103.3317159"><ele>2897.65</ele><time>2026-06-13T14:13:08.000Z</time></trkpt>
        <trkpt lat="29.5277032" lon="103.3317159"><ele>2897.65</ele><time>2026-06-13T14:13:19.000Z</time></trkpt>
        <trkpt lat="29.5277032" lon="103.3317159"><ele>2897.65</ele><time>2026-06-13T14:13:26.000Z</time></trkpt>
        <trkpt lat="29.5277032" lon="103.3317159"><ele>2897.65</ele><time>2026-06-13T14:13:49.000Z</time></trkpt>
        <trkpt lat="29.5277032" lon="103.3317159"><ele>2897.65</ele><time>2026-06-13T14:14:00.000Z</time></trkpt>
        <trkpt lat="29.5277032" lon="103.3317159"><ele>2897.65</ele><time>2026-06-13T14:14:13.000Z</time></trkpt>
        <trkpt lat="29.5277032" lon="103.3317159"><ele>2897.65</ele><time>2026-06-13T14:14:18.000Z</time></trkpt>
        <trkpt lat="29.5277032" lon="103.3317159"><ele>2897.65</ele><time>2026-06-13T14:14:29.000Z</time></trkpt>
        <trkpt lat="29.5277032" lon="103.3317159"><ele>2897.65</ele><time>2026-06-13T14:16:28.000Z</time></trkpt>
        <trkpt lat="29.5277032" lon="103.3317159"><ele>2897.65</ele><time>2026-06-13T14:17:03.000Z</time></trkpt>
        <trkpt lat="29.5277032" lon="103.3317159"><ele>2897.65</ele><time>2026-06-13T14:17:10.000Z</time></trkpt>
        <trkpt lat="29.5277032" lon="103.3317159"><ele>2897.65</ele><time>2026-06-13T14:17:21.000Z</time></trkpt>
        <trkpt lat="29.5277032" lon="103.3317159"><ele>2897.65</ele><time>2026-06-13T14:17:46.000Z</time></trkpt>
        <trkpt lat="29.5277032" lon="103.3317159"><ele>2897.65</ele><time>2026-06-13T14:17:59.000Z</time></trkpt>
        <trkpt lat="29.5277168" lon="103.3318392"><ele>2899.05</ele><time>2026-06-13T14:18:10.000Z</time></trkpt>
        <trkpt lat="29.5277168" lon="103.3318392"><ele>2899.05</ele><time>2026-06-13T14:18:23.000Z</time></trkpt>
        <trkpt lat="29.5277074" lon="103.3319524"><ele>2899.47</ele><time>2026-06-13T14:18:35.000Z</time></trkpt>
        <trkpt lat="29.5276661" lon="103.3320474"><ele>2900.93</ele><time>2026-06-13T14:18:51.000Z</time></trkpt>
        <trkpt lat="29.5276661" lon="103.3320474"><ele>2900.93</ele><time>2026-06-13T14:19:41.000Z</time></trkpt>
        <trkpt lat="29.5275648" lon="103.3320924"><ele>2901.05</ele><time>2026-06-13T14:19:48.000Z</time></trkpt>
        <trkpt lat="29.5275648" lon="103.3320924"><ele>2901.05</ele><time>2026-06-13T14:19:53.000Z</time></trkpt>
        <trkpt lat="29.5275493" lon="103.3321985"><ele>2906.38</ele><time>2026-06-13T14:20:17.000Z</time></trkpt>
        <trkpt lat="29.5275493" lon="103.3321985"><ele>2906.38</ele><time>2026-06-13T14:20:47.000Z</time></trkpt>
        <trkpt lat="29.5275721" lon="103.3323096"><ele>2908.27</ele><time>2026-06-13T14:20:50.000Z</time></trkpt>
        <trkpt lat="29.5275721" lon="103.3323096"><ele>2908.27</ele><time>2026-06-13T14:20:59.000Z</time></trkpt>
        <trkpt lat="29.5275216" lon="103.3324036"><ele>2911.1</ele><time>2026-06-13T14:21:15.000Z</time></trkpt>
        <trkpt lat="29.527504" lon="103.3324262"><ele>2912.84</ele><time>2026-06-13T14:21:17.000Z</time></trkpt>
        <trkpt lat="29.5274886" lon="103.3325097"><ele>2914.14</ele><time>2026-06-13T14:21:25.000Z</time></trkpt>
        <trkpt lat="29.5274886" lon="103.3325097"><ele>2914.14</ele><time>2026-06-13T14:22:07.000Z</time></trkpt>
        <trkpt lat="29.5273986" lon="103.3325177"><ele>2911.29</ele><time>2026-06-13T14:22:10.000Z</time></trkpt>
        <trkpt lat="29.5273986" lon="103.3325177"><ele>2911.29</ele><time>2026-06-13T14:22:30.000Z</time></trkpt>
        <trkpt lat="29.527436" lon="103.3326136"><ele>2912.97</ele><time>2026-06-13T14:22:45.000Z</time></trkpt>
        <trkpt lat="29.5274713" lon="103.3327193"><ele>2913.45</ele><time>2026-06-13T14:22:53.000Z</time></trkpt>
        <trkpt lat="29.5274827" lon="103.3328382"><ele>2913.58</ele><time>2026-06-13T14:23:03.000Z</time></trkpt>
        <trkpt lat="29.527485" lon="103.3329188"><ele>2915.01</ele><time>2026-06-13T14:23:13.000Z</time></trkpt>
        <trkpt lat="29.5274629" lon="103.3328497"><ele>2915.55</ele><time>2026-06-13T14:23:43.000Z</time></trkpt>
        <trkpt lat="29.5274495" lon="103.33273"><ele>2912.67</ele><time>2026-06-13T14:23:51.000Z</time></trkpt>
        <trkpt lat="29.5274105" lon="103.3325967"><ele>2910.79</ele><time>2026-06-13T14:24:01.000Z</time></trkpt>
        <trkpt lat="29.5273427" lon="103.3325028"><ele>2909.02</ele><time>2026-06-13T14:24:09.000Z</time></trkpt>
        <trkpt lat="29.527254" lon="103.3324313"><ele>2908.68</ele><time>2026-06-13T14:24:19.000Z</time></trkpt>
        <trkpt lat="29.5271864" lon="103.3323494"><ele>2908.77</ele><time>2026-06-13T14:24:27.000Z</time></trkpt>
        <trkpt lat="29.5271303" lon="103.3322622"><ele>2909.92</ele><time>2026-06-13T14:24:35.000Z</time></trkpt>
        <trkpt lat="29.5270731" lon="103.3323045"><ele>2910.42</ele><time>2026-06-13T14:24:47.000Z</time></trkpt>
        <trkpt lat="29.5270298" lon="103.3324049"><ele>2911.96</ele><time>2026-06-13T14:25:13.000Z</time></trkpt>
        <trkpt lat="29.5270303" lon="103.3325285"><ele>2914.97</ele><time>2026-06-13T14:25:29.000Z</time></trkpt>
        <trkpt lat="29.5270547" lon="103.3326527"><ele>2918.39</ele><time>2026-06-13T14:25:43.000Z</time></trkpt>
        <trkpt lat="29.5270721" lon="103.3327776"><ele>2920.84</ele><time>2026-06-13T14:25:55.000Z</time></trkpt>
        <trkpt lat="29.5270564" lon="103.3328856"><ele>2922.04</ele><time>2026-06-13T14:26:17.000Z</time></trkpt>
        <trkpt lat="29.5270443" lon="103.3329926"><ele>2923.22</ele><time>2026-06-13T14:26:31.000Z</time></trkpt>
        <trkpt lat="29.527073" lon="103.3330952"><ele>2924.59</ele><time>2026-06-13T14:26:43.000Z</time></trkpt>
        <trkpt lat="29.5271107" lon="103.3331962"><ele>2927.87</ele><time>2026-06-13T14:26:59.000Z</time></trkpt>
        <trkpt lat="29.5271004" lon="103.3333023"><ele>2929.56</ele><time>2026-06-13T14:27:25.000Z</time></trkpt>
        <trkpt lat="29.5270433" lon="103.3333804"><ele>2931.16</ele><time>2026-06-13T14:27:43.000Z</time></trkpt>
        <trkpt lat="29.5269516" lon="103.3334201"><ele>2931.15</ele><time>2026-06-13T14:27:59.000Z</time></trkpt>
        <trkpt lat="29.5269516" lon="103.3334201"><ele>2931.15</ele><time>2026-06-13T14:28:09.000Z</time></trkpt>
        <trkpt lat="29.5269516" lon="103.3334201"><ele>2931.15</ele><time>2026-06-13T14:28:14.000Z</time></trkpt>
        <trkpt lat="29.5269516" lon="103.3334201"><ele>2931.15</ele><time>2026-06-13T14:28:33.000Z</time></trkpt>
        <trkpt lat="29.5268618" lon="103.3334749"><ele>2931.65</ele><time>2026-06-13T14:28:44.000Z</time></trkpt>
        <trkpt lat="29.5268618" lon="103.3334749"><ele>2931.65</ele><time>2026-06-13T14:28:51.000Z</time></trkpt>
        <trkpt lat="29.5267634" lon="103.333493"><ele>2931.92</ele><time>2026-06-13T14:29:13.000Z</time></trkpt>
        <trkpt lat="29.5266681" lon="103.3335122"><ele>2935.02</ele><time>2026-06-13T14:29:45.000Z</time></trkpt>
        <trkpt lat="29.5266681" lon="103.3335122"><ele>2935.02</ele><time>2026-06-13T14:30:19.000Z</time></trkpt>
        <trkpt lat="29.5265788" lon="103.3335747"><ele>2939.69</ele><time>2026-06-13T14:30:24.000Z</time></trkpt>
        <trkpt lat="29.5265788" lon="103.3335747"><ele>2939.69</ele><time>2026-06-13T14:30:25.000Z</time></trkpt>
        <trkpt lat="29.5264892" lon="103.3335995"><ele>2940.9</ele><time>2026-06-13T14:30:49.000Z</time></trkpt>
        <trkpt lat="29.5264003" lon="103.3336249"><ele>2945.14</ele><time>2026-06-13T14:31:03.000Z</time></trkpt>
        <trkpt lat="29.5263179" lon="103.3336762"><ele>2948.38</ele><time>2026-06-13T14:31:15.000Z</time></trkpt>
        <trkpt lat="29.5262352" lon="103.3337335"><ele>2949.37</ele><time>2026-06-13T14:31:25.000Z</time></trkpt>
        <trkpt lat="29.5261488" lon="103.3337922"><ele>2949.84</ele><time>2026-06-13T14:31:37.000Z</time></trkpt>
        <trkpt lat="29.5260683" lon="103.333855"><ele>2949.85</ele><time>2026-06-13T14:32:01.000Z</time></trkpt>
        <trkpt lat="29.5259874" lon="103.3339128"><ele>2952.05</ele><time>2026-06-13T14:32:45.000Z</time></trkpt>
        <trkpt lat="29.5259874" lon="103.3339128"><ele>2952.05</ele><time>2026-06-13T14:33:07.000Z</time></trkpt>
        <trkpt lat="29.5258998" lon="103.3339606"><ele>2955.41</ele><time>2026-06-13T14:33:12.000Z</time></trkpt>
        <trkpt lat="29.5258998" lon="103.3339606"><ele>2955.41</ele><time>2026-06-13T14:33:19.000Z</time></trkpt>
        <trkpt lat="29.5258998" lon="103.3339606"><ele>2955.41</ele><time>2026-06-13T14:33:29.000Z</time></trkpt>
        <trkpt lat="29.5258087" lon="103.3339836"><ele>2956.61</ele><time>2026-06-13T14:33:32.000Z</time></trkpt>
        <trkpt lat="29.5258087" lon="103.3339836"><ele>2956.61</ele><time>2026-06-13T14:33:47.000Z</time></trkpt>
        <trkpt lat="29.5257261" lon="103.3340416"><ele>2960.23</ele><time>2026-06-13T14:33:59.000Z</time></trkpt>
        <trkpt lat="29.5256656" lon="103.3341297"><ele>2963.75</ele><time>2026-06-13T14:34:30.000Z</time></trkpt>
        <trkpt lat="29.525595" lon="103.3342061"><ele>2965.1</ele><time>2026-06-13T14:35:08.000Z</time></trkpt>
        <trkpt lat="29.5255374" lon="103.3342911"><ele>2965.86</ele><time>2026-06-13T14:35:33.000Z</time></trkpt>
        <trkpt lat="29.5254912" lon="103.334385"><ele>2966.37</ele><time>2026-06-13T14:35:48.000Z</time></trkpt>
        <trkpt lat="29.5254291" lon="103.3344461"><ele>2967.67</ele><time>2026-06-13T14:36:02.000Z</time></trkpt>
        <trkpt lat="29.5253627" lon="103.3345259"><ele>2970.01</ele><time>2026-06-13T14:36:28.000Z</time></trkpt>
        <trkpt lat="29.5252884" lon="103.3346089"><ele>2973.8</ele><time>2026-06-13T14:36:54.000Z</time></trkpt>
        <trkpt lat="29.5252228" lon="103.3346963"><ele>2977.71</ele><time>2026-06-13T14:37:14.000Z</time></trkpt>
        <trkpt lat="29.5251448" lon="103.3347545"><ele>2980.54</ele><time>2026-06-13T14:37:42.000Z</time></trkpt>
        <trkpt lat="29.525071" lon="103.3348185"><ele>2983.06</ele><time>2026-06-13T14:38:04.000Z</time></trkpt>
        <trkpt lat="29.5249814" lon="103.3348737"><ele>2983.77</ele><time>2026-06-13T14:38:30.000Z</time></trkpt>
        <trkpt lat="29.5249686" lon="103.3348025"><ele>2986.36</ele><time>2026-06-13T14:39:04.000Z</time></trkpt>
        <trkpt lat="29.5249647" lon="103.3346882"><ele>2985.66</ele><time>2026-06-13T14:39:37.000Z</time></trkpt>
        <trkpt lat="29.5249209" lon="103.3347152"><ele>2997.13</ele><time>2026-06-13T14:39:53.000Z</time></trkpt>
        <trkpt lat="29.5249209" lon="103.3347152"><ele>2997.13</ele><time>2026-06-13T14:40:07.000Z</time></trkpt>
        <trkpt lat="29.5248561" lon="103.3348256"><ele>2995.58</ele><time>2026-06-13T14:41:50.000Z</time></trkpt>
        <trkpt lat="29.5248561" lon="103.3348256"><ele>2995.58</ele><time>2026-06-13T14:41:55.000Z</time></trkpt>
        <trkpt lat="29.5248443" lon="103.3347943"><ele>2994.19</ele><time>2026-06-13T14:41:59.000Z</time></trkpt>
        <trkpt lat="29.5248789" lon="103.3347122"><ele>2992.52</ele><time>2026-06-13T14:42:15.000Z</time></trkpt>
        <trkpt lat="29.5248789" lon="103.3347122"><ele>2992.52</ele><time>2026-06-13T14:42:21.000Z</time></trkpt>
        <trkpt lat="29.5249178" lon="103.3347671"><ele>2992.87</ele><time>2026-06-13T14:42:22.000Z</time></trkpt>
        <trkpt lat="29.5249178" lon="103.3347671"><ele>2992.87</ele><time>2026-06-13T14:43:00.000Z</time></trkpt>
        <trkpt lat="29.5249178" lon="103.3347671"><ele>2992.87</ele><time>2026-06-13T14:43:25.000Z</time></trkpt>
        <trkpt lat="29.524737" lon="103.3347972"><ele>2991.44</ele><time>2026-06-13T14:51:51.000Z</time></trkpt>
        <trkpt lat="29.524737" lon="103.3347972"><ele>2991.44</ele><time>2026-06-13T14:51:54.000Z</time></trkpt>
        <trkpt lat="29.5246394" lon="103.334807"><ele>2987.36</ele><time>2026-06-13T14:52:17.000Z</time></trkpt>
        <trkpt lat="29.5246754" lon="103.3348804"><ele>2989.01</ele><time>2026-06-13T14:52:35.000Z</time></trkpt>
        <trkpt lat="29.5247366" lon="103.3349588"><ele>2989.7</ele><time>2026-06-13T14:52:51.000Z</time></trkpt>
        <trkpt lat="29.5247026" lon="103.3350236"><ele>2990.41</ele><time>2026-06-13T14:53:09.000Z</time></trkpt>
        <trkpt lat="29.5246373" lon="103.3349759"><ele>2989.33</ele><time>2026-06-13T14:53:21.000Z</time></trkpt>
        <trkpt lat="29.5246373" lon="103.3349759"><ele>2989.33</ele><time>2026-06-13T14:53:30.000Z</time></trkpt>
        <trkpt lat="29.5245928" lon="103.3348174"><ele>2987.64</ele><time>2026-06-13T14:54:35.000Z</time></trkpt>
        <trkpt lat="29.5245928" lon="103.3348174"><ele>2987.64</ele><time>2026-06-13T14:54:48.000Z</time></trkpt>
        <trkpt lat="29.5246892" lon="103.3348836"><ele>2989.21</ele><time>2026-06-13T14:54:56.000Z</time></trkpt>
        <trkpt lat="29.5246194" lon="103.3348821"><ele>2990.89</ele><time>2026-06-13T14:55:24.000Z</time></trkpt>
        <trkpt lat="29.5245162" lon="103.3348886"><ele>2992.33</ele><time>2026-06-13T14:55:34.000Z</time></trkpt>
        <trkpt lat="29.5244119" lon="103.3349061"><ele>2992.58</ele><time>2026-06-13T14:55:44.000Z</time></trkpt>
        <trkpt lat="29.5242989" lon="103.3349302"><ele>2993.16</ele><time>2026-06-13T14:55:56.000Z</time></trkpt>
        <trkpt lat="29.5241932" lon="103.3349284"><ele>2994.62</ele><time>2026-06-13T14:56:06.000Z</time></trkpt>
        <trkpt lat="29.5241797" lon="103.334848"><ele>2995.52</ele><time>2026-06-13T14:56:14.000Z</time></trkpt>
        <trkpt lat="29.5241815" lon="103.334779"><ele>2995.13</ele><time>2026-06-13T14:56:23.000Z</time></trkpt>
        <trkpt lat="29.5241316" lon="103.3348087"><ele>2994.27</ele><time>2026-06-13T14:56:45.000Z</time></trkpt>
        <trkpt lat="29.5240756" lon="103.334893"><ele>2992.89</ele><time>2026-06-13T14:56:55.000Z</time></trkpt>
        <trkpt lat="29.5239851" lon="103.3349247"><ele>2992.94</ele><time>2026-06-13T14:57:05.000Z</time></trkpt>
        <trkpt lat="29.5238871" lon="103.3349573"><ele>2992.75</ele><time>2026-06-13T14:57:21.000Z</time></trkpt>
        <trkpt lat="29.5237912" lon="103.3349435"><ele>2993.03</ele><time>2026-06-13T14:57:33.000Z</time></trkpt>
        <trkpt lat="29.5236983" lon="103.3349079"><ele>2993.18</ele><time>2026-06-13T14:57:45.000Z</time></trkpt>
        <trkpt lat="29.5236007" lon="103.3348989"><ele>2992.89</ele><time>2026-06-13T14:57:57.000Z</time></trkpt>
        <trkpt lat="29.5234986" lon="103.3348963"><ele>2993.03</ele><time>2026-06-13T14:58:11.000Z</time></trkpt>
        <trkpt lat="29.5233971" lon="103.3348781"><ele>2993.74</ele><time>2026-06-13T14:58:25.000Z</time></trkpt>
        <trkpt lat="29.5232984" lon="103.3348508"><ele>2995.1</ele><time>2026-06-13T14:58:35.000Z</time></trkpt>
        <trkpt lat="29.5232057" lon="103.3348168"><ele>2996.28</ele><time>2026-06-13T14:58:45.000Z</time></trkpt>
        <trkpt lat="29.5231198" lon="103.3347664"><ele>2997.45</ele><time>2026-06-13T14:58:55.000Z</time></trkpt>
        <trkpt lat="29.5230859" lon="103.3347381"><ele>2998.95</ele><time>2026-06-13T14:58:59.000Z</time></trkpt>
        <trkpt lat="29.5230206" lon="103.3347019"><ele>3000.21</ele><time>2026-06-13T14:59:24.000Z</time></trkpt>
        <trkpt lat="29.5229404" lon="103.3347221"><ele>3000.97</ele><time>2026-06-13T14:59:57.000Z</time></trkpt>
        <trkpt lat="29.5228473" lon="103.3347467"><ele>3001.08</ele><time>2026-06-13T15:00:15.000Z</time></trkpt>
        <trkpt lat="29.5227557" lon="103.3347737"><ele>3002.13</ele><time>2026-06-13T15:00:37.000Z</time></trkpt>
        <trkpt lat="29.5227557" lon="103.3347737"><ele>3002.13</ele><time>2026-06-13T15:01:06.000Z</time></trkpt>
        <trkpt lat="29.5227019" lon="103.3348545"><ele>3004.11</ele><time>2026-06-13T15:01:11.000Z</time></trkpt>
        <trkpt lat="29.5227019" lon="103.3348545"><ele>3004.11</ele><time>2026-06-13T15:01:28.000Z</time></trkpt>
        <trkpt lat="29.5227179" lon="103.3349576"><ele>3005.58</ele><time>2026-06-13T15:01:38.000Z</time></trkpt>
        <trkpt lat="29.522737" lon="103.3350775"><ele>3006.49</ele><time>2026-06-13T15:01:48.000Z</time></trkpt>
        <trkpt lat="29.5227391" lon="103.3352067"><ele>3007.69</ele><time>2026-06-13T15:02:13.000Z</time></trkpt>
        <trkpt lat="29.5227599" lon="103.3353297"><ele>3010.04</ele><time>2026-06-13T15:02:38.000Z</time></trkpt>
        <trkpt lat="29.522752" lon="103.3354422"><ele>3012.85</ele><time>2026-06-13T15:02:52.000Z</time></trkpt>
        <trkpt lat="29.5227687" lon="103.3355452"><ele>3015.58</ele><time>2026-06-13T15:03:06.000Z</time></trkpt>
        <trkpt lat="29.5227771" lon="103.3356481"><ele>3017.26</ele><time>2026-06-13T15:03:42.000Z</time></trkpt>
        <trkpt lat="29.5228076" lon="103.3357439"><ele>3018.67</ele><time>2026-06-13T15:04:15.000Z</time></trkpt>
        <trkpt lat="29.5228307" lon="103.3358447"><ele>3020.38</ele><time>2026-06-13T15:04:29.000Z</time></trkpt>
        <trkpt lat="29.5229024" lon="103.3358897"><ele>3022.13</ele><time>2026-06-13T15:04:41.000Z</time></trkpt>
        <trkpt lat="29.5229888" lon="103.3358647"><ele>3023.27</ele><time>2026-06-13T15:05:02.000Z</time></trkpt>
        <trkpt lat="29.5230387" lon="103.3359269"><ele>3025.52</ele><time>2026-06-13T15:05:24.000Z</time></trkpt>
        <trkpt lat="29.5231077" lon="103.3359998"><ele>3026.73</ele><time>2026-06-13T15:05:36.000Z</time></trkpt>
        <trkpt lat="29.5231284" lon="103.336099"><ele>3027.75</ele><time>2026-06-13T15:05:46.000Z</time></trkpt>
        <trkpt lat="29.5231434" lon="103.3362156"><ele>3028.34</ele><time>2026-06-13T15:06:02.000Z</time></trkpt>
        <trkpt lat="29.523146" lon="103.3363002"><ele>3028.81</ele><time>2026-06-13T15:06:12.000Z</time></trkpt>
        <trkpt lat="29.5231421" lon="103.3364008"><ele>3029.19</ele><time>2026-06-13T15:06:30.000Z</time></trkpt>
        <trkpt lat="29.5231463" lon="103.3365061"><ele>3029.08</ele><time>2026-06-13T15:06:40.000Z</time></trkpt>
        <trkpt lat="29.5231668" lon="103.3366105"><ele>3029.09</ele><time>2026-06-13T15:06:50.000Z</time></trkpt>
        <trkpt lat="29.5231594" lon="103.3367178"><ele>3028.96</ele><time>2026-06-13T15:07:02.000Z</time></trkpt>
        <trkpt lat="29.523099" lon="103.3367976"><ele>3029.88</ele><time>2026-06-13T15:07:19.000Z</time></trkpt>
        <trkpt lat="29.5230769" lon="103.3368922"><ele>3030.68</ele><time>2026-06-13T15:07:33.000Z</time></trkpt>
        <trkpt lat="29.5230775" lon="103.3370014"><ele>3031.11</ele><time>2026-06-13T15:07:51.000Z</time></trkpt>
        <trkpt lat="29.5230763" lon="103.3370575"><ele>3032.53</ele><time>2026-06-13T15:08:01.000Z</time></trkpt>
        <trkpt lat="29.5230942" lon="103.3371477"><ele>3033.9</ele><time>2026-06-13T15:08:21.000Z</time></trkpt>
        <trkpt lat="29.5230942" lon="103.3371477"><ele>3033.9</ele><time>2026-06-13T15:08:44.000Z</time></trkpt>
      </trkseg>
      <trkseg>
        <trkpt lat="29.5219239" lon="103.33677"><ele>3038.07</ele><time>2026-06-13T15:18:36.000Z</time></trkpt>
        <trkpt lat="29.521856" lon="103.3367155"><ele>3038.07</ele><time>2026-06-13T15:18:47.000Z</time></trkpt>
        <trkpt lat="29.5217969" lon="103.3366296"><ele>3037.85</ele><time>2026-06-13T15:18:57.000Z</time></trkpt>
        <trkpt lat="29.521735" lon="103.3365478"><ele>3036.8</ele><time>2026-06-13T15:19:07.000Z</time></trkpt>
        <trkpt lat="29.5217672" lon="103.3364609"><ele>3035.89</ele><time>2026-06-13T15:19:59.000Z</time></trkpt>
        <trkpt lat="29.5218054" lon="103.3363468"><ele>3034.31</ele><time>2026-06-13T15:20:16.000Z</time></trkpt>
        <trkpt lat="29.5218172" lon="103.3362266"><ele>3032.92</ele><time>2026-06-13T15:20:26.000Z</time></trkpt>
        <trkpt lat="29.521774" lon="103.336134"><ele>3033.65</ele><time>2026-06-13T15:20:34.000Z</time></trkpt>
        <trkpt lat="29.5216906" lon="103.3360572"><ele>3034.02</ele><time>2026-06-13T15:20:44.000Z</time></trkpt>
        <trkpt lat="29.5216118" lon="103.3359821"><ele>3034.49</ele><time>2026-06-13T15:20:52.000Z</time></trkpt>
        <trkpt lat="29.5215235" lon="103.3359189"><ele>3034.26</ele><time>2026-06-13T15:21:02.000Z</time></trkpt>
        <trkpt lat="29.5214565" lon="103.3358296"><ele>3033.91</ele><time>2026-06-13T15:21:10.000Z</time></trkpt>
        <trkpt lat="29.5213848" lon="103.3357416"><ele>3033.35</ele><time>2026-06-13T15:21:19.000Z</time></trkpt>
        <trkpt lat="29.5213848" lon="103.3357416"><ele>3033.35</ele><time>2026-06-13T15:21:42.000Z</time></trkpt>
        <trkpt lat="29.5213352" lon="103.3356452"><ele>3032.65</ele><time>2026-06-13T15:21:45.000Z</time></trkpt>
        <trkpt lat="29.5213352" lon="103.3356452"><ele>3032.65</ele><time>2026-06-13T15:22:11.000Z</time></trkpt>
        <trkpt lat="29.5212568" lon="103.3355685"><ele>3032.71</ele><time>2026-06-13T15:22:19.000Z</time></trkpt>
        <trkpt lat="29.5212023" lon="103.3354685"><ele>3032.84</ele><time>2026-06-13T15:22:29.000Z</time></trkpt>
        <trkpt lat="29.5211825" lon="103.3353601"><ele>3032.4</ele><time>2026-06-13T15:22:43.000Z</time></trkpt>
        <trkpt lat="29.5211386" lon="103.3352622"><ele>3030.61</ele><time>2026-06-13T15:22:55.000Z</time></trkpt>
        <trkpt lat="29.5211907" lon="103.3351906"><ele>3028.49</ele><time>2026-06-13T15:23:25.000Z</time></trkpt>
        <trkpt lat="29.5211789" lon="103.3351599"><ele>3025.36</ele><time>2026-06-13T15:23:39.000Z</time></trkpt>
        <trkpt lat="29.521247" lon="103.335172"><ele>3022.28</ele><time>2026-06-13T15:24:05.000Z</time></trkpt>
        <trkpt lat="29.521223" lon="103.3352418"><ele>3020.44</ele><time>2026-06-13T15:24:11.000Z</time></trkpt>
        <trkpt lat="29.5211935" lon="103.3353163"><ele>3019.59</ele><time>2026-06-13T15:24:23.000Z</time></trkpt>
        <trkpt lat="29.5212225" lon="103.3354208"><ele>3022.3</ele><time>2026-06-13T15:24:49.000Z</time></trkpt>
        <trkpt lat="29.5212225" lon="103.3354208"><ele>3022.3</ele><time>2026-06-13T15:25:30.000Z</time></trkpt>
        <trkpt lat="29.5212225" lon="103.3354208"><ele>3022.3</ele><time>2026-06-13T15:25:41.000Z</time></trkpt>
        <trkpt lat="29.5212225" lon="103.3354208"><ele>3022.3</ele><time>2026-06-13T15:25:50.000Z</time></trkpt>
        <trkpt lat="29.5212548" lon="103.3355633"><ele>3025.27</ele><time>2026-06-13T15:26:01.000Z</time></trkpt>
        <trkpt lat="29.5212548" lon="103.3355633"><ele>3025.27</ele><time>2026-06-13T15:27:17.000Z</time></trkpt>
        <trkpt lat="29.521336" lon="103.335638"><ele>3027.45</ele><time>2026-06-13T15:27:29.000Z</time></trkpt>
        <trkpt lat="29.5213944" lon="103.3357295"><ele>3029.24</ele><time>2026-06-13T15:28:07.000Z</time></trkpt>
        <trkpt lat="29.5214569" lon="103.3358087"><ele>3030.24</ele><time>2026-06-13T15:28:17.000Z</time></trkpt>
        <trkpt lat="29.5215307" lon="103.3358909"><ele>3031.12</ele><time>2026-06-13T15:28:41.000Z</time></trkpt>
        <trkpt lat="29.5215916" lon="103.3359739"><ele>3031.87</ele><time>2026-06-13T15:29:25.000Z</time></trkpt>
        <trkpt lat="29.5216572" lon="103.3360532"><ele>3032.87</ele><time>2026-06-13T15:29:43.000Z</time></trkpt>
        <trkpt lat="29.5216771" lon="103.3360892"><ele>3033.49</ele><time>2026-06-13T15:29:47.000Z</time></trkpt>
        <trkpt lat="29.5217417" lon="103.3361466"><ele>3033.94</ele><time>2026-06-13T15:29:59.000Z</time></trkpt>
        <trkpt lat="29.5218179" lon="103.3362136"><ele>3033.8</ele><time>2026-06-13T15:30:13.000Z</time></trkpt>
        <trkpt lat="29.5218446" lon="103.3363251"><ele>3033.05</ele><time>2026-06-13T15:30:30.000Z</time></trkpt>
        <trkpt lat="29.521916" lon="103.3363476"><ele>3032.41</ele><time>2026-06-13T15:31:14.000Z</time></trkpt>
        <trkpt lat="29.5220067" lon="103.3363374"><ele>3033.6</ele><time>2026-06-13T15:31:22.000Z</time></trkpt>
        <trkpt lat="29.522081" lon="103.3363935"><ele>3033.75</ele><time>2026-06-13T15:31:32.000Z</time></trkpt>
        <trkpt lat="29.5221665" lon="103.336396"><ele>3032.6</ele><time>2026-06-13T15:31:40.000Z</time></trkpt>
        <trkpt lat="29.522262" lon="103.3363652"><ele>3032.24</ele><time>2026-06-13T15:31:48.000Z</time></trkpt>
        <trkpt lat="29.5223714" lon="103.3363403"><ele>3032.36</ele><time>2026-06-13T15:31:58.000Z</time></trkpt>
        <trkpt lat="29.5224598" lon="103.336332"><ele>3032.84</ele><time>2026-06-13T15:32:07.000Z</time></trkpt>
        <trkpt lat="29.5225422" lon="103.3362924"><ele>3033.11</ele><time>2026-06-13T15:32:21.000Z</time></trkpt>
        <trkpt lat="29.522562" lon="103.3362618"><ele>3032.62</ele><time>2026-06-13T15:32:25.000Z</time></trkpt>
        <trkpt lat="29.5226244" lon="103.3362092"><ele>3032.39</ele><time>2026-06-13T15:33:17.000Z</time></trkpt>
        <trkpt lat="29.5226926" lon="103.3361327"><ele>3031.67</ele><time>2026-06-13T15:33:25.000Z</time></trkpt>
        <trkpt lat="29.5227694" lon="103.3360499"><ele>3031.31</ele><time>2026-06-13T15:33:35.000Z</time></trkpt>
        <trkpt lat="29.5228537" lon="103.335993"><ele>3030.79</ele><time>2026-06-13T15:33:45.000Z</time></trkpt>
        <trkpt lat="29.5229023" lon="103.3359674"><ele>3030.54</ele><time>2026-06-13T15:33:52.000Z</time></trkpt>
        <trkpt lat="29.5229861" lon="103.3359461"><ele>3030.47</ele><time>2026-06-13T15:34:04.000Z</time></trkpt>
        <trkpt lat="29.5230706" lon="103.3359973"><ele>3029.97</ele><time>2026-06-13T15:34:14.000Z</time></trkpt>
        <trkpt lat="29.5231324" lon="103.3360903"><ele>3030.05</ele><time>2026-06-13T15:34:24.000Z</time></trkpt>
        <trkpt lat="29.5231874" lon="103.3361865"><ele>3030.18</ele><time>2026-06-13T15:34:40.000Z</time></trkpt>
        <trkpt lat="29.5231826" lon="103.3362986"><ele>3030.6</ele><time>2026-06-13T15:34:52.000Z</time></trkpt>
        <trkpt lat="29.5232304" lon="103.3363964"><ele>3031.01</ele><time>2026-06-13T15:35:04.000Z</time></trkpt>
        <trkpt lat="29.5233186" lon="103.3364426"><ele>3031.23</ele><time>2026-06-13T15:35:16.000Z</time></trkpt>
        <trkpt lat="29.5234226" lon="103.3364409"><ele>3031.3</ele><time>2026-06-13T15:35:28.000Z</time></trkpt>
        <trkpt lat="29.5235223" lon="103.3364153"><ele>3030.65</ele><time>2026-06-13T15:35:44.000Z</time></trkpt>
        <trkpt lat="29.5236277" lon="103.3364073"><ele>3029.7</ele><time>2026-06-13T15:35:56.000Z</time></trkpt>
        <trkpt lat="29.5237333" lon="103.3364037"><ele>3029.16</ele><time>2026-06-13T15:36:16.000Z</time></trkpt>
        <trkpt lat="29.5238279" lon="103.3364238"><ele>3029.16</ele><time>2026-06-13T15:36:32.000Z</time></trkpt>
        <trkpt lat="29.5239239" lon="103.3364525"><ele>3029.05</ele><time>2026-06-13T15:37:00.000Z</time></trkpt>
        <trkpt lat="29.5240129" lon="103.3364341"><ele>3027.74</ele><time>2026-06-13T15:37:14.000Z</time></trkpt>
        <trkpt lat="29.5241062" lon="103.3364054"><ele>3026.13</ele><time>2026-06-13T15:37:28.000Z</time></trkpt>
        <trkpt lat="29.5242036" lon="103.3364204"><ele>3024.32</ele><time>2026-06-13T15:37:39.000Z</time></trkpt>
        <trkpt lat="29.5242435" lon="103.3364562"><ele>3022.05</ele><time>2026-06-13T15:37:45.000Z</time></trkpt>
        <trkpt lat="29.5242435" lon="103.3364562"><ele>3022.05</ele><time>2026-06-13T15:37:54.000Z</time></trkpt>
        <trkpt lat="29.5242612" lon="103.3363876"><ele>3020.82</ele><time>2026-06-13T15:37:55.000Z</time></trkpt>
        <trkpt lat="29.5242612" lon="103.3363876"><ele>3020.82</ele><time>2026-06-13T15:38:26.000Z</time></trkpt>
        <trkpt lat="29.5243041" lon="103.3363017"><ele>3019.73</ele><time>2026-06-13T15:38:38.000Z</time></trkpt>
        <trkpt lat="29.5243724" lon="103.336218"><ele>3018.41</ele><time>2026-06-13T15:38:54.000Z</time></trkpt>
        <trkpt lat="29.5244427" lon="103.3361366"><ele>3015.95</ele><time>2026-06-13T15:39:28.000Z</time></trkpt>
        <trkpt lat="29.5245166" lon="103.3360529"><ele>3013.5</ele><time>2026-06-13T15:39:40.000Z</time></trkpt>
        <trkpt lat="29.5245901" lon="103.3359813"><ele>3011.27</ele><time>2026-06-13T15:39:52.000Z</time></trkpt>
        <trkpt lat="29.5246683" lon="103.3359046"><ele>3009.14</ele><time>2026-06-13T15:40:10.000Z</time></trkpt>
        <trkpt lat="29.5247527" lon="103.3358384"><ele>3007.77</ele><time>2026-06-13T15:40:22.000Z</time></trkpt>
        <trkpt lat="29.5248459" lon="103.3358479"><ele>3006.91</ele><time>2026-06-13T15:40:32.000Z</time></trkpt>
        <trkpt lat="29.5249228" lon="103.3358097"><ele>3007.88</ele><time>2026-06-13T15:40:42.000Z</time></trkpt>
        <trkpt lat="29.525014" lon="103.335818"><ele>3007.36</ele><time>2026-06-13T15:40:54.000Z</time></trkpt>
        <trkpt lat="29.525117" lon="103.3358226"><ele>3007.19</ele><time>2026-06-13T15:41:06.000Z</time></trkpt>
        <trkpt lat="29.525117" lon="103.3358226"><ele>3007.19</ele><time>2026-06-13T15:41:13.000Z</time></trkpt>
      </trkseg>
  </trk>
</gpx>